<?xml version="1.0" encoding="utf-8"?>
<gpx xmlns:xsi="http://www.w3.org/2001/XMLSchema-instance" xmlns:xsd="http://www.w3.org/2001/XMLSchema" xsi:schemaLocation="http://www.topografix.com/GPX/1/1 http://www.topografix.com/GPX/1/1/gpx.xsd" version="1.1" creator="SportTracks 3.1" xmlns="http://www.topografix.com/GPX/1/1">
 <metadata />
 <trk>
  <name />
  <cmt />
  <trkseg>
   <trkpt lat="46.0288200378418" lon="7.14700603485107">
    <ele>906.799987792969</ele>
    <time>2012-06-25T14:35:30Z</time>
   </trkpt>
   <trkpt lat="46.0288200378418" lon="7.14700603485107">
    <ele>906.895629882812</ele>
    <time>2012-06-25T14:35:31Z</time>
   </trkpt>
   <trkpt lat="46.0288162231445" lon="7.14700269699097">
    <ele>907.086975097656</ele>
    <time>2012-06-25T14:35:33Z</time>
   </trkpt>
   <trkpt lat="46.0288047790527" lon="7.14699268341064">
    <ele>907.1826171875</ele>
    <time>2012-06-25T14:35:34Z</time>
   </trkpt>
   <trkpt lat="46.0287704467773" lon="7.14697313308716">
    <ele>907.373901367188</ele>
    <time>2012-06-25T14:35:36Z</time>
   </trkpt>
   <trkpt lat="46.0286827087402" lon="7.14701271057129">
    <ele>907.756530761719</ele>
    <time>2012-06-25T14:35:40Z</time>
   </trkpt>
   <trkpt lat="46.0286598205566" lon="7.14701986312866">
    <ele>907.852172851562</ele>
    <time>2012-06-25T14:35:41Z</time>
   </trkpt>
   <trkpt lat="46.0285530090332" lon="7.14706802368164">
    <ele>908.330444335938</ele>
    <time>2012-06-25T14:35:46Z</time>
   </trkpt>
   <trkpt lat="46.0284614562988" lon="7.14708948135376">
    <ele>908.713012695312</ele>
    <time>2012-06-25T14:35:50Z</time>
   </trkpt>
   <trkpt lat="46.0284385681152" lon="7.14708757400513">
    <ele>908.808715820312</ele>
    <time>2012-06-25T14:35:51Z</time>
   </trkpt>
   <trkpt lat="46.0284118652344" lon="7.14708709716797">
    <ele>908.904357910156</ele>
    <time>2012-06-25T14:35:52Z</time>
   </trkpt>
   <trkpt lat="46.0283851623535" lon="7.14708185195923">
    <ele>909</ele>
    <time>2012-06-25T14:35:53Z</time>
   </trkpt>
   <trkpt lat="46.0283088684082" lon="7.14706420898438">
    <ele>909</ele>
    <time>2012-06-25T14:35:57Z</time>
   </trkpt>
   <trkpt lat="46.0282897949219" lon="7.14705753326416">
    <ele>909.191284179688</ele>
    <time>2012-06-25T14:35:58Z</time>
   </trkpt>
   <trkpt lat="46.0281448364258" lon="7.14703178405762">
    <ele>910.147827148438</ele>
    <time>2012-06-25T14:36:03Z</time>
   </trkpt>
   <trkpt lat="46.0280799865723" lon="7.14703416824341">
    <ele>910.721740722656</ele>
    <time>2012-06-25T14:36:06Z</time>
   </trkpt>
   <trkpt lat="46.0280609130859" lon="7.14703416824341">
    <ele>910.913024902344</ele>
    <time>2012-06-25T14:36:07Z</time>
   </trkpt>
   <trkpt lat="46.0280342102051" lon="7.14703464508057">
    <ele>911.104370117188</ele>
    <time>2012-06-25T14:36:08Z</time>
   </trkpt>
   <trkpt lat="46.0280113220215" lon="7.14703559875488">
    <ele>911.295654296875</ele>
    <time>2012-06-25T14:36:09Z</time>
   </trkpt>
   <trkpt lat="46.0279884338379" lon="7.14704132080078">
    <ele>911.486999511719</ele>
    <time>2012-06-25T14:36:10Z</time>
   </trkpt>
   <trkpt lat="46.0278434753418" lon="7.14706039428711">
    <ele>912.826110839844</ele>
    <time>2012-06-25T14:36:17Z</time>
   </trkpt>
   <trkpt lat="46.0278205871582" lon="7.14706707000732">
    <ele>913.017395019531</ele>
    <time>2012-06-25T14:36:18Z</time>
   </trkpt>
   <trkpt lat="46.0277938842773" lon="7.14707517623901">
    <ele>913.208740234375</ele>
    <time>2012-06-25T14:36:19Z</time>
   </trkpt>
   <trkpt lat="46.0277671813965" lon="7.1470832824707">
    <ele>913.400024414062</ele>
    <time>2012-06-25T14:36:20Z</time>
   </trkpt>
   <trkpt lat="46.027645111084" lon="7.1470627784729">
    <ele>913.400024414062</ele>
    <time>2012-06-25T14:36:24Z</time>
   </trkpt>
   <trkpt lat="46.0276184082031" lon="7.14705514907837">
    <ele>913.566711425781</ele>
    <time>2012-06-25T14:36:25Z</time>
   </trkpt>
   <trkpt lat="46.0275650024414" lon="7.14703273773193">
    <ele>913.900024414062</ele>
    <time>2012-06-25T14:36:27Z</time>
   </trkpt>
   <trkpt lat="46.0275077819824" lon="7.1470193862915">
    <ele>914.233337402344</ele>
    <time>2012-06-25T14:36:29Z</time>
   </trkpt>
   <trkpt lat="46.0274505615234" lon="7.14701843261719">
    <ele>914.566711425781</ele>
    <time>2012-06-25T14:36:31Z</time>
   </trkpt>
   <trkpt lat="46.0274200439453" lon="7.14701700210571">
    <ele>914.733337402344</ele>
    <time>2012-06-25T14:36:32Z</time>
   </trkpt>
   <trkpt lat="46.0273933410644" lon="7.14701318740845">
    <ele>914.900024414062</ele>
    <time>2012-06-25T14:36:33Z</time>
   </trkpt>
   <trkpt lat="46.0273666381836" lon="7.14700794219971">
    <ele>915.066711425781</ele>
    <time>2012-06-25T14:36:34Z</time>
   </trkpt>
   <trkpt lat="46.0273399353027" lon="7.14700412750244">
    <ele>915.233337402344</ele>
    <time>2012-06-25T14:36:35Z</time>
   </trkpt>
   <trkpt lat="46.0273094177246" lon="7.14699745178223">
    <ele>915.400024414062</ele>
    <time>2012-06-25T14:36:36Z</time>
   </trkpt>
   <trkpt lat="46.0272598266602" lon="7.14698505401611">
    <ele>915.400024414062</ele>
    <time>2012-06-25T14:36:38Z</time>
   </trkpt>
   <trkpt lat="46.0270957946777" lon="7.14697742462158">
    <ele>916.719970703125</ele>
    <time>2012-06-25T14:36:44Z</time>
   </trkpt>
   <trkpt lat="46.0270690917969" lon="7.14697408676148">
    <ele>916.940002441406</ele>
    <time>2012-06-25T14:36:45Z</time>
   </trkpt>
   <trkpt lat="46.027042388916" lon="7.14697313308716">
    <ele>917.159973144531</ele>
    <time>2012-06-25T14:36:46Z</time>
   </trkpt>
   <trkpt lat="46.0270156860352" lon="7.14697504043579">
    <ele>917.380004882812</ele>
    <time>2012-06-25T14:36:47Z</time>
   </trkpt>
   <trkpt lat="46.0269889831543" lon="7.14697217941284">
    <ele>917.599975585938</ele>
    <time>2012-06-25T14:36:48Z</time>
   </trkpt>
   <trkpt lat="46.0268669128418" lon="7.14696264266968">
    <ele>917.599975585938</ele>
    <time>2012-06-25T14:36:52Z</time>
   </trkpt>
   <trkpt lat="46.026782989502" lon="7.14696741104126">
    <ele>918.542846679688</ele>
    <time>2012-06-25T14:36:55Z</time>
   </trkpt>
   <trkpt lat="46.0267562866211" lon="7.14697074890137">
    <ele>918.857116699219</ele>
    <time>2012-06-25T14:36:56Z</time>
   </trkpt>
   <trkpt lat="46.0267295837402" lon="7.14697027206421">
    <ele>919.17138671875</ele>
    <time>2012-06-25T14:36:57Z</time>
   </trkpt>
   <trkpt lat="46.0266990661621" lon="7.14696788787842">
    <ele>919.485717773438</ele>
    <time>2012-06-25T14:36:58Z</time>
   </trkpt>
   <trkpt lat="46.0266723632812" lon="7.14696788787842">
    <ele>919.799987792969</ele>
    <time>2012-06-25T14:36:59Z</time>
   </trkpt>
   <trkpt lat="46.0266418457031" lon="7.14697027206421">
    <ele>919.799987792969</ele>
    <time>2012-06-25T14:37:00Z</time>
   </trkpt>
   <trkpt lat="46.0265579223633" lon="7.14697074890137">
    <ele>920.307678222656</ele>
    <time>2012-06-25T14:37:03Z</time>
   </trkpt>
   <trkpt lat="46.0264472961426" lon="7.14698362350464">
    <ele>920.984619140625</ele>
    <time>2012-06-25T14:37:07Z</time>
   </trkpt>
   <trkpt lat="46.0263938903809" lon="7.14699220657349">
    <ele>921.323059082031</ele>
    <time>2012-06-25T14:37:09Z</time>
   </trkpt>
   <trkpt lat="46.0263633728027" lon="7.14699983596802">
    <ele>921.492309570312</ele>
    <time>2012-06-25T14:37:10Z</time>
   </trkpt>
   <trkpt lat="46.0263366699219" lon="7.1470046043396">
    <ele>921.661560058594</ele>
    <time>2012-06-25T14:37:11Z</time>
   </trkpt>
   <trkpt lat="46.0263061523438" lon="7.14700698852539">
    <ele>921.830749511719</ele>
    <time>2012-06-25T14:37:12Z</time>
   </trkpt>
   <trkpt lat="46.0262794494629" lon="7.14700841903686">
    <ele>922</ele>
    <time>2012-06-25T14:37:13Z</time>
   </trkpt>
   <trkpt lat="46.0262222290039" lon="7.14701414108276">
    <ele>922</ele>
    <time>2012-06-25T14:37:15Z</time>
   </trkpt>
   <trkpt lat="46.0260353088379" lon="7.14704418182373">
    <ele>923.586669921875</ele>
    <time>2012-06-25T14:37:22Z</time>
   </trkpt>
   <trkpt lat="46.026008605957" lon="7.14704656600952">
    <ele>923.813354492188</ele>
    <time>2012-06-25T14:37:23Z</time>
   </trkpt>
   <trkpt lat="46.0259819030762" lon="7.14704990386963">
    <ele>924.039978027344</ele>
    <time>2012-06-25T14:37:24Z</time>
   </trkpt>
   <trkpt lat="46.0259552001953" lon="7.14704895019531">
    <ele>924.266662597656</ele>
    <time>2012-06-25T14:37:25Z</time>
   </trkpt>
   <trkpt lat="46.0259246826172" lon="7.14704847335815">
    <ele>924.493347167969</ele>
    <time>2012-06-25T14:37:26Z</time>
   </trkpt>
   <trkpt lat="46.0258445739746" lon="7.14705801010132">
    <ele>925.17333984375</ele>
    <time>2012-06-25T14:37:29Z</time>
   </trkpt>
   <trkpt lat="46.0258178710938" lon="7.14706039428711">
    <ele>925.400024414062</ele>
    <time>2012-06-25T14:37:30Z</time>
   </trkpt>
   <trkpt lat="46.0257911682129" lon="7.14706230163574">
    <ele>925.626647949219</ele>
    <time>2012-06-25T14:37:31Z</time>
   </trkpt>
   <trkpt lat="46.025764465332" lon="7.1470627784729">
    <ele>925.853332519531</ele>
    <time>2012-06-25T14:37:32Z</time>
   </trkpt>
   <trkpt lat="46.0255508422852" lon="7.14708662033081">
    <ele>927.666687011719</ele>
    <time>2012-06-25T14:37:40Z</time>
   </trkpt>
   <trkpt lat="46.0255279541016" lon="7.14709138870239">
    <ele>927.893310546875</ele>
    <time>2012-06-25T14:37:41Z</time>
   </trkpt>
   <trkpt lat="46.0255012512207" lon="7.14709663391113">
    <ele>928.119995117188</ele>
    <time>2012-06-25T14:37:42Z</time>
   </trkpt>
   <trkpt lat="46.0254783630371" lon="7.1471004486084">
    <ele>928.3466796875</ele>
    <time>2012-06-25T14:37:43Z</time>
   </trkpt>
   <trkpt lat="46.0254554748535" lon="7.14710474014282">
    <ele>928.573364257812</ele>
    <time>2012-06-25T14:37:44Z</time>
   </trkpt>
   <trkpt lat="46.0253562927246" lon="7.14713287353516">
    <ele>929.47998046875</ele>
    <time>2012-06-25T14:37:48Z</time>
   </trkpt>
   <trkpt lat="46.0253295898438" lon="7.1471438407898">
    <ele>929.706665039062</ele>
    <time>2012-06-25T14:37:49Z</time>
   </trkpt>
   <trkpt lat="46.0253105163574" lon="7.14715480804443">
    <ele>929.933349609375</ele>
    <time>2012-06-25T14:37:50Z</time>
   </trkpt>
   <trkpt lat="46.0252876281738" lon="7.14716720581055">
    <ele>930.160034179688</ele>
    <time>2012-06-25T14:37:51Z</time>
   </trkpt>
   <trkpt lat="46.025260925293" lon="7.14717626571655">
    <ele>930.386657714844</ele>
    <time>2012-06-25T14:37:52Z</time>
   </trkpt>
   <trkpt lat="46.0251693725586" lon="7.14721488952637">
    <ele>931.293334960938</ele>
    <time>2012-06-25T14:37:56Z</time>
   </trkpt>
   <trkpt lat="46.025146484375" lon="7.14722919464111">
    <ele>931.52001953125</ele>
    <time>2012-06-25T14:37:57Z</time>
   </trkpt>
   <trkpt lat="46.0251274108887" lon="7.14724159240723">
    <ele>931.746704101562</ele>
    <time>2012-06-25T14:37:58Z</time>
   </trkpt>
   <trkpt lat="46.0251045227051" lon="7.14725589752197">
    <ele>931.973327636719</ele>
    <time>2012-06-25T14:37:59Z</time>
   </trkpt>
   <trkpt lat="46.0250930786133" lon="7.1472749710083">
    <ele>932.200012207031</ele>
    <time>2012-06-25T14:38:00Z</time>
   </trkpt>
   <trkpt lat="46.0250358581543" lon="7.14733839035034">
    <ele>932.200012207031</ele>
    <time>2012-06-25T14:38:03Z</time>
   </trkpt>
   <trkpt lat="46.0249290466309" lon="7.1473970413208">
    <ele>933.300048828125</ele>
    <time>2012-06-25T14:38:07Z</time>
   </trkpt>
   <trkpt lat="46.0249061584473" lon="7.14740419387817">
    <ele>933.575012207031</ele>
    <time>2012-06-25T14:38:08Z</time>
   </trkpt>
   <trkpt lat="46.0248870849609" lon="7.1474175453186">
    <ele>933.850036621094</ele>
    <time>2012-06-25T14:38:09Z</time>
   </trkpt>
   <trkpt lat="46.0248641967773" lon="7.14743328094482">
    <ele>934.125</ele>
    <time>2012-06-25T14:38:10Z</time>
   </trkpt>
   <trkpt lat="46.0248413085938" lon="7.14745140075684">
    <ele>934.400024414062</ele>
    <time>2012-06-25T14:38:11Z</time>
   </trkpt>
   <trkpt lat="46.0248184204102" lon="7.14747047424316">
    <ele>934.400024414062</ele>
    <time>2012-06-25T14:38:12Z</time>
   </trkpt>
   <trkpt lat="46.024772644043" lon="7.14750289916992">
    <ele>934.813354492188</ele>
    <time>2012-06-25T14:38:14Z</time>
   </trkpt>
   <trkpt lat="46.0246658325195" lon="7.14758157730102">
    <ele>935.8466796875</ele>
    <time>2012-06-25T14:38:19Z</time>
   </trkpt>
   <trkpt lat="46.0246429443359" lon="7.14759874343872">
    <ele>936.053344726562</ele>
    <time>2012-06-25T14:38:20Z</time>
   </trkpt>
   <trkpt lat="46.0246200561523" lon="7.14761972427368">
    <ele>936.260009765625</ele>
    <time>2012-06-25T14:38:21Z</time>
   </trkpt>
   <trkpt lat="46.0245971679688" lon="7.14763975143433">
    <ele>936.466674804688</ele>
    <time>2012-06-25T14:38:22Z</time>
   </trkpt>
   <trkpt lat="46.0244750976562" lon="7.14772891998291">
    <ele>937.706665039062</ele>
    <time>2012-06-25T14:38:28Z</time>
   </trkpt>
   <trkpt lat="46.0244560241699" lon="7.14774131774902">
    <ele>937.913330078125</ele>
    <time>2012-06-25T14:38:29Z</time>
   </trkpt>
   <trkpt lat="46.0244369506836" lon="7.14775514602661">
    <ele>938.119995117188</ele>
    <time>2012-06-25T14:38:30Z</time>
   </trkpt>
   <trkpt lat="46.0244140625" lon="7.14777278900146">
    <ele>938.32666015625</ele>
    <time>2012-06-25T14:38:31Z</time>
   </trkpt>
   <trkpt lat="46.0243911743164" lon="7.147789478302">
    <ele>938.533325195312</ele>
    <time>2012-06-25T14:38:32Z</time>
   </trkpt>
   <trkpt lat="46.0242652893066" lon="7.14787483215332">
    <ele>939.773315429688</ele>
    <time>2012-06-25T14:38:38Z</time>
   </trkpt>
   <trkpt lat="46.0242462158203" lon="7.14788866043091">
    <ele>939.97998046875</ele>
    <time>2012-06-25T14:38:39Z</time>
   </trkpt>
   <trkpt lat="46.024227142334" lon="7.14790058135986">
    <ele>940.186645507812</ele>
    <time>2012-06-25T14:38:40Z</time>
   </trkpt>
   <trkpt lat="46.0242080688477" lon="7.1479172706604">
    <ele>940.393310546875</ele>
    <time>2012-06-25T14:38:41Z</time>
   </trkpt>
   <trkpt lat="46.0241851806641" lon="7.14793014526367">
    <ele>940.599975585938</ele>
    <time>2012-06-25T14:38:42Z</time>
   </trkpt>
   <trkpt lat="46.0241203308106" lon="7.14796781539917">
    <ele>940.599975585938</ele>
    <time>2012-06-25T14:38:45Z</time>
   </trkpt>
   <trkpt lat="46.0241012573242" lon="7.14798021316528">
    <ele>941</ele>
    <time>2012-06-25T14:38:46Z</time>
   </trkpt>
   <trkpt lat="46.0240821838379" lon="7.14799165725708">
    <ele>941.399963378906</ele>
    <time>2012-06-25T14:38:47Z</time>
   </trkpt>
   <trkpt lat="46.0240631103516" lon="7.1480016708374">
    <ele>941.799987792969</ele>
    <time>2012-06-25T14:38:48Z</time>
   </trkpt>
   <trkpt lat="46.0240440368652" lon="7.14801454544067">
    <ele>942.199951171875</ele>
    <time>2012-06-25T14:38:49Z</time>
   </trkpt>
   <trkpt lat="46.0240211486816" lon="7.1480278968811">
    <ele>942.599975585938</ele>
    <time>2012-06-25T14:38:50Z</time>
   </trkpt>
   <trkpt lat="46.023998260498" lon="7.14804267883301">
    <ele>942.599975585938</ele>
    <time>2012-06-25T14:38:51Z</time>
   </trkpt>
   <trkpt lat="46.0239753723144" lon="7.14806079864502">
    <ele>942.844421386719</ele>
    <time>2012-06-25T14:38:52Z</time>
   </trkpt>
   <trkpt lat="46.0239562988281" lon="7.14807891845703">
    <ele>943.0888671875</ele>
    <time>2012-06-25T14:38:53Z</time>
   </trkpt>
   <trkpt lat="46.0238952636719" lon="7.14811706542969">
    <ele>943.822204589844</ele>
    <time>2012-06-25T14:38:56Z</time>
   </trkpt>
   <trkpt lat="46.0238761901856" lon="7.14812755584717">
    <ele>944.066650390625</ele>
    <time>2012-06-25T14:38:57Z</time>
   </trkpt>
   <trkpt lat="46.023853302002" lon="7.14814043045044">
    <ele>944.311096191406</ele>
    <time>2012-06-25T14:38:58Z</time>
   </trkpt>
   <trkpt lat="46.0238342285156" lon="7.14814949035644">
    <ele>944.555541992188</ele>
    <time>2012-06-25T14:38:59Z</time>
   </trkpt>
   <trkpt lat="46.0238151550293" lon="7.14816522598267">
    <ele>944.799987792969</ele>
    <time>2012-06-25T14:39:00Z</time>
   </trkpt>
   <trkpt lat="46.0237770080566" lon="7.14819097518921">
    <ele>944.799987792969</ele>
    <time>2012-06-25T14:39:02Z</time>
   </trkpt>
   <trkpt lat="46.023754119873" lon="7.14820337295532">
    <ele>945.1142578125</ele>
    <time>2012-06-25T14:39:03Z</time>
   </trkpt>
   <trkpt lat="46.0237312316894" lon="7.14821624755859">
    <ele>945.428588867188</ele>
    <time>2012-06-25T14:39:04Z</time>
   </trkpt>
   <trkpt lat="46.0237121582031" lon="7.1482310295105">
    <ele>945.742858886719</ele>
    <time>2012-06-25T14:39:05Z</time>
   </trkpt>
   <trkpt lat="46.0236892700195" lon="7.14824295043945">
    <ele>946.05712890625</ele>
    <time>2012-06-25T14:39:06Z</time>
   </trkpt>
   <trkpt lat="46.0236663818359" lon="7.14825487136841">
    <ele>946.371398925781</ele>
    <time>2012-06-25T14:39:07Z</time>
   </trkpt>
   <trkpt lat="46.0236473083496" lon="7.14826822280884">
    <ele>946.685729980469</ele>
    <time>2012-06-25T14:39:08Z</time>
   </trkpt>
   <trkpt lat="46.023624420166" lon="7.14827966690064">
    <ele>947</ele>
    <time>2012-06-25T14:39:09Z</time>
   </trkpt>
   <trkpt lat="46.0235557556152" lon="7.14831638336182">
    <ele>947</ele>
    <time>2012-06-25T14:39:12Z</time>
   </trkpt>
   <trkpt lat="46.0234451293945" lon="7.14838790893555">
    <ele>948.111083984375</ele>
    <time>2012-06-25T14:39:17Z</time>
   </trkpt>
   <trkpt lat="46.0234184265137" lon="7.14840078353882">
    <ele>948.333312988281</ele>
    <time>2012-06-25T14:39:18Z</time>
   </trkpt>
   <trkpt lat="46.0233993530273" lon="7.14841651916504">
    <ele>948.555541992188</ele>
    <time>2012-06-25T14:39:19Z</time>
   </trkpt>
   <trkpt lat="46.0233764648438" lon="7.14843559265137">
    <ele>948.777770996094</ele>
    <time>2012-06-25T14:39:20Z</time>
   </trkpt>
   <trkpt lat="46.0233535766602" lon="7.14845132827759">
    <ele>949</ele>
    <time>2012-06-25T14:39:21Z</time>
   </trkpt>
   <trkpt lat="46.023307800293" lon="7.14848136901856">
    <ele>949</ele>
    <time>2012-06-25T14:39:23Z</time>
   </trkpt>
   <trkpt lat="46.0232810974121" lon="7.14849853515625">
    <ele>949.244445800781</ele>
    <time>2012-06-25T14:39:24Z</time>
   </trkpt>
   <trkpt lat="46.0232124328613" lon="7.14854907989502">
    <ele>949.977783203125</ele>
    <time>2012-06-25T14:39:27Z</time>
   </trkpt>
   <trkpt lat="46.0231895446777" lon="7.14856386184692">
    <ele>950.222229003906</ele>
    <time>2012-06-25T14:39:28Z</time>
   </trkpt>
   <trkpt lat="46.0231628417969" lon="7.14857864379883">
    <ele>950.466674804688</ele>
    <time>2012-06-25T14:39:29Z</time>
   </trkpt>
   <trkpt lat="46.0231437683106" lon="7.14860010147095">
    <ele>950.711120605469</ele>
    <time>2012-06-25T14:39:30Z</time>
   </trkpt>
   <trkpt lat="46.0231246948242" lon="7.14861631393433">
    <ele>950.95556640625</ele>
    <time>2012-06-25T14:39:31Z</time>
   </trkpt>
   <trkpt lat="46.0231018066406" lon="7.14862823486328">
    <ele>951.200012207031</ele>
    <time>2012-06-25T14:39:32Z</time>
   </trkpt>
   <trkpt lat="46.023078918457" lon="7.14864540100098">
    <ele>951.200012207031</ele>
    <time>2012-06-25T14:39:33Z</time>
   </trkpt>
   <trkpt lat="46.0230598449707" lon="7.14866638183594">
    <ele>951.342895507812</ele>
    <time>2012-06-25T14:39:34Z</time>
   </trkpt>
   <trkpt lat="46.0230407714844" lon="7.14868497848511">
    <ele>951.485717773438</ele>
    <time>2012-06-25T14:39:35Z</time>
   </trkpt>
   <trkpt lat="46.02294921875" lon="7.14875555038452">
    <ele>952.05712890625</ele>
    <time>2012-06-25T14:39:39Z</time>
   </trkpt>
   <trkpt lat="46.022834777832" lon="7.1487774848938">
    <ele>952.628601074219</ele>
    <time>2012-06-25T14:39:43Z</time>
   </trkpt>
   <trkpt lat="46.0228042602539" lon="7.14877510070801">
    <ele>952.771423339844</ele>
    <time>2012-06-25T14:39:44Z</time>
   </trkpt>
   <trkpt lat="46.0227737426758" lon="7.14877414703369">
    <ele>952.914306640625</ele>
    <time>2012-06-25T14:39:45Z</time>
   </trkpt>
   <trkpt lat="46.0227470397949" lon="7.14875841140747">
    <ele>953.05712890625</ele>
    <time>2012-06-25T14:39:46Z</time>
   </trkpt>
   <trkpt lat="46.0227165222168" lon="7.1487455368042">
    <ele>953.200012207031</ele>
    <time>2012-06-25T14:39:47Z</time>
   </trkpt>
   <trkpt lat="46.0226669311523" lon="7.14868879318237">
    <ele>953.200012207031</ele>
    <time>2012-06-25T14:39:49Z</time>
   </trkpt>
   <trkpt lat="46.0226058959961" lon="7.1484522819519">
    <ele>952</ele>
    <time>2012-06-25T14:39:54Z</time>
   </trkpt>
   <trkpt lat="46.0226211547852" lon="7.14835071563721">
    <ele>951.52001953125</ele>
    <time>2012-06-25T14:39:56Z</time>
   </trkpt>
   <trkpt lat="46.0226402282715" lon="7.14830636978149">
    <ele>951.279968261719</ele>
    <time>2012-06-25T14:39:57Z</time>
   </trkpt>
   <trkpt lat="46.0226593017578" lon="7.14826822280884">
    <ele>951.039978027344</ele>
    <time>2012-06-25T14:39:58Z</time>
   </trkpt>
   <trkpt lat="46.0226860046387" lon="7.14822912216186">
    <ele>950.799987792969</ele>
    <time>2012-06-25T14:39:59Z</time>
   </trkpt>
   <trkpt lat="46.0227966308594" lon="7.14817953109741">
    <ele>950.799987792969</ele>
    <time>2012-06-25T14:40:02Z</time>
   </trkpt>
   <trkpt lat="46.0228805541992" lon="7.14820432662964">
    <ele>951.563598632812</ele>
    <time>2012-06-25T14:40:04Z</time>
   </trkpt>
   <trkpt lat="46.0229187011719" lon="7.14822578430176">
    <ele>951.945434570312</ele>
    <time>2012-06-25T14:40:05Z</time>
   </trkpt>
   <trkpt lat="46.0229568481445" lon="7.1482515335083">
    <ele>952.327270507812</ele>
    <time>2012-06-25T14:40:06Z</time>
   </trkpt>
   <trkpt lat="46.0229911804199" lon="7.14828014373779">
    <ele>952.709106445312</ele>
    <time>2012-06-25T14:40:07Z</time>
   </trkpt>
   <trkpt lat="46.023021697998" lon="7.14831209182739">
    <ele>953.090881347656</ele>
    <time>2012-06-25T14:40:08Z</time>
   </trkpt>
   <trkpt lat="46.0230522155762" lon="7.14835119247436">
    <ele>953.472717285156</ele>
    <time>2012-06-25T14:40:09Z</time>
   </trkpt>
   <trkpt lat="46.023078918457" lon="7.14838552474976">
    <ele>953.854553222656</ele>
    <time>2012-06-25T14:40:10Z</time>
   </trkpt>
   <trkpt lat="46.0231018066406" lon="7.14841794967651">
    <ele>954.236389160156</ele>
    <time>2012-06-25T14:40:11Z</time>
   </trkpt>
   <trkpt lat="46.0231285095215" lon="7.14845085144043">
    <ele>954.6181640625</ele>
    <time>2012-06-25T14:40:12Z</time>
   </trkpt>
   <trkpt lat="46.0231552124023" lon="7.1484842300415">
    <ele>955</ele>
    <time>2012-06-25T14:40:13Z</time>
   </trkpt>
   <trkpt lat="46.0233497619629" lon="7.14869976043701">
    <ele>955</ele>
    <time>2012-06-25T14:40:20Z</time>
   </trkpt>
   <trkpt lat="46.0233764648438" lon="7.14872884750366">
    <ele>955.157165527344</ele>
    <time>2012-06-25T14:40:21Z</time>
   </trkpt>
   <trkpt lat="46.0234031677246" lon="7.14875316619873">
    <ele>955.314270019531</ele>
    <time>2012-06-25T14:40:22Z</time>
   </trkpt>
   <trkpt lat="46.0234718322754" lon="7.14879560470581">
    <ele>955.628601074219</ele>
    <time>2012-06-25T14:40:24Z</time>
   </trkpt>
   <trkpt lat="46.0235061645508" lon="7.14881181716919">
    <ele>955.785705566406</ele>
    <time>2012-06-25T14:40:25Z</time>
   </trkpt>
   <trkpt lat="46.0235443115234" lon="7.14882850646973">
    <ele>955.94287109375</ele>
    <time>2012-06-25T14:40:26Z</time>
   </trkpt>
   <trkpt lat="46.0235786437988" lon="7.14884376525879">
    <ele>956.099975585938</ele>
    <time>2012-06-25T14:40:27Z</time>
   </trkpt>
   <trkpt lat="46.0236511230469" lon="7.14887142181396">
    <ele>956.414306640625</ele>
    <time>2012-06-25T14:40:29Z</time>
   </trkpt>
   <trkpt lat="46.0236854553223" lon="7.14888048171997">
    <ele>956.571411132812</ele>
    <time>2012-06-25T14:40:30Z</time>
   </trkpt>
   <trkpt lat="46.0237236022949" lon="7.14889144897461">
    <ele>956.728576660156</ele>
    <time>2012-06-25T14:40:31Z</time>
   </trkpt>
   <trkpt lat="46.0237579345703" lon="7.14890384674072">
    <ele>956.8857421875</ele>
    <time>2012-06-25T14:40:32Z</time>
   </trkpt>
   <trkpt lat="46.0237922668457" lon="7.14891815185547">
    <ele>957.042846679688</ele>
    <time>2012-06-25T14:40:33Z</time>
   </trkpt>
   <trkpt lat="46.0238265991211" lon="7.14892864227295">
    <ele>957.200012207031</ele>
    <time>2012-06-25T14:40:34Z</time>
   </trkpt>
   <trkpt lat="46.0238647460938" lon="7.14894151687622">
    <ele>957.200012207031</ele>
    <time>2012-06-25T14:40:35Z</time>
   </trkpt>
   <trkpt lat="46.0241394042969" lon="7.14899015426636">
    <ele>957.933349609375</ele>
    <time>2012-06-25T14:40:43Z</time>
   </trkpt>
   <trkpt lat="46.0241775512695" lon="7.14899349212646">
    <ele>958.025024414062</ele>
    <time>2012-06-25T14:40:44Z</time>
   </trkpt>
   <trkpt lat="46.0242080688477" lon="7.14899492263794">
    <ele>958.11669921875</ele>
    <time>2012-06-25T14:40:45Z</time>
   </trkpt>
   <trkpt lat="46.0243186950684" lon="7.14899969100952">
    <ele>958.391662597656</ele>
    <time>2012-06-25T14:40:48Z</time>
   </trkpt>
   <trkpt lat="46.0243530273438" lon="7.14899635314941">
    <ele>958.483337402344</ele>
    <time>2012-06-25T14:40:49Z</time>
   </trkpt>
   <trkpt lat="46.0243873596191" lon="7.14899778366089">
    <ele>958.575012207031</ele>
    <time>2012-06-25T14:40:50Z</time>
   </trkpt>
   <trkpt lat="46.0244216918945" lon="7.14899682998657">
    <ele>958.666687011719</ele>
    <time>2012-06-25T14:40:51Z</time>
   </trkpt>
   <trkpt lat="46.0244560241699" lon="7.14899682998657">
    <ele>958.758361816406</ele>
    <time>2012-06-25T14:40:52Z</time>
   </trkpt>
   <trkpt lat="46.0245513916016" lon="7.149001121521">
    <ele>959.033325195312</ele>
    <time>2012-06-25T14:40:55Z</time>
   </trkpt>
   <trkpt lat="46.024585723877" lon="7.14900255203247">
    <ele>959.125</ele>
    <time>2012-06-25T14:40:56Z</time>
   </trkpt>
   <trkpt lat="46.0246200561523" lon="7.14900350570679">
    <ele>959.216674804688</ele>
    <time>2012-06-25T14:40:57Z</time>
   </trkpt>
   <trkpt lat="46.0246505737305" lon="7.14900255203247">
    <ele>959.308349609375</ele>
    <time>2012-06-25T14:40:58Z</time>
   </trkpt>
   <trkpt lat="46.0246849060059" lon="7.1490044593811">
    <ele>959.400024414062</ele>
    <time>2012-06-25T14:40:59Z</time>
   </trkpt>
   <trkpt lat="46.0247535705566" lon="7.14900779724121">
    <ele>959.400024414062</ele>
    <time>2012-06-25T14:41:01Z</time>
   </trkpt>
   <trkpt lat="46.0248756408691" lon="7.14901399612427">
    <ele>960.542907714844</ele>
    <time>2012-06-25T14:41:05Z</time>
   </trkpt>
   <trkpt lat="46.024974822998" lon="7.1490044593811">
    <ele>961.400024414062</ele>
    <time>2012-06-25T14:41:08Z</time>
   </trkpt>
   <trkpt lat="46.0250053405762" lon="7.14900255203247">
    <ele>961.685729980469</ele>
    <time>2012-06-25T14:41:09Z</time>
   </trkpt>
   <trkpt lat="46.0250396728516" lon="7.14900255203247">
    <ele>961.971435546875</ele>
    <time>2012-06-25T14:41:10Z</time>
   </trkpt>
   <trkpt lat="46.025074005127" lon="7.14900016784668">
    <ele>962.257141113281</ele>
    <time>2012-06-25T14:41:11Z</time>
   </trkpt>
   <trkpt lat="46.0251045227051" lon="7.14899921417236">
    <ele>962.542907714844</ele>
    <time>2012-06-25T14:41:12Z</time>
   </trkpt>
   <trkpt lat="46.0251350402832" lon="7.14899492263794">
    <ele>962.82861328125</ele>
    <time>2012-06-25T14:41:13Z</time>
   </trkpt>
   <trkpt lat="46.0251655578613" lon="7.14899110794067">
    <ele>963.114318847656</ele>
    <time>2012-06-25T14:41:14Z</time>
   </trkpt>
   <trkpt lat="46.0251960754394" lon="7.14898729324341">
    <ele>963.400024414062</ele>
    <time>2012-06-25T14:41:15Z</time>
   </trkpt>
   <trkpt lat="46.0252494812012" lon="7.14898347854614">
    <ele>963.400024414062</ele>
    <time>2012-06-25T14:41:17Z</time>
   </trkpt>
   <trkpt lat="46.025276184082" lon="7.14897871017456">
    <ele>963.515808105469</ele>
    <time>2012-06-25T14:41:18Z</time>
   </trkpt>
   <trkpt lat="46.0253982543945" lon="7.14895057678223">
    <ele>963.978942871094</ele>
    <time>2012-06-25T14:41:22Z</time>
   </trkpt>
   <trkpt lat="46.0256195068359" lon="7.14888286590576">
    <ele>964.789489746094</ele>
    <time>2012-06-25T14:41:29Z</time>
   </trkpt>
   <trkpt lat="46.0257186889648" lon="7.1488528251648">
    <ele>965.136840820312</ele>
    <time>2012-06-25T14:41:32Z</time>
   </trkpt>
   <trkpt lat="46.0257530212402" lon="7.148841381073">
    <ele>965.252624511719</ele>
    <time>2012-06-25T14:41:33Z</time>
   </trkpt>
   <trkpt lat="46.0257835388184" lon="7.1488356590271">
    <ele>965.368408203125</ele>
    <time>2012-06-25T14:41:34Z</time>
   </trkpt>
   <trkpt lat="46.0258102416992" lon="7.14882326126099">
    <ele>965.484191894531</ele>
    <time>2012-06-25T14:41:35Z</time>
   </trkpt>
   <trkpt lat="46.0258407592773" lon="7.14881086349487">
    <ele>965.599975585938</ele>
    <time>2012-06-25T14:41:36Z</time>
   </trkpt>
   <trkpt lat="46.0258674621582" lon="7.14879941940308">
    <ele>965.599975585938</ele>
    <time>2012-06-25T14:41:37Z</time>
   </trkpt>
   <trkpt lat="46.0259323120117" lon="7.14877653121948">
    <ele>966.05712890625</ele>
    <time>2012-06-25T14:41:39Z</time>
   </trkpt>
   <trkpt lat="46.0259628295898" lon="7.14876508712768">
    <ele>966.285705566406</ele>
    <time>2012-06-25T14:41:40Z</time>
   </trkpt>
   <trkpt lat="46.0261077880859" lon="7.14872360229492">
    <ele>967.428527832031</ele>
    <time>2012-06-25T14:41:45Z</time>
   </trkpt>
   <trkpt lat="46.0261344909668" lon="7.14871215820312">
    <ele>967.657104492188</ele>
    <time>2012-06-25T14:41:46Z</time>
   </trkpt>
   <trkpt lat="46.0261650085449" lon="7.14870071411133">
    <ele>967.885681152344</ele>
    <time>2012-06-25T14:41:47Z</time>
   </trkpt>
   <trkpt lat="46.026195526123" lon="7.14869165420532">
    <ele>968.1142578125</ele>
    <time>2012-06-25T14:41:48Z</time>
   </trkpt>
   <trkpt lat="46.0262222290039" lon="7.14868211746216">
    <ele>968.342834472656</ele>
    <time>2012-06-25T14:41:49Z</time>
   </trkpt>
   <trkpt lat="46.026252746582" lon="7.14867162704468">
    <ele>968.571411132812</ele>
    <time>2012-06-25T14:41:50Z</time>
   </trkpt>
   <trkpt lat="46.0263137817383" lon="7.14866352081299">
    <ele>969.028564453125</ele>
    <time>2012-06-25T14:41:52Z</time>
   </trkpt>
   <trkpt lat="46.0263442993164" lon="7.14865875244141">
    <ele>969.257141113281</ele>
    <time>2012-06-25T14:41:53Z</time>
   </trkpt>
   <trkpt lat="46.0263748168945" lon="7.14865398406982">
    <ele>969.485717773438</ele>
    <time>2012-06-25T14:41:54Z</time>
   </trkpt>
   <trkpt lat="46.0264015197754" lon="7.14864873886108">
    <ele>969.714294433594</ele>
    <time>2012-06-25T14:41:55Z</time>
   </trkpt>
   <trkpt lat="46.0264320373535" lon="7.14864730834961">
    <ele>969.94287109375</ele>
    <time>2012-06-25T14:41:56Z</time>
   </trkpt>
   <trkpt lat="46.0265846252441" lon="7.14861679077148">
    <ele>971.085693359375</ele>
    <time>2012-06-25T14:42:01Z</time>
   </trkpt>
   <trkpt lat="46.0266151428223" lon="7.14861536026001">
    <ele>971.314270019531</ele>
    <time>2012-06-25T14:42:02Z</time>
   </trkpt>
   <trkpt lat="46.0266456604004" lon="7.14861679077148">
    <ele>971.542846679688</ele>
    <time>2012-06-25T14:42:03Z</time>
   </trkpt>
   <trkpt lat="46.0266799926758" lon="7.14861536026001">
    <ele>971.771423339844</ele>
    <time>2012-06-25T14:42:04Z</time>
   </trkpt>
   <trkpt lat="46.0267105102539" lon="7.14861297607422">
    <ele>972</ele>
    <time>2012-06-25T14:42:05Z</time>
   </trkpt>
   <trkpt lat="46.0267677307129" lon="7.14860200881958">
    <ele>972</ele>
    <time>2012-06-25T14:42:07Z</time>
   </trkpt>
   <trkpt lat="46.0267944335938" lon="7.14860105514526">
    <ele>972.242126464844</ele>
    <time>2012-06-25T14:42:08Z</time>
   </trkpt>
   <trkpt lat="46.0269050598144" lon="7.14859628677368">
    <ele>973.210510253906</ele>
    <time>2012-06-25T14:42:12Z</time>
   </trkpt>
   <trkpt lat="46.026927947998" lon="7.14859104156494">
    <ele>973.45263671875</ele>
    <time>2012-06-25T14:42:13Z</time>
   </trkpt>
   <trkpt lat="46.0269584655762" lon="7.14859390258789">
    <ele>973.694702148438</ele>
    <time>2012-06-25T14:42:14Z</time>
   </trkpt>
   <trkpt lat="46.026985168457" lon="7.14859437942505">
    <ele>973.936828613281</ele>
    <time>2012-06-25T14:42:15Z</time>
   </trkpt>
   <trkpt lat="46.0270118713379" lon="7.14859628677368">
    <ele>974.178955078125</ele>
    <time>2012-06-25T14:42:16Z</time>
   </trkpt>
   <trkpt lat="46.0271987915039" lon="7.14861154556274">
    <ele>975.873657226562</ele>
    <time>2012-06-25T14:42:23Z</time>
   </trkpt>
   <trkpt lat="46.0272254943848" lon="7.14861631393433">
    <ele>976.115783691406</ele>
    <time>2012-06-25T14:42:24Z</time>
   </trkpt>
   <trkpt lat="46.0272560119629" lon="7.14862203598022">
    <ele>976.357849121094</ele>
    <time>2012-06-25T14:42:25Z</time>
   </trkpt>
   <trkpt lat="46.0272827148438" lon="7.1486291885376">
    <ele>976.599975585938</ele>
    <time>2012-06-25T14:42:26Z</time>
   </trkpt>
   <trkpt lat="46.0273170471191" lon="7.14863777160644">
    <ele>976.599975585938</ele>
    <time>2012-06-25T14:42:27Z</time>
   </trkpt>
   <trkpt lat="46.0274200439453" lon="7.14868211746216">
    <ele>977.599975585938</ele>
    <time>2012-06-25T14:42:31Z</time>
   </trkpt>
   <trkpt lat="46.0274429321289" lon="7.14870023727417">
    <ele>977.849975585938</ele>
    <time>2012-06-25T14:42:32Z</time>
   </trkpt>
   <trkpt lat="46.0274658203125" lon="7.14871644973755">
    <ele>978.099975585938</ele>
    <time>2012-06-25T14:42:33Z</time>
   </trkpt>
   <trkpt lat="46.0274887084961" lon="7.1487340927124">
    <ele>978.349975585938</ele>
    <time>2012-06-25T14:42:34Z</time>
   </trkpt>
   <trkpt lat="46.0275115966797" lon="7.14874696731567">
    <ele>978.599975585938</ele>
    <time>2012-06-25T14:42:35Z</time>
   </trkpt>
   <trkpt lat="46.0275802612305" lon="7.14880847930908">
    <ele>978.599975585938</ele>
    <time>2012-06-25T14:42:38Z</time>
   </trkpt>
   <trkpt lat="46.0276031494141" lon="7.1488299369812">
    <ele>978.923034667969</ele>
    <time>2012-06-25T14:42:39Z</time>
   </trkpt>
   <trkpt lat="46.0276298522949" lon="7.14885473251343">
    <ele>979.246154785156</ele>
    <time>2012-06-25T14:42:40Z</time>
   </trkpt>
   <trkpt lat="46.0276908874512" lon="7.14892768859863">
    <ele>980.215393066406</ele>
    <time>2012-06-25T14:42:43Z</time>
   </trkpt>
   <trkpt lat="46.0277061462402" lon="7.14895582199097">
    <ele>980.538452148438</ele>
    <time>2012-06-25T14:42:44Z</time>
   </trkpt>
   <trkpt lat="46.027717590332" lon="7.14898490905762">
    <ele>980.861511230469</ele>
    <time>2012-06-25T14:42:45Z</time>
   </trkpt>
   <trkpt lat="46.0277328491211" lon="7.14901685714722">
    <ele>981.1845703125</ele>
    <time>2012-06-25T14:42:46Z</time>
   </trkpt>
   <trkpt lat="46.0277519226074" lon="7.14905118942261">
    <ele>981.507690429688</ele>
    <time>2012-06-25T14:42:47Z</time>
   </trkpt>
   <trkpt lat="46.0277671813965" lon="7.14908695220947">
    <ele>981.830749511719</ele>
    <time>2012-06-25T14:42:48Z</time>
   </trkpt>
   <trkpt lat="46.0277824401856" lon="7.14912128448486">
    <ele>982.15380859375</ele>
    <time>2012-06-25T14:42:49Z</time>
   </trkpt>
   <trkpt lat="46.0277938842773" lon="7.14915561676025">
    <ele>982.476928710938</ele>
    <time>2012-06-25T14:42:50Z</time>
   </trkpt>
   <trkpt lat="46.0278015136719" lon="7.14919090270996">
    <ele>982.799987792969</ele>
    <time>2012-06-25T14:42:51Z</time>
   </trkpt>
   <trkpt lat="46.0278205871582" lon="7.14929723739624">
    <ele>982.799987792969</ele>
    <time>2012-06-25T14:42:54Z</time>
   </trkpt>
   <trkpt lat="46.0278244018555" lon="7.14933586120606">
    <ele>983.058837890625</ele>
    <time>2012-06-25T14:42:55Z</time>
   </trkpt>
   <trkpt lat="46.0278358459473" lon="7.14952564239502">
    <ele>984.352966308594</ele>
    <time>2012-06-25T14:43:00Z</time>
   </trkpt>
   <trkpt lat="46.02783203125" lon="7.14956283569336">
    <ele>984.611755371094</ele>
    <time>2012-06-25T14:43:01Z</time>
   </trkpt>
   <trkpt lat="46.02783203125" lon="7.14960193634033">
    <ele>984.87060546875</ele>
    <time>2012-06-25T14:43:02Z</time>
   </trkpt>
   <trkpt lat="46.0278282165527" lon="7.14963817596436">
    <ele>985.12939453125</ele>
    <time>2012-06-25T14:43:03Z</time>
   </trkpt>
   <trkpt lat="46.0278244018555" lon="7.14967632293701">
    <ele>985.388244628906</ele>
    <time>2012-06-25T14:43:04Z</time>
   </trkpt>
   <trkpt lat="46.0278015136719" lon="7.14978456497192">
    <ele>986.164733886719</ele>
    <time>2012-06-25T14:43:07Z</time>
   </trkpt>
   <trkpt lat="46.0277938842773" lon="7.149817943573">
    <ele>986.423522949219</ele>
    <time>2012-06-25T14:43:08Z</time>
   </trkpt>
   <trkpt lat="46.0277824401856" lon="7.14985084533691">
    <ele>986.682373046875</ele>
    <time>2012-06-25T14:43:09Z</time>
   </trkpt>
   <trkpt lat="46.0277671813965" lon="7.14988470077515">
    <ele>986.941162109375</ele>
    <time>2012-06-25T14:43:10Z</time>
   </trkpt>
   <trkpt lat="46.0277557373047" lon="7.1499171257019">
    <ele>987.200012207031</ele>
    <time>2012-06-25T14:43:11Z</time>
   </trkpt>
   <trkpt lat="46.0276412963867" lon="7.15011644363403">
    <ele>987.200012207031</ele>
    <time>2012-06-25T14:43:18Z</time>
   </trkpt>
   <trkpt lat="46.0275192260742" lon="7.15023565292358">
    <ele>988.290893554688</ele>
    <time>2012-06-25T14:43:24Z</time>
   </trkpt>
   <trkpt lat="46.0275001525879" lon="7.15025091171265">
    <ele>988.472717285156</ele>
    <time>2012-06-25T14:43:25Z</time>
   </trkpt>
   <trkpt lat="46.0274772644043" lon="7.15026712417602">
    <ele>988.654541015625</ele>
    <time>2012-06-25T14:43:26Z</time>
   </trkpt>
   <trkpt lat="46.027458190918" lon="7.15028142929077">
    <ele>988.836364746094</ele>
    <time>2012-06-25T14:43:27Z</time>
   </trkpt>
   <trkpt lat="46.0274353027344" lon="7.15029001235962">
    <ele>989.018188476562</ele>
    <time>2012-06-25T14:43:28Z</time>
   </trkpt>
   <trkpt lat="46.0274124145508" lon="7.15030097961426">
    <ele>989.200012207031</ele>
    <time>2012-06-25T14:43:29Z</time>
   </trkpt>
   <trkpt lat="46.0273170471191" lon="7.15032005310059">
    <ele>989.200012207031</ele>
    <time>2012-06-25T14:43:33Z</time>
   </trkpt>
   <trkpt lat="46.0272674560547" lon="7.15032148361206">
    <ele>989.933349609375</ele>
    <time>2012-06-25T14:43:35Z</time>
   </trkpt>
   <trkpt lat="46.0272407531738" lon="7.15032005310059">
    <ele>990.300048828125</ele>
    <time>2012-06-25T14:43:36Z</time>
   </trkpt>
   <trkpt lat="46.0272178649902" lon="7.15032196044922">
    <ele>990.666687011719</ele>
    <time>2012-06-25T14:43:37Z</time>
   </trkpt>
   <trkpt lat="46.0271949768066" lon="7.15032052993774">
    <ele>991.033325195312</ele>
    <time>2012-06-25T14:43:38Z</time>
   </trkpt>
   <trkpt lat="46.027172088623" lon="7.15032339096069">
    <ele>991.400024414062</ele>
    <time>2012-06-25T14:43:39Z</time>
   </trkpt>
   <trkpt lat="46.0271186828613" lon="7.15031814575195">
    <ele>991.400024414062</ele>
    <time>2012-06-25T14:43:41Z</time>
   </trkpt>
   <trkpt lat="46.0270385742188" lon="7.15030288696289">
    <ele>992.257141113281</ele>
    <time>2012-06-25T14:43:44Z</time>
   </trkpt>
   <trkpt lat="46.0270118713379" lon="7.1503005027771">
    <ele>992.542907714844</ele>
    <time>2012-06-25T14:43:45Z</time>
   </trkpt>
   <trkpt lat="46.026985168457" lon="7.15029621124268">
    <ele>992.82861328125</ele>
    <time>2012-06-25T14:43:46Z</time>
   </trkpt>
   <trkpt lat="46.0269584655762" lon="7.15028858184814">
    <ele>993.114318847656</ele>
    <time>2012-06-25T14:43:47Z</time>
   </trkpt>
   <trkpt lat="46.0269355773926" lon="7.15028381347656">
    <ele>993.400024414062</ele>
    <time>2012-06-25T14:43:48Z</time>
   </trkpt>
   <trkpt lat="46.026912689209" lon="7.1502742767334">
    <ele>993.400024414062</ele>
    <time>2012-06-25T14:43:49Z</time>
   </trkpt>
   <trkpt lat="46.0267906188965" lon="7.15024757385254">
    <ele>994.733337402344</ele>
    <time>2012-06-25T14:43:54Z</time>
   </trkpt>
   <trkpt lat="46.0267639160156" lon="7.15024614334106">
    <ele>995</ele>
    <time>2012-06-25T14:43:55Z</time>
   </trkpt>
   <trkpt lat="46.0267372131348" lon="7.15023803710938">
    <ele>995.266662597656</ele>
    <time>2012-06-25T14:43:56Z</time>
   </trkpt>
   <trkpt lat="46.0267105102539" lon="7.15023183822632">
    <ele>995.533325195312</ele>
    <time>2012-06-25T14:43:57Z</time>
   </trkpt>
   <trkpt lat="46.026683807373" lon="7.15022897720337">
    <ele>995.799987792969</ele>
    <time>2012-06-25T14:43:58Z</time>
   </trkpt>
   <trkpt lat="46.0265312194824" lon="7.15020942687988">
    <ele>995.799987792969</ele>
    <time>2012-06-25T14:44:04Z</time>
   </trkpt>
   <trkpt lat="46.0265045166016" lon="7.1502046585083">
    <ele>996.093322753906</ele>
    <time>2012-06-25T14:44:05Z</time>
   </trkpt>
   <trkpt lat="46.0264778137207" lon="7.1502103805542">
    <ele>996.386657714844</ele>
    <time>2012-06-25T14:44:06Z</time>
   </trkpt>
   <trkpt lat="46.0264472961426" lon="7.15020895004272">
    <ele>996.679992675781</ele>
    <time>2012-06-25T14:44:07Z</time>
   </trkpt>
   <trkpt lat="46.0264205932617" lon="7.15020942687988">
    <ele>996.973327636719</ele>
    <time>2012-06-25T14:44:08Z</time>
   </trkpt>
   <trkpt lat="46.0263977050781" lon="7.1502103805542">
    <ele>997.266662597656</ele>
    <time>2012-06-25T14:44:09Z</time>
   </trkpt>
   <trkpt lat="46.026252746582" lon="7.15021562576294">
    <ele>999.026672363281</ele>
    <time>2012-06-25T14:44:15Z</time>
   </trkpt>
   <trkpt lat="46.0262298583984" lon="7.15022039413452">
    <ele>999.320007324219</ele>
    <time>2012-06-25T14:44:16Z</time>
   </trkpt>
   <trkpt lat="46.0262069702148" lon="7.1502275466919">
    <ele>999.613342285156</ele>
    <time>2012-06-25T14:44:17Z</time>
   </trkpt>
   <trkpt lat="46.0261840820312" lon="7.15023422241211">
    <ele>999.906677246094</ele>
    <time>2012-06-25T14:44:18Z</time>
   </trkpt>
   <trkpt lat="46.0261650085449" lon="7.15023422241211">
    <ele>1000.20001220703</ele>
    <time>2012-06-25T14:44:19Z</time>
   </trkpt>
   <trkpt lat="46.0260162353516" lon="7.15027618408203">
    <ele>1000.20001220703</ele>
    <time>2012-06-25T14:44:26Z</time>
   </trkpt>
   <trkpt lat="46.0259971618652" lon="7.15028619766235">
    <ele>1000.53332519531</ele>
    <time>2012-06-25T14:44:27Z</time>
   </trkpt>
   <trkpt lat="46.0259590148926" lon="7.15029382705688">
    <ele>1001.20001220703</ele>
    <time>2012-06-25T14:44:29Z</time>
   </trkpt>
   <trkpt lat="46.025936126709" lon="7.15030193328857">
    <ele>1001.53332519531</ele>
    <time>2012-06-25T14:44:30Z</time>
   </trkpt>
   <trkpt lat="46.0259170532227" lon="7.15030574798584">
    <ele>1001.86669921875</ele>
    <time>2012-06-25T14:44:31Z</time>
   </trkpt>
   <trkpt lat="46.0258979797363" lon="7.15031147003174">
    <ele>1002.20001220703</ele>
    <time>2012-06-25T14:44:32Z</time>
   </trkpt>
   <trkpt lat="46.02587890625" lon="7.15032052993774">
    <ele>1002.20001220703</ele>
    <time>2012-06-25T14:44:33Z</time>
   </trkpt>
   <trkpt lat="46.0257987976074" lon="7.15035343170166">
    <ele>1002.81115722656</ele>
    <time>2012-06-25T14:44:38Z</time>
   </trkpt>
   <trkpt lat="46.0257759094238" lon="7.15036582946777">
    <ele>1003.05554199219</ele>
    <time>2012-06-25T14:44:40Z</time>
   </trkpt>
   <trkpt lat="46.0257415771484" lon="7.15038108825684">
    <ele>1003.42224121094</ele>
    <time>2012-06-25T14:44:43Z</time>
   </trkpt>
   <trkpt lat="46.0257110595703" lon="7.15039777755737">
    <ele>1003.78894042969</ele>
    <time>2012-06-25T14:44:46Z</time>
   </trkpt>
   <trkpt lat="46.0257034301758" lon="7.15040254592896">
    <ele>1003.9111328125</ele>
    <time>2012-06-25T14:44:47Z</time>
   </trkpt>
   <trkpt lat="46.025691986084" lon="7.15040493011475">
    <ele>1004.03332519531</ele>
    <time>2012-06-25T14:44:48Z</time>
   </trkpt>
   <trkpt lat="46.0256843566894" lon="7.15040922164917">
    <ele>1004.15557861328</ele>
    <time>2012-06-25T14:44:49Z</time>
   </trkpt>
   <trkpt lat="46.0256767272949" lon="7.15041494369507">
    <ele>1004.27783203125</ele>
    <time>2012-06-25T14:44:50Z</time>
   </trkpt>
   <trkpt lat="46.0256690979004" lon="7.15041589736938">
    <ele>1004.40002441406</ele>
    <time>2012-06-25T14:44:51Z</time>
   </trkpt>
   <trkpt lat="46.0256614685059" lon="7.15040731430054">
    <ele>1004.40002441406</ele>
    <time>2012-06-25T14:44:52Z</time>
   </trkpt>
   <trkpt lat="46.0256500244141" lon="7.15040493011475">
    <ele>1004.67370605469</ele>
    <time>2012-06-25T14:44:54Z</time>
   </trkpt>
   <trkpt lat="46.0256233215332" lon="7.15040159225464">
    <ele>1005.22106933594</ele>
    <time>2012-06-25T14:44:58Z</time>
   </trkpt>
   <trkpt lat="46.0256080627441" lon="7.15042400360107">
    <ele>1005.49475097656</ele>
    <time>2012-06-25T14:45:00Z</time>
   </trkpt>
   <trkpt lat="46.0255279541016" lon="7.15045833587646">
    <ele>1006.45263671875</ele>
    <time>2012-06-25T14:45:07Z</time>
   </trkpt>
   <trkpt lat="46.025520324707" lon="7.1504635810852">
    <ele>1006.58947753906</ele>
    <time>2012-06-25T14:45:08Z</time>
   </trkpt>
   <trkpt lat="46.0255088806152" lon="7.15046739578247">
    <ele>1006.72631835938</ele>
    <time>2012-06-25T14:45:09Z</time>
   </trkpt>
   <trkpt lat="46.0255012512207" lon="7.15046977996826">
    <ele>1006.86315917969</ele>
    <time>2012-06-25T14:45:10Z</time>
   </trkpt>
   <trkpt lat="46.0254821777344" lon="7.15048217773438">
    <ele>1007</ele>
    <time>2012-06-25T14:45:11Z</time>
   </trkpt>
   <trkpt lat="46.0254173278809" lon="7.15051603317261">
    <ele>1007</ele>
    <time>2012-06-25T14:45:13Z</time>
   </trkpt>
   <trkpt lat="46.0253791809082" lon="7.15052700042725">
    <ele>1007.21539306641</ele>
    <time>2012-06-25T14:45:14Z</time>
   </trkpt>
   <trkpt lat="46.0251693725586" lon="7.15059185028076">
    <ele>1008.50769042969</ele>
    <time>2012-06-25T14:45:20Z</time>
   </trkpt>
   <trkpt lat="46.0250358581543" lon="7.15062475204468">
    <ele>1009.36926269531</ele>
    <time>2012-06-25T14:45:24Z</time>
   </trkpt>
   <trkpt lat="46.0249710083008" lon="7.15063238143921">
    <ele>1009.79998779297</ele>
    <time>2012-06-25T14:45:26Z</time>
   </trkpt>
   <trkpt lat="46.0249366760254" lon="7.15063381195068">
    <ele>1010.01538085938</ele>
    <time>2012-06-25T14:45:27Z</time>
   </trkpt>
   <trkpt lat="46.0248985290527" lon="7.15063619613648">
    <ele>1010.23077392578</ele>
    <time>2012-06-25T14:45:28Z</time>
   </trkpt>
   <trkpt lat="46.0248680114746" lon="7.15064096450806">
    <ele>1010.44616699219</ele>
    <time>2012-06-25T14:45:29Z</time>
   </trkpt>
   <trkpt lat="46.0248336791992" lon="7.15064382553101">
    <ele>1010.66156005859</ele>
    <time>2012-06-25T14:45:30Z</time>
   </trkpt>
   <trkpt lat="46.0246276855469" lon="7.1506552696228">
    <ele>1011.95385742188</ele>
    <time>2012-06-25T14:45:36Z</time>
   </trkpt>
   <trkpt lat="46.0245971679688" lon="7.15065383911133">
    <ele>1012.16925048828</ele>
    <time>2012-06-25T14:45:37Z</time>
   </trkpt>
   <trkpt lat="46.0245628356934" lon="7.15065240859985">
    <ele>1012.38464355469</ele>
    <time>2012-06-25T14:45:38Z</time>
   </trkpt>
   <trkpt lat="46.0245323181152" lon="7.1506519317627">
    <ele>1012.60003662109</ele>
    <time>2012-06-25T14:45:39Z</time>
   </trkpt>
   <trkpt lat="46.0244979858398" lon="7.15064811706543">
    <ele>1012.8154296875</ele>
    <time>2012-06-25T14:45:40Z</time>
   </trkpt>
   <trkpt lat="46.0244331359863" lon="7.15064525604248">
    <ele>1013.24615478516</ele>
    <time>2012-06-25T14:45:42Z</time>
   </trkpt>
   <trkpt lat="46.0244026184082" lon="7.15064334869385">
    <ele>1013.46154785156</ele>
    <time>2012-06-25T14:45:43Z</time>
   </trkpt>
   <trkpt lat="46.0243682861328" lon="7.15063905715942">
    <ele>1013.67694091797</ele>
    <time>2012-06-25T14:45:44Z</time>
   </trkpt>
   <trkpt lat="46.0243339538574" lon="7.15063667297363">
    <ele>1013.89233398438</ele>
    <time>2012-06-25T14:45:45Z</time>
   </trkpt>
   <trkpt lat="46.0242385864258" lon="7.15063095092774">
    <ele>1014.53851318359</ele>
    <time>2012-06-25T14:45:48Z</time>
   </trkpt>
   <trkpt lat="46.0242080688477" lon="7.15063142776489">
    <ele>1014.75384521484</ele>
    <time>2012-06-25T14:45:49Z</time>
   </trkpt>
   <trkpt lat="46.0241737365723" lon="7.15063142776489">
    <ele>1014.96923828125</ele>
    <time>2012-06-25T14:45:50Z</time>
   </trkpt>
   <trkpt lat="46.0241394042969" lon="7.15063095092774">
    <ele>1015.18463134766</ele>
    <time>2012-06-25T14:45:51Z</time>
   </trkpt>
   <trkpt lat="46.0241088867188" lon="7.15063428878784">
    <ele>1015.40002441406</ele>
    <time>2012-06-25T14:45:52Z</time>
   </trkpt>
   <trkpt lat="46.024040222168" lon="7.15064287185669">
    <ele>1015.40002441406</ele>
    <time>2012-06-25T14:45:54Z</time>
   </trkpt>
   <trkpt lat="46.0239753723144" lon="7.15065097808838">
    <ele>1016.02856445312</ele>
    <time>2012-06-25T14:45:56Z</time>
   </trkpt>
   <trkpt lat="46.0239448547363" lon="7.15065050125122">
    <ele>1016.34289550781</ele>
    <time>2012-06-25T14:45:57Z</time>
   </trkpt>
   <trkpt lat="46.0239105224609" lon="7.15065431594849">
    <ele>1016.65716552734</ele>
    <time>2012-06-25T14:45:58Z</time>
   </trkpt>
   <trkpt lat="46.0238800048828" lon="7.15065765380859">
    <ele>1016.97143554688</ele>
    <time>2012-06-25T14:45:59Z</time>
   </trkpt>
   <trkpt lat="46.0238494873047" lon="7.15066194534302">
    <ele>1017.28570556641</ele>
    <time>2012-06-25T14:46:00Z</time>
   </trkpt>
   <trkpt lat="46.0237236022949" lon="7.15069198608398">
    <ele>1018.54284667969</ele>
    <time>2012-06-25T14:46:04Z</time>
   </trkpt>
   <trkpt lat="46.0236968994141" lon="7.15070533752441">
    <ele>1018.85711669922</ele>
    <time>2012-06-25T14:46:05Z</time>
   </trkpt>
   <trkpt lat="46.0236663818359" lon="7.15072107315064">
    <ele>1019.17144775391</ele>
    <time>2012-06-25T14:46:06Z</time>
   </trkpt>
   <trkpt lat="46.0236320495606" lon="7.15073013305664">
    <ele>1019.48571777344</ele>
    <time>2012-06-25T14:46:07Z</time>
   </trkpt>
   <trkpt lat="46.0236015319824" lon="7.1507420539856">
    <ele>1019.79998779297</ele>
    <time>2012-06-25T14:46:08Z</time>
   </trkpt>
   <trkpt lat="46.023509979248" lon="7.15077686309814">
    <ele>1019.79998779297</ele>
    <time>2012-06-25T14:46:11Z</time>
   </trkpt>
   <trkpt lat="46.0234451293945" lon="7.1508059501648">
    <ele>1020.46667480469</ele>
    <time>2012-06-25T14:46:13Z</time>
   </trkpt>
   <trkpt lat="46.0234146118164" lon="7.15082263946533">
    <ele>1020.79998779297</ele>
    <time>2012-06-25T14:46:14Z</time>
   </trkpt>
   <trkpt lat="46.0233840942383" lon="7.15083980560303">
    <ele>1021.13330078125</ele>
    <time>2012-06-25T14:46:15Z</time>
   </trkpt>
   <trkpt lat="46.0233535766602" lon="7.15085744857788">
    <ele>1021.46667480469</ele>
    <time>2012-06-25T14:46:16Z</time>
   </trkpt>
   <trkpt lat="46.0233268737793" lon="7.15087890625">
    <ele>1021.79998779297</ele>
    <time>2012-06-25T14:46:17Z</time>
   </trkpt>
   <trkpt lat="46.0232353210449" lon="7.15093898773193">
    <ele>1021.79998779297</ele>
    <time>2012-06-25T14:46:20Z</time>
   </trkpt>
   <trkpt lat="46.0231742858887" lon="7.15098428726196">
    <ele>1022.53332519531</ele>
    <time>2012-06-25T14:46:22Z</time>
   </trkpt>
   <trkpt lat="46.0231437683106" lon="7.15100860595703">
    <ele>1022.90002441406</ele>
    <time>2012-06-25T14:46:23Z</time>
   </trkpt>
   <trkpt lat="46.0231132507324" lon="7.15102767944336">
    <ele>1023.26666259766</ele>
    <time>2012-06-25T14:46:24Z</time>
   </trkpt>
   <trkpt lat="46.0230827331543" lon="7.15105152130127">
    <ele>1023.63330078125</ele>
    <time>2012-06-25T14:46:25Z</time>
   </trkpt>
   <trkpt lat="46.0230522155762" lon="7.15107679367065">
    <ele>1024</ele>
    <time>2012-06-25T14:46:26Z</time>
   </trkpt>
   <trkpt lat="46.0229949951172" lon="7.15112829208374">
    <ele>1024</ele>
    <time>2012-06-25T14:46:28Z</time>
   </trkpt>
   <trkpt lat="46.0229148864746" lon="7.15120649337768">
    <ele>1024.98571777344</ele>
    <time>2012-06-25T14:46:31Z</time>
   </trkpt>
   <trkpt lat="46.0228881835938" lon="7.15123319625854">
    <ele>1025.31433105469</ele>
    <time>2012-06-25T14:46:32Z</time>
   </trkpt>
   <trkpt lat="46.0228614807129" lon="7.1512598991394">
    <ele>1025.64282226562</ele>
    <time>2012-06-25T14:46:33Z</time>
   </trkpt>
   <trkpt lat="46.022834777832" lon="7.15128421783447">
    <ele>1025.97143554688</ele>
    <time>2012-06-25T14:46:34Z</time>
   </trkpt>
   <trkpt lat="46.0227203369141" lon="7.15139722824097">
    <ele>1027.28564453125</ele>
    <time>2012-06-25T14:46:38Z</time>
   </trkpt>
   <trkpt lat="46.0226898193359" lon="7.15142583847046">
    <ele>1027.6142578125</ele>
    <time>2012-06-25T14:46:39Z</time>
   </trkpt>
   <trkpt lat="46.0226669311523" lon="7.15145444869995">
    <ele>1027.94287109375</ele>
    <time>2012-06-25T14:46:40Z</time>
   </trkpt>
   <trkpt lat="46.0226402282715" lon="7.15147972106934">
    <ele>1028.27136230469</ele>
    <time>2012-06-25T14:46:41Z</time>
   </trkpt>
   <trkpt lat="46.0226135253906" lon="7.15150880813599">
    <ele>1028.59997558594</ele>
    <time>2012-06-25T14:46:42Z</time>
   </trkpt>
   <trkpt lat="46.0225105285644" lon="7.1516227722168">
    <ele>1028.59997558594</ele>
    <time>2012-06-25T14:46:46Z</time>
   </trkpt>
   <trkpt lat="46.0224533081055" lon="7.15166616439819">
    <ele>1029.2666015625</ele>
    <time>2012-06-25T14:46:48Z</time>
   </trkpt>
   <trkpt lat="46.0224266052246" lon="7.15168762207031">
    <ele>1029.59997558594</ele>
    <time>2012-06-25T14:46:49Z</time>
   </trkpt>
   <trkpt lat="46.0223999023438" lon="7.15171337127686">
    <ele>1029.93334960938</ele>
    <time>2012-06-25T14:46:50Z</time>
   </trkpt>
   <trkpt lat="46.0223693847656" lon="7.15174007415772">
    <ele>1030.2666015625</ele>
    <time>2012-06-25T14:46:51Z</time>
   </trkpt>
   <trkpt lat="46.0223426818848" lon="7.15176296234131">
    <ele>1030.59997558594</ele>
    <time>2012-06-25T14:46:52Z</time>
   </trkpt>
   <trkpt lat="46.0222854614258" lon="7.15179824829102">
    <ele>1030.59997558594</ele>
    <time>2012-06-25T14:46:54Z</time>
   </trkpt>
   <trkpt lat="46.0221748352051" lon="7.15187644958496">
    <ele>1031.71997070312</ele>
    <time>2012-06-25T14:46:58Z</time>
   </trkpt>
   <trkpt lat="46.0221481323242" lon="7.15189075469971">
    <ele>1032</ele>
    <time>2012-06-25T14:46:59Z</time>
   </trkpt>
   <trkpt lat="46.0221214294434" lon="7.15190935134888">
    <ele>1032.28002929688</ele>
    <time>2012-06-25T14:47:00Z</time>
   </trkpt>
   <trkpt lat="46.0220947265625" lon="7.15192556381226">
    <ele>1032.56005859375</ele>
    <time>2012-06-25T14:47:01Z</time>
   </trkpt>
   <trkpt lat="46.0220680236816" lon="7.15194511413574">
    <ele>1032.83996582031</ele>
    <time>2012-06-25T14:47:02Z</time>
   </trkpt>
   <trkpt lat="46.0219802856445" lon="7.15199184417725">
    <ele>1033.68005371094</ele>
    <time>2012-06-25T14:47:05Z</time>
   </trkpt>
   <trkpt lat="46.0219535827637" lon="7.15200901031494">
    <ele>1033.96008300781</ele>
    <time>2012-06-25T14:47:06Z</time>
   </trkpt>
   <trkpt lat="46.0219268798828" lon="7.15202331542969">
    <ele>1034.23999023438</ele>
    <time>2012-06-25T14:47:07Z</time>
   </trkpt>
   <trkpt lat="46.021900177002" lon="7.15204095840454">
    <ele>1034.52001953125</ele>
    <time>2012-06-25T14:47:08Z</time>
   </trkpt>
   <trkpt lat="46.0218734741211" lon="7.15205717086792">
    <ele>1034.80004882812</ele>
    <time>2012-06-25T14:47:09Z</time>
   </trkpt>
   <trkpt lat="46.021842956543" lon="7.15207195281982">
    <ele>1034.80004882812</ele>
    <time>2012-06-25T14:47:10Z</time>
   </trkpt>
   <trkpt lat="46.0217323303223" lon="7.15213584899902">
    <ele>1035.83532714844</ele>
    <time>2012-06-25T14:47:14Z</time>
   </trkpt>
   <trkpt lat="46.0217056274414" lon="7.15215301513672">
    <ele>1036.09411621094</ele>
    <time>2012-06-25T14:47:15Z</time>
   </trkpt>
   <trkpt lat="46.0216789245606" lon="7.1521692276001">
    <ele>1036.35290527344</ele>
    <time>2012-06-25T14:47:16Z</time>
   </trkpt>
   <trkpt lat="46.0216484069824" lon="7.15218496322632">
    <ele>1036.61181640625</ele>
    <time>2012-06-25T14:47:17Z</time>
   </trkpt>
   <trkpt lat="46.0216217041016" lon="7.15220165252686">
    <ele>1036.87060546875</ele>
    <time>2012-06-25T14:47:18Z</time>
   </trkpt>
   <trkpt lat="46.0214805603027" lon="7.15229368209839">
    <ele>1038.16467285156</ele>
    <time>2012-06-25T14:47:23Z</time>
   </trkpt>
   <trkpt lat="46.0214500427246" lon="7.15231323242188">
    <ele>1038.42346191406</ele>
    <time>2012-06-25T14:47:24Z</time>
   </trkpt>
   <trkpt lat="46.0214233398438" lon="7.15233707427978">
    <ele>1038.68237304688</ele>
    <time>2012-06-25T14:47:25Z</time>
   </trkpt>
   <trkpt lat="46.0213966369629" lon="7.15236186981201">
    <ele>1038.94116210938</ele>
    <time>2012-06-25T14:47:26Z</time>
   </trkpt>
   <trkpt lat="46.021369934082" lon="7.15238428115845">
    <ele>1039.19995117188</ele>
    <time>2012-06-25T14:47:27Z</time>
   </trkpt>
   <trkpt lat="46.0213432312012" lon="7.15240812301636">
    <ele>1039.19995117188</ele>
    <time>2012-06-25T14:47:28Z</time>
   </trkpt>
   <trkpt lat="46.0212669372559" lon="7.15247964859009">
    <ele>1040.14282226562</ele>
    <time>2012-06-25T14:47:31Z</time>
   </trkpt>
   <trkpt lat="46.021240234375" lon="7.15250539779663">
    <ele>1040.45715332031</ele>
    <time>2012-06-25T14:47:32Z</time>
   </trkpt>
   <trkpt lat="46.0212135314941" lon="7.15253114700317">
    <ele>1040.771484375</ele>
    <time>2012-06-25T14:47:33Z</time>
   </trkpt>
   <trkpt lat="46.0211906433106" lon="7.15255689620972">
    <ele>1041.08569335938</ele>
    <time>2012-06-25T14:47:34Z</time>
   </trkpt>
   <trkpt lat="46.0211639404297" lon="7.15258598327637">
    <ele>1041.40002441406</ele>
    <time>2012-06-25T14:47:35Z</time>
   </trkpt>
   <trkpt lat="46.0211181640625" lon="7.15264558792114">
    <ele>1041.40002441406</ele>
    <time>2012-06-25T14:47:37Z</time>
   </trkpt>
   <trkpt lat="46.0210952758789" lon="7.15267181396484">
    <ele>1041.7333984375</ele>
    <time>2012-06-25T14:47:38Z</time>
   </trkpt>
   <trkpt lat="46.0210723876953" lon="7.15270090103149">
    <ele>1042.06665039062</ele>
    <time>2012-06-25T14:47:39Z</time>
   </trkpt>
   <trkpt lat="46.0210494995117" lon="7.15273141860962">
    <ele>1042.40002441406</ele>
    <time>2012-06-25T14:47:40Z</time>
   </trkpt>
   <trkpt lat="46.0210227966309" lon="7.15275812149048">
    <ele>1042.7333984375</ele>
    <time>2012-06-25T14:47:41Z</time>
   </trkpt>
   <trkpt lat="46.0209999084473" lon="7.15278673171997">
    <ele>1043.06665039062</ele>
    <time>2012-06-25T14:47:42Z</time>
   </trkpt>
   <trkpt lat="46.0209808349609" lon="7.15281820297241">
    <ele>1043.40002441406</ele>
    <time>2012-06-25T14:47:43Z</time>
   </trkpt>
   <trkpt lat="46.0209083557129" lon="7.152916431427">
    <ele>1043.40002441406</ele>
    <time>2012-06-25T14:47:46Z</time>
   </trkpt>
   <trkpt lat="46.0208435058594" lon="7.15300559997559">
    <ele>1044.34289550781</ele>
    <time>2012-06-25T14:47:49Z</time>
   </trkpt>
   <trkpt lat="46.0208206176758" lon="7.15303373336792">
    <ele>1044.65710449219</ele>
    <time>2012-06-25T14:47:50Z</time>
   </trkpt>
   <trkpt lat="46.0208015441894" lon="7.15306282043457">
    <ele>1044.97143554688</ele>
    <time>2012-06-25T14:47:51Z</time>
   </trkpt>
   <trkpt lat="46.0207748413086" lon="7.15309381484985">
    <ele>1045.28564453125</ele>
    <time>2012-06-25T14:47:52Z</time>
   </trkpt>
   <trkpt lat="46.020751953125" lon="7.1531229019165">
    <ele>1045.59997558594</ele>
    <time>2012-06-25T14:47:53Z</time>
   </trkpt>
   <trkpt lat="46.0206909179688" lon="7.15322494506836">
    <ele>1045.59997558594</ele>
    <time>2012-06-25T14:47:56Z</time>
   </trkpt>
   <trkpt lat="46.0205955505371" lon="7.15340042114258">
    <ele>1046.7666015625</ele>
    <time>2012-06-25T14:48:01Z</time>
   </trkpt>
   <trkpt lat="46.0205764770508" lon="7.15343475341797">
    <ele>1047</ele>
    <time>2012-06-25T14:48:02Z</time>
   </trkpt>
   <trkpt lat="46.0205574035644" lon="7.15346956253052">
    <ele>1047.2333984375</ele>
    <time>2012-06-25T14:48:03Z</time>
   </trkpt>
   <trkpt lat="46.0205345153809" lon="7.15350341796875">
    <ele>1047.46667480469</ele>
    <time>2012-06-25T14:48:04Z</time>
   </trkpt>
   <trkpt lat="46.0205154418945" lon="7.15353679656982">
    <ele>1047.69995117188</ele>
    <time>2012-06-25T14:48:05Z</time>
   </trkpt>
   <trkpt lat="46.0204086303711" lon="7.15374851226807">
    <ele>1049.10009765625</ele>
    <time>2012-06-25T14:48:11Z</time>
   </trkpt>
   <trkpt lat="46.020393371582" lon="7.1537880897522">
    <ele>1049.33337402344</ele>
    <time>2012-06-25T14:48:12Z</time>
   </trkpt>
   <trkpt lat="46.0203742980957" lon="7.15382099151611">
    <ele>1049.56665039062</ele>
    <time>2012-06-25T14:48:13Z</time>
   </trkpt>
   <trkpt lat="46.0203552246094" lon="7.1538553237915">
    <ele>1049.80004882812</ele>
    <time>2012-06-25T14:48:14Z</time>
   </trkpt>
   <trkpt lat="46.0202713012695" lon="7.15403413772583">
    <ele>1049.80004882812</ele>
    <time>2012-06-25T14:48:19Z</time>
   </trkpt>
   <trkpt lat="46.0202560424805" lon="7.15407037734985">
    <ele>1050.09655761719</ele>
    <time>2012-06-25T14:48:20Z</time>
   </trkpt>
   <trkpt lat="46.0202407836914" lon="7.15410709381104">
    <ele>1050.39318847656</ele>
    <time>2012-06-25T14:48:21Z</time>
   </trkpt>
   <trkpt lat="46.0202255249023" lon="7.15414524078369">
    <ele>1050.68969726562</ele>
    <time>2012-06-25T14:48:22Z</time>
   </trkpt>
   <trkpt lat="46.020206451416" lon="7.15418004989624">
    <ele>1050.98620605469</ele>
    <time>2012-06-25T14:48:23Z</time>
   </trkpt>
   <trkpt lat="46.020191192627" lon="7.15421485900879">
    <ele>1051.28283691406</ele>
    <time>2012-06-25T14:48:24Z</time>
   </trkpt>
   <trkpt lat="46.0201225280762" lon="7.15435886383057">
    <ele>1052.46899414062</ele>
    <time>2012-06-25T14:48:28Z</time>
   </trkpt>
   <trkpt lat="46.0201072692871" lon="7.15439462661743">
    <ele>1052.76550292969</ele>
    <time>2012-06-25T14:48:29Z</time>
   </trkpt>
   <trkpt lat="46.0200958251953" lon="7.15443229675293">
    <ele>1053.06213378906</ele>
    <time>2012-06-25T14:48:30Z</time>
   </trkpt>
   <trkpt lat="46.0200805664062" lon="7.1544680595398">
    <ele>1053.35864257812</ele>
    <time>2012-06-25T14:48:31Z</time>
   </trkpt>
   <trkpt lat="46.0200653076172" lon="7.1545033454895">
    <ele>1053.65515136719</ele>
    <time>2012-06-25T14:48:32Z</time>
   </trkpt>
   <trkpt lat="46.0200004577637" lon="7.15465068817139">
    <ele>1054.84143066406</ele>
    <time>2012-06-25T14:48:36Z</time>
   </trkpt>
   <trkpt lat="46.0199851989746" lon="7.15469169616699">
    <ele>1055.13793945312</ele>
    <time>2012-06-25T14:48:37Z</time>
   </trkpt>
   <trkpt lat="46.0199699401856" lon="7.15472841262817">
    <ele>1055.4345703125</ele>
    <time>2012-06-25T14:48:38Z</time>
   </trkpt>
   <trkpt lat="46.0199546813965" lon="7.15476608276367">
    <ele>1055.73107910156</ele>
    <time>2012-06-25T14:48:39Z</time>
   </trkpt>
   <trkpt lat="46.0198783874512" lon="7.15494203567505">
    <ele>1057.2138671875</ele>
    <time>2012-06-25T14:48:44Z</time>
   </trkpt>
   <trkpt lat="46.0198631286621" lon="7.15497922897339">
    <ele>1057.51037597656</ele>
    <time>2012-06-25T14:48:45Z</time>
   </trkpt>
   <trkpt lat="46.019847869873" lon="7.15501832962036">
    <ele>1057.80688476562</ele>
    <time>2012-06-25T14:48:46Z</time>
   </trkpt>
   <trkpt lat="46.019832611084" lon="7.15505838394165">
    <ele>1058.103515625</ele>
    <time>2012-06-25T14:48:47Z</time>
   </trkpt>
   <trkpt lat="46.0198173522949" lon="7.15509510040283">
    <ele>1058.40002441406</ele>
    <time>2012-06-25T14:48:48Z</time>
   </trkpt>
   <trkpt lat="46.0196914672852" lon="7.15536499023438">
    <ele>1058.40002441406</ele>
    <time>2012-06-25T14:48:56Z</time>
   </trkpt>
   <trkpt lat="46.0196571350098" lon="7.15544033050537">
    <ele>1059.28002929688</ele>
    <time>2012-06-25T14:48:58Z</time>
   </trkpt>
   <trkpt lat="46.0196380615234" lon="7.15547752380371">
    <ele>1059.71997070312</ele>
    <time>2012-06-25T14:48:59Z</time>
   </trkpt>
   <trkpt lat="46.0196189880371" lon="7.15551280975342">
    <ele>1060.16003417969</ele>
    <time>2012-06-25T14:49:00Z</time>
   </trkpt>
   <trkpt lat="46.0195999145508" lon="7.15554809570312">
    <ele>1060.59997558594</ele>
    <time>2012-06-25T14:49:01Z</time>
   </trkpt>
   <trkpt lat="46.0195579528809" lon="7.15561723709106">
    <ele>1060.59997558594</ele>
    <time>2012-06-25T14:49:03Z</time>
   </trkpt>
   <trkpt lat="46.0195198059082" lon="7.155686378479">
    <ele>1061.1513671875</ele>
    <time>2012-06-25T14:49:05Z</time>
   </trkpt>
   <trkpt lat="46.0195007324219" lon="7.15571784973144">
    <ele>1061.42700195312</ele>
    <time>2012-06-25T14:49:06Z</time>
   </trkpt>
   <trkpt lat="46.0194778442383" lon="7.15574932098389">
    <ele>1061.70263671875</ele>
    <time>2012-06-25T14:49:07Z</time>
   </trkpt>
   <trkpt lat="46.0194549560547" lon="7.1557822227478">
    <ele>1061.97839355469</ele>
    <time>2012-06-25T14:49:08Z</time>
   </trkpt>
   <trkpt lat="46.0194320678711" lon="7.15581274032593">
    <ele>1062.25402832031</ele>
    <time>2012-06-25T14:49:09Z</time>
   </trkpt>
   <trkpt lat="46.0193710327148" lon="7.1559009552002">
    <ele>1063.0810546875</ele>
    <time>2012-06-25T14:49:12Z</time>
   </trkpt>
   <trkpt lat="46.0193519592285" lon="7.15592956542969">
    <ele>1063.35681152344</ele>
    <time>2012-06-25T14:49:13Z</time>
   </trkpt>
   <trkpt lat="46.0193290710449" lon="7.1559567451477">
    <ele>1063.63244628906</ele>
    <time>2012-06-25T14:49:14Z</time>
   </trkpt>
   <trkpt lat="46.0193061828613" lon="7.15598583221436">
    <ele>1063.90808105469</ele>
    <time>2012-06-25T14:49:15Z</time>
   </trkpt>
   <trkpt lat="46.0192794799805" lon="7.15601015090942">
    <ele>1064.18383789062</ele>
    <time>2012-06-25T14:49:16Z</time>
   </trkpt>
   <trkpt lat="46.0192108154297" lon="7.15609359741211">
    <ele>1065.01086425781</ele>
    <time>2012-06-25T14:49:19Z</time>
   </trkpt>
   <trkpt lat="46.0191917419434" lon="7.15612173080444">
    <ele>1065.28649902344</ele>
    <time>2012-06-25T14:49:20Z</time>
   </trkpt>
   <trkpt lat="46.0191688537598" lon="7.15614891052246">
    <ele>1065.56213378906</ele>
    <time>2012-06-25T14:49:21Z</time>
   </trkpt>
   <trkpt lat="46.0191459655762" lon="7.15617799758911">
    <ele>1065.837890625</ele>
    <time>2012-06-25T14:49:22Z</time>
   </trkpt>
   <trkpt lat="46.0191192626953" lon="7.15620517730713">
    <ele>1066.11352539062</ele>
    <time>2012-06-25T14:49:23Z</time>
   </trkpt>
   <trkpt lat="46.0190391540527" lon="7.15631866455078">
    <ele>1067.21618652344</ele>
    <time>2012-06-25T14:49:27Z</time>
   </trkpt>
   <trkpt lat="46.0190200805664" lon="7.15634441375732">
    <ele>1067.49194335938</ele>
    <time>2012-06-25T14:49:28Z</time>
   </trkpt>
   <trkpt lat="46.0190010070801" lon="7.15637016296387">
    <ele>1067.767578125</ele>
    <time>2012-06-25T14:49:29Z</time>
   </trkpt>
   <trkpt lat="46.0189781188965" lon="7.15639877319336">
    <ele>1068.04321289062</ele>
    <time>2012-06-25T14:49:30Z</time>
   </trkpt>
   <trkpt lat="46.0189628601074" lon="7.15643310546875">
    <ele>1068.31896972656</ele>
    <time>2012-06-25T14:49:31Z</time>
   </trkpt>
   <trkpt lat="46.0188674926758" lon="7.15659618377686">
    <ele>1069.69738769531</ele>
    <time>2012-06-25T14:49:36Z</time>
   </trkpt>
   <trkpt lat="46.0188446044922" lon="7.15662622451782">
    <ele>1069.97302246094</ele>
    <time>2012-06-25T14:49:37Z</time>
   </trkpt>
   <trkpt lat="46.0188293457031" lon="7.15665817260742">
    <ele>1070.24865722656</ele>
    <time>2012-06-25T14:49:38Z</time>
   </trkpt>
   <trkpt lat="46.0188102722168" lon="7.1566915512085">
    <ele>1070.5244140625</ele>
    <time>2012-06-25T14:49:39Z</time>
   </trkpt>
   <trkpt lat="46.0187911987305" lon="7.15672302246094">
    <ele>1070.80004882812</ele>
    <time>2012-06-25T14:49:40Z</time>
   </trkpt>
   <trkpt lat="46.0187492370606" lon="7.15682315826416">
    <ele>1070.80004882812</ele>
    <time>2012-06-25T14:49:43Z</time>
   </trkpt>
   <trkpt lat="46.0187339782715" lon="7.15685987472534">
    <ele>1071.13854980469</ele>
    <time>2012-06-25T14:49:44Z</time>
   </trkpt>
   <trkpt lat="46.0187187194824" lon="7.15689992904663">
    <ele>1071.47692871094</ele>
    <time>2012-06-25T14:49:45Z</time>
   </trkpt>
   <trkpt lat="46.0187034606934" lon="7.15694093704224">
    <ele>1071.8154296875</ele>
    <time>2012-06-25T14:49:46Z</time>
   </trkpt>
   <trkpt lat="46.018684387207" lon="7.15697908401489">
    <ele>1072.15380859375</ele>
    <time>2012-06-25T14:49:47Z</time>
   </trkpt>
   <trkpt lat="46.018669128418" lon="7.15701627731323">
    <ele>1072.49230957031</ele>
    <time>2012-06-25T14:49:48Z</time>
   </trkpt>
   <trkpt lat="46.018611907959" lon="7.15715312957764">
    <ele>1073.84619140625</ele>
    <time>2012-06-25T14:49:52Z</time>
   </trkpt>
   <trkpt lat="46.0186004638672" lon="7.15718984603882">
    <ele>1074.1845703125</ele>
    <time>2012-06-25T14:49:53Z</time>
   </trkpt>
   <trkpt lat="46.0185890197754" lon="7.1572265625">
    <ele>1074.52307128906</ele>
    <time>2012-06-25T14:49:54Z</time>
   </trkpt>
   <trkpt lat="46.0185775756836" lon="7.15726375579834">
    <ele>1074.86145019531</ele>
    <time>2012-06-25T14:49:55Z</time>
   </trkpt>
   <trkpt lat="46.0185661315918" lon="7.15730237960815">
    <ele>1075.19995117188</ele>
    <time>2012-06-25T14:49:56Z</time>
   </trkpt>
   <trkpt lat="46.0185050964356" lon="7.15749740600586">
    <ele>1075.19995117188</ele>
    <time>2012-06-25T14:50:01Z</time>
   </trkpt>
   <trkpt lat="46.018497467041" lon="7.15753698348999">
    <ele>1075.56665039062</ele>
    <time>2012-06-25T14:50:02Z</time>
   </trkpt>
   <trkpt lat="46.0184898376465" lon="7.15757369995117">
    <ele>1075.93334960938</ele>
    <time>2012-06-25T14:50:03Z</time>
   </trkpt>
   <trkpt lat="46.0184783935547" lon="7.15761089324951">
    <ele>1076.30004882812</ele>
    <time>2012-06-25T14:50:04Z</time>
   </trkpt>
   <trkpt lat="46.0184669494629" lon="7.15765190124512">
    <ele>1076.66662597656</ele>
    <time>2012-06-25T14:50:05Z</time>
   </trkpt>
   <trkpt lat="46.0184593200684" lon="7.15769195556641">
    <ele>1077.03332519531</ele>
    <time>2012-06-25T14:50:06Z</time>
   </trkpt>
   <trkpt lat="46.0184516906738" lon="7.15773248672485">
    <ele>1077.40002441406</ele>
    <time>2012-06-25T14:50:07Z</time>
   </trkpt>
   <trkpt lat="46.018440246582" lon="7.15777492523193">
    <ele>1077.40002441406</ele>
    <time>2012-06-25T14:50:08Z</time>
   </trkpt>
   <trkpt lat="46.0184211730957" lon="7.15785360336304">
    <ele>1078.13330078125</ele>
    <time>2012-06-25T14:50:10Z</time>
   </trkpt>
   <trkpt lat="46.0184097290039" lon="7.15789127349854">
    <ele>1078.5</ele>
    <time>2012-06-25T14:50:11Z</time>
   </trkpt>
   <trkpt lat="46.0184020996094" lon="7.15793085098267">
    <ele>1078.86669921875</ele>
    <time>2012-06-25T14:50:12Z</time>
   </trkpt>
   <trkpt lat="46.0183944702148" lon="7.15797090530396">
    <ele>1079.23327636719</ele>
    <time>2012-06-25T14:50:13Z</time>
   </trkpt>
   <trkpt lat="46.0183868408203" lon="7.15800714492798">
    <ele>1079.59997558594</ele>
    <time>2012-06-25T14:50:14Z</time>
   </trkpt>
   <trkpt lat="46.0183563232422" lon="7.15812826156616">
    <ele>1079.59997558594</ele>
    <time>2012-06-25T14:50:17Z</time>
   </trkpt>
   <trkpt lat="46.0183296203613" lon="7.15824460983276">
    <ele>1080.15380859375</ele>
    <time>2012-06-25T14:50:20Z</time>
   </trkpt>
   <trkpt lat="46.0182800292969" lon="7.15848064422607">
    <ele>1081.26147460938</ele>
    <time>2012-06-25T14:50:26Z</time>
   </trkpt>
   <trkpt lat="46.0182685852051" lon="7.15852165222168">
    <ele>1081.44616699219</ele>
    <time>2012-06-25T14:50:27Z</time>
   </trkpt>
   <trkpt lat="46.0182609558106" lon="7.15856122970581">
    <ele>1081.63073730469</ele>
    <time>2012-06-25T14:50:28Z</time>
   </trkpt>
   <trkpt lat="46.018253326416" lon="7.1585955619812">
    <ele>1081.8154296875</ele>
    <time>2012-06-25T14:50:29Z</time>
   </trkpt>
   <trkpt lat="46.0182418823242" lon="7.15863275527954">
    <ele>1082</ele>
    <time>2012-06-25T14:50:30Z</time>
   </trkpt>
   <trkpt lat="46.0182228088379" lon="7.15874576568604">
    <ele>1082</ele>
    <time>2012-06-25T14:50:33Z</time>
   </trkpt>
   <trkpt lat="46.0182075500488" lon="7.15882110595703">
    <ele>1082.28576660156</ele>
    <time>2012-06-25T14:50:35Z</time>
   </trkpt>
   <trkpt lat="46.0181617736816" lon="7.15906476974487">
    <ele>1083.14282226562</ele>
    <time>2012-06-25T14:50:41Z</time>
   </trkpt>
   <trkpt lat="46.018138885498" lon="7.15914154052734">
    <ele>1083.42858886719</ele>
    <time>2012-06-25T14:50:43Z</time>
   </trkpt>
   <trkpt lat="46.0181274414062" lon="7.15918207168579">
    <ele>1083.57141113281</ele>
    <time>2012-06-25T14:50:44Z</time>
   </trkpt>
   <trkpt lat="46.0181159973144" lon="7.15922021865845">
    <ele>1083.71423339844</ele>
    <time>2012-06-25T14:50:45Z</time>
   </trkpt>
   <trkpt lat="46.0181007385254" lon="7.15925645828247">
    <ele>1083.85717773438</ele>
    <time>2012-06-25T14:50:46Z</time>
   </trkpt>
   <trkpt lat="46.0180854797363" lon="7.15929174423218">
    <ele>1084</ele>
    <time>2012-06-25T14:50:47Z</time>
   </trkpt>
   <trkpt lat="46.0180702209473" lon="7.15932416915894">
    <ele>1084</ele>
    <time>2012-06-25T14:50:48Z</time>
   </trkpt>
   <trkpt lat="46.0180320739746" lon="7.1593828201294">
    <ele>1084.58666992188</ele>
    <time>2012-06-25T14:50:50Z</time>
   </trkpt>
   <trkpt lat="46.0180130004883" lon="7.15941429138184">
    <ele>1084.88000488281</ele>
    <time>2012-06-25T14:50:51Z</time>
   </trkpt>
   <trkpt lat="46.0179672241211" lon="7.15946197509766">
    <ele>1085.46667480469</ele>
    <time>2012-06-25T14:50:53Z</time>
   </trkpt>
   <trkpt lat="46.0179481506348" lon="7.15948295593262">
    <ele>1085.76000976562</ele>
    <time>2012-06-25T14:50:54Z</time>
   </trkpt>
   <trkpt lat="46.0179290771484" lon="7.15950679779053">
    <ele>1086.05334472656</ele>
    <time>2012-06-25T14:50:55Z</time>
   </trkpt>
   <trkpt lat="46.0179100036621" lon="7.15952920913696">
    <ele>1086.3466796875</ele>
    <time>2012-06-25T14:50:56Z</time>
   </trkpt>
   <trkpt lat="46.0178871154785" lon="7.15955829620361">
    <ele>1086.64001464844</ele>
    <time>2012-06-25T14:50:57Z</time>
   </trkpt>
   <trkpt lat="46.0178489685059" lon="7.15960454940796">
    <ele>1087.22668457031</ele>
    <time>2012-06-25T14:50:59Z</time>
   </trkpt>
   <trkpt lat="46.0178298950195" lon="7.15963172912598">
    <ele>1087.52001953125</ele>
    <time>2012-06-25T14:51:00Z</time>
   </trkpt>
   <trkpt lat="46.0178108215332" lon="7.15966129302978">
    <ele>1087.81335449219</ele>
    <time>2012-06-25T14:51:01Z</time>
   </trkpt>
   <trkpt lat="46.0177955627441" lon="7.15968656539917">
    <ele>1088.10668945312</ele>
    <time>2012-06-25T14:51:02Z</time>
   </trkpt>
   <trkpt lat="46.0177764892578" lon="7.15971183776856">
    <ele>1088.40002441406</ele>
    <time>2012-06-25T14:51:03Z</time>
   </trkpt>
   <trkpt lat="46.0177459716797" lon="7.15977478027344">
    <ele>1088.40002441406</ele>
    <time>2012-06-25T14:51:05Z</time>
   </trkpt>
   <trkpt lat="46.0177307128906" lon="7.15981292724609">
    <ele>1088.59997558594</ele>
    <time>2012-06-25T14:51:06Z</time>
   </trkpt>
   <trkpt lat="46.0177116394043" lon="7.15989065170288">
    <ele>1089</ele>
    <time>2012-06-25T14:51:08Z</time>
   </trkpt>
   <trkpt lat="46.017692565918" lon="7.15996837615967">
    <ele>1089.40002441406</ele>
    <time>2012-06-25T14:51:10Z</time>
   </trkpt>
   <trkpt lat="46.0176849365234" lon="7.1600079536438">
    <ele>1089.59997558594</ele>
    <time>2012-06-25T14:51:11Z</time>
   </trkpt>
   <trkpt lat="46.0176849365234" lon="7.16004514694214">
    <ele>1089.80004882812</ele>
    <time>2012-06-25T14:51:12Z</time>
   </trkpt>
   <trkpt lat="46.0176811218262" lon="7.16008281707764">
    <ele>1090</ele>
    <time>2012-06-25T14:51:13Z</time>
   </trkpt>
   <trkpt lat="46.0176773071289" lon="7.16011762619018">
    <ele>1090.20007324219</ele>
    <time>2012-06-25T14:51:14Z</time>
   </trkpt>
   <trkpt lat="46.0176696777344" lon="7.16015911102295">
    <ele>1090.40002441406</ele>
    <time>2012-06-25T14:51:15Z</time>
   </trkpt>
   <trkpt lat="46.0176200866699" lon="7.16039562225342">
    <ele>1090.40002441406</ele>
    <time>2012-06-25T14:51:21Z</time>
   </trkpt>
   <trkpt lat="46.0175895690918" lon="7.16046380996704">
    <ele>1091.13330078125</ele>
    <time>2012-06-25T14:51:23Z</time>
   </trkpt>
   <trkpt lat="46.0175704956055" lon="7.16050100326538">
    <ele>1091.5</ele>
    <time>2012-06-25T14:51:24Z</time>
   </trkpt>
   <trkpt lat="46.0175514221191" lon="7.16054010391235">
    <ele>1091.86669921875</ele>
    <time>2012-06-25T14:51:25Z</time>
   </trkpt>
   <trkpt lat="46.0175361633301" lon="7.16057252883911">
    <ele>1092.23327636719</ele>
    <time>2012-06-25T14:51:26Z</time>
   </trkpt>
   <trkpt lat="46.0175170898438" lon="7.16059732437134">
    <ele>1092.59997558594</ele>
    <time>2012-06-25T14:51:27Z</time>
   </trkpt>
   <trkpt lat="46.0174751281738" lon="7.16064596176148">
    <ele>1092.59997558594</ele>
    <time>2012-06-25T14:51:29Z</time>
   </trkpt>
   <trkpt lat="46.0174407958984" lon="7.16071271896362">
    <ele>1093.18664550781</ele>
    <time>2012-06-25T14:51:31Z</time>
   </trkpt>
   <trkpt lat="46.0174217224121" lon="7.1607460975647">
    <ele>1093.47998046875</ele>
    <time>2012-06-25T14:51:32Z</time>
   </trkpt>
   <trkpt lat="46.0174026489258" lon="7.16077852249146">
    <ele>1093.77331542969</ele>
    <time>2012-06-25T14:51:33Z</time>
   </trkpt>
   <trkpt lat="46.0173835754394" lon="7.16081237792969">
    <ele>1094.06665039062</ele>
    <time>2012-06-25T14:51:34Z</time>
   </trkpt>
   <trkpt lat="46.0173645019531" lon="7.16084957122803">
    <ele>1094.35998535156</ele>
    <time>2012-06-25T14:51:35Z</time>
   </trkpt>
   <trkpt lat="46.0173149108887" lon="7.16104745864868">
    <ele>1095.82666015625</ele>
    <time>2012-06-25T14:51:40Z</time>
   </trkpt>
   <trkpt lat="46.0173034667969" lon="7.16109800338745">
    <ele>1096.11999511719</ele>
    <time>2012-06-25T14:51:41Z</time>
   </trkpt>
   <trkpt lat="46.0173034667969" lon="7.16114091873169">
    <ele>1096.41333007812</ele>
    <time>2012-06-25T14:51:42Z</time>
   </trkpt>
   <trkpt lat="46.0173034667969" lon="7.16117906570435">
    <ele>1096.70666503906</ele>
    <time>2012-06-25T14:51:43Z</time>
   </trkpt>
   <trkpt lat="46.0173072814941" lon="7.16121625900268">
    <ele>1097</ele>
    <time>2012-06-25T14:51:44Z</time>
   </trkpt>
   <trkpt lat="46.0173110961914" lon="7.1612548828125">
    <ele>1097</ele>
    <time>2012-06-25T14:51:45Z</time>
   </trkpt>
   <trkpt lat="46.0173301696777" lon="7.16146659851074">
    <ele>1098.11108398438</ele>
    <time>2012-06-25T14:51:50Z</time>
   </trkpt>
   <trkpt lat="46.0173301696777" lon="7.16150999069214">
    <ele>1098.33337402344</ele>
    <time>2012-06-25T14:51:51Z</time>
   </trkpt>
   <trkpt lat="46.0173263549805" lon="7.16155290603638">
    <ele>1098.55554199219</ele>
    <time>2012-06-25T14:51:52Z</time>
   </trkpt>
   <trkpt lat="46.0173187255859" lon="7.1615948677063">
    <ele>1098.77783203125</ele>
    <time>2012-06-25T14:51:53Z</time>
   </trkpt>
   <trkpt lat="46.0173072814941" lon="7.1616325378418">
    <ele>1099</ele>
    <time>2012-06-25T14:51:54Z</time>
   </trkpt>
   <trkpt lat="46.0172080993652" lon="7.16175127029419">
    <ele>1099</ele>
    <time>2012-06-25T14:51:58Z</time>
   </trkpt>
   <trkpt lat="46.01708984375" lon="7.16173458099365">
    <ele>1100.09997558594</ele>
    <time>2012-06-25T14:52:02Z</time>
   </trkpt>
   <trkpt lat="46.0170631408691" lon="7.16170597076416">
    <ele>1100.375</ele>
    <time>2012-06-25T14:52:03Z</time>
   </trkpt>
   <trkpt lat="46.0170402526856" lon="7.16168022155762">
    <ele>1100.64990234375</ele>
    <time>2012-06-25T14:52:04Z</time>
   </trkpt>
   <trkpt lat="46.0170211791992" lon="7.16164445877075">
    <ele>1100.92492675781</ele>
    <time>2012-06-25T14:52:05Z</time>
   </trkpt>
   <trkpt lat="46.0170021057129" lon="7.16160774230957">
    <ele>1101.19995117188</ele>
    <time>2012-06-25T14:52:06Z</time>
   </trkpt>
   <trkpt lat="46.0169563293457" lon="7.16154670715332">
    <ele>1101.19995117188</ele>
    <time>2012-06-25T14:52:08Z</time>
   </trkpt>
   <trkpt lat="46.0168800354004" lon="7.1614179611206">
    <ele>1102.177734375</ele>
    <time>2012-06-25T14:52:12Z</time>
   </trkpt>
   <trkpt lat="46.0168571472168" lon="7.16138315200806">
    <ele>1102.42224121094</ele>
    <time>2012-06-25T14:52:13Z</time>
   </trkpt>
   <trkpt lat="46.016845703125" lon="7.1613507270813">
    <ele>1102.66662597656</ele>
    <time>2012-06-25T14:52:14Z</time>
   </trkpt>
   <trkpt lat="46.0168266296387" lon="7.1613130569458">
    <ele>1102.9111328125</ele>
    <time>2012-06-25T14:52:15Z</time>
   </trkpt>
   <trkpt lat="46.0168113708496" lon="7.16128540039062">
    <ele>1103.15551757812</ele>
    <time>2012-06-25T14:52:16Z</time>
   </trkpt>
   <trkpt lat="46.0167961120606" lon="7.16125535964966">
    <ele>1103.40002441406</ele>
    <time>2012-06-25T14:52:17Z</time>
   </trkpt>
   <trkpt lat="46.0167808532715" lon="7.16122770309448">
    <ele>1103.40002441406</ele>
    <time>2012-06-25T14:52:18Z</time>
   </trkpt>
   <trkpt lat="46.0167388916016" lon="7.16114091873169">
    <ele>1104.25720214844</ele>
    <time>2012-06-25T14:52:21Z</time>
   </trkpt>
   <trkpt lat="46.0167274475098" lon="7.16111326217651">
    <ele>1104.54284667969</ele>
    <time>2012-06-25T14:52:22Z</time>
   </trkpt>
   <trkpt lat="46.0167083740234" lon="7.16108989715576">
    <ele>1104.82861328125</ele>
    <time>2012-06-25T14:52:23Z</time>
   </trkpt>
   <trkpt lat="46.0166931152344" lon="7.16106462478638">
    <ele>1105.1142578125</ele>
    <time>2012-06-25T14:52:24Z</time>
   </trkpt>
   <trkpt lat="46.0166778564453" lon="7.1610426902771">
    <ele>1105.40002441406</ele>
    <time>2012-06-25T14:52:25Z</time>
   </trkpt>
   <trkpt lat="46.0165634155273" lon="7.1609673500061">
    <ele>1105.40002441406</ele>
    <time>2012-06-25T14:52:30Z</time>
   </trkpt>
   <trkpt lat="46.0165367126465" lon="7.16096353530884">
    <ele>1105.80004882812</ele>
    <time>2012-06-25T14:52:31Z</time>
   </trkpt>
   <trkpt lat="46.0165100097656" lon="7.1609582901001">
    <ele>1106.20007324219</ele>
    <time>2012-06-25T14:52:32Z</time>
   </trkpt>
   <trkpt lat="46.016487121582" lon="7.16095590591431">
    <ele>1106.59997558594</ele>
    <time>2012-06-25T14:52:33Z</time>
   </trkpt>
   <trkpt lat="46.0164604187012" lon="7.16095781326294">
    <ele>1107</ele>
    <time>2012-06-25T14:52:34Z</time>
   </trkpt>
   <trkpt lat="46.0164375305176" lon="7.16096067428589">
    <ele>1107.40002441406</ele>
    <time>2012-06-25T14:52:35Z</time>
   </trkpt>
   <trkpt lat="46.0163879394531" lon="7.16097736358643">
    <ele>1107.40002441406</ele>
    <time>2012-06-25T14:52:37Z</time>
   </trkpt>
   <trkpt lat="46.0162925720215" lon="7.16105604171753">
    <ele>1108.28002929688</ele>
    <time>2012-06-25T14:52:41Z</time>
   </trkpt>
   <trkpt lat="46.0162544250488" lon="7.16111135482788">
    <ele>1108.71997070312</ele>
    <time>2012-06-25T14:52:43Z</time>
   </trkpt>
   <trkpt lat="46.0162391662598" lon="7.16114187240601">
    <ele>1108.93994140625</ele>
    <time>2012-06-25T14:52:44Z</time>
   </trkpt>
   <trkpt lat="46.0162239074707" lon="7.1611762046814">
    <ele>1109.16003417969</ele>
    <time>2012-06-25T14:52:45Z</time>
   </trkpt>
   <trkpt lat="46.0162086486816" lon="7.16121339797974">
    <ele>1109.38000488281</ele>
    <time>2012-06-25T14:52:46Z</time>
   </trkpt>
   <trkpt lat="46.0161972045898" lon="7.16124868392944">
    <ele>1109.59997558594</ele>
    <time>2012-06-25T14:52:47Z</time>
   </trkpt>
   <trkpt lat="46.016170501709" lon="7.16136121749878">
    <ele>1109.59997558594</ele>
    <time>2012-06-25T14:52:50Z</time>
   </trkpt>
   <trkpt lat="46.0161552429199" lon="7.16148090362549">
    <ele>1110.54284667969</ele>
    <time>2012-06-25T14:52:53Z</time>
   </trkpt>
   <trkpt lat="46.0161552429199" lon="7.16152429580688">
    <ele>1110.85717773438</ele>
    <time>2012-06-25T14:52:54Z</time>
   </trkpt>
   <trkpt lat="46.0161514282227" lon="7.16156387329102">
    <ele>1111.17150878906</ele>
    <time>2012-06-25T14:52:55Z</time>
   </trkpt>
   <trkpt lat="46.0161476135254" lon="7.16160488128662">
    <ele>1111.48571777344</ele>
    <time>2012-06-25T14:52:56Z</time>
   </trkpt>
   <trkpt lat="46.0161476135254" lon="7.1616415977478">
    <ele>1111.80004882812</ele>
    <time>2012-06-25T14:52:57Z</time>
   </trkpt>
   <trkpt lat="46.0161437988281" lon="7.16168165206909">
    <ele>1111.80004882812</ele>
    <time>2012-06-25T14:52:58Z</time>
   </trkpt>
   <trkpt lat="46.0161170959473" lon="7.16190814971924">
    <ele>1113.26672363281</ele>
    <time>2012-06-25T14:53:04Z</time>
   </trkpt>
   <trkpt lat="46.0161170959473" lon="7.16194677352905">
    <ele>1113.51110839844</ele>
    <time>2012-06-25T14:53:05Z</time>
   </trkpt>
   <trkpt lat="46.01611328125" lon="7.16198778152466">
    <ele>1113.75561523438</ele>
    <time>2012-06-25T14:53:06Z</time>
   </trkpt>
   <trkpt lat="46.0161094665527" lon="7.16202402114868">
    <ele>1114</ele>
    <time>2012-06-25T14:53:07Z</time>
   </trkpt>
   <trkpt lat="46.0160903930664" lon="7.16220855712891">
    <ele>1115.22216796875</ele>
    <time>2012-06-25T14:53:12Z</time>
   </trkpt>
   <trkpt lat="46.0160865783691" lon="7.16224813461304">
    <ele>1115.46667480469</ele>
    <time>2012-06-25T14:53:13Z</time>
   </trkpt>
   <trkpt lat="46.0160827636719" lon="7.16228723526001">
    <ele>1115.71105957031</ele>
    <time>2012-06-25T14:53:14Z</time>
   </trkpt>
   <trkpt lat="46.0160789489746" lon="7.1623272895813">
    <ele>1115.95556640625</ele>
    <time>2012-06-25T14:53:15Z</time>
   </trkpt>
   <trkpt lat="46.0160713195801" lon="7.16236543655396">
    <ele>1116.19995117188</ele>
    <time>2012-06-25T14:53:16Z</time>
   </trkpt>
   <trkpt lat="46.0160675048828" lon="7.1624059677124">
    <ele>1116.19995117188</ele>
    <time>2012-06-25T14:53:17Z</time>
   </trkpt>
   <trkpt lat="46.0159873962402" lon="7.16269731521606">
    <ele>1117.66662597656</ele>
    <time>2012-06-25T14:53:25Z</time>
   </trkpt>
   <trkpt lat="46.0159759521484" lon="7.1627345085144">
    <ele>1117.84997558594</ele>
    <time>2012-06-25T14:53:26Z</time>
   </trkpt>
   <trkpt lat="46.0159606933594" lon="7.16276931762695">
    <ele>1118.03332519531</ele>
    <time>2012-06-25T14:53:27Z</time>
   </trkpt>
   <trkpt lat="46.0159492492676" lon="7.1628041267395">
    <ele>1118.21667480469</ele>
    <time>2012-06-25T14:53:28Z</time>
   </trkpt>
   <trkpt lat="46.0159339904785" lon="7.16283702850342">
    <ele>1118.40002441406</ele>
    <time>2012-06-25T14:53:29Z</time>
   </trkpt>
   <trkpt lat="46.0159034729004" lon="7.16290521621704">
    <ele>1118.40002441406</ele>
    <time>2012-06-25T14:53:31Z</time>
   </trkpt>
   <trkpt lat="46.0158882141113" lon="7.16294097900391">
    <ele>1118.65002441406</ele>
    <time>2012-06-25T14:53:32Z</time>
   </trkpt>
   <trkpt lat="46.0158615112305" lon="7.16301250457764">
    <ele>1119.15002441406</ele>
    <time>2012-06-25T14:53:34Z</time>
   </trkpt>
   <trkpt lat="46.0158424377441" lon="7.16304636001587">
    <ele>1119.40002441406</ele>
    <time>2012-06-25T14:53:35Z</time>
   </trkpt>
   <trkpt lat="46.0158271789551" lon="7.16307878494263">
    <ele>1119.65002441406</ele>
    <time>2012-06-25T14:53:36Z</time>
   </trkpt>
   <trkpt lat="46.015811920166" lon="7.16311407089233">
    <ele>1119.90002441406</ele>
    <time>2012-06-25T14:53:37Z</time>
   </trkpt>
   <trkpt lat="46.0157928466797" lon="7.16314649581909">
    <ele>1120.15002441406</ele>
    <time>2012-06-25T14:53:38Z</time>
   </trkpt>
   <trkpt lat="46.0157737731934" lon="7.1631760597229">
    <ele>1120.40002441406</ele>
    <time>2012-06-25T14:53:39Z</time>
   </trkpt>
   <trkpt lat="46.0157356262207" lon="7.16324090957642">
    <ele>1120.40002441406</ele>
    <time>2012-06-25T14:53:41Z</time>
   </trkpt>
   <trkpt lat="46.0157165527344" lon="7.16327571868896">
    <ele>1120.56665039062</ele>
    <time>2012-06-25T14:53:42Z</time>
   </trkpt>
   <trkpt lat="46.0156669616699" lon="7.16337633132935">
    <ele>1121.06665039062</ele>
    <time>2012-06-25T14:53:45Z</time>
   </trkpt>
   <trkpt lat="46.0156478881836" lon="7.16341257095337">
    <ele>1121.2333984375</ele>
    <time>2012-06-25T14:53:46Z</time>
   </trkpt>
   <trkpt lat="46.0156097412109" lon="7.16348266601562">
    <ele>1121.56665039062</ele>
    <time>2012-06-25T14:53:48Z</time>
   </trkpt>
   <trkpt lat="46.0155868530273" lon="7.1635160446167">
    <ele>1121.7333984375</ele>
    <time>2012-06-25T14:53:49Z</time>
   </trkpt>
   <trkpt lat="46.015567779541" lon="7.16354560852051">
    <ele>1121.90002441406</ele>
    <time>2012-06-25T14:53:50Z</time>
   </trkpt>
   <trkpt lat="46.0155448913574" lon="7.16357755661011">
    <ele>1122.06665039062</ele>
    <time>2012-06-25T14:53:51Z</time>
   </trkpt>
   <trkpt lat="46.0155258178711" lon="7.16360807418823">
    <ele>1122.2333984375</ele>
    <time>2012-06-25T14:53:52Z</time>
   </trkpt>
   <trkpt lat="46.0155067443848" lon="7.16363716125488">
    <ele>1122.40002441406</ele>
    <time>2012-06-25T14:53:53Z</time>
   </trkpt>
   <trkpt lat="46.0154876708984" lon="7.16366624832153">
    <ele>1122.40002441406</ele>
    <time>2012-06-25T14:53:54Z</time>
   </trkpt>
   <trkpt lat="46.0154647827148" lon="7.16369390487671">
    <ele>1122.61999511719</ele>
    <time>2012-06-25T14:53:55Z</time>
   </trkpt>
   <trkpt lat="46.0154266357422" lon="7.16374397277832">
    <ele>1123.06005859375</ele>
    <time>2012-06-25T14:53:57Z</time>
   </trkpt>
   <trkpt lat="46.0153617858887" lon="7.16382884979248">
    <ele>1123.71997070312</ele>
    <time>2012-06-25T14:54:00Z</time>
   </trkpt>
   <trkpt lat="46.0153388977051" lon="7.16385889053345">
    <ele>1123.93994140625</ele>
    <time>2012-06-25T14:54:01Z</time>
   </trkpt>
   <trkpt lat="46.0153121948242" lon="7.16388750076294">
    <ele>1124.16003417969</ele>
    <time>2012-06-25T14:54:02Z</time>
   </trkpt>
   <trkpt lat="46.0152893066406" lon="7.16391372680664">
    <ele>1124.38000488281</ele>
    <time>2012-06-25T14:54:03Z</time>
   </trkpt>
   <trkpt lat="46.015266418457" lon="7.16394329071045">
    <ele>1124.59997558594</ele>
    <time>2012-06-25T14:54:04Z</time>
   </trkpt>
   <trkpt lat="46.0152473449707" lon="7.16397285461426">
    <ele>1124.59997558594</ele>
    <time>2012-06-25T14:54:05Z</time>
   </trkpt>
   <trkpt lat="46.0152053833008" lon="7.16403293609619">
    <ele>1125.0888671875</ele>
    <time>2012-06-25T14:54:07Z</time>
   </trkpt>
   <trkpt lat="46.0151405334473" lon="7.16413497924805">
    <ele>1125.822265625</ele>
    <time>2012-06-25T14:54:10Z</time>
   </trkpt>
   <trkpt lat="46.0151214599609" lon="7.16417217254639">
    <ele>1126.06665039062</ele>
    <time>2012-06-25T14:54:11Z</time>
   </trkpt>
   <trkpt lat="46.0150985717773" lon="7.16420650482178">
    <ele>1126.31115722656</ele>
    <time>2012-06-25T14:54:12Z</time>
   </trkpt>
   <trkpt lat="46.015079498291" lon="7.16423988342285">
    <ele>1126.55554199219</ele>
    <time>2012-06-25T14:54:13Z</time>
   </trkpt>
   <trkpt lat="46.0150566101074" lon="7.16427421569824">
    <ele>1126.80004882812</ele>
    <time>2012-06-25T14:54:14Z</time>
   </trkpt>
   <trkpt lat="46.0149993896484" lon="7.16438102722168">
    <ele>1126.80004882812</ele>
    <time>2012-06-25T14:54:17Z</time>
   </trkpt>
   <trkpt lat="46.0148658752441" lon="7.16458034515381">
    <ele>1128</ele>
    <time>2012-06-25T14:54:23Z</time>
   </trkpt>
   <trkpt lat="46.0148429870606" lon="7.16460657119751">
    <ele>1128.20007324219</ele>
    <time>2012-06-25T14:54:24Z</time>
   </trkpt>
   <trkpt lat="46.0148162841797" lon="7.16463375091553">
    <ele>1128.40002441406</ele>
    <time>2012-06-25T14:54:25Z</time>
   </trkpt>
   <trkpt lat="46.0147933959961" lon="7.16466093063354">
    <ele>1128.60009765625</ele>
    <time>2012-06-25T14:54:26Z</time>
   </trkpt>
   <trkpt lat="46.0147705078125" lon="7.16468811035156">
    <ele>1128.80004882812</ele>
    <time>2012-06-25T14:54:27Z</time>
   </trkpt>
   <trkpt lat="46.0147476196289" lon="7.16471481323242">
    <ele>1128.80004882812</ele>
    <time>2012-06-25T14:54:28Z</time>
   </trkpt>
   <trkpt lat="46.014720916748" lon="7.16474390029907">
    <ele>1128.9375</ele>
    <time>2012-06-25T14:54:29Z</time>
   </trkpt>
   <trkpt lat="46.0146942138672" lon="7.16476964950562">
    <ele>1129.07507324219</ele>
    <time>2012-06-25T14:54:30Z</time>
   </trkpt>
   <trkpt lat="46.0146369934082" lon="7.16481304168701">
    <ele>1129.35009765625</ele>
    <time>2012-06-25T14:54:32Z</time>
   </trkpt>
   <trkpt lat="46.0146102905273" lon="7.16483926773071">
    <ele>1129.48754882812</ele>
    <time>2012-06-25T14:54:33Z</time>
   </trkpt>
   <trkpt lat="46.0144653320312" lon="7.16496229171753">
    <ele>1130.17504882812</ele>
    <time>2012-06-25T14:54:38Z</time>
   </trkpt>
   <trkpt lat="46.0144386291504" lon="7.16498708724976">
    <ele>1130.3125</ele>
    <time>2012-06-25T14:54:39Z</time>
   </trkpt>
   <trkpt lat="46.0144119262695" lon="7.16501760482788">
    <ele>1130.44995117188</ele>
    <time>2012-06-25T14:54:40Z</time>
   </trkpt>
   <trkpt lat="46.0143814086914" lon="7.16504335403442">
    <ele>1130.58752441406</ele>
    <time>2012-06-25T14:54:41Z</time>
   </trkpt>
   <trkpt lat="46.014347076416" lon="7.16506671905518">
    <ele>1130.72497558594</ele>
    <time>2012-06-25T14:54:42Z</time>
   </trkpt>
   <trkpt lat="46.0143165588379" lon="7.16508960723877">
    <ele>1130.86254882812</ele>
    <time>2012-06-25T14:54:43Z</time>
   </trkpt>
   <trkpt lat="46.014289855957" lon="7.16511106491089">
    <ele>1131</ele>
    <time>2012-06-25T14:54:44Z</time>
   </trkpt>
   <trkpt lat="46.0142250061035" lon="7.16515731811524">
    <ele>1131</ele>
    <time>2012-06-25T14:54:46Z</time>
   </trkpt>
   <trkpt lat="46.0141944885254" lon="7.16518115997314">
    <ele>1131.14282226562</ele>
    <time>2012-06-25T14:54:47Z</time>
   </trkpt>
   <trkpt lat="46.014030456543" lon="7.16528987884522">
    <ele>1131.85717773438</ele>
    <time>2012-06-25T14:54:52Z</time>
   </trkpt>
   <trkpt lat="46.0139999389648" lon="7.16530656814575">
    <ele>1132</ele>
    <time>2012-06-25T14:54:53Z</time>
   </trkpt>
   <trkpt lat="46.0139656066894" lon="7.1653242111206">
    <ele>1132.14282226562</ele>
    <time>2012-06-25T14:54:54Z</time>
   </trkpt>
   <trkpt lat="46.0139312744141" lon="7.16533994674683">
    <ele>1132.28576660156</ele>
    <time>2012-06-25T14:54:55Z</time>
   </trkpt>
   <trkpt lat="46.0138969421387" lon="7.16535711288452">
    <ele>1132.42858886719</ele>
    <time>2012-06-25T14:54:56Z</time>
   </trkpt>
   <trkpt lat="46.0138626098633" lon="7.16537523269653">
    <ele>1132.57141113281</ele>
    <time>2012-06-25T14:54:57Z</time>
   </trkpt>
   <trkpt lat="46.0138282775879" lon="7.16539144515991">
    <ele>1132.71423339844</ele>
    <time>2012-06-25T14:54:58Z</time>
   </trkpt>
   <trkpt lat="46.0137977600098" lon="7.16541051864624">
    <ele>1132.85717773438</ele>
    <time>2012-06-25T14:54:59Z</time>
   </trkpt>
   <trkpt lat="46.0137672424316" lon="7.16542720794678">
    <ele>1133</ele>
    <time>2012-06-25T14:55:00Z</time>
   </trkpt>
   <trkpt lat="46.0137062072754" lon="7.16545867919922">
    <ele>1133</ele>
    <time>2012-06-25T14:55:02Z</time>
   </trkpt>
   <trkpt lat="46.0136756896973" lon="7.16547107696533">
    <ele>1133.23425292969</ele>
    <time>2012-06-25T14:55:03Z</time>
   </trkpt>
   <trkpt lat="46.0136489868164" lon="7.16548585891724">
    <ele>1133.46862792969</ele>
    <time>2012-06-25T14:55:04Z</time>
   </trkpt>
   <trkpt lat="46.0136184692383" lon="7.16549634933472">
    <ele>1133.70288085938</ele>
    <time>2012-06-25T14:55:05Z</time>
   </trkpt>
   <trkpt lat="46.0135917663574" lon="7.16550874710083">
    <ele>1133.93713378906</ele>
    <time>2012-06-25T14:55:06Z</time>
   </trkpt>
   <trkpt lat="46.0135307312012" lon="7.16553449630737">
    <ele>1134.40576171875</ele>
    <time>2012-06-25T14:55:08Z</time>
   </trkpt>
   <trkpt lat="46.013500213623" lon="7.16554975509644">
    <ele>1134.64001464844</ele>
    <time>2012-06-25T14:55:09Z</time>
   </trkpt>
   <trkpt lat="46.0134696960449" lon="7.16556262969971">
    <ele>1134.87426757812</ele>
    <time>2012-06-25T14:55:10Z</time>
   </trkpt>
   <trkpt lat="46.0134429931641" lon="7.16557931900024">
    <ele>1135.10852050781</ele>
    <time>2012-06-25T14:55:11Z</time>
   </trkpt>
   <trkpt lat="46.0134124755859" lon="7.16559314727783">
    <ele>1135.34289550781</ele>
    <time>2012-06-25T14:55:12Z</time>
   </trkpt>
   <trkpt lat="46.013298034668" lon="7.16564702987671">
    <ele>1136.28002929688</ele>
    <time>2012-06-25T14:55:16Z</time>
   </trkpt>
   <trkpt lat="46.0132713317871" lon="7.16566514968872">
    <ele>1136.51428222656</ele>
    <time>2012-06-25T14:55:17Z</time>
   </trkpt>
   <trkpt lat="46.013240814209" lon="7.16568040847778">
    <ele>1136.74853515625</ele>
    <time>2012-06-25T14:55:18Z</time>
   </trkpt>
   <trkpt lat="46.0132102966309" lon="7.16569662094116">
    <ele>1136.98278808594</ele>
    <time>2012-06-25T14:55:19Z</time>
   </trkpt>
   <trkpt lat="46.01318359375" lon="7.16571283340454">
    <ele>1137.21716308594</ele>
    <time>2012-06-25T14:55:20Z</time>
   </trkpt>
   <trkpt lat="46.0130310058594" lon="7.16583013534546">
    <ele>1138.62280273438</ele>
    <time>2012-06-25T14:55:26Z</time>
   </trkpt>
   <trkpt lat="46.0130081176758" lon="7.16585826873779">
    <ele>1138.85705566406</ele>
    <time>2012-06-25T14:55:27Z</time>
   </trkpt>
   <trkpt lat="46.0129814147949" lon="7.16588354110718">
    <ele>1139.09143066406</ele>
    <time>2012-06-25T14:55:28Z</time>
   </trkpt>
   <trkpt lat="46.0129585266113" lon="7.16591358184814">
    <ele>1139.32568359375</ele>
    <time>2012-06-25T14:55:29Z</time>
   </trkpt>
   <trkpt lat="46.0129356384277" lon="7.16594314575195">
    <ele>1139.55993652344</ele>
    <time>2012-06-25T14:55:30Z</time>
   </trkpt>
   <trkpt lat="46.0128479003906" lon="7.16606187820435">
    <ele>1140.4970703125</ele>
    <time>2012-06-25T14:55:34Z</time>
   </trkpt>
   <trkpt lat="46.0128288269043" lon="7.16609573364258">
    <ele>1140.73132324219</ele>
    <time>2012-06-25T14:55:35Z</time>
   </trkpt>
   <trkpt lat="46.012809753418" lon="7.16613006591797">
    <ele>1140.96569824219</ele>
    <time>2012-06-25T14:55:36Z</time>
   </trkpt>
   <trkpt lat="46.0127983093262" lon="7.16616582870483">
    <ele>1141.19995117188</ele>
    <time>2012-06-25T14:55:37Z</time>
   </trkpt>
   <trkpt lat="46.0127258300781" lon="7.16635131835938">
    <ele>1141.19995117188</ele>
    <time>2012-06-25T14:55:42Z</time>
   </trkpt>
   <trkpt lat="46.012638092041" lon="7.16666269302368">
    <ele>1142.55383300781</ele>
    <time>2012-06-25T14:55:50Z</time>
   </trkpt>
   <trkpt lat="46.0126266479492" lon="7.16670083999634">
    <ele>1142.72302246094</ele>
    <time>2012-06-25T14:55:51Z</time>
   </trkpt>
   <trkpt lat="46.0126152038574" lon="7.16673946380615">
    <ele>1142.89233398438</ele>
    <time>2012-06-25T14:55:52Z</time>
   </trkpt>
   <trkpt lat="46.0125999450684" lon="7.16677951812744">
    <ele>1143.0615234375</ele>
    <time>2012-06-25T14:55:53Z</time>
   </trkpt>
   <trkpt lat="46.0125923156738" lon="7.16682243347168">
    <ele>1143.23083496094</ele>
    <time>2012-06-25T14:55:54Z</time>
   </trkpt>
   <trkpt lat="46.0125770568848" lon="7.16685724258423">
    <ele>1143.40002441406</ele>
    <time>2012-06-25T14:55:55Z</time>
   </trkpt>
   <trkpt lat="46.0125350952148" lon="7.16697454452515">
    <ele>1143.40002441406</ele>
    <time>2012-06-25T14:55:58Z</time>
   </trkpt>
   <trkpt lat="46.0124473571777" lon="7.16715908050537">
    <ele>1144.51110839844</ele>
    <time>2012-06-25T14:56:03Z</time>
   </trkpt>
   <trkpt lat="46.0124244689941" lon="7.16719150543213">
    <ele>1144.7333984375</ele>
    <time>2012-06-25T14:56:04Z</time>
   </trkpt>
   <trkpt lat="46.0124053955078" lon="7.16722106933594">
    <ele>1144.95556640625</ele>
    <time>2012-06-25T14:56:05Z</time>
   </trkpt>
   <trkpt lat="46.0123863220215" lon="7.16725254058838">
    <ele>1145.17785644531</ele>
    <time>2012-06-25T14:56:06Z</time>
   </trkpt>
   <trkpt lat="46.0123634338379" lon="7.16728210449219">
    <ele>1145.40002441406</ele>
    <time>2012-06-25T14:56:07Z</time>
   </trkpt>
   <trkpt lat="46.0123443603516" lon="7.16731357574463">
    <ele>1145.40002441406</ele>
    <time>2012-06-25T14:56:08Z</time>
   </trkpt>
   <trkpt lat="46.0122299194336" lon="7.16749000549316">
    <ele>1146.5</ele>
    <time>2012-06-25T14:56:14Z</time>
   </trkpt>
   <trkpt lat="46.0121917724609" lon="7.16754388809204">
    <ele>1146.86669921875</ele>
    <time>2012-06-25T14:56:16Z</time>
   </trkpt>
   <trkpt lat="46.0121688842773" lon="7.16757440567017">
    <ele>1147.05004882812</ele>
    <time>2012-06-25T14:56:17Z</time>
   </trkpt>
   <trkpt lat="46.0121459960938" lon="7.16760301589966">
    <ele>1147.23327636719</ele>
    <time>2012-06-25T14:56:18Z</time>
   </trkpt>
   <trkpt lat="46.0121231079102" lon="7.16763496398926">
    <ele>1147.41662597656</ele>
    <time>2012-06-25T14:56:19Z</time>
   </trkpt>
   <trkpt lat="46.0121002197266" lon="7.16766786575317">
    <ele>1147.59997558594</ele>
    <time>2012-06-25T14:56:20Z</time>
   </trkpt>
   <trkpt lat="46.012035369873" lon="7.16776084899902">
    <ele>1147.59997558594</ele>
    <time>2012-06-25T14:56:23Z</time>
   </trkpt>
   <trkpt lat="46.0120086669922" lon="7.16778945922852">
    <ele>1147.84997558594</ele>
    <time>2012-06-25T14:56:24Z</time>
   </trkpt>
   <trkpt lat="46.0119361877441" lon="7.16786766052246">
    <ele>1148.59997558594</ele>
    <time>2012-06-25T14:56:27Z</time>
   </trkpt>
   <trkpt lat="46.0119132995606" lon="7.1678900718689">
    <ele>1148.84997558594</ele>
    <time>2012-06-25T14:56:28Z</time>
   </trkpt>
   <trkpt lat="46.0118865966797" lon="7.16790866851807">
    <ele>1149.09997558594</ele>
    <time>2012-06-25T14:56:29Z</time>
   </trkpt>
   <trkpt lat="46.0118598937988" lon="7.1679277420044">
    <ele>1149.34997558594</ele>
    <time>2012-06-25T14:56:30Z</time>
   </trkpt>
   <trkpt lat="46.0118293762207" lon="7.16795206069946">
    <ele>1149.59997558594</ele>
    <time>2012-06-25T14:56:31Z</time>
   </trkpt>
   <trkpt lat="46.0117225646973" lon="7.16802453994751">
    <ele>1149.59997558594</ele>
    <time>2012-06-25T14:56:35Z</time>
   </trkpt>
   <trkpt lat="46.0116729736328" lon="7.16805267333984">
    <ele>1150.2666015625</ele>
    <time>2012-06-25T14:56:37Z</time>
   </trkpt>
   <trkpt lat="46.011646270752" lon="7.16806793212891">
    <ele>1150.59997558594</ele>
    <time>2012-06-25T14:56:38Z</time>
   </trkpt>
   <trkpt lat="46.0116157531738" lon="7.16808128356934">
    <ele>1150.93334960938</ele>
    <time>2012-06-25T14:56:39Z</time>
   </trkpt>
   <trkpt lat="46.0115852355957" lon="7.1680965423584">
    <ele>1151.2666015625</ele>
    <time>2012-06-25T14:56:40Z</time>
   </trkpt>
   <trkpt lat="46.0115547180176" lon="7.16810941696167">
    <ele>1151.59997558594</ele>
    <time>2012-06-25T14:56:41Z</time>
   </trkpt>
   <trkpt lat="46.0114936828613" lon="7.16814041137695">
    <ele>1151.59997558594</ele>
    <time>2012-06-25T14:56:43Z</time>
   </trkpt>
   <trkpt lat="46.0111961364746" lon="7.16827058792114">
    <ele>1153.17150878906</ele>
    <time>2012-06-25T14:56:53Z</time>
   </trkpt>
   <trkpt lat="46.0111656188965" lon="7.16828441619873">
    <ele>1153.32861328125</ele>
    <time>2012-06-25T14:56:54Z</time>
   </trkpt>
   <trkpt lat="46.0111351013184" lon="7.16829299926758">
    <ele>1153.48571777344</ele>
    <time>2012-06-25T14:56:55Z</time>
   </trkpt>
   <trkpt lat="46.0111083984375" lon="7.16830348968506">
    <ele>1153.64294433594</ele>
    <time>2012-06-25T14:56:56Z</time>
   </trkpt>
   <trkpt lat="46.0110778808594" lon="7.16831922531128">
    <ele>1153.80004882812</ele>
    <time>2012-06-25T14:56:57Z</time>
   </trkpt>
   <trkpt lat="46.0109710693359" lon="7.16836977005005">
    <ele>1153.80004882812</ele>
    <time>2012-06-25T14:57:01Z</time>
   </trkpt>
   <trkpt lat="46.0108833312988" lon="7.1684079170227">
    <ele>1154.74291992188</ele>
    <time>2012-06-25T14:57:04Z</time>
   </trkpt>
   <trkpt lat="46.010856628418" lon="7.16842222213745">
    <ele>1155.05712890625</ele>
    <time>2012-06-25T14:57:05Z</time>
   </trkpt>
   <trkpt lat="46.0108299255371" lon="7.16843795776367">
    <ele>1155.37145996094</ele>
    <time>2012-06-25T14:57:06Z</time>
   </trkpt>
   <trkpt lat="46.010799407959" lon="7.1684513092041">
    <ele>1155.68566894531</ele>
    <time>2012-06-25T14:57:07Z</time>
   </trkpt>
   <trkpt lat="46.0107688903809" lon="7.16846561431885">
    <ele>1156</ele>
    <time>2012-06-25T14:57:08Z</time>
   </trkpt>
   <trkpt lat="46.0107116699219" lon="7.16849374771118">
    <ele>1156</ele>
    <time>2012-06-25T14:57:10Z</time>
   </trkpt>
   <trkpt lat="46.0105018615723" lon="7.16858625411987">
    <ele>1157.27270507812</ele>
    <time>2012-06-25T14:57:17Z</time>
   </trkpt>
   <trkpt lat="46.0104751586914" lon="7.16859769821167">
    <ele>1157.45458984375</ele>
    <time>2012-06-25T14:57:18Z</time>
   </trkpt>
   <trkpt lat="46.0104484558106" lon="7.16860914230347">
    <ele>1157.63635253906</ele>
    <time>2012-06-25T14:57:19Z</time>
   </trkpt>
   <trkpt lat="46.0104179382324" lon="7.16861820220947">
    <ele>1157.81823730469</ele>
    <time>2012-06-25T14:57:20Z</time>
   </trkpt>
   <trkpt lat="46.0103874206543" lon="7.1686282157898">
    <ele>1158</ele>
    <time>2012-06-25T14:57:21Z</time>
   </trkpt>
   <trkpt lat="46.0102157592773" lon="7.16868162155151">
    <ele>1158</ele>
    <time>2012-06-25T14:57:27Z</time>
   </trkpt>
   <trkpt lat="46.0101890563965" lon="7.16869354248047">
    <ele>1158.43994140625</ele>
    <time>2012-06-25T14:57:28Z</time>
   </trkpt>
   <trkpt lat="46.0101623535156" lon="7.16870355606079">
    <ele>1158.88000488281</ele>
    <time>2012-06-25T14:57:29Z</time>
   </trkpt>
   <trkpt lat="46.0101318359375" lon="7.16870546340942">
    <ele>1159.31994628906</ele>
    <time>2012-06-25T14:57:30Z</time>
   </trkpt>
   <trkpt lat="46.0101013183594" lon="7.16871404647827">
    <ele>1159.76000976562</ele>
    <time>2012-06-25T14:57:31Z</time>
   </trkpt>
   <trkpt lat="46.0100708007812" lon="7.16872119903564">
    <ele>1160.19995117188</ele>
    <time>2012-06-25T14:57:32Z</time>
   </trkpt>
   <trkpt lat="46.0099868774414" lon="7.1687445640564">
    <ele>1160.19995117188</ele>
    <time>2012-06-25T14:57:35Z</time>
   </trkpt>
   <trkpt lat="46.0098762512207" lon="7.16878080368042">
    <ele>1161.45715332031</ele>
    <time>2012-06-25T14:57:39Z</time>
   </trkpt>
   <trkpt lat="46.0098495483398" lon="7.16879034042358">
    <ele>1161.771484375</ele>
    <time>2012-06-25T14:57:40Z</time>
   </trkpt>
   <trkpt lat="46.009822845459" lon="7.16879892349243">
    <ele>1162.08569335938</ele>
    <time>2012-06-25T14:57:41Z</time>
   </trkpt>
   <trkpt lat="46.0097961425781" lon="7.16881227493286">
    <ele>1162.40002441406</ele>
    <time>2012-06-25T14:57:42Z</time>
   </trkpt>
   <trkpt lat="46.009708404541" lon="7.16885948181152">
    <ele>1162.40002441406</ele>
    <time>2012-06-25T14:57:45Z</time>
   </trkpt>
   <trkpt lat="46.0096092224121" lon="7.16893243789673">
    <ele>1163.60009765625</ele>
    <time>2012-06-25T14:57:49Z</time>
   </trkpt>
   <trkpt lat="46.0095825195312" lon="7.16895246505737">
    <ele>1163.90002441406</ele>
    <time>2012-06-25T14:57:50Z</time>
   </trkpt>
   <trkpt lat="46.0095558166504" lon="7.16897773742676">
    <ele>1164.20007324219</ele>
    <time>2012-06-25T14:57:51Z</time>
   </trkpt>
   <trkpt lat="46.0095291137695" lon="7.16899967193604">
    <ele>1164.5</ele>
    <time>2012-06-25T14:57:52Z</time>
   </trkpt>
   <trkpt lat="46.0095062255859" lon="7.16902017593384">
    <ele>1164.80004882812</ele>
    <time>2012-06-25T14:57:53Z</time>
   </trkpt>
   <trkpt lat="46.0094795227051" lon="7.16903734207153">
    <ele>1164.80004882812</ele>
    <time>2012-06-25T14:57:54Z</time>
   </trkpt>
   <trkpt lat="46.0093040466309" lon="7.16918849945068">
    <ele>1165.96667480469</ele>
    <time>2012-06-25T14:58:01Z</time>
   </trkpt>
   <trkpt lat="46.0092506408691" lon="7.16922760009766">
    <ele>1166.30004882812</ele>
    <time>2012-06-25T14:58:03Z</time>
   </trkpt>
   <trkpt lat="46.0092239379883" lon="7.16924285888672">
    <ele>1166.46667480469</ele>
    <time>2012-06-25T14:58:04Z</time>
   </trkpt>
   <trkpt lat="46.0092010498047" lon="7.16925859451294">
    <ele>1166.63342285156</ele>
    <time>2012-06-25T14:58:05Z</time>
   </trkpt>
   <trkpt lat="46.0091743469238" lon="7.16927862167358">
    <ele>1166.80004882812</ele>
    <time>2012-06-25T14:58:06Z</time>
   </trkpt>
   <trkpt lat="46.009033203125" lon="7.16934537887573">
    <ele>1166.80004882812</ele>
    <time>2012-06-25T14:58:11Z</time>
   </trkpt>
   <trkpt lat="46.0087928771973" lon="7.16940641403198">
    <ele>1168.65258789062</ele>
    <time>2012-06-25T14:58:19Z</time>
   </trkpt>
   <trkpt lat="46.0087623596191" lon="7.1694130897522">
    <ele>1168.88415527344</ele>
    <time>2012-06-25T14:58:20Z</time>
   </trkpt>
   <trkpt lat="46.0087280273438" lon="7.16941356658936">
    <ele>1169.11584472656</ele>
    <time>2012-06-25T14:58:21Z</time>
   </trkpt>
   <trkpt lat="46.0086936950684" lon="7.1694130897522">
    <ele>1169.34741210938</ele>
    <time>2012-06-25T14:58:22Z</time>
   </trkpt>
   <trkpt lat="46.008659362793" lon="7.16941499710083">
    <ele>1169.57897949219</ele>
    <time>2012-06-25T14:58:23Z</time>
   </trkpt>
   <trkpt lat="46.0085334777832" lon="7.16941213607788">
    <ele>1170.50524902344</ele>
    <time>2012-06-25T14:58:27Z</time>
   </trkpt>
   <trkpt lat="46.0084991455078" lon="7.1694073677063">
    <ele>1170.73681640625</ele>
    <time>2012-06-25T14:58:28Z</time>
   </trkpt>
   <trkpt lat="46.0084686279297" lon="7.16940259933472">
    <ele>1170.96838378906</ele>
    <time>2012-06-25T14:58:29Z</time>
   </trkpt>
   <trkpt lat="46.0084381103516" lon="7.16939687728882">
    <ele>1171.19995117188</ele>
    <time>2012-06-25T14:58:30Z</time>
   </trkpt>
   <trkpt lat="46.0082778930664" lon="7.16934823989868">
    <ele>1171.19995117188</ele>
    <time>2012-06-25T14:58:35Z</time>
   </trkpt>
   <trkpt lat="46.0080223083496" lon="7.16933536529541">
    <ele>1172.66662597656</ele>
    <time>2012-06-25T14:58:43Z</time>
   </trkpt>
   <trkpt lat="46.0079917907715" lon="7.1693525314331">
    <ele>1172.84997558594</ele>
    <time>2012-06-25T14:58:44Z</time>
   </trkpt>
   <trkpt lat="46.0079650878906" lon="7.16937971115112">
    <ele>1173.03332519531</ele>
    <time>2012-06-25T14:58:45Z</time>
   </trkpt>
   <trkpt lat="46.0079345703125" lon="7.16941022872925">
    <ele>1173.21667480469</ele>
    <time>2012-06-25T14:58:46Z</time>
   </trkpt>
   <trkpt lat="46.0079116821289" lon="7.16944551467896">
    <ele>1173.40002441406</ele>
    <time>2012-06-25T14:58:47Z</time>
   </trkpt>
   <trkpt lat="46.0078887939453" lon="7.16948699951172">
    <ele>1173.40002441406</ele>
    <time>2012-06-25T14:58:48Z</time>
   </trkpt>
   <trkpt lat="46.0078811645508" lon="7.16969585418701">
    <ele>1173.74780273438</ele>
    <time>2012-06-25T14:58:52Z</time>
   </trkpt>
   <trkpt lat="46.007926940918" lon="7.16983318328857">
    <ele>1174.00866699219</ele>
    <time>2012-06-25T14:58:55Z</time>
   </trkpt>
   <trkpt lat="46.0079612731934" lon="7.16987037658691">
    <ele>1174.095703125</ele>
    <time>2012-06-25T14:58:56Z</time>
   </trkpt>
   <trkpt lat="46.007999420166" lon="7.16989898681641">
    <ele>1174.1826171875</ele>
    <time>2012-06-25T14:58:57Z</time>
   </trkpt>
   <trkpt lat="46.0081558227539" lon="7.16996049880982">
    <ele>1174.53051757812</ele>
    <time>2012-06-25T14:59:01Z</time>
   </trkpt>
   <trkpt lat="46.0082359313965" lon="7.16995143890381">
    <ele>1174.70434570312</ele>
    <time>2012-06-25T14:59:03Z</time>
   </trkpt>
   <trkpt lat="46.0083541870117" lon="7.16995525360107">
    <ele>1174.96520996094</ele>
    <time>2012-06-25T14:59:06Z</time>
   </trkpt>
   <trkpt lat="46.0083961486816" lon="7.16996145248413">
    <ele>1175.05224609375</ele>
    <time>2012-06-25T14:59:07Z</time>
   </trkpt>
   <trkpt lat="46.0084342956543" lon="7.16996812820435">
    <ele>1175.13916015625</ele>
    <time>2012-06-25T14:59:08Z</time>
   </trkpt>
   <trkpt lat="46.008472442627" lon="7.16997289657593">
    <ele>1175.22607421875</ele>
    <time>2012-06-25T14:59:09Z</time>
   </trkpt>
   <trkpt lat="46.0085105895996" lon="7.1699857711792">
    <ele>1175.31311035156</ele>
    <time>2012-06-25T14:59:10Z</time>
   </trkpt>
   <trkpt lat="46.008544921875" lon="7.169997215271">
    <ele>1175.40002441406</ele>
    <time>2012-06-25T14:59:11Z</time>
   </trkpt>
   <trkpt lat="46.0085792541504" lon="7.17000675201416">
    <ele>1175.40002441406</ele>
    <time>2012-06-25T14:59:12Z</time>
   </trkpt>
   <trkpt lat="46.0086135864258" lon="7.17001724243164">
    <ele>1175.71435546875</ele>
    <time>2012-06-25T14:59:13Z</time>
   </trkpt>
   <trkpt lat="46.0087089538574" lon="7.17005443572998">
    <ele>1176.65710449219</ele>
    <time>2012-06-25T14:59:16Z</time>
   </trkpt>
   <trkpt lat="46.0087394714356" lon="7.17006826400757">
    <ele>1176.97143554688</ele>
    <time>2012-06-25T14:59:17Z</time>
   </trkpt>
   <trkpt lat="46.0087661743164" lon="7.17008638381958">
    <ele>1177.28564453125</ele>
    <time>2012-06-25T14:59:18Z</time>
   </trkpt>
   <trkpt lat="46.0087966918945" lon="7.1701021194458">
    <ele>1177.59997558594</ele>
    <time>2012-06-25T14:59:19Z</time>
   </trkpt>
   <trkpt lat="46.0088272094727" lon="7.17011117935181">
    <ele>1177.59997558594</ele>
    <time>2012-06-25T14:59:20Z</time>
   </trkpt>
   <trkpt lat="46.0090103149414" lon="7.17023754119873">
    <ele>1178.92004394531</ele>
    <time>2012-06-25T14:59:26Z</time>
   </trkpt>
   <trkpt lat="46.0090408325195" lon="7.17025136947632">
    <ele>1179.14001464844</ele>
    <time>2012-06-25T14:59:27Z</time>
   </trkpt>
   <trkpt lat="46.0090713500977" lon="7.17025947570801">
    <ele>1179.35998535156</ele>
    <time>2012-06-25T14:59:28Z</time>
   </trkpt>
   <trkpt lat="46.009105682373" lon="7.17028141021728">
    <ele>1179.580078125</ele>
    <time>2012-06-25T14:59:29Z</time>
   </trkpt>
   <trkpt lat="46.0091361999512" lon="7.17029619216919">
    <ele>1179.80004882812</ele>
    <time>2012-06-25T14:59:30Z</time>
   </trkpt>
   <trkpt lat="46.009204864502" lon="7.17031669616699">
    <ele>1179.80004882812</ele>
    <time>2012-06-25T14:59:32Z</time>
   </trkpt>
   <trkpt lat="46.0093002319336" lon="7.17033958435059">
    <ele>1180.6572265625</ele>
    <time>2012-06-25T14:59:35Z</time>
   </trkpt>
   <trkpt lat="46.009334564209" lon="7.17034196853638">
    <ele>1180.94287109375</ele>
    <time>2012-06-25T14:59:36Z</time>
   </trkpt>
   <trkpt lat="46.0093650817871" lon="7.17034149169922">
    <ele>1181.22863769531</ele>
    <time>2012-06-25T14:59:37Z</time>
   </trkpt>
   <trkpt lat="46.0093994140625" lon="7.17033958435059">
    <ele>1181.51428222656</ele>
    <time>2012-06-25T14:59:38Z</time>
   </trkpt>
   <trkpt lat="46.0094299316406" lon="7.17033863067627">
    <ele>1181.80004882812</ele>
    <time>2012-06-25T14:59:39Z</time>
   </trkpt>
   <trkpt lat="46.0095443725586" lon="7.1703143119812">
    <ele>1181.80004882812</ele>
    <time>2012-06-25T14:59:43Z</time>
   </trkpt>
   <trkpt lat="46.0095748901367" lon="7.17030477523804">
    <ele>1182.11437988281</ele>
    <time>2012-06-25T14:59:44Z</time>
   </trkpt>
   <trkpt lat="46.0096397399902" lon="7.17028284072876">
    <ele>1182.74291992188</ele>
    <time>2012-06-25T14:59:46Z</time>
   </trkpt>
   <trkpt lat="46.0096702575684" lon="7.17026901245117">
    <ele>1183.05712890625</ele>
    <time>2012-06-25T14:59:47Z</time>
   </trkpt>
   <trkpt lat="46.0097007751465" lon="7.17025089263916">
    <ele>1183.37145996094</ele>
    <time>2012-06-25T14:59:48Z</time>
   </trkpt>
   <trkpt lat="46.0097274780273" lon="7.17023229598999">
    <ele>1183.68566894531</ele>
    <time>2012-06-25T14:59:49Z</time>
   </trkpt>
   <trkpt lat="46.0097541809082" lon="7.17021608352661">
    <ele>1184</ele>
    <time>2012-06-25T14:59:50Z</time>
   </trkpt>
   <trkpt lat="46.0098991394043" lon="7.17011165618896">
    <ele>1184</ele>
    <time>2012-06-25T14:59:55Z</time>
   </trkpt>
   <trkpt lat="46.0099258422852" lon="7.17008447647095">
    <ele>1184.21997070312</ele>
    <time>2012-06-25T14:59:56Z</time>
   </trkpt>
   <trkpt lat="46.009952545166" lon="7.17005586624146">
    <ele>1184.43994140625</ele>
    <time>2012-06-25T14:59:57Z</time>
   </trkpt>
   <trkpt lat="46.0100479125977" lon="7.16992092132568">
    <ele>1185.31994628906</ele>
    <time>2012-06-25T15:00:01Z</time>
   </trkpt>
   <trkpt lat="46.0100708007812" lon="7.16988182067871">
    <ele>1185.53991699219</ele>
    <time>2012-06-25T15:00:02Z</time>
   </trkpt>
   <trkpt lat="46.0100936889648" lon="7.16984128952026">
    <ele>1185.76000976562</ele>
    <time>2012-06-25T15:00:03Z</time>
   </trkpt>
   <trkpt lat="46.0101165771484" lon="7.16979885101318">
    <ele>1185.97998046875</ele>
    <time>2012-06-25T15:00:04Z</time>
   </trkpt>
   <trkpt lat="46.0101356506348" lon="7.16975450515747">
    <ele>1186.19995117188</ele>
    <time>2012-06-25T15:00:05Z</time>
   </trkpt>
   <trkpt lat="46.0101585388184" lon="7.16970825195312">
    <ele>1186.19995117188</ele>
    <time>2012-06-25T15:00:06Z</time>
   </trkpt>
   <trkpt lat="46.010181427002" lon="7.16966009140015">
    <ele>1186.44445800781</ele>
    <time>2012-06-25T15:00:07Z</time>
   </trkpt>
   <trkpt lat="46.0102615356445" lon="7.16952991485596">
    <ele>1187.177734375</ele>
    <time>2012-06-25T15:00:10Z</time>
   </trkpt>
   <trkpt lat="46.0102882385254" lon="7.16949272155762">
    <ele>1187.42224121094</ele>
    <time>2012-06-25T15:00:11Z</time>
   </trkpt>
   <trkpt lat="46.0103149414062" lon="7.16945934295654">
    <ele>1187.66662597656</ele>
    <time>2012-06-25T15:00:12Z</time>
   </trkpt>
   <trkpt lat="46.0103530883789" lon="7.16943788528442">
    <ele>1187.9111328125</ele>
    <time>2012-06-25T15:00:13Z</time>
   </trkpt>
   <trkpt lat="46.0103874206543" lon="7.16942405700684">
    <ele>1188.15551757812</ele>
    <time>2012-06-25T15:00:14Z</time>
   </trkpt>
   <trkpt lat="46.0104217529297" lon="7.16942310333252">
    <ele>1188.40002441406</ele>
    <time>2012-06-25T15:00:15Z</time>
   </trkpt>
   <trkpt lat="46.0104598999023" lon="7.16945552825928">
    <ele>1188.40002441406</ele>
    <time>2012-06-25T15:00:16Z</time>
   </trkpt>
   <trkpt lat="46.0105133056641" lon="7.16952562332153">
    <ele>1188.67504882812</ele>
    <time>2012-06-25T15:00:18Z</time>
   </trkpt>
   <trkpt lat="46.0105285644531" lon="7.16972970962524">
    <ele>1189.22497558594</ele>
    <time>2012-06-25T15:00:22Z</time>
   </trkpt>
   <trkpt lat="46.0104827880859" lon="7.1698145866394">
    <ele>1189.5</ele>
    <time>2012-06-25T15:00:24Z</time>
   </trkpt>
   <trkpt lat="46.0104331970215" lon="7.16988325119018">
    <ele>1189.77502441406</ele>
    <time>2012-06-25T15:00:26Z</time>
   </trkpt>
   <trkpt lat="46.0104064941406" lon="7.16991662979126">
    <ele>1189.91247558594</ele>
    <time>2012-06-25T15:00:27Z</time>
   </trkpt>
   <trkpt lat="46.0103759765625" lon="7.16994476318359">
    <ele>1190.05004882812</ele>
    <time>2012-06-25T15:00:28Z</time>
   </trkpt>
   <trkpt lat="46.0103454589844" lon="7.16997575759888">
    <ele>1190.1875</ele>
    <time>2012-06-25T15:00:29Z</time>
   </trkpt>
   <trkpt lat="46.0103187561035" lon="7.17000579833984">
    <ele>1190.32495117188</ele>
    <time>2012-06-25T15:00:30Z</time>
   </trkpt>
   <trkpt lat="46.0102882385254" lon="7.17003488540649">
    <ele>1190.46252441406</ele>
    <time>2012-06-25T15:00:31Z</time>
   </trkpt>
   <trkpt lat="46.0102577209473" lon="7.17006540298462">
    <ele>1190.59997558594</ele>
    <time>2012-06-25T15:00:32Z</time>
   </trkpt>
   <trkpt lat="46.010196685791" lon="7.17012453079224">
    <ele>1190.59997558594</ele>
    <time>2012-06-25T15:00:34Z</time>
   </trkpt>
   <trkpt lat="46.0101432800293" lon="7.17018175125122">
    <ele>1190.86669921875</ele>
    <time>2012-06-25T15:00:36Z</time>
   </trkpt>
   <trkpt lat="46.0099601745606" lon="7.170325756073">
    <ele>1191.66662597656</ele>
    <time>2012-06-25T15:00:42Z</time>
   </trkpt>
   <trkpt lat="46.0098724365234" lon="7.17039108276367">
    <ele>1192.06665039062</ele>
    <time>2012-06-25T15:00:45Z</time>
   </trkpt>
   <trkpt lat="46.0098457336426" lon="7.17041254043579">
    <ele>1192.19995117188</ele>
    <time>2012-06-25T15:00:46Z</time>
   </trkpt>
   <trkpt lat="46.0098152160644" lon="7.17043495178223">
    <ele>1192.33325195312</ele>
    <time>2012-06-25T15:00:47Z</time>
   </trkpt>
   <trkpt lat="46.0097885131836" lon="7.17045068740845">
    <ele>1192.46667480469</ele>
    <time>2012-06-25T15:00:48Z</time>
   </trkpt>
   <trkpt lat="46.0097541809082" lon="7.17046642303467">
    <ele>1192.59997558594</ele>
    <time>2012-06-25T15:00:49Z</time>
   </trkpt>
   <trkpt lat="46.0097236633301" lon="7.17048406600952">
    <ele>1192.59997558594</ele>
    <time>2012-06-25T15:00:50Z</time>
   </trkpt>
   <trkpt lat="46.0095901489258" lon="7.17059421539307">
    <ele>1193.76208496094</ele>
    <time>2012-06-25T15:00:55Z</time>
   </trkpt>
   <trkpt lat="46.0095634460449" lon="7.17061519622803">
    <ele>1193.99450683594</ele>
    <time>2012-06-25T15:00:56Z</time>
   </trkpt>
   <trkpt lat="46.0095405578613" lon="7.1706395149231">
    <ele>1194.22705078125</ele>
    <time>2012-06-25T15:00:57Z</time>
   </trkpt>
   <trkpt lat="46.0095138549805" lon="7.17065858840942">
    <ele>1194.45947265625</ele>
    <time>2012-06-25T15:00:58Z</time>
   </trkpt>
   <trkpt lat="46.0093612670898" lon="7.17079019546509">
    <ele>1195.85400390625</ele>
    <time>2012-06-25T15:01:04Z</time>
   </trkpt>
   <trkpt lat="46.0093383789062" lon="7.17081689834595">
    <ele>1196.08642578125</ele>
    <time>2012-06-25T15:01:05Z</time>
   </trkpt>
   <trkpt lat="46.0093154907227" lon="7.1708402633667">
    <ele>1196.31884765625</ele>
    <time>2012-06-25T15:01:06Z</time>
   </trkpt>
   <trkpt lat="46.0092926025391" lon="7.17086553573608">
    <ele>1196.55126953125</ele>
    <time>2012-06-25T15:01:07Z</time>
   </trkpt>
   <trkpt lat="46.0092658996582" lon="7.17089033126831">
    <ele>1196.78369140625</ele>
    <time>2012-06-25T15:01:08Z</time>
   </trkpt>
   <trkpt lat="46.0091171264648" lon="7.17105197906494">
    <ele>1198.17834472656</ele>
    <time>2012-06-25T15:01:14Z</time>
   </trkpt>
   <trkpt lat="46.0090942382812" lon="7.17107820510864">
    <ele>1198.41076660156</ele>
    <time>2012-06-25T15:01:15Z</time>
   </trkpt>
   <trkpt lat="46.0090713500977" lon="7.17110538482666">
    <ele>1198.64318847656</ele>
    <time>2012-06-25T15:01:16Z</time>
   </trkpt>
   <trkpt lat="46.0090484619141" lon="7.17113494873047">
    <ele>1198.87561035156</ele>
    <time>2012-06-25T15:01:17Z</time>
   </trkpt>
   <trkpt lat="46.0090217590332" lon="7.17116498947144">
    <ele>1199.10803222656</ele>
    <time>2012-06-25T15:01:18Z</time>
   </trkpt>
   <trkpt lat="46.0088768005371" lon="7.17128372192383">
    <ele>1200.27026367188</ele>
    <time>2012-06-25T15:01:23Z</time>
   </trkpt>
   <trkpt lat="46.0088500976562" lon="7.17130661010742">
    <ele>1200.50268554688</ele>
    <time>2012-06-25T15:01:24Z</time>
   </trkpt>
   <trkpt lat="46.0088233947754" lon="7.17132711410522">
    <ele>1200.73510742188</ele>
    <time>2012-06-25T15:01:25Z</time>
   </trkpt>
   <trkpt lat="46.0087928771973" lon="7.17134761810303">
    <ele>1200.96752929688</ele>
    <time>2012-06-25T15:01:26Z</time>
   </trkpt>
   <trkpt lat="46.0087661743164" lon="7.17136478424072">
    <ele>1201.19995117188</ele>
    <time>2012-06-25T15:01:27Z</time>
   </trkpt>
   <trkpt lat="46.0086441040039" lon="7.17141628265381">
    <ele>1201.19995117188</ele>
    <time>2012-06-25T15:01:31Z</time>
   </trkpt>
   <trkpt lat="46.0085258483887" lon="7.17144632339478">
    <ele>1202.31298828125</ele>
    <time>2012-06-25T15:01:35Z</time>
   </trkpt>
   <trkpt lat="46.0084953308106" lon="7.17145156860352">
    <ele>1202.59130859375</ele>
    <time>2012-06-25T15:01:36Z</time>
   </trkpt>
   <trkpt lat="46.0084609985352" lon="7.17145299911499">
    <ele>1202.86950683594</ele>
    <time>2012-06-25T15:01:37Z</time>
   </trkpt>
   <trkpt lat="46.008430480957" lon="7.17145538330078">
    <ele>1203.14782714844</ele>
    <time>2012-06-25T15:01:38Z</time>
   </trkpt>
   <trkpt lat="46.0084037780762" lon="7.17145156860352">
    <ele>1203.42602539062</ele>
    <time>2012-06-25T15:01:39Z</time>
   </trkpt>
   <trkpt lat="46.0082893371582" lon="7.17142629623413">
    <ele>1204.5390625</ele>
    <time>2012-06-25T15:01:43Z</time>
   </trkpt>
   <trkpt lat="46.0082588195801" lon="7.17142057418823">
    <ele>1204.8173828125</ele>
    <time>2012-06-25T15:01:44Z</time>
   </trkpt>
   <trkpt lat="46.008228302002" lon="7.17141103744507">
    <ele>1205.09558105469</ele>
    <time>2012-06-25T15:01:45Z</time>
   </trkpt>
   <trkpt lat="46.0081977844238" lon="7.17140054702759">
    <ele>1205.37390136719</ele>
    <time>2012-06-25T15:01:46Z</time>
   </trkpt>
   <trkpt lat="46.008171081543" lon="7.17138719558716">
    <ele>1205.65209960938</ele>
    <time>2012-06-25T15:01:47Z</time>
   </trkpt>
   <trkpt lat="46.0080909729004" lon="7.17134284973144">
    <ele>1206.48693847656</ele>
    <time>2012-06-25T15:01:50Z</time>
   </trkpt>
   <trkpt lat="46.0080642700195" lon="7.17132329940796">
    <ele>1206.76513671875</ele>
    <time>2012-06-25T15:01:51Z</time>
   </trkpt>
   <trkpt lat="46.0080375671387" lon="7.17130613327026">
    <ele>1207.04345703125</ele>
    <time>2012-06-25T15:01:52Z</time>
   </trkpt>
   <trkpt lat="46.0080070495606" lon="7.17128086090088">
    <ele>1207.32165527344</ele>
    <time>2012-06-25T15:01:53Z</time>
   </trkpt>
   <trkpt lat="46.0079803466797" lon="7.17125701904297">
    <ele>1207.59997558594</ele>
    <time>2012-06-25T15:01:54Z</time>
   </trkpt>
   <trkpt lat="46.0079574584961" lon="7.17123031616211">
    <ele>1207.59997558594</ele>
    <time>2012-06-25T15:01:55Z</time>
   </trkpt>
   <trkpt lat="46.0079345703125" lon="7.17120552062988">
    <ele>1208.0400390625</ele>
    <time>2012-06-25T15:01:56Z</time>
   </trkpt>
   <trkpt lat="46.0079116821289" lon="7.17118263244629">
    <ele>1208.47998046875</ele>
    <time>2012-06-25T15:01:57Z</time>
   </trkpt>
   <trkpt lat="46.0078926086426" lon="7.17115545272827">
    <ele>1208.92004394531</ele>
    <time>2012-06-25T15:01:58Z</time>
   </trkpt>
   <trkpt lat="46.007869720459" lon="7.17112588882446">
    <ele>1209.35998535156</ele>
    <time>2012-06-25T15:01:59Z</time>
   </trkpt>
   <trkpt lat="46.0078468322754" lon="7.17109966278076">
    <ele>1209.80004882812</ele>
    <time>2012-06-25T15:02:00Z</time>
   </trkpt>
   <trkpt lat="46.0077705383301" lon="7.17097568511963">
    <ele>1209.80004882812</ele>
    <time>2012-06-25T15:02:04Z</time>
   </trkpt>
   <trkpt lat="46.0076789855957" lon="7.1707706451416">
    <ele>1210.8154296875</ele>
    <time>2012-06-25T15:02:10Z</time>
   </trkpt>
   <trkpt lat="46.0076332092285" lon="7.17066383361816">
    <ele>1211.32312011719</ele>
    <time>2012-06-25T15:02:13Z</time>
   </trkpt>
   <trkpt lat="46.0076179504394" lon="7.17062568664551">
    <ele>1211.49230957031</ele>
    <time>2012-06-25T15:02:14Z</time>
   </trkpt>
   <trkpt lat="46.0075988769531" lon="7.17058610916138">
    <ele>1211.66149902344</ele>
    <time>2012-06-25T15:02:15Z</time>
   </trkpt>
   <trkpt lat="46.0075836181641" lon="7.17055130004883">
    <ele>1211.83081054688</ele>
    <time>2012-06-25T15:02:16Z</time>
   </trkpt>
   <trkpt lat="46.007568359375" lon="7.17051696777344">
    <ele>1212</ele>
    <time>2012-06-25T15:02:17Z</time>
   </trkpt>
   <trkpt lat="46.0074920654297" lon="7.17034435272217">
    <ele>1212</ele>
    <time>2012-06-25T15:02:22Z</time>
   </trkpt>
   <trkpt lat="46.0074729919434" lon="7.17031145095825">
    <ele>1212.40002441406</ele>
    <time>2012-06-25T15:02:23Z</time>
   </trkpt>
   <trkpt lat="46.007453918457" lon="7.17027473449707">
    <ele>1212.80004882812</ele>
    <time>2012-06-25T15:02:24Z</time>
   </trkpt>
   <trkpt lat="46.007438659668" lon="7.17023658752441">
    <ele>1213.19995117188</ele>
    <time>2012-06-25T15:02:25Z</time>
   </trkpt>
   <trkpt lat="46.0074234008789" lon="7.1702036857605">
    <ele>1213.59997558594</ele>
    <time>2012-06-25T15:02:26Z</time>
   </trkpt>
   <trkpt lat="46.0074043273926" lon="7.17017316818237">
    <ele>1214</ele>
    <time>2012-06-25T15:02:27Z</time>
   </trkpt>
   <trkpt lat="46.0073432922363" lon="7.1700758934021">
    <ele>1214</ele>
    <time>2012-06-25T15:02:30Z</time>
   </trkpt>
   <trkpt lat="46.0072708129883" lon="7.16998767852783">
    <ele>1215</ele>
    <time>2012-06-25T15:02:33Z</time>
   </trkpt>
   <trkpt lat="46.0072441101074" lon="7.16996145248413">
    <ele>1215.33337402344</ele>
    <time>2012-06-25T15:02:34Z</time>
   </trkpt>
   <trkpt lat="46.0072174072266" lon="7.16993522644043">
    <ele>1215.66662597656</ele>
    <time>2012-06-25T15:02:35Z</time>
   </trkpt>
   <trkpt lat="46.007194519043" lon="7.16991138458252">
    <ele>1216</ele>
    <time>2012-06-25T15:02:36Z</time>
   </trkpt>
   <trkpt lat="46.0071678161621" lon="7.16989183425903">
    <ele>1216.33337402344</ele>
    <time>2012-06-25T15:02:37Z</time>
   </trkpt>
   <trkpt lat="46.0071449279785" lon="7.16987133026123">
    <ele>1216.66662597656</ele>
    <time>2012-06-25T15:02:38Z</time>
   </trkpt>
   <trkpt lat="46.0071182250977" lon="7.1698489189148">
    <ele>1217</ele>
    <time>2012-06-25T15:02:39Z</time>
   </trkpt>
   <trkpt lat="46.0070915222168" lon="7.16983222961426">
    <ele>1217.33337402344</ele>
    <time>2012-06-25T15:02:40Z</time>
   </trkpt>
   <trkpt lat="46.0070648193359" lon="7.1698203086853">
    <ele>1217.66662597656</ele>
    <time>2012-06-25T15:02:41Z</time>
   </trkpt>
   <trkpt lat="46.0070381164551" lon="7.16980791091919">
    <ele>1218</ele>
    <time>2012-06-25T15:02:42Z</time>
   </trkpt>
   <trkpt lat="46.0068664550781" lon="7.16972303390503">
    <ele>1218</ele>
    <time>2012-06-25T15:02:48Z</time>
   </trkpt>
   <trkpt lat="46.0067367553711" lon="7.1696982383728">
    <ele>1219.09997558594</ele>
    <time>2012-06-25T15:02:52Z</time>
   </trkpt>
   <trkpt lat="46.0066986083984" lon="7.16969680786133">
    <ele>1219.375</ele>
    <time>2012-06-25T15:02:53Z</time>
   </trkpt>
   <trkpt lat="46.0066680908203" lon="7.16969966888428">
    <ele>1219.64990234375</ele>
    <time>2012-06-25T15:02:54Z</time>
   </trkpt>
   <trkpt lat="46.0066337585449" lon="7.16969919204712">
    <ele>1219.92492675781</ele>
    <time>2012-06-25T15:02:55Z</time>
   </trkpt>
   <trkpt lat="46.0066032409668" lon="7.16970205307007">
    <ele>1220.19995117188</ele>
    <time>2012-06-25T15:02:56Z</time>
   </trkpt>
   <trkpt lat="46.0064811706543" lon="7.16973114013672">
    <ele>1220.19995117188</ele>
    <time>2012-06-25T15:03:00Z</time>
   </trkpt>
   <trkpt lat="46.0064277648926" lon="7.16975498199463">
    <ele>1220.86657714844</ele>
    <time>2012-06-25T15:03:02Z</time>
   </trkpt>
   <trkpt lat="46.0063934326172" lon="7.16976308822632">
    <ele>1221.19995117188</ele>
    <time>2012-06-25T15:03:03Z</time>
   </trkpt>
   <trkpt lat="46.0063629150391" lon="7.16977024078369">
    <ele>1221.53332519531</ele>
    <time>2012-06-25T15:03:04Z</time>
   </trkpt>
   <trkpt lat="46.0063323974609" lon="7.16977739334106">
    <ele>1221.86657714844</ele>
    <time>2012-06-25T15:03:05Z</time>
   </trkpt>
   <trkpt lat="46.0063018798828" lon="7.16978311538696">
    <ele>1222.19995117188</ele>
    <time>2012-06-25T15:03:06Z</time>
   </trkpt>
   <trkpt lat="46.0061836242676" lon="7.16981983184814">
    <ele>1222.19995117188</ele>
    <time>2012-06-25T15:03:10Z</time>
   </trkpt>
   <trkpt lat="46.0061302185059" lon="7.16985750198364">
    <ele>1223</ele>
    <time>2012-06-25T15:03:12Z</time>
   </trkpt>
   <trkpt lat="46.006103515625" lon="7.16987800598144">
    <ele>1223.39990234375</ele>
    <time>2012-06-25T15:03:13Z</time>
   </trkpt>
   <trkpt lat="46.0060729980469" lon="7.16989898681641">
    <ele>1223.79992675781</ele>
    <time>2012-06-25T15:03:14Z</time>
   </trkpt>
   <trkpt lat="46.0060424804688" lon="7.16992139816284">
    <ele>1224.19995117188</ele>
    <time>2012-06-25T15:03:15Z</time>
   </trkpt>
   <trkpt lat="46.0060157775879" lon="7.1699423789978">
    <ele>1224.59997558594</ele>
    <time>2012-06-25T15:03:16Z</time>
   </trkpt>
   <trkpt lat="46.005989074707" lon="7.16996622085571">
    <ele>1224.59997558594</ele>
    <time>2012-06-25T15:03:17Z</time>
   </trkpt>
   <trkpt lat="46.0059356689453" lon="7.17000436782837">
    <ele>1225.33337402344</ele>
    <time>2012-06-25T15:03:19Z</time>
   </trkpt>
   <trkpt lat="46.0059089660644" lon="7.17002820968628">
    <ele>1225.69995117188</ele>
    <time>2012-06-25T15:03:20Z</time>
   </trkpt>
   <trkpt lat="46.0058860778809" lon="7.17005443572998">
    <ele>1226.06665039062</ele>
    <time>2012-06-25T15:03:21Z</time>
   </trkpt>
   <trkpt lat="46.0058670043945" lon="7.17007827758789">
    <ele>1226.43334960938</ele>
    <time>2012-06-25T15:03:22Z</time>
   </trkpt>
   <trkpt lat="46.0058441162109" lon="7.17010498046875">
    <ele>1226.80004882812</ele>
    <time>2012-06-25T15:03:23Z</time>
   </trkpt>
   <trkpt lat="46.005802154541" lon="7.17015647888184">
    <ele>1226.80004882812</ele>
    <time>2012-06-25T15:03:25Z</time>
   </trkpt>
   <trkpt lat="46.005672454834" lon="7.17032384872436">
    <ele>1228.12634277344</ele>
    <time>2012-06-25T15:03:31Z</time>
   </trkpt>
   <trkpt lat="46.0056533813477" lon="7.17035341262817">
    <ele>1228.34741210938</ele>
    <time>2012-06-25T15:03:32Z</time>
   </trkpt>
   <trkpt lat="46.0056343078613" lon="7.17038536071777">
    <ele>1228.56848144531</ele>
    <time>2012-06-25T15:03:33Z</time>
   </trkpt>
   <trkpt lat="46.0056114196777" lon="7.17041683197022">
    <ele>1228.78955078125</ele>
    <time>2012-06-25T15:03:34Z</time>
   </trkpt>
   <trkpt lat="46.0055923461914" lon="7.17044830322266">
    <ele>1229.01049804688</ele>
    <time>2012-06-25T15:03:35Z</time>
   </trkpt>
   <trkpt lat="46.0054969787598" lon="7.17061471939087">
    <ele>1230.11584472656</ele>
    <time>2012-06-25T15:03:40Z</time>
   </trkpt>
   <trkpt lat="46.0054740905762" lon="7.1706485748291">
    <ele>1230.33679199219</ele>
    <time>2012-06-25T15:03:41Z</time>
   </trkpt>
   <trkpt lat="46.0054550170898" lon="7.17068243026733">
    <ele>1230.55786132812</ele>
    <time>2012-06-25T15:03:42Z</time>
   </trkpt>
   <trkpt lat="46.0054359436035" lon="7.1707181930542">
    <ele>1230.77893066406</ele>
    <time>2012-06-25T15:03:43Z</time>
   </trkpt>
   <trkpt lat="46.0054168701172" lon="7.17075300216675">
    <ele>1231</ele>
    <time>2012-06-25T15:03:44Z</time>
   </trkpt>
   <trkpt lat="46.0053176879883" lon="7.1709189414978">
    <ele>1231</ele>
    <time>2012-06-25T15:03:49Z</time>
   </trkpt>
   <trkpt lat="46.0052947998047" lon="7.17094993591309">
    <ele>1231.27502441406</ele>
    <time>2012-06-25T15:03:50Z</time>
   </trkpt>
   <trkpt lat="46.0052719116211" lon="7.17097997665405">
    <ele>1231.55004882812</ele>
    <time>2012-06-25T15:03:51Z</time>
   </trkpt>
   <trkpt lat="46.0052261352539" lon="7.17104053497314">
    <ele>1232.09997558594</ele>
    <time>2012-06-25T15:03:53Z</time>
   </trkpt>
   <trkpt lat="46.0052032470703" lon="7.17107486724854">
    <ele>1232.375</ele>
    <time>2012-06-25T15:03:54Z</time>
   </trkpt>
   <trkpt lat="46.0051803588867" lon="7.1711049079895">
    <ele>1232.64990234375</ele>
    <time>2012-06-25T15:03:55Z</time>
   </trkpt>
   <trkpt lat="46.0051574707031" lon="7.17113018035889">
    <ele>1232.92492675781</ele>
    <time>2012-06-25T15:03:56Z</time>
   </trkpt>
   <trkpt lat="46.0051345825195" lon="7.17115592956543">
    <ele>1233.19995117188</ele>
    <time>2012-06-25T15:03:57Z</time>
   </trkpt>
   <trkpt lat="46.0050888061523" lon="7.17120695114136">
    <ele>1233.19995117188</ele>
    <time>2012-06-25T15:03:59Z</time>
   </trkpt>
   <trkpt lat="46.0050430297852" lon="7.17125654220581">
    <ele>1233.69409179688</ele>
    <time>2012-06-25T15:04:01Z</time>
   </trkpt>
   <trkpt lat="46.0049896240234" lon="7.17130327224732">
    <ele>1234.18823242188</ele>
    <time>2012-06-25T15:04:03Z</time>
   </trkpt>
   <trkpt lat="46.0049629211426" lon="7.17132568359375">
    <ele>1234.43530273438</ele>
    <time>2012-06-25T15:04:04Z</time>
   </trkpt>
   <trkpt lat="46.0049362182617" lon="7.17134618759155">
    <ele>1234.68237304688</ele>
    <time>2012-06-25T15:04:05Z</time>
   </trkpt>
   <trkpt lat="46.0049095153809" lon="7.1713662147522">
    <ele>1234.92944335938</ele>
    <time>2012-06-25T15:04:06Z</time>
   </trkpt>
   <trkpt lat="46.0048828125" lon="7.17138767242432">
    <ele>1235.17651367188</ele>
    <time>2012-06-25T15:04:07Z</time>
   </trkpt>
   <trkpt lat="46.0048599243164" lon="7.17141008377075">
    <ele>1235.42346191406</ele>
    <time>2012-06-25T15:04:08Z</time>
   </trkpt>
   <trkpt lat="46.0047569274902" lon="7.17149639129639">
    <ele>1236.41174316406</ele>
    <time>2012-06-25T15:04:12Z</time>
   </trkpt>
   <trkpt lat="46.0047302246094" lon="7.17151689529419">
    <ele>1236.65881347656</ele>
    <time>2012-06-25T15:04:13Z</time>
   </trkpt>
   <trkpt lat="46.0047035217285" lon="7.17153596878052">
    <ele>1236.90588378906</ele>
    <time>2012-06-25T15:04:14Z</time>
   </trkpt>
   <trkpt lat="46.0046768188477" lon="7.17155599594116">
    <ele>1237.15295410156</ele>
    <time>2012-06-25T15:04:15Z</time>
   </trkpt>
   <trkpt lat="46.0046501159668" lon="7.1715784072876">
    <ele>1237.40002441406</ele>
    <time>2012-06-25T15:04:16Z</time>
   </trkpt>
   <trkpt lat="46.0044937133789" lon="7.17171144485474">
    <ele>1237.40002441406</ele>
    <time>2012-06-25T15:04:22Z</time>
   </trkpt>
   <trkpt lat="46.0044403076172" lon="7.17176008224487">
    <ele>1238.13330078125</ele>
    <time>2012-06-25T15:04:24Z</time>
   </trkpt>
   <trkpt lat="46.0044136047363" lon="7.17178440093994">
    <ele>1238.5</ele>
    <time>2012-06-25T15:04:25Z</time>
   </trkpt>
   <trkpt lat="46.0043869018555" lon="7.17180871963501">
    <ele>1238.86669921875</ele>
    <time>2012-06-25T15:04:26Z</time>
   </trkpt>
   <trkpt lat="46.0043640136719" lon="7.17183256149292">
    <ele>1239.23327636719</ele>
    <time>2012-06-25T15:04:27Z</time>
   </trkpt>
   <trkpt lat="46.0043411254883" lon="7.17185735702515">
    <ele>1239.59997558594</ele>
    <time>2012-06-25T15:04:28Z</time>
   </trkpt>
   <trkpt lat="46.0042953491211" lon="7.17191076278686">
    <ele>1239.59997558594</ele>
    <time>2012-06-25T15:04:30Z</time>
   </trkpt>
   <trkpt lat="46.004150390625" lon="7.17209196090698">
    <ele>1240.74548339844</ele>
    <time>2012-06-25T15:04:36Z</time>
   </trkpt>
   <trkpt lat="46.0041275024414" lon="7.17212295532226">
    <ele>1240.93640136719</ele>
    <time>2012-06-25T15:04:37Z</time>
   </trkpt>
   <trkpt lat="46.0041084289551" lon="7.17215299606323">
    <ele>1241.12731933594</ele>
    <time>2012-06-25T15:04:38Z</time>
   </trkpt>
   <trkpt lat="46.0040855407715" lon="7.17218685150146">
    <ele>1241.31823730469</ele>
    <time>2012-06-25T15:04:39Z</time>
   </trkpt>
   <trkpt lat="46.0040664672852" lon="7.1722240447998">
    <ele>1241.50915527344</ele>
    <time>2012-06-25T15:04:40Z</time>
   </trkpt>
   <trkpt lat="46.00390625" lon="7.17251205444336">
    <ele>1243.03637695312</ele>
    <time>2012-06-25T15:04:48Z</time>
   </trkpt>
   <trkpt lat="46.0038871765137" lon="7.17255067825317">
    <ele>1243.22729492188</ele>
    <time>2012-06-25T15:04:49Z</time>
   </trkpt>
   <trkpt lat="46.0038681030273" lon="7.1725869178772">
    <ele>1243.41821289062</ele>
    <time>2012-06-25T15:04:50Z</time>
   </trkpt>
   <trkpt lat="46.0038528442383" lon="7.17262268066406">
    <ele>1243.60913085938</ele>
    <time>2012-06-25T15:04:51Z</time>
   </trkpt>
   <trkpt lat="46.003833770752" lon="7.17265844345093">
    <ele>1243.80004882812</ele>
    <time>2012-06-25T15:04:52Z</time>
   </trkpt>
   <trkpt lat="46.0037231445312" lon="7.1728835105896">
    <ele>1243.80004882812</ele>
    <time>2012-06-25T15:04:58Z</time>
   </trkpt>
   <trkpt lat="46.0036811828613" lon="7.17295169830322">
    <ele>1244.46667480469</ele>
    <time>2012-06-25T15:05:00Z</time>
   </trkpt>
   <trkpt lat="46.0036582946777" lon="7.17298650741577">
    <ele>1244.80004882812</ele>
    <time>2012-06-25T15:05:01Z</time>
   </trkpt>
   <trkpt lat="46.0036392211914" lon="7.17302179336548">
    <ele>1245.13342285156</ele>
    <time>2012-06-25T15:05:02Z</time>
   </trkpt>
   <trkpt lat="46.0036201477051" lon="7.1730580329895">
    <ele>1245.46667480469</ele>
    <time>2012-06-25T15:05:03Z</time>
   </trkpt>
   <trkpt lat="46.0035972595215" lon="7.17309474945068">
    <ele>1245.80004882812</ele>
    <time>2012-06-25T15:05:04Z</time>
   </trkpt>
   <trkpt lat="46.0035362243652" lon="7.17319440841675">
    <ele>1245.80004882812</ele>
    <time>2012-06-25T15:05:07Z</time>
   </trkpt>
   <trkpt lat="46.003490447998" lon="7.17325782775879">
    <ele>1246.53332519531</ele>
    <time>2012-06-25T15:05:09Z</time>
   </trkpt>
   <trkpt lat="46.0034637451172" lon="7.17328786849976">
    <ele>1246.90002441406</ele>
    <time>2012-06-25T15:05:10Z</time>
   </trkpt>
   <trkpt lat="46.0034408569336" lon="7.17331743240356">
    <ele>1247.26672363281</ele>
    <time>2012-06-25T15:05:11Z</time>
   </trkpt>
   <trkpt lat="46.00341796875" lon="7.17334699630737">
    <ele>1247.63330078125</ele>
    <time>2012-06-25T15:05:12Z</time>
   </trkpt>
   <trkpt lat="46.0033950805664" lon="7.17337608337402">
    <ele>1248</ele>
    <time>2012-06-25T15:05:13Z</time>
   </trkpt>
   <trkpt lat="46.0033111572266" lon="7.1734824180603">
    <ele>1248</ele>
    <time>2012-06-25T15:05:17Z</time>
   </trkpt>
   <trkpt lat="46.0032653808594" lon="7.1735315322876">
    <ele>1248.66662597656</ele>
    <time>2012-06-25T15:05:19Z</time>
   </trkpt>
   <trkpt lat="46.0032424926758" lon="7.17355537414551">
    <ele>1249</ele>
    <time>2012-06-25T15:05:20Z</time>
   </trkpt>
   <trkpt lat="46.0032196044922" lon="7.17357921600342">
    <ele>1249.33337402344</ele>
    <time>2012-06-25T15:05:21Z</time>
   </trkpt>
   <trkpt lat="46.0031967163086" lon="7.17360258102417">
    <ele>1249.66662597656</ele>
    <time>2012-06-25T15:05:22Z</time>
   </trkpt>
   <trkpt lat="46.0031700134277" lon="7.1736273765564">
    <ele>1250</ele>
    <time>2012-06-25T15:05:23Z</time>
   </trkpt>
   <trkpt lat="46.0030784606934" lon="7.17371988296509">
    <ele>1250</ele>
    <time>2012-06-25T15:05:27Z</time>
   </trkpt>
   <trkpt lat="46.0030059814453" lon="7.1737756729126">
    <ele>1251.09997558594</ele>
    <time>2012-06-25T15:05:30Z</time>
   </trkpt>
   <trkpt lat="46.0029830932617" lon="7.17379426956177">
    <ele>1251.46667480469</ele>
    <time>2012-06-25T15:05:31Z</time>
   </trkpt>
   <trkpt lat="46.0029563903809" lon="7.17381048202515">
    <ele>1251.83325195312</ele>
    <time>2012-06-25T15:05:32Z</time>
   </trkpt>
   <trkpt lat="46.0029335021973" lon="7.17382669448852">
    <ele>1252.19995117188</ele>
    <time>2012-06-25T15:05:33Z</time>
   </trkpt>
   <trkpt lat="46.0028800964356" lon="7.17386770248413">
    <ele>1252.19995117188</ele>
    <time>2012-06-25T15:05:35Z</time>
   </trkpt>
   <trkpt lat="46.0028076171875" lon="7.17392587661743">
    <ele>1253.14282226562</ele>
    <time>2012-06-25T15:05:38Z</time>
   </trkpt>
   <trkpt lat="46.0027809143066" lon="7.17394256591797">
    <ele>1253.45715332031</ele>
    <time>2012-06-25T15:05:39Z</time>
   </trkpt>
   <trkpt lat="46.0027542114258" lon="7.17395830154419">
    <ele>1253.771484375</ele>
    <time>2012-06-25T15:05:40Z</time>
   </trkpt>
   <trkpt lat="46.0027275085449" lon="7.17397594451904">
    <ele>1254.08569335938</ele>
    <time>2012-06-25T15:05:41Z</time>
   </trkpt>
   <trkpt lat="46.0026969909668" lon="7.17399311065674">
    <ele>1254.40002441406</ele>
    <time>2012-06-25T15:05:42Z</time>
   </trkpt>
   <trkpt lat="46.0026435852051" lon="7.17402791976929">
    <ele>1254.40002441406</ele>
    <time>2012-06-25T15:05:44Z</time>
   </trkpt>
   <trkpt lat="46.0025177001953" lon="7.17412519454956">
    <ele>1255.56665039062</ele>
    <time>2012-06-25T15:05:49Z</time>
   </trkpt>
   <trkpt lat="46.0024909973144" lon="7.17414331436157">
    <ele>1255.80004882812</ele>
    <time>2012-06-25T15:05:50Z</time>
   </trkpt>
   <trkpt lat="46.0024642944336" lon="7.17416191101074">
    <ele>1256.03332519531</ele>
    <time>2012-06-25T15:05:51Z</time>
   </trkpt>
   <trkpt lat="46.00244140625" lon="7.17417764663696">
    <ele>1256.26672363281</ele>
    <time>2012-06-25T15:05:52Z</time>
   </trkpt>
   <trkpt lat="46.0024147033691" lon="7.17419385910034">
    <ele>1256.5</ele>
    <time>2012-06-25T15:05:53Z</time>
   </trkpt>
   <trkpt lat="46.0022888183594" lon="7.17428636550903">
    <ele>1257.66662597656</ele>
    <time>2012-06-25T15:05:58Z</time>
   </trkpt>
   <trkpt lat="46.0022621154785" lon="7.17430448532104">
    <ele>1257.90002441406</ele>
    <time>2012-06-25T15:05:59Z</time>
   </trkpt>
   <trkpt lat="46.0022392272949" lon="7.17432308197022">
    <ele>1258.13330078125</ele>
    <time>2012-06-25T15:06:00Z</time>
   </trkpt>
   <trkpt lat="46.0022125244141" lon="7.17434167861938">
    <ele>1258.36669921875</ele>
    <time>2012-06-25T15:06:01Z</time>
   </trkpt>
   <trkpt lat="46.0021858215332" lon="7.17436218261719">
    <ele>1258.59997558594</ele>
    <time>2012-06-25T15:06:02Z</time>
   </trkpt>
   <trkpt lat="46.0021324157715" lon="7.17439937591553">
    <ele>1258.59997558594</ele>
    <time>2012-06-25T15:06:04Z</time>
   </trkpt>
   <trkpt lat="46.002010345459" lon="7.17452049255371">
    <ele>1259.7041015625</ele>
    <time>2012-06-25T15:06:09Z</time>
   </trkpt>
   <trkpt lat="46.0019874572754" lon="7.17454481124878">
    <ele>1259.92492675781</ele>
    <time>2012-06-25T15:06:10Z</time>
   </trkpt>
   <trkpt lat="46.0019607543945" lon="7.17456674575806">
    <ele>1260.14575195312</ele>
    <time>2012-06-25T15:06:11Z</time>
   </trkpt>
   <trkpt lat="46.0019378662109" lon="7.17458534240723">
    <ele>1260.36669921875</ele>
    <time>2012-06-25T15:06:12Z</time>
   </trkpt>
   <trkpt lat="46.0019111633301" lon="7.17460632324219">
    <ele>1260.58752441406</ele>
    <time>2012-06-25T15:06:13Z</time>
   </trkpt>
   <trkpt lat="46.0017852783203" lon="7.17472076416016">
    <ele>1261.69165039062</ele>
    <time>2012-06-25T15:06:18Z</time>
   </trkpt>
   <trkpt lat="46.0017623901367" lon="7.17474317550659">
    <ele>1261.91247558594</ele>
    <time>2012-06-25T15:06:19Z</time>
   </trkpt>
   <trkpt lat="46.0017356872559" lon="7.17476415634155">
    <ele>1262.13330078125</ele>
    <time>2012-06-25T15:06:20Z</time>
   </trkpt>
   <trkpt lat="46.001708984375" lon="7.17478466033936">
    <ele>1262.35412597656</ele>
    <time>2012-06-25T15:06:21Z</time>
   </trkpt>
   <trkpt lat="46.0016860961914" lon="7.17480707168579">
    <ele>1262.57495117188</ele>
    <time>2012-06-25T15:06:22Z</time>
   </trkpt>
   <trkpt lat="46.0014762878418" lon="7.17497301101685">
    <ele>1264.34167480469</ele>
    <time>2012-06-25T15:06:30Z</time>
   </trkpt>
   <trkpt lat="46.0014495849609" lon="7.1749963760376">
    <ele>1264.5625</ele>
    <time>2012-06-25T15:06:31Z</time>
   </trkpt>
   <trkpt lat="46.0014228820801" lon="7.17501640319824">
    <ele>1264.78332519531</ele>
    <time>2012-06-25T15:06:32Z</time>
   </trkpt>
   <trkpt lat="46.0013961791992" lon="7.17503499984741">
    <ele>1265.00415039062</ele>
    <time>2012-06-25T15:06:33Z</time>
   </trkpt>
   <trkpt lat="46.0013694763184" lon="7.17505311965942">
    <ele>1265.22497558594</ele>
    <time>2012-06-25T15:06:34Z</time>
   </trkpt>
   <trkpt lat="46.0011825561523" lon="7.17518424987793">
    <ele>1266.77075195312</ele>
    <time>2012-06-25T15:06:41Z</time>
   </trkpt>
   <trkpt lat="46.0011558532715" lon="7.17520046234131">
    <ele>1266.99157714844</ele>
    <time>2012-06-25T15:06:42Z</time>
   </trkpt>
   <trkpt lat="46.0011291503906" lon="7.17521667480469">
    <ele>1267.21240234375</ele>
    <time>2012-06-25T15:06:43Z</time>
   </trkpt>
   <trkpt lat="46.0011024475098" lon="7.17523288726807">
    <ele>1267.43334960938</ele>
    <time>2012-06-25T15:06:44Z</time>
   </trkpt>
   <trkpt lat="46.0010032653809" lon="7.17529153823852">
    <ele>1268.31665039062</ele>
    <time>2012-06-25T15:06:48Z</time>
   </trkpt>
   <trkpt lat="46.0009803771973" lon="7.17530870437622">
    <ele>1268.53747558594</ele>
    <time>2012-06-25T15:06:49Z</time>
   </trkpt>
   <trkpt lat="46.0009536743164" lon="7.17532444000244">
    <ele>1268.75830078125</ele>
    <time>2012-06-25T15:06:50Z</time>
   </trkpt>
   <trkpt lat="46.0009269714356" lon="7.1753396987915">
    <ele>1268.97912597656</ele>
    <time>2012-06-25T15:06:51Z</time>
   </trkpt>
   <trkpt lat="46.0009002685547" lon="7.17535495758057">
    <ele>1269.19995117188</ele>
    <time>2012-06-25T15:06:52Z</time>
   </trkpt>
   <trkpt lat="46.0008201599121" lon="7.17539930343628">
    <ele>1269.19995117188</ele>
    <time>2012-06-25T15:06:55Z</time>
   </trkpt>
   <trkpt lat="46.0007133483887" lon="7.17545938491821">
    <ele>1270.1142578125</ele>
    <time>2012-06-25T15:06:59Z</time>
   </trkpt>
   <trkpt lat="46.0006866455078" lon="7.17547416687012">
    <ele>1270.3427734375</ele>
    <time>2012-06-25T15:07:00Z</time>
   </trkpt>
   <trkpt lat="46.000659942627" lon="7.17548847198486">
    <ele>1270.57141113281</ele>
    <time>2012-06-25T15:07:01Z</time>
   </trkpt>
   <trkpt lat="46.0006332397461" lon="7.1755051612854">
    <ele>1270.79992675781</ele>
    <time>2012-06-25T15:07:02Z</time>
   </trkpt>
   <trkpt lat="46.0006065368652" lon="7.17551946640015">
    <ele>1271.02856445312</ele>
    <time>2012-06-25T15:07:03Z</time>
   </trkpt>
   <trkpt lat="46.0004501342773" lon="7.17558813095093">
    <ele>1272.39990234375</ele>
    <time>2012-06-25T15:07:09Z</time>
   </trkpt>
   <trkpt lat="46.0004234313965" lon="7.17560386657715">
    <ele>1272.62854003906</ele>
    <time>2012-06-25T15:07:10Z</time>
   </trkpt>
   <trkpt lat="46.0003967285156" lon="7.17561912536621">
    <ele>1272.85705566406</ele>
    <time>2012-06-25T15:07:11Z</time>
   </trkpt>
   <trkpt lat="46.0003700256348" lon="7.17563343048096">
    <ele>1273.08569335938</ele>
    <time>2012-06-25T15:07:12Z</time>
   </trkpt>
   <trkpt lat="46.0003433227539" lon="7.17564582824707">
    <ele>1273.31420898438</ele>
    <time>2012-06-25T15:07:13Z</time>
   </trkpt>
   <trkpt lat="46.0001754760742" lon="7.17573308944702">
    <ele>1274.68566894531</ele>
    <time>2012-06-25T15:07:19Z</time>
   </trkpt>
   <trkpt lat="46.0001525878906" lon="7.17574834823608">
    <ele>1274.91430664062</ele>
    <time>2012-06-25T15:07:20Z</time>
   </trkpt>
   <trkpt lat="46.0001220703125" lon="7.17576742172241">
    <ele>1275.14282226562</ele>
    <time>2012-06-25T15:07:21Z</time>
   </trkpt>
   <trkpt lat="46.0000953674316" lon="7.17578315734863">
    <ele>1275.37145996094</ele>
    <time>2012-06-25T15:07:22Z</time>
   </trkpt>
   <trkpt lat="46.0000686645508" lon="7.17579889297485">
    <ele>1275.59997558594</ele>
    <time>2012-06-25T15:07:23Z</time>
   </trkpt>
   <trkpt lat="45.9999618530273" lon="7.17585802078247">
    <ele>1275.59997558594</ele>
    <time>2012-06-25T15:07:27Z</time>
   </trkpt>
   <trkpt lat="45.9999313354492" lon="7.17587232589722">
    <ele>1276.0400390625</ele>
    <time>2012-06-25T15:07:28Z</time>
   </trkpt>
   <trkpt lat="45.9999046325684" lon="7.17588901519775">
    <ele>1276.47998046875</ele>
    <time>2012-06-25T15:07:29Z</time>
   </trkpt>
   <trkpt lat="45.9998779296875" lon="7.17590713500976">
    <ele>1276.92004394531</ele>
    <time>2012-06-25T15:07:30Z</time>
   </trkpt>
   <trkpt lat="45.9998512268066" lon="7.17592620849609">
    <ele>1277.35998535156</ele>
    <time>2012-06-25T15:07:31Z</time>
   </trkpt>
   <trkpt lat="45.9998207092285" lon="7.17594575881958">
    <ele>1277.80004882812</ele>
    <time>2012-06-25T15:07:32Z</time>
   </trkpt>
   <trkpt lat="45.999683380127" lon="7.17604637145996">
    <ele>1277.80004882812</ele>
    <time>2012-06-25T15:07:37Z</time>
   </trkpt>
   <trkpt lat="45.9996299743652" lon="7.17608404159546">
    <ele>1278.46667480469</ele>
    <time>2012-06-25T15:07:39Z</time>
   </trkpt>
   <trkpt lat="45.9996032714844" lon="7.17610740661621">
    <ele>1278.80004882812</ele>
    <time>2012-06-25T15:07:40Z</time>
   </trkpt>
   <trkpt lat="45.9995727539062" lon="7.17613315582275">
    <ele>1279.13342285156</ele>
    <time>2012-06-25T15:07:41Z</time>
   </trkpt>
   <trkpt lat="45.9995422363281" lon="7.17615985870361">
    <ele>1279.46667480469</ele>
    <time>2012-06-25T15:07:42Z</time>
   </trkpt>
   <trkpt lat="45.99951171875" lon="7.17618560791016">
    <ele>1279.80004882812</ele>
    <time>2012-06-25T15:07:43Z</time>
   </trkpt>
   <trkpt lat="45.9994812011719" lon="7.17621326446533">
    <ele>1279.80004882812</ele>
    <time>2012-06-25T15:07:44Z</time>
   </trkpt>
   <trkpt lat="45.9993019104004" lon="7.17636108398438">
    <ele>1280.60009765625</ele>
    <time>2012-06-25T15:07:50Z</time>
   </trkpt>
   <trkpt lat="45.9991073608398" lon="7.1764817237854">
    <ele>1281.40002441406</ele>
    <time>2012-06-25T15:07:56Z</time>
   </trkpt>
   <trkpt lat="45.9990768432617" lon="7.1764965057373">
    <ele>1281.53332519531</ele>
    <time>2012-06-25T15:07:57Z</time>
   </trkpt>
   <trkpt lat="45.9990463256836" lon="7.17651081085205">
    <ele>1281.66674804688</ele>
    <time>2012-06-25T15:07:58Z</time>
   </trkpt>
   <trkpt lat="45.9990119934082" lon="7.17652416229248">
    <ele>1281.80004882812</ele>
    <time>2012-06-25T15:07:59Z</time>
   </trkpt>
   <trkpt lat="45.9989776611328" lon="7.17653942108154">
    <ele>1281.80004882812</ele>
    <time>2012-06-25T15:08:00Z</time>
   </trkpt>
   <trkpt lat="45.9988861083984" lon="7.17658758163452">
    <ele>1282.46667480469</ele>
    <time>2012-06-25T15:08:03Z</time>
   </trkpt>
   <trkpt lat="45.9988555908203" lon="7.17660474777222">
    <ele>1282.68896484375</ele>
    <time>2012-06-25T15:08:04Z</time>
   </trkpt>
   <trkpt lat="45.9988212585449" lon="7.17661952972412">
    <ele>1282.9111328125</ele>
    <time>2012-06-25T15:08:05Z</time>
   </trkpt>
   <trkpt lat="45.9987907409668" lon="7.17663240432739">
    <ele>1283.13342285156</ele>
    <time>2012-06-25T15:08:06Z</time>
   </trkpt>
   <trkpt lat="45.9987602233887" lon="7.17664623260498">
    <ele>1283.35559082031</ele>
    <time>2012-06-25T15:08:07Z</time>
   </trkpt>
   <trkpt lat="45.9987258911133" lon="7.1766619682312">
    <ele>1283.57788085938</ele>
    <time>2012-06-25T15:08:08Z</time>
   </trkpt>
   <trkpt lat="45.9986953735352" lon="7.17667484283447">
    <ele>1283.80004882812</ele>
    <time>2012-06-25T15:08:09Z</time>
   </trkpt>
   <trkpt lat="45.9986686706543" lon="7.17668724060059">
    <ele>1283.80004882812</ele>
    <time>2012-06-25T15:08:10Z</time>
   </trkpt>
   <trkpt lat="45.9985160827637" lon="7.17676877975464">
    <ele>1285.17504882812</ele>
    <time>2012-06-25T15:08:15Z</time>
   </trkpt>
   <trkpt lat="45.9984855651856" lon="7.17678451538086">
    <ele>1285.44995117188</ele>
    <time>2012-06-25T15:08:16Z</time>
   </trkpt>
   <trkpt lat="45.9984588623047" lon="7.17679786682129">
    <ele>1285.72497558594</ele>
    <time>2012-06-25T15:08:17Z</time>
   </trkpt>
   <trkpt lat="45.9984321594238" lon="7.17681217193604">
    <ele>1286</ele>
    <time>2012-06-25T15:08:18Z</time>
   </trkpt>
   <trkpt lat="45.9984092712402" lon="7.17682981491089">
    <ele>1286.27502441406</ele>
    <time>2012-06-25T15:08:19Z</time>
   </trkpt>
   <trkpt lat="45.9983291625977" lon="7.17687845230102">
    <ele>1287.09997558594</ele>
    <time>2012-06-25T15:08:22Z</time>
   </trkpt>
   <trkpt lat="45.9983024597168" lon="7.1768970489502">
    <ele>1287.375</ele>
    <time>2012-06-25T15:08:23Z</time>
   </trkpt>
   <trkpt lat="45.9982757568359" lon="7.17691707611084">
    <ele>1287.64990234375</ele>
    <time>2012-06-25T15:08:24Z</time>
   </trkpt>
   <trkpt lat="45.9982528686523" lon="7.17694044113159">
    <ele>1287.92492675781</ele>
    <time>2012-06-25T15:08:25Z</time>
   </trkpt>
   <trkpt lat="45.9982299804688" lon="7.17696952819824">
    <ele>1288.19995117188</ele>
    <time>2012-06-25T15:08:26Z</time>
   </trkpt>
   <trkpt lat="45.9981842041016" lon="7.17703104019165">
    <ele>1288.19995117188</ele>
    <time>2012-06-25T15:08:28Z</time>
   </trkpt>
   <trkpt lat="45.9981651306152" lon="7.1770658493042">
    <ele>1288.42211914062</ele>
    <time>2012-06-25T15:08:29Z</time>
   </trkpt>
   <trkpt lat="45.9981498718262" lon="7.1771035194397">
    <ele>1288.64440917969</ele>
    <time>2012-06-25T15:08:30Z</time>
   </trkpt>
   <trkpt lat="45.9981307983398" lon="7.17714595794678">
    <ele>1288.86657714844</ele>
    <time>2012-06-25T15:08:31Z</time>
   </trkpt>
   <trkpt lat="45.9981002807617" lon="7.17721700668335">
    <ele>1289.31103515625</ele>
    <time>2012-06-25T15:08:33Z</time>
   </trkpt>
   <trkpt lat="45.9980850219727" lon="7.17725372314453">
    <ele>1289.53332519531</ele>
    <time>2012-06-25T15:08:34Z</time>
   </trkpt>
   <trkpt lat="45.9980697631836" lon="7.17729091644287">
    <ele>1289.75549316406</ele>
    <time>2012-06-25T15:08:35Z</time>
   </trkpt>
   <trkpt lat="45.9980545043945" lon="7.17733001708984">
    <ele>1289.97778320312</ele>
    <time>2012-06-25T15:08:36Z</time>
   </trkpt>
   <trkpt lat="45.9980354309082" lon="7.17736625671387">
    <ele>1290.19995117188</ele>
    <time>2012-06-25T15:08:37Z</time>
   </trkpt>
   <trkpt lat="45.9979858398438" lon="7.17748260498047">
    <ele>1290.19995117188</ele>
    <time>2012-06-25T15:08:40Z</time>
   </trkpt>
   <trkpt lat="45.9979705810547" lon="7.17752075195312">
    <ele>1290.44995117188</ele>
    <time>2012-06-25T15:08:41Z</time>
   </trkpt>
   <trkpt lat="45.9979515075684" lon="7.17755699157715">
    <ele>1290.69995117188</ele>
    <time>2012-06-25T15:08:42Z</time>
   </trkpt>
   <trkpt lat="45.9979019165039" lon="7.17767190933228">
    <ele>1291.44995117188</ele>
    <time>2012-06-25T15:08:45Z</time>
   </trkpt>
   <trkpt lat="45.9978866577148" lon="7.17771196365356">
    <ele>1291.69995117188</ele>
    <time>2012-06-25T15:08:46Z</time>
   </trkpt>
   <trkpt lat="45.9978675842285" lon="7.17775201797485">
    <ele>1291.94995117188</ele>
    <time>2012-06-25T15:08:47Z</time>
   </trkpt>
   <trkpt lat="45.9978523254394" lon="7.17778968811035">
    <ele>1292.19995117188</ele>
    <time>2012-06-25T15:08:48Z</time>
   </trkpt>
   <trkpt lat="45.9978294372559" lon="7.17782878875732">
    <ele>1292.19995117188</ele>
    <time>2012-06-25T15:08:49Z</time>
   </trkpt>
   <trkpt lat="45.9977531433106" lon="7.17799043655396">
    <ele>1293.30004882812</ele>
    <time>2012-06-25T15:08:53Z</time>
   </trkpt>
   <trkpt lat="45.997730255127" lon="7.17803001403809">
    <ele>1293.57495117188</ele>
    <time>2012-06-25T15:08:54Z</time>
   </trkpt>
   <trkpt lat="45.9977111816406" lon="7.17807054519653">
    <ele>1293.84997558594</ele>
    <time>2012-06-25T15:08:55Z</time>
   </trkpt>
   <trkpt lat="45.9976844787598" lon="7.1781063079834">
    <ele>1294.125</ele>
    <time>2012-06-25T15:08:56Z</time>
   </trkpt>
   <trkpt lat="45.9976577758789" lon="7.17814350128174">
    <ele>1294.40002441406</ele>
    <time>2012-06-25T15:08:57Z</time>
   </trkpt>
   <trkpt lat="45.9975547790527" lon="7.1782717704773">
    <ele>1294.40002441406</ele>
    <time>2012-06-25T15:09:01Z</time>
   </trkpt>
   <trkpt lat="45.9974937438965" lon="7.1783242225647">
    <ele>1294.84448242188</ele>
    <time>2012-06-25T15:09:03Z</time>
   </trkpt>
   <trkpt lat="45.9973945617676" lon="7.17839050292969">
    <ele>1295.51110839844</ele>
    <time>2012-06-25T15:09:06Z</time>
   </trkpt>
   <trkpt lat="45.9973564147949" lon="7.17840528488159">
    <ele>1295.7333984375</ele>
    <time>2012-06-25T15:09:07Z</time>
   </trkpt>
   <trkpt lat="45.997314453125" lon="7.1784200668335">
    <ele>1295.95556640625</ele>
    <time>2012-06-25T15:09:08Z</time>
   </trkpt>
   <trkpt lat="45.9972763061523" lon="7.17843103408814">
    <ele>1296.17785644531</ele>
    <time>2012-06-25T15:09:09Z</time>
   </trkpt>
   <trkpt lat="45.9972343444824" lon="7.17843532562256">
    <ele>1296.40002441406</ele>
    <time>2012-06-25T15:09:10Z</time>
   </trkpt>
   <trkpt lat="45.9971923828125" lon="7.17844009399414">
    <ele>1296.40002441406</ele>
    <time>2012-06-25T15:09:11Z</time>
   </trkpt>
   <trkpt lat="45.9971504211426" lon="7.1784462928772">
    <ele>1296.44445800781</ele>
    <time>2012-06-25T15:09:12Z</time>
   </trkpt>
   <trkpt lat="45.9971084594727" lon="7.17845058441162">
    <ele>1296.48889160156</ele>
    <time>2012-06-25T15:09:13Z</time>
   </trkpt>
   <trkpt lat="45.9970626831055" lon="7.17845010757446">
    <ele>1296.53332519531</ele>
    <time>2012-06-25T15:09:14Z</time>
   </trkpt>
   <trkpt lat="45.9970207214356" lon="7.17844581604004">
    <ele>1296.57775878906</ele>
    <time>2012-06-25T15:09:15Z</time>
   </trkpt>
   <trkpt lat="45.9969711303711" lon="7.17843580245972">
    <ele>1296.62219238281</ele>
    <time>2012-06-25T15:09:16Z</time>
   </trkpt>
   <trkpt lat="45.996883392334" lon="7.17839956283569">
    <ele>1296.71118164062</ele>
    <time>2012-06-25T15:09:18Z</time>
   </trkpt>
   <trkpt lat="45.9967918395996" lon="7.17834901809692">
    <ele>1296.80004882812</ele>
    <time>2012-06-25T15:09:20Z</time>
   </trkpt>
   <trkpt lat="45.9967498779297" lon="7.17831420898438">
    <ele>1296.84448242188</ele>
    <time>2012-06-25T15:09:21Z</time>
   </trkpt>
   <trkpt lat="45.9967079162598" lon="7.17827653884888">
    <ele>1296.88891601562</ele>
    <time>2012-06-25T15:09:22Z</time>
   </trkpt>
   <trkpt lat="45.9965858459473" lon="7.17815399169922">
    <ele>1297.02221679688</ele>
    <time>2012-06-25T15:09:25Z</time>
   </trkpt>
   <trkpt lat="45.996337890625" lon="7.17784786224365">
    <ele>1297.33337402344</ele>
    <time>2012-06-25T15:09:32Z</time>
   </trkpt>
   <trkpt lat="45.996265411377" lon="7.17775917053223">
    <ele>1297.42224121094</ele>
    <time>2012-06-25T15:09:34Z</time>
   </trkpt>
   <trkpt lat="45.9962310791016" lon="7.17771911621094">
    <ele>1297.46667480469</ele>
    <time>2012-06-25T15:09:35Z</time>
   </trkpt>
   <trkpt lat="45.9961929321289" lon="7.17768716812134">
    <ele>1297.51110839844</ele>
    <time>2012-06-25T15:09:36Z</time>
   </trkpt>
   <trkpt lat="45.996150970459" lon="7.17766427993774">
    <ele>1297.55554199219</ele>
    <time>2012-06-25T15:09:37Z</time>
   </trkpt>
   <trkpt lat="45.9961090087891" lon="7.17765474319458">
    <ele>1297.59997558594</ele>
    <time>2012-06-25T15:09:38Z</time>
   </trkpt>
   <trkpt lat="45.9960632324219" lon="7.17766618728638">
    <ele>1297.64440917969</ele>
    <time>2012-06-25T15:09:39Z</time>
   </trkpt>
   <trkpt lat="45.996021270752" lon="7.17769384384155">
    <ele>1297.68896484375</ele>
    <time>2012-06-25T15:09:40Z</time>
   </trkpt>
   <trkpt lat="45.995979309082" lon="7.17773628234863">
    <ele>1297.7333984375</ele>
    <time>2012-06-25T15:09:41Z</time>
   </trkpt>
   <trkpt lat="45.995922088623" lon="7.17784786224365">
    <ele>1297.822265625</ele>
    <time>2012-06-25T15:09:43Z</time>
   </trkpt>
   <trkpt lat="45.9958801269531" lon="7.17798280715942">
    <ele>1297.9111328125</ele>
    <time>2012-06-25T15:09:45Z</time>
   </trkpt>
   <trkpt lat="45.9958572387695" lon="7.17804908752441">
    <ele>1297.95556640625</ele>
    <time>2012-06-25T15:09:46Z</time>
   </trkpt>
   <trkpt lat="45.9957656860352" lon="7.1783037185669">
    <ele>1298.13330078125</ele>
    <time>2012-06-25T15:09:50Z</time>
   </trkpt>
   <trkpt lat="45.9957237243652" lon="7.17842388153076">
    <ele>1298.22229003906</ele>
    <time>2012-06-25T15:09:52Z</time>
   </trkpt>
   <trkpt lat="45.9957008361816" lon="7.17848491668701">
    <ele>1298.26672363281</ele>
    <time>2012-06-25T15:09:53Z</time>
   </trkpt>
   <trkpt lat="45.995677947998" lon="7.17854642868042">
    <ele>1298.31115722656</ele>
    <time>2012-06-25T15:09:54Z</time>
   </trkpt>
   <trkpt lat="45.9956550598144" lon="7.17860794067383">
    <ele>1298.35559082031</ele>
    <time>2012-06-25T15:09:55Z</time>
   </trkpt>
   <trkpt lat="45.9956359863281" lon="7.17866611480713">
    <ele>1298.40002441406</ele>
    <time>2012-06-25T15:09:56Z</time>
   </trkpt>
   <trkpt lat="45.9955596923828" lon="7.17889785766602">
    <ele>1298.40002441406</ele>
    <time>2012-06-25T15:10:00Z</time>
   </trkpt>
   <trkpt lat="45.995418548584" lon="7.17929410934448">
    <ele>1299.80004882812</ele>
    <time>2012-06-25T15:10:07Z</time>
   </trkpt>
   <trkpt lat="45.9954032897949" lon="7.17935371398926">
    <ele>1300</ele>
    <time>2012-06-25T15:10:08Z</time>
   </trkpt>
   <trkpt lat="45.9953842163086" lon="7.17941188812256">
    <ele>1300.19995117188</ele>
    <time>2012-06-25T15:10:09Z</time>
   </trkpt>
   <trkpt lat="45.995361328125" lon="7.17946720123291">
    <ele>1300.40002441406</ele>
    <time>2012-06-25T15:10:10Z</time>
   </trkpt>
   <trkpt lat="45.9953422546387" lon="7.1795220375061">
    <ele>1300.59997558594</ele>
    <time>2012-06-25T15:10:11Z</time>
   </trkpt>
   <trkpt lat="45.9952545166016" lon="7.17973947525024">
    <ele>1300.59997558594</ele>
    <time>2012-06-25T15:10:15Z</time>
   </trkpt>
   <trkpt lat="45.9949989318848" lon="7.18031597137451">
    <ele>1302.13842773438</ele>
    <time>2012-06-25T15:10:25Z</time>
   </trkpt>
   <trkpt lat="45.9949684143066" lon="7.18037843704224">
    <ele>1302.29223632812</ele>
    <time>2012-06-25T15:10:26Z</time>
   </trkpt>
   <trkpt lat="45.9949417114258" lon="7.18043613433838">
    <ele>1302.44616699219</ele>
    <time>2012-06-25T15:10:27Z</time>
   </trkpt>
   <trkpt lat="45.9949150085449" lon="7.18049430847168">
    <ele>1302.59997558594</ele>
    <time>2012-06-25T15:10:28Z</time>
   </trkpt>
   <trkpt lat="45.9948921203613" lon="7.18055200576782">
    <ele>1302.59997558594</ele>
    <time>2012-06-25T15:10:29Z</time>
   </trkpt>
   <trkpt lat="45.9948425292969" lon="7.18066596984863">
    <ele>1302.83996582031</ele>
    <time>2012-06-25T15:10:31Z</time>
   </trkpt>
   <trkpt lat="45.994815826416" lon="7.18072175979614">
    <ele>1302.9599609375</ele>
    <time>2012-06-25T15:10:32Z</time>
   </trkpt>
   <trkpt lat="45.9946098327637" lon="7.18116998672485">
    <ele>1303.92004394531</ele>
    <time>2012-06-25T15:10:40Z</time>
   </trkpt>
   <trkpt lat="45.9945106506348" lon="7.18139123916626">
    <ele>1304.40002441406</ele>
    <time>2012-06-25T15:10:44Z</time>
   </trkpt>
   <trkpt lat="45.9944839477539" lon="7.18144655227661">
    <ele>1304.52001953125</ele>
    <time>2012-06-25T15:10:45Z</time>
   </trkpt>
   <trkpt lat="45.9944610595703" lon="7.18150186538696">
    <ele>1304.64001464844</ele>
    <time>2012-06-25T15:10:46Z</time>
   </trkpt>
   <trkpt lat="45.9944343566894" lon="7.18155717849732">
    <ele>1304.76000976562</ele>
    <time>2012-06-25T15:10:47Z</time>
   </trkpt>
   <trkpt lat="45.9944114685059" lon="7.18161296844482">
    <ele>1304.88000488281</ele>
    <time>2012-06-25T15:10:48Z</time>
   </trkpt>
   <trkpt lat="45.994384765625" lon="7.18166828155518">
    <ele>1305</ele>
    <time>2012-06-25T15:10:49Z</time>
   </trkpt>
   <trkpt lat="45.9943618774414" lon="7.1817216873169">
    <ele>1305</ele>
    <time>2012-06-25T15:10:50Z</time>
   </trkpt>
   <trkpt lat="45.9943389892578" lon="7.18177223205566">
    <ele>1305.16662597656</ele>
    <time>2012-06-25T15:10:51Z</time>
   </trkpt>
   <trkpt lat="45.9943161010742" lon="7.18182420730591">
    <ele>1305.33337402344</ele>
    <time>2012-06-25T15:10:52Z</time>
   </trkpt>
   <trkpt lat="45.9942474365234" lon="7.18196773529053">
    <ele>1305.83337402344</ele>
    <time>2012-06-25T15:10:55Z</time>
   </trkpt>
   <trkpt lat="45.9942245483398" lon="7.1820182800293">
    <ele>1306</ele>
    <time>2012-06-25T15:10:56Z</time>
   </trkpt>
   <trkpt lat="45.9941825866699" lon="7.18211555480957">
    <ele>1306.33337402344</ele>
    <time>2012-06-25T15:10:58Z</time>
   </trkpt>
   <trkpt lat="45.9941596984863" lon="7.18215799331665">
    <ele>1306.5</ele>
    <time>2012-06-25T15:10:59Z</time>
   </trkpt>
   <trkpt lat="45.994140625" lon="7.18220376968384">
    <ele>1306.66662597656</ele>
    <time>2012-06-25T15:11:00Z</time>
   </trkpt>
   <trkpt lat="45.9941215515137" lon="7.18224430084228">
    <ele>1306.83337402344</ele>
    <time>2012-06-25T15:11:01Z</time>
   </trkpt>
   <trkpt lat="45.9941024780273" lon="7.18228626251221">
    <ele>1307</ele>
    <time>2012-06-25T15:11:02Z</time>
   </trkpt>
   <trkpt lat="45.9940185546875" lon="7.18244409561157">
    <ele>1307</ele>
    <time>2012-06-25T15:11:06Z</time>
   </trkpt>
   <trkpt lat="45.9939994812012" lon="7.18248462677002">
    <ele>1307.36669921875</ele>
    <time>2012-06-25T15:11:07Z</time>
   </trkpt>
   <trkpt lat="45.9939804077148" lon="7.18252611160278">
    <ele>1307.73327636719</ele>
    <time>2012-06-25T15:11:08Z</time>
   </trkpt>
   <trkpt lat="45.9939613342285" lon="7.18256616592407">
    <ele>1308.09997558594</ele>
    <time>2012-06-25T15:11:09Z</time>
   </trkpt>
   <trkpt lat="45.9939422607422" lon="7.18260669708252">
    <ele>1308.46667480469</ele>
    <time>2012-06-25T15:11:10Z</time>
   </trkpt>
   <trkpt lat="45.9939231872559" lon="7.18264865875244">
    <ele>1308.83325195312</ele>
    <time>2012-06-25T15:11:11Z</time>
   </trkpt>
   <trkpt lat="45.9939079284668" lon="7.18269300460815">
    <ele>1309.19995117188</ele>
    <time>2012-06-25T15:11:12Z</time>
   </trkpt>
   <trkpt lat="45.9938926696777" lon="7.18273496627808">
    <ele>1309.19995117188</ele>
    <time>2012-06-25T15:11:13Z</time>
   </trkpt>
   <trkpt lat="45.9938507080078" lon="7.18285417556763">
    <ele>1310.02502441406</ele>
    <time>2012-06-25T15:11:16Z</time>
   </trkpt>
   <trkpt lat="45.9938316345215" lon="7.18289136886597">
    <ele>1310.30004882812</ele>
    <time>2012-06-25T15:11:17Z</time>
   </trkpt>
   <trkpt lat="45.9938163757324" lon="7.18292999267578">
    <ele>1310.57495117188</ele>
    <time>2012-06-25T15:11:18Z</time>
   </trkpt>
   <trkpt lat="45.9938011169434" lon="7.18297290802002">
    <ele>1310.84997558594</ele>
    <time>2012-06-25T15:11:19Z</time>
   </trkpt>
   <trkpt lat="45.9937858581543" lon="7.18301343917847">
    <ele>1311.125</ele>
    <time>2012-06-25T15:11:20Z</time>
   </trkpt>
   <trkpt lat="45.9937705993652" lon="7.18305253982544">
    <ele>1311.40002441406</ele>
    <time>2012-06-25T15:11:21Z</time>
   </trkpt>
   <trkpt lat="45.9937171936035" lon="7.18317747116089">
    <ele>1311.40002441406</ele>
    <time>2012-06-25T15:11:24Z</time>
   </trkpt>
   <trkpt lat="45.9936370849609" lon="7.18332815170288">
    <ele>1312.28894042969</ele>
    <time>2012-06-25T15:11:28Z</time>
   </trkpt>
   <trkpt lat="45.9936180114746" lon="7.18336534500122">
    <ele>1312.51110839844</ele>
    <time>2012-06-25T15:11:29Z</time>
   </trkpt>
   <trkpt lat="45.9935989379883" lon="7.18340635299683">
    <ele>1312.7333984375</ele>
    <time>2012-06-25T15:11:30Z</time>
   </trkpt>
   <trkpt lat="45.9935760498047" lon="7.18344640731812">
    <ele>1312.95556640625</ele>
    <time>2012-06-25T15:11:31Z</time>
   </trkpt>
   <trkpt lat="45.9935531616211" lon="7.18348503112793">
    <ele>1313.17785644531</ele>
    <time>2012-06-25T15:11:32Z</time>
   </trkpt>
   <trkpt lat="45.9933853149414" lon="7.18370866775513">
    <ele>1314.7333984375</ele>
    <time>2012-06-25T15:11:39Z</time>
   </trkpt>
   <trkpt lat="45.9933586120606" lon="7.18373107910156">
    <ele>1314.95556640625</ele>
    <time>2012-06-25T15:11:40Z</time>
   </trkpt>
   <trkpt lat="45.9933319091797" lon="7.18375301361084">
    <ele>1315.17785644531</ele>
    <time>2012-06-25T15:11:41Z</time>
   </trkpt>
   <trkpt lat="45.9933052062988" lon="7.18377494812012">
    <ele>1315.40002441406</ele>
    <time>2012-06-25T15:11:42Z</time>
   </trkpt>
   <trkpt lat="45.9931869506836" lon="7.18384599685669">
    <ele>1315.40002441406</ele>
    <time>2012-06-25T15:11:46Z</time>
   </trkpt>
   <trkpt lat="45.9931259155273" lon="7.18387413024902">
    <ele>1315.86315917969</ele>
    <time>2012-06-25T15:11:48Z</time>
   </trkpt>
   <trkpt lat="45.9930953979492" lon="7.18388843536377">
    <ele>1316.0947265625</ele>
    <time>2012-06-25T15:11:49Z</time>
   </trkpt>
   <trkpt lat="45.9930381774902" lon="7.18392276763916">
    <ele>1316.55798339844</ele>
    <time>2012-06-25T15:11:51Z</time>
   </trkpt>
   <trkpt lat="45.9930076599121" lon="7.1839394569397">
    <ele>1316.78955078125</ele>
    <time>2012-06-25T15:11:52Z</time>
   </trkpt>
   <trkpt lat="45.992977142334" lon="7.18395566940308">
    <ele>1317.02111816406</ele>
    <time>2012-06-25T15:11:53Z</time>
   </trkpt>
   <trkpt lat="45.9929428100586" lon="7.18397426605225">
    <ele>1317.25268554688</ele>
    <time>2012-06-25T15:11:54Z</time>
   </trkpt>
   <trkpt lat="45.9929122924805" lon="7.18399095535278">
    <ele>1317.48425292969</ele>
    <time>2012-06-25T15:11:55Z</time>
   </trkpt>
   <trkpt lat="45.9926910400391" lon="7.18410921096802">
    <ele>1319.10534667969</ele>
    <time>2012-06-25T15:12:02Z</time>
   </trkpt>
   <trkpt lat="45.9926567077637" lon="7.18412733078003">
    <ele>1319.3369140625</ele>
    <time>2012-06-25T15:12:03Z</time>
   </trkpt>
   <trkpt lat="45.9926261901856" lon="7.18415069580078">
    <ele>1319.56848144531</ele>
    <time>2012-06-25T15:12:04Z</time>
   </trkpt>
   <trkpt lat="45.9925918579102" lon="7.18417024612427">
    <ele>1319.80004882812</ele>
    <time>2012-06-25T15:12:05Z</time>
   </trkpt>
   <trkpt lat="45.9923400878906" lon="7.18427038192749">
    <ele>1319.80004882812</ele>
    <time>2012-06-25T15:12:12Z</time>
   </trkpt>
   <trkpt lat="45.9922294616699" lon="7.18428373336792">
    <ele>1320.6572265625</ele>
    <time>2012-06-25T15:12:15Z</time>
   </trkpt>
   <trkpt lat="45.9921913146973" lon="7.18427896499634">
    <ele>1320.94287109375</ele>
    <time>2012-06-25T15:12:16Z</time>
   </trkpt>
   <trkpt lat="45.9921569824219" lon="7.18427610397339">
    <ele>1321.22863769531</ele>
    <time>2012-06-25T15:12:17Z</time>
   </trkpt>
   <trkpt lat="45.9921188354492" lon="7.18427276611328">
    <ele>1321.51428222656</ele>
    <time>2012-06-25T15:12:18Z</time>
   </trkpt>
   <trkpt lat="45.9920845031738" lon="7.18426418304443">
    <ele>1321.80004882812</ele>
    <time>2012-06-25T15:12:19Z</time>
   </trkpt>
   <trkpt lat="45.9919242858887" lon="7.18420600891113">
    <ele>1321.80004882812</ele>
    <time>2012-06-25T15:12:24Z</time>
   </trkpt>
   <trkpt lat="45.991828918457" lon="7.18416881561279">
    <ele>1322.90002441406</ele>
    <time>2012-06-25T15:12:27Z</time>
   </trkpt>
   <trkpt lat="45.9917945861816" lon="7.18415451049805">
    <ele>1323.26672363281</ele>
    <time>2012-06-25T15:12:28Z</time>
   </trkpt>
   <trkpt lat="45.9917602539062" lon="7.18414211273193">
    <ele>1323.63330078125</ele>
    <time>2012-06-25T15:12:29Z</time>
   </trkpt>
   <trkpt lat="45.9917259216309" lon="7.18412971496582">
    <ele>1324</ele>
    <time>2012-06-25T15:12:30Z</time>
   </trkpt>
   <trkpt lat="45.9916915893555" lon="7.18411540985107">
    <ele>1324</ele>
    <time>2012-06-25T15:12:31Z</time>
   </trkpt>
   <trkpt lat="45.9915962219238" lon="7.18407487869263">
    <ele>1324.94287109375</ele>
    <time>2012-06-25T15:12:34Z</time>
   </trkpt>
   <trkpt lat="45.9915657043457" lon="7.18406057357788">
    <ele>1325.25708007812</ele>
    <time>2012-06-25T15:12:35Z</time>
   </trkpt>
   <trkpt lat="45.9915351867676" lon="7.18404626846314">
    <ele>1325.57141113281</ele>
    <time>2012-06-25T15:12:36Z</time>
   </trkpt>
   <trkpt lat="45.9915008544922" lon="7.1840329170227">
    <ele>1325.88562011719</ele>
    <time>2012-06-25T15:12:37Z</time>
   </trkpt>
   <trkpt lat="45.9914703369141" lon="7.18401861190796">
    <ele>1326.19995117188</ele>
    <time>2012-06-25T15:12:38Z</time>
   </trkpt>
   <trkpt lat="45.9914360046387" lon="7.18400573730469">
    <ele>1326.19995117188</ele>
    <time>2012-06-25T15:12:39Z</time>
   </trkpt>
   <trkpt lat="45.9911842346191" lon="7.18392658233643">
    <ele>1327.53332519531</ele>
    <time>2012-06-25T15:12:47Z</time>
   </trkpt>
   <trkpt lat="45.991153717041" lon="7.18392419815064">
    <ele>1327.69995117188</ele>
    <time>2012-06-25T15:12:48Z</time>
   </trkpt>
   <trkpt lat="45.9911193847656" lon="7.18392610549927">
    <ele>1327.86657714844</ele>
    <time>2012-06-25T15:12:49Z</time>
   </trkpt>
   <trkpt lat="45.9910850524902" lon="7.18393182754517">
    <ele>1328.03332519531</ele>
    <time>2012-06-25T15:12:50Z</time>
   </trkpt>
   <trkpt lat="45.9910507202148" lon="7.1839427947998">
    <ele>1328.19995117188</ele>
    <time>2012-06-25T15:12:51Z</time>
   </trkpt>
   <trkpt lat="45.9909515380859" lon="7.18399620056152">
    <ele>1328.19995117188</ele>
    <time>2012-06-25T15:12:54Z</time>
   </trkpt>
   <trkpt lat="45.9908103942871" lon="7.18415355682373">
    <ele>1329.42224121094</ele>
    <time>2012-06-25T15:12:59Z</time>
   </trkpt>
   <trkpt lat="45.9907836914062" lon="7.18419313430786">
    <ele>1329.66662597656</ele>
    <time>2012-06-25T15:13:00Z</time>
   </trkpt>
   <trkpt lat="45.9907608032227" lon="7.18423414230347">
    <ele>1329.9111328125</ele>
    <time>2012-06-25T15:13:01Z</time>
   </trkpt>
   <trkpt lat="45.9907379150391" lon="7.18427658081055">
    <ele>1330.15551757812</ele>
    <time>2012-06-25T15:13:02Z</time>
   </trkpt>
   <trkpt lat="45.9907188415527" lon="7.18432092666626">
    <ele>1330.40002441406</ele>
    <time>2012-06-25T15:13:03Z</time>
   </trkpt>
   <trkpt lat="45.9906311035156" lon="7.18457365036011">
    <ele>1330.40002441406</ele>
    <time>2012-06-25T15:13:08Z</time>
   </trkpt>
   <trkpt lat="45.9905624389648" lon="7.18479299545288">
    <ele>1331.30212402344</ele>
    <time>2012-06-25T15:13:12Z</time>
   </trkpt>
   <trkpt lat="45.9904861450195" lon="7.18502855300903">
    <ele>1332.20422363281</ele>
    <time>2012-06-25T15:13:16Z</time>
   </trkpt>
   <trkpt lat="45.990406036377" lon="7.18529224395752">
    <ele>1333.33190917969</ele>
    <time>2012-06-25T15:13:21Z</time>
   </trkpt>
   <trkpt lat="45.9903869628906" lon="7.1853404045105">
    <ele>1333.55749511719</ele>
    <time>2012-06-25T15:13:22Z</time>
   </trkpt>
   <trkpt lat="45.9903755187988" lon="7.18538427352905">
    <ele>1333.78295898438</ele>
    <time>2012-06-25T15:13:23Z</time>
   </trkpt>
   <trkpt lat="45.9903602600098" lon="7.18542623519898">
    <ele>1334.00854492188</ele>
    <time>2012-06-25T15:13:24Z</time>
   </trkpt>
   <trkpt lat="45.9903450012207" lon="7.1854658126831">
    <ele>1334.23400878906</ele>
    <time>2012-06-25T15:13:25Z</time>
   </trkpt>
   <trkpt lat="45.9903297424316" lon="7.18550491333008">
    <ele>1334.45959472656</ele>
    <time>2012-06-25T15:13:26Z</time>
   </trkpt>
   <trkpt lat="45.9902496337891" lon="7.18565368652344">
    <ele>1335.36169433594</ele>
    <time>2012-06-25T15:13:30Z</time>
   </trkpt>
   <trkpt lat="45.9902267456055" lon="7.18569040298462">
    <ele>1335.58728027344</ele>
    <time>2012-06-25T15:13:31Z</time>
   </trkpt>
   <trkpt lat="45.9902038574219" lon="7.18572854995728">
    <ele>1335.81274414062</ele>
    <time>2012-06-25T15:13:32Z</time>
   </trkpt>
   <trkpt lat="45.9901847839356" lon="7.18576765060425">
    <ele>1336.03833007812</ele>
    <time>2012-06-25T15:13:33Z</time>
   </trkpt>
   <trkpt lat="45.990161895752" lon="7.1858024597168">
    <ele>1336.26379394531</ele>
    <time>2012-06-25T15:13:34Z</time>
   </trkpt>
   <trkpt lat="45.9900932312012" lon="7.18590259552002">
    <ele>1336.9404296875</ele>
    <time>2012-06-25T15:13:37Z</time>
   </trkpt>
   <trkpt lat="45.9900703430176" lon="7.1859278678894">
    <ele>1337.166015625</ele>
    <time>2012-06-25T15:13:38Z</time>
   </trkpt>
   <trkpt lat="45.9900398254394" lon="7.18595266342163">
    <ele>1337.39147949219</ele>
    <time>2012-06-25T15:13:39Z</time>
   </trkpt>
   <trkpt lat="45.9900131225586" lon="7.18597173690796">
    <ele>1337.61706542969</ele>
    <time>2012-06-25T15:13:40Z</time>
   </trkpt>
   <trkpt lat="45.9899826049805" lon="7.18599128723144">
    <ele>1337.84252929688</ele>
    <time>2012-06-25T15:13:41Z</time>
   </trkpt>
   <trkpt lat="45.9899291992188" lon="7.18602275848389">
    <ele>1338.29357910156</ele>
    <time>2012-06-25T15:13:43Z</time>
   </trkpt>
   <trkpt lat="45.9899063110352" lon="7.18603944778442">
    <ele>1338.51916503906</ele>
    <time>2012-06-25T15:13:44Z</time>
   </trkpt>
   <trkpt lat="45.9898834228516" lon="7.18605661392212">
    <ele>1338.74462890625</ele>
    <time>2012-06-25T15:13:45Z</time>
   </trkpt>
   <trkpt lat="45.9898567199707" lon="7.18607521057129">
    <ele>1338.97021484375</ele>
    <time>2012-06-25T15:13:46Z</time>
   </trkpt>
   <trkpt lat="45.9898300170898" lon="7.1860933303833">
    <ele>1339.19580078125</ele>
    <time>2012-06-25T15:13:47Z</time>
   </trkpt>
   <trkpt lat="45.9897117614746" lon="7.18619012832642">
    <ele>1340.09790039062</ele>
    <time>2012-06-25T15:13:51Z</time>
   </trkpt>
   <trkpt lat="45.9896850585938" lon="7.18621349334717">
    <ele>1340.32336425781</ele>
    <time>2012-06-25T15:13:52Z</time>
   </trkpt>
   <trkpt lat="45.9896583557129" lon="7.18623685836792">
    <ele>1340.54895019531</ele>
    <time>2012-06-25T15:13:53Z</time>
   </trkpt>
   <trkpt lat="45.9896354675293" lon="7.18625402450562">
    <ele>1340.7744140625</ele>
    <time>2012-06-25T15:13:54Z</time>
   </trkpt>
   <trkpt lat="45.9896125793457" lon="7.18627452850342">
    <ele>1341</ele>
    <time>2012-06-25T15:13:55Z</time>
   </trkpt>
   <trkpt lat="45.9895439147949" lon="7.1863431930542">
    <ele>1341</ele>
    <time>2012-06-25T15:13:58Z</time>
   </trkpt>
   <trkpt lat="45.9895210266113" lon="7.186363697052">
    <ele>1341.40002441406</ele>
    <time>2012-06-25T15:13:59Z</time>
   </trkpt>
   <trkpt lat="45.9894981384277" lon="7.18638277053833">
    <ele>1341.80004882812</ele>
    <time>2012-06-25T15:14:00Z</time>
   </trkpt>
   <trkpt lat="45.9894752502441" lon="7.18639945983887">
    <ele>1342.19995117188</ele>
    <time>2012-06-25T15:14:01Z</time>
   </trkpt>
   <trkpt lat="45.9894523620606" lon="7.18642091751099">
    <ele>1342.59997558594</ele>
    <time>2012-06-25T15:14:02Z</time>
   </trkpt>
   <trkpt lat="45.989429473877" lon="7.18643808364868">
    <ele>1343</ele>
    <time>2012-06-25T15:14:03Z</time>
   </trkpt>
   <trkpt lat="45.9893836975098" lon="7.18647623062134">
    <ele>1343</ele>
    <time>2012-06-25T15:14:05Z</time>
   </trkpt>
   <trkpt lat="45.9892997741699" lon="7.18655014038086">
    <ele>1343.9599609375</ele>
    <time>2012-06-25T15:14:09Z</time>
   </trkpt>
   <trkpt lat="45.9892768859863" lon="7.18657302856445">
    <ele>1344.19995117188</ele>
    <time>2012-06-25T15:14:10Z</time>
   </trkpt>
   <trkpt lat="45.9892539978027" lon="7.18659210205078">
    <ele>1344.44006347656</ele>
    <time>2012-06-25T15:14:11Z</time>
   </trkpt>
   <trkpt lat="45.9892311096191" lon="7.18661117553711">
    <ele>1344.68005371094</ele>
    <time>2012-06-25T15:14:12Z</time>
   </trkpt>
   <trkpt lat="45.9892082214356" lon="7.1866307258606">
    <ele>1344.92004394531</ele>
    <time>2012-06-25T15:14:13Z</time>
   </trkpt>
   <trkpt lat="45.9890975952148" lon="7.18672370910644">
    <ele>1346.11999511719</ele>
    <time>2012-06-25T15:14:18Z</time>
   </trkpt>
   <trkpt lat="45.9890785217285" lon="7.18674278259277">
    <ele>1346.35998535156</ele>
    <time>2012-06-25T15:14:19Z</time>
   </trkpt>
   <trkpt lat="45.9890556335449" lon="7.18676328659058">
    <ele>1346.59997558594</ele>
    <time>2012-06-25T15:14:20Z</time>
   </trkpt>
   <trkpt lat="45.9890327453613" lon="7.18678092956543">
    <ele>1346.83996582031</ele>
    <time>2012-06-25T15:14:21Z</time>
   </trkpt>
   <trkpt lat="45.9890098571777" lon="7.18680238723755">
    <ele>1347.07995605469</ele>
    <time>2012-06-25T15:14:22Z</time>
   </trkpt>
   <trkpt lat="45.9889030456543" lon="7.18688631057739">
    <ele>1348.28002929688</ele>
    <time>2012-06-25T15:14:27Z</time>
   </trkpt>
   <trkpt lat="45.988883972168" lon="7.18690395355225">
    <ele>1348.52001953125</ele>
    <time>2012-06-25T15:14:28Z</time>
   </trkpt>
   <trkpt lat="45.9888610839844" lon="7.18692493438721">
    <ele>1348.76000976562</ele>
    <time>2012-06-25T15:14:29Z</time>
   </trkpt>
   <trkpt lat="45.9888381958008" lon="7.18694591522217">
    <ele>1349</ele>
    <time>2012-06-25T15:14:30Z</time>
   </trkpt>
   <trkpt lat="45.9888153076172" lon="7.18696594238281">
    <ele>1349.23999023438</ele>
    <time>2012-06-25T15:14:31Z</time>
   </trkpt>
   <trkpt lat="45.988712310791" lon="7.18705701828003">
    <ele>1350.44006347656</ele>
    <time>2012-06-25T15:14:36Z</time>
   </trkpt>
   <trkpt lat="45.9886932373047" lon="7.18707847595215">
    <ele>1350.68005371094</ele>
    <time>2012-06-25T15:14:37Z</time>
   </trkpt>
   <trkpt lat="45.9886703491211" lon="7.18710327148438">
    <ele>1350.92004394531</ele>
    <time>2012-06-25T15:14:38Z</time>
   </trkpt>
   <trkpt lat="45.9886512756348" lon="7.18712759017944">
    <ele>1351.16003417969</ele>
    <time>2012-06-25T15:14:39Z</time>
   </trkpt>
   <trkpt lat="45.9886360168457" lon="7.18715000152588">
    <ele>1351.40002441406</ele>
    <time>2012-06-25T15:14:40Z</time>
   </trkpt>
   <trkpt lat="45.9885711669922" lon="7.18724632263184">
    <ele>1351.40002441406</ele>
    <time>2012-06-25T15:14:44Z</time>
   </trkpt>
   <trkpt lat="45.9885406494141" lon="7.18730020523071">
    <ele>1352.13330078125</ele>
    <time>2012-06-25T15:14:46Z</time>
   </trkpt>
   <trkpt lat="45.988525390625" lon="7.18732976913452">
    <ele>1352.5</ele>
    <time>2012-06-25T15:14:47Z</time>
   </trkpt>
   <trkpt lat="45.9885063171387" lon="7.18736124038696">
    <ele>1352.86669921875</ele>
    <time>2012-06-25T15:14:48Z</time>
   </trkpt>
   <trkpt lat="45.9884872436523" lon="7.18739318847656">
    <ele>1353.23327636719</ele>
    <time>2012-06-25T15:14:49Z</time>
   </trkpt>
   <trkpt lat="45.9884719848633" lon="7.18742418289185">
    <ele>1353.59997558594</ele>
    <time>2012-06-25T15:14:50Z</time>
   </trkpt>
   <trkpt lat="45.988452911377" lon="7.18745517730713">
    <ele>1353.59997558594</ele>
    <time>2012-06-25T15:14:51Z</time>
   </trkpt>
   <trkpt lat="45.9883728027344" lon="7.1876072883606">
    <ele>1354.65002441406</ele>
    <time>2012-06-25T15:14:56Z</time>
   </trkpt>
   <trkpt lat="45.9883575439453" lon="7.18763637542725">
    <ele>1354.85998535156</ele>
    <time>2012-06-25T15:14:57Z</time>
   </trkpt>
   <trkpt lat="45.9883422851562" lon="7.18766355514526">
    <ele>1355.06994628906</ele>
    <time>2012-06-25T15:14:58Z</time>
   </trkpt>
   <trkpt lat="45.9883232116699" lon="7.18768978118896">
    <ele>1355.28002929688</ele>
    <time>2012-06-25T15:14:59Z</time>
   </trkpt>
   <trkpt lat="45.9883041381836" lon="7.18771457672119">
    <ele>1355.48999023438</ele>
    <time>2012-06-25T15:15:00Z</time>
   </trkpt>
   <trkpt lat="45.9881744384766" lon="7.18788719177246">
    <ele>1356.96008300781</ele>
    <time>2012-06-25T15:15:07Z</time>
   </trkpt>
   <trkpt lat="45.9881553649902" lon="7.18790817260742">
    <ele>1357.17004394531</ele>
    <time>2012-06-25T15:15:08Z</time>
   </trkpt>
   <trkpt lat="45.9881362915039" lon="7.18792819976807">
    <ele>1357.38000488281</ele>
    <time>2012-06-25T15:15:09Z</time>
   </trkpt>
   <trkpt lat="45.9881172180176" lon="7.18795108795166">
    <ele>1357.59008789062</ele>
    <time>2012-06-25T15:15:10Z</time>
   </trkpt>
   <trkpt lat="45.9880981445312" lon="7.1879734992981">
    <ele>1357.80004882812</ele>
    <time>2012-06-25T15:15:11Z</time>
   </trkpt>
   <trkpt lat="45.9879837036133" lon="7.18806648254394">
    <ele>1357.80004882812</ele>
    <time>2012-06-25T15:15:16Z</time>
   </trkpt>
   <trkpt lat="45.9879608154297" lon="7.18808221817017">
    <ele>1358.11437988281</ele>
    <time>2012-06-25T15:15:17Z</time>
   </trkpt>
   <trkpt lat="45.9879417419434" lon="7.18809652328491">
    <ele>1358.42858886719</ele>
    <time>2012-06-25T15:15:18Z</time>
   </trkpt>
   <trkpt lat="45.987922668457" lon="7.18811464309692">
    <ele>1358.74291992188</ele>
    <time>2012-06-25T15:15:19Z</time>
   </trkpt>
   <trkpt lat="45.9878997802734" lon="7.18813228607178">
    <ele>1359.05712890625</ele>
    <time>2012-06-25T15:15:20Z</time>
   </trkpt>
   <trkpt lat="45.9878768920898" lon="7.18815088272095">
    <ele>1359.37145996094</ele>
    <time>2012-06-25T15:15:21Z</time>
   </trkpt>
   <trkpt lat="45.9877738952637" lon="7.18823957443237">
    <ele>1360.94287109375</ele>
    <time>2012-06-25T15:15:26Z</time>
   </trkpt>
   <trkpt lat="45.9877510070801" lon="7.18825340270996">
    <ele>1361.25708007812</ele>
    <time>2012-06-25T15:15:27Z</time>
   </trkpt>
   <trkpt lat="45.9877281188965" lon="7.18827247619629">
    <ele>1361.57141113281</ele>
    <time>2012-06-25T15:15:28Z</time>
   </trkpt>
   <trkpt lat="45.9877052307129" lon="7.18828773498535">
    <ele>1361.88562011719</ele>
    <time>2012-06-25T15:15:29Z</time>
   </trkpt>
   <trkpt lat="45.9876861572266" lon="7.18831205368042">
    <ele>1362.19995117188</ele>
    <time>2012-06-25T15:15:30Z</time>
   </trkpt>
   <trkpt lat="45.9876403808594" lon="7.18835258483887">
    <ele>1362.19995117188</ele>
    <time>2012-06-25T15:15:32Z</time>
   </trkpt>
   <trkpt lat="45.9875297546387" lon="7.18843793869018">
    <ele>1363.53332519531</ele>
    <time>2012-06-25T15:15:37Z</time>
   </trkpt>
   <trkpt lat="45.9875106811523" lon="7.18845653533936">
    <ele>1363.79992675781</ele>
    <time>2012-06-25T15:15:38Z</time>
   </trkpt>
   <trkpt lat="45.9874839782715" lon="7.18847465515137">
    <ele>1364.06665039062</ele>
    <time>2012-06-25T15:15:39Z</time>
   </trkpt>
   <trkpt lat="45.9874649047852" lon="7.1884937286377">
    <ele>1364.33325195312</ele>
    <time>2012-06-25T15:15:40Z</time>
   </trkpt>
   <trkpt lat="45.9874420166016" lon="7.18851137161255">
    <ele>1364.59997558594</ele>
    <time>2012-06-25T15:15:41Z</time>
   </trkpt>
   <trkpt lat="45.9874000549316" lon="7.18855142593384">
    <ele>1364.59997558594</ele>
    <time>2012-06-25T15:15:43Z</time>
   </trkpt>
   <trkpt lat="45.987377166748" lon="7.18857097625732">
    <ele>1364.86950683594</ele>
    <time>2012-06-25T15:15:44Z</time>
   </trkpt>
   <trkpt lat="45.9873313903809" lon="7.18860960006714">
    <ele>1365.40869140625</ele>
    <time>2012-06-25T15:15:46Z</time>
   </trkpt>
   <trkpt lat="45.9873123168945" lon="7.18863105773926">
    <ele>1365.67822265625</ele>
    <time>2012-06-25T15:15:47Z</time>
   </trkpt>
   <trkpt lat="45.9872894287109" lon="7.18865156173706">
    <ele>1365.94787597656</ele>
    <time>2012-06-25T15:15:48Z</time>
   </trkpt>
   <trkpt lat="45.9872703552246" lon="7.18867301940918">
    <ele>1366.21740722656</ele>
    <time>2012-06-25T15:15:49Z</time>
   </trkpt>
   <trkpt lat="45.9871711730957" lon="7.18878316879272">
    <ele>1367.56518554688</ele>
    <time>2012-06-25T15:15:54Z</time>
   </trkpt>
   <trkpt lat="45.9871520996094" lon="7.18880701065064">
    <ele>1367.83483886719</ele>
    <time>2012-06-25T15:15:55Z</time>
   </trkpt>
   <trkpt lat="45.9871368408203" lon="7.18882846832275">
    <ele>1368.10437011719</ele>
    <time>2012-06-25T15:15:56Z</time>
   </trkpt>
   <trkpt lat="45.987117767334" lon="7.18885326385498">
    <ele>1368.37390136719</ele>
    <time>2012-06-25T15:15:57Z</time>
   </trkpt>
   <trkpt lat="45.9871025085449" lon="7.18887853622436">
    <ele>1368.6435546875</ele>
    <time>2012-06-25T15:15:58Z</time>
   </trkpt>
   <trkpt lat="45.9870300292969" lon="7.18898057937622">
    <ele>1369.72180175781</ele>
    <time>2012-06-25T15:16:02Z</time>
   </trkpt>
   <trkpt lat="45.9870147705078" lon="7.18901109695435">
    <ele>1369.99133300781</ele>
    <time>2012-06-25T15:16:03Z</time>
   </trkpt>
   <trkpt lat="45.9869918823242" lon="7.18903923034668">
    <ele>1370.26086425781</ele>
    <time>2012-06-25T15:16:04Z</time>
   </trkpt>
   <trkpt lat="45.9869689941406" lon="7.18906831741333">
    <ele>1370.53051757812</ele>
    <time>2012-06-25T15:16:05Z</time>
   </trkpt>
   <trkpt lat="45.9869499206543" lon="7.18909502029419">
    <ele>1370.80004882812</ele>
    <time>2012-06-25T15:16:06Z</time>
   </trkpt>
   <trkpt lat="45.9868431091309" lon="7.1892466545105">
    <ele>1370.80004882812</ele>
    <time>2012-06-25T15:16:12Z</time>
   </trkpt>
   <trkpt lat="45.9868011474609" lon="7.1893367767334">
    <ele>1371.6572265625</ele>
    <time>2012-06-25T15:16:15Z</time>
   </trkpt>
   <trkpt lat="45.9867820739746" lon="7.18936443328857">
    <ele>1371.94287109375</ele>
    <time>2012-06-25T15:16:16Z</time>
   </trkpt>
   <trkpt lat="45.9867630004883" lon="7.18938970565796">
    <ele>1372.22863769531</ele>
    <time>2012-06-25T15:16:17Z</time>
   </trkpt>
   <trkpt lat="45.986743927002" lon="7.18941497802734">
    <ele>1372.51428222656</ele>
    <time>2012-06-25T15:16:18Z</time>
   </trkpt>
   <trkpt lat="45.9867286682129" lon="7.18943881988525">
    <ele>1372.80004882812</ele>
    <time>2012-06-25T15:16:19Z</time>
   </trkpt>
   <trkpt lat="45.9867134094238" lon="7.18946075439453">
    <ele>1372.80004882812</ele>
    <time>2012-06-25T15:16:20Z</time>
   </trkpt>
   <trkpt lat="45.9865875244141" lon="7.1896390914917">
    <ele>1374.20007324219</ele>
    <time>2012-06-25T15:16:27Z</time>
   </trkpt>
   <trkpt lat="45.9865646362305" lon="7.18966197967529">
    <ele>1374.40002441406</ele>
    <time>2012-06-25T15:16:28Z</time>
   </trkpt>
   <trkpt lat="45.9865455627441" lon="7.18968343734741">
    <ele>1374.59997558594</ele>
    <time>2012-06-25T15:16:29Z</time>
   </trkpt>
   <trkpt lat="45.9865303039551" lon="7.18970680236816">
    <ele>1374.80004882812</ele>
    <time>2012-06-25T15:16:30Z</time>
   </trkpt>
   <trkpt lat="45.9865112304688" lon="7.18973350524902">
    <ele>1375</ele>
    <time>2012-06-25T15:16:31Z</time>
   </trkpt>
   <trkpt lat="45.9863891601562" lon="7.18987274169922">
    <ele>1376.19995117188</ele>
    <time>2012-06-25T15:16:37Z</time>
   </trkpt>
   <trkpt lat="45.9863662719727" lon="7.18989181518555">
    <ele>1376.40002441406</ele>
    <time>2012-06-25T15:16:38Z</time>
   </trkpt>
   <trkpt lat="45.9863433837891" lon="7.18991041183472">
    <ele>1376.59997558594</ele>
    <time>2012-06-25T15:16:39Z</time>
   </trkpt>
   <trkpt lat="45.9863166809082" lon="7.18992948532104">
    <ele>1376.80004882812</ele>
    <time>2012-06-25T15:16:40Z</time>
   </trkpt>
   <trkpt lat="45.9862899780273" lon="7.18994665145874">
    <ele>1377</ele>
    <time>2012-06-25T15:16:41Z</time>
   </trkpt>
   <trkpt lat="45.9862213134766" lon="7.19000244140625">
    <ele>1377</ele>
    <time>2012-06-25T15:16:44Z</time>
   </trkpt>
   <trkpt lat="45.9861526489258" lon="7.19004678726196">
    <ele>1377.94287109375</ele>
    <time>2012-06-25T15:16:47Z</time>
   </trkpt>
   <trkpt lat="45.9861297607422" lon="7.19006204605102">
    <ele>1378.25708007812</ele>
    <time>2012-06-25T15:16:48Z</time>
   </trkpt>
   <trkpt lat="45.9861030578613" lon="7.19007730484009">
    <ele>1378.57141113281</ele>
    <time>2012-06-25T15:16:49Z</time>
   </trkpt>
   <trkpt lat="45.9860801696777" lon="7.19009304046631">
    <ele>1378.88562011719</ele>
    <time>2012-06-25T15:16:50Z</time>
   </trkpt>
   <trkpt lat="45.9860496520996" lon="7.19010734558106">
    <ele>1379.19995117188</ele>
    <time>2012-06-25T15:16:51Z</time>
   </trkpt>
   <trkpt lat="45.9860229492188" lon="7.19012308120728">
    <ele>1379.19995117188</ele>
    <time>2012-06-25T15:16:52Z</time>
   </trkpt>
   <trkpt lat="45.9859008789062" lon="7.19021511077881">
    <ele>1380.44995117188</ele>
    <time>2012-06-25T15:16:57Z</time>
   </trkpt>
   <trkpt lat="45.9858741760254" lon="7.19022846221924">
    <ele>1380.69995117188</ele>
    <time>2012-06-25T15:16:58Z</time>
   </trkpt>
   <trkpt lat="45.9858512878418" lon="7.19024181365967">
    <ele>1380.94995117188</ele>
    <time>2012-06-25T15:16:59Z</time>
   </trkpt>
   <trkpt lat="45.9858283996582" lon="7.19025707244873">
    <ele>1381.19995117188</ele>
    <time>2012-06-25T15:17:00Z</time>
   </trkpt>
   <trkpt lat="45.9857330322266" lon="7.1903223991394">
    <ele>1381.19995117188</ele>
    <time>2012-06-25T15:17:04Z</time>
   </trkpt>
   <trkpt lat="45.985668182373" lon="7.19037675857544">
    <ele>1381.89990234375</ele>
    <time>2012-06-25T15:17:07Z</time>
   </trkpt>
   <trkpt lat="45.9856414794922" lon="7.19039297103882">
    <ele>1382.13330078125</ele>
    <time>2012-06-25T15:17:08Z</time>
   </trkpt>
   <trkpt lat="45.9856185913086" lon="7.19040584564209">
    <ele>1382.36669921875</ele>
    <time>2012-06-25T15:17:09Z</time>
   </trkpt>
   <trkpt lat="45.985595703125" lon="7.19042062759399">
    <ele>1382.59997558594</ele>
    <time>2012-06-25T15:17:10Z</time>
   </trkpt>
   <trkpt lat="45.9855651855469" lon="7.19043874740601">
    <ele>1382.83325195312</ele>
    <time>2012-06-25T15:17:11Z</time>
   </trkpt>
   <trkpt lat="45.9854011535644" lon="7.19056081771851">
    <ele>1384.46667480469</ele>
    <time>2012-06-25T15:17:18Z</time>
   </trkpt>
   <trkpt lat="45.9853744506836" lon="7.19057893753052">
    <ele>1384.69995117188</ele>
    <time>2012-06-25T15:17:19Z</time>
   </trkpt>
   <trkpt lat="45.9853477478027" lon="7.19059610366821">
    <ele>1384.93334960938</ele>
    <time>2012-06-25T15:17:20Z</time>
   </trkpt>
   <trkpt lat="45.9853210449219" lon="7.19061326980591">
    <ele>1385.16674804688</ele>
    <time>2012-06-25T15:17:21Z</time>
   </trkpt>
   <trkpt lat="45.985294342041" lon="7.19063138961792">
    <ele>1385.40002441406</ele>
    <time>2012-06-25T15:17:22Z</time>
   </trkpt>
   <trkpt lat="45.9852104187012" lon="7.19069051742554">
    <ele>1385.40002441406</ele>
    <time>2012-06-25T15:17:25Z</time>
   </trkpt>
   <trkpt lat="45.9851837158203" lon="7.19071340560913">
    <ele>1385.80004882812</ele>
    <time>2012-06-25T15:17:26Z</time>
   </trkpt>
   <trkpt lat="45.9851608276367" lon="7.19073295593262">
    <ele>1386.20007324219</ele>
    <time>2012-06-25T15:17:27Z</time>
   </trkpt>
   <trkpt lat="45.9851341247559" lon="7.1907525062561">
    <ele>1386.59997558594</ele>
    <time>2012-06-25T15:17:28Z</time>
   </trkpt>
   <trkpt lat="45.9851112365723" lon="7.19076824188232">
    <ele>1387</ele>
    <time>2012-06-25T15:17:29Z</time>
   </trkpt>
   <trkpt lat="45.9850883483887" lon="7.19078540802002">
    <ele>1387.40002441406</ele>
    <time>2012-06-25T15:17:30Z</time>
   </trkpt>
   <trkpt lat="45.9850082397461" lon="7.19083642959595">
    <ele>1387.40002441406</ele>
    <time>2012-06-25T15:17:33Z</time>
   </trkpt>
   <trkpt lat="45.9849052429199" lon="7.19091415405274">
    <ele>1388.31848144531</ele>
    <time>2012-06-25T15:17:37Z</time>
   </trkpt>
   <trkpt lat="45.9848823547363" lon="7.19093322753906">
    <ele>1388.54821777344</ele>
    <time>2012-06-25T15:17:38Z</time>
   </trkpt>
   <trkpt lat="45.9848556518555" lon="7.19095516204834">
    <ele>1388.77783203125</ele>
    <time>2012-06-25T15:17:39Z</time>
   </trkpt>
   <trkpt lat="45.9848365783691" lon="7.19097280502319">
    <ele>1389.00744628906</ele>
    <time>2012-06-25T15:17:40Z</time>
   </trkpt>
   <trkpt lat="45.9848136901856" lon="7.19099426269531">
    <ele>1389.23706054688</ele>
    <time>2012-06-25T15:17:41Z</time>
   </trkpt>
   <trkpt lat="45.9847145080566" lon="7.19108629226685">
    <ele>1390.15551757812</ele>
    <time>2012-06-25T15:17:45Z</time>
   </trkpt>
   <trkpt lat="45.9846954345703" lon="7.1911096572876">
    <ele>1390.38513183594</ele>
    <time>2012-06-25T15:17:46Z</time>
   </trkpt>
   <trkpt lat="45.9846725463867" lon="7.1911358833313">
    <ele>1390.61486816406</ele>
    <time>2012-06-25T15:17:47Z</time>
   </trkpt>
   <trkpt lat="45.9846496582031" lon="7.19116115570068">
    <ele>1390.84448242188</ele>
    <time>2012-06-25T15:17:48Z</time>
   </trkpt>
   <trkpt lat="45.9846305847168" lon="7.19118595123291">
    <ele>1391.07409667969</ele>
    <time>2012-06-25T15:17:49Z</time>
   </trkpt>
   <trkpt lat="45.9844856262207" lon="7.19136381149292">
    <ele>1392.68151855469</ele>
    <time>2012-06-25T15:17:56Z</time>
   </trkpt>
   <trkpt lat="45.9844665527344" lon="7.19139194488525">
    <ele>1392.9111328125</ele>
    <time>2012-06-25T15:17:57Z</time>
   </trkpt>
   <trkpt lat="45.984447479248" lon="7.19142198562622">
    <ele>1393.14074707031</ele>
    <time>2012-06-25T15:17:58Z</time>
   </trkpt>
   <trkpt lat="45.9844284057617" lon="7.19145631790161">
    <ele>1393.37036132812</ele>
    <time>2012-06-25T15:17:59Z</time>
   </trkpt>
   <trkpt lat="45.9844131469727" lon="7.19148349761963">
    <ele>1393.59997558594</ele>
    <time>2012-06-25T15:18:00Z</time>
   </trkpt>
   <trkpt lat="45.9843406677246" lon="7.19159841537476">
    <ele>1393.59997558594</ele>
    <time>2012-06-25T15:18:04Z</time>
   </trkpt>
   <trkpt lat="45.9843063354492" lon="7.19166088104248">
    <ele>1394.33337402344</ele>
    <time>2012-06-25T15:18:06Z</time>
   </trkpt>
   <trkpt lat="45.9842872619629" lon="7.19169616699219">
    <ele>1394.69995117188</ele>
    <time>2012-06-25T15:18:07Z</time>
   </trkpt>
   <trkpt lat="45.9842720031738" lon="7.19172859191894">
    <ele>1395.06665039062</ele>
    <time>2012-06-25T15:18:08Z</time>
   </trkpt>
   <trkpt lat="45.9842529296875" lon="7.19176197052002">
    <ele>1395.43334960938</ele>
    <time>2012-06-25T15:18:09Z</time>
   </trkpt>
   <trkpt lat="45.9842338562012" lon="7.19179487228394">
    <ele>1395.80004882812</ele>
    <time>2012-06-25T15:18:10Z</time>
   </trkpt>
   <trkpt lat="45.984203338623" lon="7.19186115264893">
    <ele>1395.80004882812</ele>
    <time>2012-06-25T15:18:12Z</time>
   </trkpt>
   <trkpt lat="45.9841117858887" lon="7.19207382202148">
    <ele>1397</ele>
    <time>2012-06-25T15:18:18Z</time>
   </trkpt>
   <trkpt lat="45.9840965270996" lon="7.19210815429688">
    <ele>1397.20007324219</ele>
    <time>2012-06-25T15:18:19Z</time>
   </trkpt>
   <trkpt lat="45.9840774536133" lon="7.19214487075806">
    <ele>1397.40002441406</ele>
    <time>2012-06-25T15:18:20Z</time>
   </trkpt>
   <trkpt lat="45.9840621948242" lon="7.19218158721924">
    <ele>1397.60009765625</ele>
    <time>2012-06-25T15:18:21Z</time>
   </trkpt>
   <trkpt lat="45.9840431213379" lon="7.19221687316894">
    <ele>1397.80004882812</ele>
    <time>2012-06-25T15:18:22Z</time>
   </trkpt>
   <trkpt lat="45.9839515686035" lon="7.19243144989014">
    <ele>1397.80004882812</ele>
    <time>2012-06-25T15:18:28Z</time>
   </trkpt>
   <trkpt lat="45.9839210510254" lon="7.19250869750976">
    <ele>1398.53332519531</ele>
    <time>2012-06-25T15:18:30Z</time>
   </trkpt>
   <trkpt lat="45.9839019775391" lon="7.19254541397095">
    <ele>1398.90002441406</ele>
    <time>2012-06-25T15:18:31Z</time>
   </trkpt>
   <trkpt lat="45.98388671875" lon="7.19257974624634">
    <ele>1399.26672363281</ele>
    <time>2012-06-25T15:18:32Z</time>
   </trkpt>
   <trkpt lat="45.9838714599609" lon="7.19261074066162">
    <ele>1399.63330078125</ele>
    <time>2012-06-25T15:18:33Z</time>
   </trkpt>
   <trkpt lat="45.9838562011719" lon="7.1926417350769">
    <ele>1400</ele>
    <time>2012-06-25T15:18:34Z</time>
   </trkpt>
   <trkpt lat="45.9838409423828" lon="7.19267845153809">
    <ele>1400</ele>
    <time>2012-06-25T15:18:35Z</time>
   </trkpt>
   <trkpt lat="45.9837646484375" lon="7.1928539276123">
    <ele>1401.22216796875</ele>
    <time>2012-06-25T15:18:40Z</time>
   </trkpt>
   <trkpt lat="45.9837455749512" lon="7.19288635253906">
    <ele>1401.46667480469</ele>
    <time>2012-06-25T15:18:41Z</time>
   </trkpt>
   <trkpt lat="45.9837303161621" lon="7.19291830062866">
    <ele>1401.71105957031</ele>
    <time>2012-06-25T15:18:42Z</time>
   </trkpt>
   <trkpt lat="45.9837188720703" lon="7.19294738769531">
    <ele>1401.95556640625</ele>
    <time>2012-06-25T15:18:43Z</time>
   </trkpt>
   <trkpt lat="45.9837036132812" lon="7.19297790527344">
    <ele>1402.19995117188</ele>
    <time>2012-06-25T15:18:44Z</time>
   </trkpt>
   <trkpt lat="45.9836158752441" lon="7.19317626953125">
    <ele>1402.19995117188</ele>
    <time>2012-06-25T15:18:50Z</time>
   </trkpt>
   <trkpt lat="45.9835968017578" lon="7.19320869445801">
    <ele>1402.59997558594</ele>
    <time>2012-06-25T15:18:51Z</time>
   </trkpt>
   <trkpt lat="45.9835815429688" lon="7.19324350357056">
    <ele>1403</ele>
    <time>2012-06-25T15:18:52Z</time>
   </trkpt>
   <trkpt lat="45.9835662841797" lon="7.19327783584595">
    <ele>1403.39990234375</ele>
    <time>2012-06-25T15:18:53Z</time>
   </trkpt>
   <trkpt lat="45.9835510253906" lon="7.19330930709839">
    <ele>1403.79992675781</ele>
    <time>2012-06-25T15:18:54Z</time>
   </trkpt>
   <trkpt lat="45.9835357666016" lon="7.19334030151367">
    <ele>1404.19995117188</ele>
    <time>2012-06-25T15:18:55Z</time>
   </trkpt>
   <trkpt lat="45.9835052490234" lon="7.1934084892273">
    <ele>1404.19995117188</ele>
    <time>2012-06-25T15:18:57Z</time>
   </trkpt>
   <trkpt lat="45.9834098815918" lon="7.19361782073975">
    <ele>1405.52001953125</ele>
    <time>2012-06-25T15:19:03Z</time>
   </trkpt>
   <trkpt lat="45.9833946228027" lon="7.19365167617798">
    <ele>1405.73999023438</ele>
    <time>2012-06-25T15:19:04Z</time>
   </trkpt>
   <trkpt lat="45.9833755493164" lon="7.19368314743042">
    <ele>1405.9599609375</ele>
    <time>2012-06-25T15:19:05Z</time>
   </trkpt>
   <trkpt lat="45.9833602905273" lon="7.19371652603149">
    <ele>1406.18005371094</ele>
    <time>2012-06-25T15:19:06Z</time>
   </trkpt>
   <trkpt lat="45.9833450317383" lon="7.19374990463257">
    <ele>1406.40002441406</ele>
    <time>2012-06-25T15:19:07Z</time>
   </trkpt>
   <trkpt lat="45.9832763671875" lon="7.19392776489258">
    <ele>1406.40002441406</ele>
    <time>2012-06-25T15:19:12Z</time>
   </trkpt>
   <trkpt lat="45.9832420349121" lon="7.19399261474609">
    <ele>1407.06665039062</ele>
    <time>2012-06-25T15:19:14Z</time>
   </trkpt>
   <trkpt lat="45.983226776123" lon="7.19402122497559">
    <ele>1407.40002441406</ele>
    <time>2012-06-25T15:19:15Z</time>
   </trkpt>
   <trkpt lat="45.983211517334" lon="7.19405460357666">
    <ele>1407.7333984375</ele>
    <time>2012-06-25T15:19:16Z</time>
   </trkpt>
   <trkpt lat="45.9831962585449" lon="7.19408369064331">
    <ele>1408.06665039062</ele>
    <time>2012-06-25T15:19:17Z</time>
   </trkpt>
   <trkpt lat="45.9831809997559" lon="7.19411611557007">
    <ele>1408.40002441406</ele>
    <time>2012-06-25T15:19:18Z</time>
   </trkpt>
   <trkpt lat="45.9831504821777" lon="7.19417428970337">
    <ele>1408.40002441406</ele>
    <time>2012-06-25T15:19:20Z</time>
   </trkpt>
   <trkpt lat="45.9830322265625" lon="7.19434928894043">
    <ele>1409.84008789062</ele>
    <time>2012-06-25T15:19:26Z</time>
   </trkpt>
   <trkpt lat="45.9830093383789" lon="7.19437837600708">
    <ele>1410.080078125</ele>
    <time>2012-06-25T15:19:27Z</time>
   </trkpt>
   <trkpt lat="45.9829902648926" lon="7.19440650939941">
    <ele>1410.32006835938</ele>
    <time>2012-06-25T15:19:28Z</time>
   </trkpt>
   <trkpt lat="45.9829711914062" lon="7.19443464279175">
    <ele>1410.56005859375</ele>
    <time>2012-06-25T15:19:29Z</time>
   </trkpt>
   <trkpt lat="45.9829521179199" lon="7.19446420669556">
    <ele>1410.80004882812</ele>
    <time>2012-06-25T15:19:30Z</time>
   </trkpt>
   <trkpt lat="45.9828338623047" lon="7.19462966918945">
    <ele>1410.80004882812</ele>
    <time>2012-06-25T15:19:36Z</time>
   </trkpt>
   <trkpt lat="45.9827880859375" lon="7.19468212127686">
    <ele>1411.53332519531</ele>
    <time>2012-06-25T15:19:38Z</time>
   </trkpt>
   <trkpt lat="45.9827690124512" lon="7.19470882415772">
    <ele>1411.90002441406</ele>
    <time>2012-06-25T15:19:39Z</time>
   </trkpt>
   <trkpt lat="45.9827499389648" lon="7.19473171234131">
    <ele>1412.26672363281</ele>
    <time>2012-06-25T15:19:40Z</time>
   </trkpt>
   <trkpt lat="45.9827270507812" lon="7.19475793838501">
    <ele>1412.63330078125</ele>
    <time>2012-06-25T15:19:41Z</time>
   </trkpt>
   <trkpt lat="45.9827079772949" lon="7.19478368759155">
    <ele>1413</ele>
    <time>2012-06-25T15:19:42Z</time>
   </trkpt>
   <trkpt lat="45.982666015625" lon="7.19483518600464">
    <ele>1413</ele>
    <time>2012-06-25T15:19:44Z</time>
   </trkpt>
   <trkpt lat="45.9825592041016" lon="7.1949725151062">
    <ele>1414.22216796875</ele>
    <time>2012-06-25T15:19:49Z</time>
   </trkpt>
   <trkpt lat="45.982536315918" lon="7.19500017166138">
    <ele>1414.46667480469</ele>
    <time>2012-06-25T15:19:50Z</time>
   </trkpt>
   <trkpt lat="45.9825172424316" lon="7.19502639770508">
    <ele>1414.71105957031</ele>
    <time>2012-06-25T15:19:51Z</time>
   </trkpt>
   <trkpt lat="45.982494354248" lon="7.19505262374878">
    <ele>1414.95556640625</ele>
    <time>2012-06-25T15:19:52Z</time>
   </trkpt>
   <trkpt lat="45.9824714660644" lon="7.19508266448975">
    <ele>1415.19995117188</ele>
    <time>2012-06-25T15:19:53Z</time>
   </trkpt>
   <trkpt lat="45.9824523925781" lon="7.19511365890503">
    <ele>1415.19995117188</ele>
    <time>2012-06-25T15:19:54Z</time>
   </trkpt>
   <trkpt lat="45.9824333190918" lon="7.19514036178589">
    <ele>1415.44445800781</ele>
    <time>2012-06-25T15:19:55Z</time>
   </trkpt>
   <trkpt lat="45.9823532104492" lon="7.19525384902954">
    <ele>1416.42224121094</ele>
    <time>2012-06-25T15:19:59Z</time>
   </trkpt>
   <trkpt lat="45.9823379516602" lon="7.19528293609619">
    <ele>1416.66662597656</ele>
    <time>2012-06-25T15:20:00Z</time>
   </trkpt>
   <trkpt lat="45.9823188781738" lon="7.19531345367432">
    <ele>1416.9111328125</ele>
    <time>2012-06-25T15:20:01Z</time>
   </trkpt>
   <trkpt lat="45.9822998046875" lon="7.1953444480896">
    <ele>1417.15551757812</ele>
    <time>2012-06-25T15:20:02Z</time>
   </trkpt>
   <trkpt lat="45.9822807312012" lon="7.19537305831909">
    <ele>1417.40002441406</ele>
    <time>2012-06-25T15:20:03Z</time>
   </trkpt>
   <trkpt lat="45.9821891784668" lon="7.19552850723267">
    <ele>1417.40002441406</ele>
    <time>2012-06-25T15:20:08Z</time>
   </trkpt>
   <trkpt lat="45.9821395874023" lon="7.19563293457031">
    <ele>1418.25720214844</ele>
    <time>2012-06-25T15:20:11Z</time>
   </trkpt>
   <trkpt lat="45.9821243286133" lon="7.19566583633423">
    <ele>1418.54284667969</ele>
    <time>2012-06-25T15:20:12Z</time>
   </trkpt>
   <trkpt lat="45.9821090698242" lon="7.19570064544678">
    <ele>1418.82861328125</ele>
    <time>2012-06-25T15:20:13Z</time>
   </trkpt>
   <trkpt lat="45.9820976257324" lon="7.19573402404785">
    <ele>1419.1142578125</ele>
    <time>2012-06-25T15:20:14Z</time>
   </trkpt>
   <trkpt lat="45.9820823669434" lon="7.19576978683472">
    <ele>1419.40002441406</ele>
    <time>2012-06-25T15:20:15Z</time>
   </trkpt>
   <trkpt lat="45.9820556640625" lon="7.19583559036255">
    <ele>1419.40002441406</ele>
    <time>2012-06-25T15:20:17Z</time>
   </trkpt>
   <trkpt lat="45.9819488525391" lon="7.19608020782471">
    <ele>1420.67272949219</ele>
    <time>2012-06-25T15:20:24Z</time>
   </trkpt>
   <trkpt lat="45.98193359375" lon="7.19611597061157">
    <ele>1420.85461425781</ele>
    <time>2012-06-25T15:20:25Z</time>
   </trkpt>
   <trkpt lat="45.9819183349609" lon="7.19614887237549">
    <ele>1421.03637695312</ele>
    <time>2012-06-25T15:20:26Z</time>
   </trkpt>
   <trkpt lat="45.9819030761719" lon="7.1961841583252">
    <ele>1421.21826171875</ele>
    <time>2012-06-25T15:20:27Z</time>
   </trkpt>
   <trkpt lat="45.9818878173828" lon="7.19621849060059">
    <ele>1421.40002441406</ele>
    <time>2012-06-25T15:20:28Z</time>
   </trkpt>
   <trkpt lat="45.9818000793457" lon="7.19639539718628">
    <ele>1421.40002441406</ele>
    <time>2012-06-25T15:20:33Z</time>
   </trkpt>
   <trkpt lat="45.9817581176758" lon="7.19646739959717">
    <ele>1421.88891601562</ele>
    <time>2012-06-25T15:20:35Z</time>
   </trkpt>
   <trkpt lat="45.9817123413086" lon="7.19653606414795">
    <ele>1422.37780761719</ele>
    <time>2012-06-25T15:20:37Z</time>
   </trkpt>
   <trkpt lat="45.981689453125" lon="7.19656848907471">
    <ele>1422.62219238281</ele>
    <time>2012-06-25T15:20:38Z</time>
   </trkpt>
   <trkpt lat="45.9816627502441" lon="7.19659996032715">
    <ele>1422.86669921875</ele>
    <time>2012-06-25T15:20:39Z</time>
   </trkpt>
   <trkpt lat="45.9816436767578" lon="7.19662761688232">
    <ele>1423.11108398438</ele>
    <time>2012-06-25T15:20:40Z</time>
   </trkpt>
   <trkpt lat="45.981616973877" lon="7.19665670394898">
    <ele>1423.35559082031</ele>
    <time>2012-06-25T15:20:41Z</time>
   </trkpt>
   <trkpt lat="45.9815940856934" lon="7.19668340682983">
    <ele>1423.59997558594</ele>
    <time>2012-06-25T15:20:42Z</time>
   </trkpt>
   <trkpt lat="45.981517791748" lon="7.19675827026367">
    <ele>1423.59997558594</ele>
    <time>2012-06-25T15:20:45Z</time>
   </trkpt>
   <trkpt lat="45.9814071655273" lon="7.19684410095215">
    <ele>1424.69995117188</ele>
    <time>2012-06-25T15:20:49Z</time>
   </trkpt>
   <trkpt lat="45.9813766479492" lon="7.19686603546143">
    <ele>1424.97497558594</ele>
    <time>2012-06-25T15:20:50Z</time>
   </trkpt>
   <trkpt lat="45.9813537597656" lon="7.19688606262207">
    <ele>1425.25</ele>
    <time>2012-06-25T15:20:51Z</time>
   </trkpt>
   <trkpt lat="45.9813270568848" lon="7.19690799713135">
    <ele>1425.52502441406</ele>
    <time>2012-06-25T15:20:52Z</time>
   </trkpt>
   <trkpt lat="45.9813003540039" lon="7.19693231582642">
    <ele>1425.80004882812</ele>
    <time>2012-06-25T15:20:53Z</time>
   </trkpt>
   <trkpt lat="45.981273651123" lon="7.19695138931274">
    <ele>1425.80004882812</ele>
    <time>2012-06-25T15:20:54Z</time>
   </trkpt>
   <trkpt lat="45.981128692627" lon="7.19701910018921">
    <ele>1426.95788574219</ele>
    <time>2012-06-25T15:20:59Z</time>
   </trkpt>
   <trkpt lat="45.9811019897461" lon="7.19702863693237">
    <ele>1427.189453125</ele>
    <time>2012-06-25T15:21:00Z</time>
   </trkpt>
   <trkpt lat="45.981071472168" lon="7.19703769683838">
    <ele>1427.42102050781</ele>
    <time>2012-06-25T15:21:01Z</time>
   </trkpt>
   <trkpt lat="45.9810409545898" lon="7.19704866409302">
    <ele>1427.65258789062</ele>
    <time>2012-06-25T15:21:02Z</time>
   </trkpt>
   <trkpt lat="45.981014251709" lon="7.19705820083618">
    <ele>1427.88415527344</ele>
    <time>2012-06-25T15:21:03Z</time>
   </trkpt>
   <trkpt lat="45.9808387756348" lon="7.19708633422852">
    <ele>1429.27368164062</ele>
    <time>2012-06-25T15:21:09Z</time>
   </trkpt>
   <trkpt lat="45.9808082580566" lon="7.19708728790283">
    <ele>1429.50524902344</ele>
    <time>2012-06-25T15:21:10Z</time>
   </trkpt>
   <trkpt lat="45.9807777404785" lon="7.19709253311157">
    <ele>1429.73681640625</ele>
    <time>2012-06-25T15:21:11Z</time>
   </trkpt>
   <trkpt lat="45.9807548522949" lon="7.19709539413452">
    <ele>1429.96838378906</ele>
    <time>2012-06-25T15:21:12Z</time>
   </trkpt>
   <trkpt lat="45.9807281494141" lon="7.19710063934326">
    <ele>1430.19995117188</ele>
    <time>2012-06-25T15:21:13Z</time>
   </trkpt>
   <trkpt lat="45.9806137084961" lon="7.1971173286438">
    <ele>1430.19995117188</ele>
    <time>2012-06-25T15:21:17Z</time>
   </trkpt>
   <trkpt lat="45.9805870056152" lon="7.1971230506897">
    <ele>1430.64001464844</ele>
    <time>2012-06-25T15:21:18Z</time>
   </trkpt>
   <trkpt lat="45.9805603027344" lon="7.19712591171265">
    <ele>1431.07995605469</ele>
    <time>2012-06-25T15:21:19Z</time>
   </trkpt>
   <trkpt lat="45.9805335998535" lon="7.19713258743286">
    <ele>1431.52001953125</ele>
    <time>2012-06-25T15:21:20Z</time>
   </trkpt>
   <trkpt lat="45.9805030822754" lon="7.19713592529297">
    <ele>1431.9599609375</ele>
    <time>2012-06-25T15:21:21Z</time>
   </trkpt>
   <trkpt lat="45.9804725646973" lon="7.19714212417602">
    <ele>1432.40002441406</ele>
    <time>2012-06-25T15:21:22Z</time>
   </trkpt>
   <trkpt lat="45.9804229736328" lon="7.19715070724487">
    <ele>1432.40002441406</ele>
    <time>2012-06-25T15:21:24Z</time>
   </trkpt>
   <trkpt lat="45.980396270752" lon="7.19715690612793">
    <ele>1432.83996582031</ele>
    <time>2012-06-25T15:21:25Z</time>
   </trkpt>
   <trkpt lat="45.9803695678711" lon="7.19716262817383">
    <ele>1433.28002929688</ele>
    <time>2012-06-25T15:21:26Z</time>
   </trkpt>
   <trkpt lat="45.9803428649902" lon="7.19716739654541">
    <ele>1433.71997070312</ele>
    <time>2012-06-25T15:21:27Z</time>
   </trkpt>
   <trkpt lat="45.9803161621094" lon="7.19717311859131">
    <ele>1434.16003417969</ele>
    <time>2012-06-25T15:21:28Z</time>
   </trkpt>
   <trkpt lat="45.9802894592285" lon="7.19717741012573">
    <ele>1434.59997558594</ele>
    <time>2012-06-25T15:21:29Z</time>
   </trkpt>
   <trkpt lat="45.9802398681641" lon="7.19718360900879">
    <ele>1434.59997558594</ele>
    <time>2012-06-25T15:21:31Z</time>
   </trkpt>
   <trkpt lat="45.9801597595215" lon="7.19721555709839">
    <ele>1435.26000976562</ele>
    <time>2012-06-25T15:21:34Z</time>
   </trkpt>
   <trkpt lat="45.9801330566406" lon="7.19723033905029">
    <ele>1435.47998046875</ele>
    <time>2012-06-25T15:21:35Z</time>
   </trkpt>
   <trkpt lat="45.9800834655762" lon="7.19726657867432">
    <ele>1435.92004394531</ele>
    <time>2012-06-25T15:21:37Z</time>
   </trkpt>
   <trkpt lat="45.9800567626953" lon="7.19728088378906">
    <ele>1436.14001464844</ele>
    <time>2012-06-25T15:21:38Z</time>
   </trkpt>
   <trkpt lat="45.9800300598144" lon="7.19729471206665">
    <ele>1436.35998535156</ele>
    <time>2012-06-25T15:21:39Z</time>
   </trkpt>
   <trkpt lat="45.9800033569336" lon="7.19731187820435">
    <ele>1436.580078125</ele>
    <time>2012-06-25T15:21:40Z</time>
   </trkpt>
   <trkpt lat="45.9799728393555" lon="7.19732856750488">
    <ele>1436.80004882812</ele>
    <time>2012-06-25T15:21:41Z</time>
   </trkpt>
   <trkpt lat="45.9798965454102" lon="7.19738388061524">
    <ele>1436.80004882812</ele>
    <time>2012-06-25T15:21:44Z</time>
   </trkpt>
   <trkpt lat="45.9798736572266" lon="7.19740629196167">
    <ele>1437.23999023438</ele>
    <time>2012-06-25T15:21:45Z</time>
   </trkpt>
   <trkpt lat="45.9798469543457" lon="7.19742631912232">
    <ele>1437.68005371094</ele>
    <time>2012-06-25T15:21:46Z</time>
   </trkpt>
   <trkpt lat="45.9798278808594" lon="7.19744682312012">
    <ele>1438.11999511719</ele>
    <time>2012-06-25T15:21:47Z</time>
   </trkpt>
   <trkpt lat="45.9798011779785" lon="7.19746541976929">
    <ele>1438.56005859375</ele>
    <time>2012-06-25T15:21:48Z</time>
   </trkpt>
   <trkpt lat="45.9797782897949" lon="7.19748735427856">
    <ele>1439</ele>
    <time>2012-06-25T15:21:49Z</time>
   </trkpt>
   <trkpt lat="45.9797325134277" lon="7.19753122329712">
    <ele>1439</ele>
    <time>2012-06-25T15:21:51Z</time>
   </trkpt>
   <trkpt lat="45.9795722961426" lon="7.19772958755493">
    <ele>1440.28332519531</ele>
    <time>2012-06-25T15:21:58Z</time>
   </trkpt>
   <trkpt lat="45.9795532226562" lon="7.19776344299316">
    <ele>1440.46667480469</ele>
    <time>2012-06-25T15:21:59Z</time>
   </trkpt>
   <trkpt lat="45.9795303344727" lon="7.19779014587402">
    <ele>1440.64990234375</ele>
    <time>2012-06-25T15:22:00Z</time>
   </trkpt>
   <trkpt lat="45.9795112609863" lon="7.19782209396362">
    <ele>1440.83325195312</ele>
    <time>2012-06-25T15:22:01Z</time>
   </trkpt>
   <trkpt lat="45.9794883728027" lon="7.19785451889038">
    <ele>1441.0166015625</ele>
    <time>2012-06-25T15:22:02Z</time>
   </trkpt>
   <trkpt lat="45.9794731140137" lon="7.19788646697998">
    <ele>1441.19995117188</ele>
    <time>2012-06-25T15:22:03Z</time>
   </trkpt>
   <trkpt lat="45.9794387817383" lon="7.19795608520508">
    <ele>1441.19995117188</ele>
    <time>2012-06-25T15:22:05Z</time>
   </trkpt>
   <trkpt lat="45.9793243408203" lon="7.19821119308472">
    <ele>1442.47265625</ele>
    <time>2012-06-25T15:22:12Z</time>
   </trkpt>
   <trkpt lat="45.9793090820312" lon="7.1982479095459">
    <ele>1442.65454101562</ele>
    <time>2012-06-25T15:22:13Z</time>
   </trkpt>
   <trkpt lat="45.9792900085449" lon="7.19828844070435">
    <ele>1442.83630371094</ele>
    <time>2012-06-25T15:22:14Z</time>
   </trkpt>
   <trkpt lat="45.9792785644531" lon="7.19832944869995">
    <ele>1443.01818847656</ele>
    <time>2012-06-25T15:22:15Z</time>
   </trkpt>
   <trkpt lat="45.9792633056641" lon="7.19836854934692">
    <ele>1443.19995117188</ele>
    <time>2012-06-25T15:22:16Z</time>
   </trkpt>
   <trkpt lat="45.9791831970215" lon="7.198561668396">
    <ele>1443.19995117188</ele>
    <time>2012-06-25T15:22:21Z</time>
   </trkpt>
   <trkpt lat="45.9791221618652" lon="7.19871234893799">
    <ele>1444.22216796875</ele>
    <time>2012-06-25T15:22:25Z</time>
   </trkpt>
   <trkpt lat="45.9791069030762" lon="7.19875192642212">
    <ele>1444.47778320312</ele>
    <time>2012-06-25T15:22:26Z</time>
   </trkpt>
   <trkpt lat="45.9790840148926" lon="7.19879388809204">
    <ele>1444.73327636719</ele>
    <time>2012-06-25T15:22:27Z</time>
   </trkpt>
   <trkpt lat="45.9790649414062" lon="7.19883728027344">
    <ele>1444.98889160156</ele>
    <time>2012-06-25T15:22:28Z</time>
   </trkpt>
   <trkpt lat="45.9790458679199" lon="7.19888162612915">
    <ele>1445.24438476562</ele>
    <time>2012-06-25T15:22:29Z</time>
   </trkpt>
   <trkpt lat="45.9789123535156" lon="7.19910669326782">
    <ele>1446.77783203125</ele>
    <time>2012-06-25T15:22:35Z</time>
   </trkpt>
   <trkpt lat="45.978889465332" lon="7.19913864135742">
    <ele>1447.03332519531</ele>
    <time>2012-06-25T15:22:36Z</time>
   </trkpt>
   <trkpt lat="45.9788665771484" lon="7.19916582107544">
    <ele>1447.28894042969</ele>
    <time>2012-06-25T15:22:37Z</time>
   </trkpt>
   <trkpt lat="45.9788436889648" lon="7.1991925239563">
    <ele>1447.54443359375</ele>
    <time>2012-06-25T15:22:38Z</time>
   </trkpt>
   <trkpt lat="45.9788208007812" lon="7.19922733306885">
    <ele>1447.80004882812</ele>
    <time>2012-06-25T15:22:39Z</time>
   </trkpt>
   <trkpt lat="45.9787750244141" lon="7.19929933547974">
    <ele>1447.80004882812</ele>
    <time>2012-06-25T15:22:41Z</time>
   </trkpt>
   <trkpt lat="45.9787521362305" lon="7.19933366775513">
    <ele>1448.08581542969</ele>
    <time>2012-06-25T15:22:42Z</time>
   </trkpt>
   <trkpt lat="45.9786911010742" lon="7.19943428039551">
    <ele>1448.94287109375</ele>
    <time>2012-06-25T15:22:45Z</time>
   </trkpt>
   <trkpt lat="45.9786682128906" lon="7.19946670532226">
    <ele>1449.22863769531</ele>
    <time>2012-06-25T15:22:46Z</time>
   </trkpt>
   <trkpt lat="45.9786491394043" lon="7.1994948387146">
    <ele>1449.51428222656</ele>
    <time>2012-06-25T15:22:47Z</time>
   </trkpt>
   <trkpt lat="45.9786262512207" lon="7.19952201843262">
    <ele>1449.80004882812</ele>
    <time>2012-06-25T15:22:48Z</time>
   </trkpt>
   <trkpt lat="45.9785919189453" lon="7.19956922531128">
    <ele>1449.80004882812</ele>
    <time>2012-06-25T15:22:50Z</time>
   </trkpt>
   <trkpt lat="45.9785079956055" lon="7.19968461990356">
    <ele>1450.60009765625</ele>
    <time>2012-06-25T15:22:54Z</time>
   </trkpt>
   <trkpt lat="45.9784698486328" lon="7.1997447013855">
    <ele>1451</ele>
    <time>2012-06-25T15:22:56Z</time>
   </trkpt>
   <trkpt lat="45.9784545898438" lon="7.19977521896362">
    <ele>1451.20007324219</ele>
    <time>2012-06-25T15:22:57Z</time>
   </trkpt>
   <trkpt lat="45.9784317016602" lon="7.19980573654175">
    <ele>1451.40002441406</ele>
    <time>2012-06-25T15:22:58Z</time>
   </trkpt>
   <trkpt lat="45.9784088134766" lon="7.19983673095703">
    <ele>1451.60009765625</ele>
    <time>2012-06-25T15:22:59Z</time>
   </trkpt>
   <trkpt lat="45.978385925293" lon="7.1998724937439">
    <ele>1451.80004882812</ele>
    <time>2012-06-25T15:23:00Z</time>
   </trkpt>
   <trkpt lat="45.9783096313477" lon="7.19996929168701">
    <ele>1451.80004882812</ele>
    <time>2012-06-25T15:23:03Z</time>
   </trkpt>
   <trkpt lat="45.9781951904297" lon="7.200119972229">
    <ele>1453.17504882812</ele>
    <time>2012-06-25T15:23:08Z</time>
   </trkpt>
   <trkpt lat="45.9781723022461" lon="7.20014667510986">
    <ele>1453.44995117188</ele>
    <time>2012-06-25T15:23:09Z</time>
   </trkpt>
   <trkpt lat="45.9781455993652" lon="7.20017385482788">
    <ele>1453.72497558594</ele>
    <time>2012-06-25T15:23:10Z</time>
   </trkpt>
   <trkpt lat="45.9781227111816" lon="7.20020055770874">
    <ele>1454</ele>
    <time>2012-06-25T15:23:11Z</time>
   </trkpt>
   <trkpt lat="45.9779815673828" lon="7.20037412643433">
    <ele>1454</ele>
    <time>2012-06-25T15:23:17Z</time>
   </trkpt>
   <trkpt lat="45.977897644043" lon="7.20045328140259">
    <ele>1454.85717773438</ele>
    <time>2012-06-25T15:23:20Z</time>
   </trkpt>
   <trkpt lat="45.9778709411621" lon="7.20047903060913">
    <ele>1455.14282226562</ele>
    <time>2012-06-25T15:23:21Z</time>
   </trkpt>
   <trkpt lat="45.977840423584" lon="7.20050525665283">
    <ele>1455.42858886719</ele>
    <time>2012-06-25T15:23:22Z</time>
   </trkpt>
   <trkpt lat="45.9778137207031" lon="7.2005295753479">
    <ele>1455.71423339844</ele>
    <time>2012-06-25T15:23:23Z</time>
   </trkpt>
   <trkpt lat="45.9777870178223" lon="7.20054912567139">
    <ele>1456</ele>
    <time>2012-06-25T15:23:24Z</time>
   </trkpt>
   <trkpt lat="45.9777641296387" lon="7.2005729675293">
    <ele>1456</ele>
    <time>2012-06-25T15:23:25Z</time>
   </trkpt>
   <trkpt lat="45.9777450561523" lon="7.20059537887573">
    <ele>1456.18334960938</ele>
    <time>2012-06-25T15:23:26Z</time>
   </trkpt>
   <trkpt lat="45.9775924682617" lon="7.20072507858276">
    <ele>1457.28332519531</ele>
    <time>2012-06-25T15:23:32Z</time>
   </trkpt>
   <trkpt lat="45.9775657653809" lon="7.20074510574341">
    <ele>1457.46667480469</ele>
    <time>2012-06-25T15:23:33Z</time>
   </trkpt>
   <trkpt lat="45.9775390625" lon="7.20076370239258">
    <ele>1457.64990234375</ele>
    <time>2012-06-25T15:23:34Z</time>
   </trkpt>
   <trkpt lat="45.9775123596191" lon="7.20078325271606">
    <ele>1457.83325195312</ele>
    <time>2012-06-25T15:23:35Z</time>
   </trkpt>
   <trkpt lat="45.977481842041" lon="7.20080471038818">
    <ele>1458.0166015625</ele>
    <time>2012-06-25T15:23:36Z</time>
   </trkpt>
   <trkpt lat="45.9774551391602" lon="7.20082902908325">
    <ele>1458.19995117188</ele>
    <time>2012-06-25T15:23:37Z</time>
   </trkpt>
   <trkpt lat="45.977352142334" lon="7.2009129524231">
    <ele>1458.19995117188</ele>
    <time>2012-06-25T15:23:41Z</time>
   </trkpt>
   <trkpt lat="45.9772491455078" lon="7.20099401473999">
    <ele>1459.39990234375</ele>
    <time>2012-06-25T15:23:45Z</time>
   </trkpt>
   <trkpt lat="45.9772262573242" lon="7.20101165771484">
    <ele>1459.69995117188</ele>
    <time>2012-06-25T15:23:46Z</time>
   </trkpt>
   <trkpt lat="45.9772033691406" lon="7.2010350227356">
    <ele>1460</ele>
    <time>2012-06-25T15:23:47Z</time>
   </trkpt>
   <trkpt lat="45.977180480957" lon="7.20106172561646">
    <ele>1460.29992675781</ele>
    <time>2012-06-25T15:23:48Z</time>
   </trkpt>
   <trkpt lat="45.9771537780762" lon="7.20108413696289">
    <ele>1460.59997558594</ele>
    <time>2012-06-25T15:23:49Z</time>
   </trkpt>
   <trkpt lat="45.9771041870117" lon="7.20113897323608">
    <ele>1460.59997558594</ele>
    <time>2012-06-25T15:23:51Z</time>
   </trkpt>
   <trkpt lat="45.9770545959473" lon="7.2011890411377">
    <ele>1461.17138671875</ele>
    <time>2012-06-25T15:23:53Z</time>
   </trkpt>
   <trkpt lat="45.9770278930664" lon="7.20121049880982">
    <ele>1461.45715332031</ele>
    <time>2012-06-25T15:23:54Z</time>
   </trkpt>
   <trkpt lat="45.9770011901856" lon="7.2012505531311">
    <ele>1461.74279785156</ele>
    <time>2012-06-25T15:23:55Z</time>
   </trkpt>
   <trkpt lat="45.976978302002" lon="7.2012825012207">
    <ele>1462.02856445312</ele>
    <time>2012-06-25T15:23:56Z</time>
   </trkpt>
   <trkpt lat="45.9769515991211" lon="7.20131778717041">
    <ele>1462.31420898438</ele>
    <time>2012-06-25T15:23:57Z</time>
   </trkpt>
   <trkpt lat="45.9769248962402" lon="7.20135259628296">
    <ele>1462.59997558594</ele>
    <time>2012-06-25T15:23:58Z</time>
   </trkpt>
   <trkpt lat="45.9769020080566" lon="7.20138645172119">
    <ele>1462.59997558594</ele>
    <time>2012-06-25T15:23:59Z</time>
   </trkpt>
   <trkpt lat="45.9768524169922" lon="7.20145416259766">
    <ele>1463.15002441406</ele>
    <time>2012-06-25T15:24:01Z</time>
   </trkpt>
   <trkpt lat="45.976806640625" lon="7.20151805877686">
    <ele>1463.69995117188</ele>
    <time>2012-06-25T15:24:03Z</time>
   </trkpt>
   <trkpt lat="45.9767799377441" lon="7.2015528678894">
    <ele>1463.97497558594</ele>
    <time>2012-06-25T15:24:04Z</time>
   </trkpt>
   <trkpt lat="45.9767532348633" lon="7.20158433914185">
    <ele>1464.25</ele>
    <time>2012-06-25T15:24:05Z</time>
   </trkpt>
   <trkpt lat="45.9767265319824" lon="7.2016134262085">
    <ele>1464.52502441406</ele>
    <time>2012-06-25T15:24:06Z</time>
   </trkpt>
   <trkpt lat="45.9766998291016" lon="7.2016429901123">
    <ele>1464.80004882812</ele>
    <time>2012-06-25T15:24:07Z</time>
   </trkpt>
   <trkpt lat="45.9765396118164" lon="7.2018404006958">
    <ele>1464.80004882812</ele>
    <time>2012-06-25T15:24:13Z</time>
   </trkpt>
   <trkpt lat="45.9764251708984" lon="7.20193719863892">
    <ele>1465.85009765625</ele>
    <time>2012-06-25T15:24:17Z</time>
   </trkpt>
   <trkpt lat="45.9763984680176" lon="7.20196104049683">
    <ele>1466.11254882812</ele>
    <time>2012-06-25T15:24:18Z</time>
   </trkpt>
   <trkpt lat="45.976375579834" lon="7.20198202133179">
    <ele>1466.375</ele>
    <time>2012-06-25T15:24:19Z</time>
   </trkpt>
   <trkpt lat="45.9763526916504" lon="7.20200061798096">
    <ele>1466.63757324219</ele>
    <time>2012-06-25T15:24:20Z</time>
   </trkpt>
   <trkpt lat="45.9763298034668" lon="7.2020206451416">
    <ele>1466.90002441406</ele>
    <time>2012-06-25T15:24:21Z</time>
   </trkpt>
   <trkpt lat="45.9762268066406" lon="7.20211553573608">
    <ele>1467.94995117188</ele>
    <time>2012-06-25T15:24:25Z</time>
   </trkpt>
   <trkpt lat="45.9762001037598" lon="7.20213556289673">
    <ele>1468.21252441406</ele>
    <time>2012-06-25T15:24:26Z</time>
   </trkpt>
   <trkpt lat="45.9761734008789" lon="7.20215463638306">
    <ele>1468.47497558594</ele>
    <time>2012-06-25T15:24:27Z</time>
   </trkpt>
   <trkpt lat="45.9761505126953" lon="7.20217514038086">
    <ele>1468.73754882812</ele>
    <time>2012-06-25T15:24:28Z</time>
   </trkpt>
   <trkpt lat="45.9761238098144" lon="7.20219707489014">
    <ele>1469</ele>
    <time>2012-06-25T15:24:29Z</time>
   </trkpt>
   <trkpt lat="45.9759712219238" lon="7.20235061645508">
    <ele>1469</ele>
    <time>2012-06-25T15:24:35Z</time>
   </trkpt>
   <trkpt lat="45.9759216308594" lon="7.20240449905396">
    <ele>1469.73327636719</ele>
    <time>2012-06-25T15:24:37Z</time>
   </trkpt>
   <trkpt lat="45.9758987426758" lon="7.20243310928345">
    <ele>1470.09997558594</ele>
    <time>2012-06-25T15:24:38Z</time>
   </trkpt>
   <trkpt lat="45.9758720397949" lon="7.2024655342102">
    <ele>1470.46667480469</ele>
    <time>2012-06-25T15:24:39Z</time>
   </trkpt>
   <trkpt lat="45.9758453369141" lon="7.20249652862549">
    <ele>1470.83325195312</ele>
    <time>2012-06-25T15:24:40Z</time>
   </trkpt>
   <trkpt lat="45.9758224487305" lon="7.20252418518066">
    <ele>1471.19995117188</ele>
    <time>2012-06-25T15:24:41Z</time>
   </trkpt>
   <trkpt lat="45.975772857666" lon="7.20258331298828">
    <ele>1471.19995117188</ele>
    <time>2012-06-25T15:24:43Z</time>
   </trkpt>
   <trkpt lat="45.9756317138672" lon="7.20275449752808">
    <ele>1472.53332519531</ele>
    <time>2012-06-25T15:24:49Z</time>
   </trkpt>
   <trkpt lat="45.9756088256836" lon="7.20278739929199">
    <ele>1472.75549316406</ele>
    <time>2012-06-25T15:24:50Z</time>
   </trkpt>
   <trkpt lat="45.9755859375" lon="7.20282125473022">
    <ele>1472.97778320312</ele>
    <time>2012-06-25T15:24:51Z</time>
   </trkpt>
   <trkpt lat="45.9755668640137" lon="7.20285081863403">
    <ele>1473.19995117188</ele>
    <time>2012-06-25T15:24:52Z</time>
   </trkpt>
   <trkpt lat="45.9754486083984" lon="7.20302581787109">
    <ele>1473.19995117188</ele>
    <time>2012-06-25T15:24:57Z</time>
   </trkpt>
   <trkpt lat="45.9753837585449" lon="7.20312070846558">
    <ele>1474.05712890625</ele>
    <time>2012-06-25T15:25:00Z</time>
   </trkpt>
   <trkpt lat="45.9753570556641" lon="7.20315456390381">
    <ele>1474.3427734375</ele>
    <time>2012-06-25T15:25:01Z</time>
   </trkpt>
   <trkpt lat="45.9753379821777" lon="7.20318460464478">
    <ele>1474.62854003906</ele>
    <time>2012-06-25T15:25:02Z</time>
   </trkpt>
   <trkpt lat="45.9753150939941" lon="7.20321464538574">
    <ele>1474.91418457031</ele>
    <time>2012-06-25T15:25:03Z</time>
   </trkpt>
   <trkpt lat="45.9752960205078" lon="7.2032470703125">
    <ele>1475.19995117188</ele>
    <time>2012-06-25T15:25:04Z</time>
   </trkpt>
   <trkpt lat="45.9752731323242" lon="7.2032790184021">
    <ele>1475.19995117188</ele>
    <time>2012-06-25T15:25:05Z</time>
   </trkpt>
   <trkpt lat="45.9750785827637" lon="7.20350503921509">
    <ele>1476.65454101562</ele>
    <time>2012-06-25T15:25:13Z</time>
   </trkpt>
   <trkpt lat="45.9750556945801" lon="7.20353269577026">
    <ele>1476.83630371094</ele>
    <time>2012-06-25T15:25:14Z</time>
   </trkpt>
   <trkpt lat="45.9750328063965" lon="7.20355844497681">
    <ele>1477.01818847656</ele>
    <time>2012-06-25T15:25:15Z</time>
   </trkpt>
   <trkpt lat="45.9750099182129" lon="7.20358276367188">
    <ele>1477.19995117188</ele>
    <time>2012-06-25T15:25:16Z</time>
   </trkpt>
   <trkpt lat="45.9748611450195" lon="7.20372772216797">
    <ele>1477.19995117188</ele>
    <time>2012-06-25T15:25:22Z</time>
   </trkpt>
   <trkpt lat="45.9748344421387" lon="7.20375108718872">
    <ele>1477.64001464844</ele>
    <time>2012-06-25T15:25:23Z</time>
   </trkpt>
   <trkpt lat="45.9748115539551" lon="7.20377206802368">
    <ele>1478.07995605469</ele>
    <time>2012-06-25T15:25:24Z</time>
   </trkpt>
   <trkpt lat="45.9747848510742" lon="7.20379495620728">
    <ele>1478.52001953125</ele>
    <time>2012-06-25T15:25:25Z</time>
   </trkpt>
   <trkpt lat="45.9747619628906" lon="7.20381736755371">
    <ele>1478.9599609375</ele>
    <time>2012-06-25T15:25:26Z</time>
   </trkpt>
   <trkpt lat="45.9747352600098" lon="7.20384120941162">
    <ele>1479.40002441406</ele>
    <time>2012-06-25T15:25:27Z</time>
   </trkpt>
   <trkpt lat="45.9747123718262" lon="7.20386409759522">
    <ele>1479.40002441406</ele>
    <time>2012-06-25T15:25:28Z</time>
   </trkpt>
   <trkpt lat="45.9746627807617" lon="7.20391368865967">
    <ele>1479.763671875</ele>
    <time>2012-06-25T15:25:30Z</time>
   </trkpt>
   <trkpt lat="45.9745559692383" lon="7.20401239395142">
    <ele>1480.49096679688</ele>
    <time>2012-06-25T15:25:34Z</time>
   </trkpt>
   <trkpt lat="45.9745292663574" lon="7.20403528213501">
    <ele>1480.67272949219</ele>
    <time>2012-06-25T15:25:35Z</time>
   </trkpt>
   <trkpt lat="45.9745025634766" lon="7.20406484603882">
    <ele>1480.85461425781</ele>
    <time>2012-06-25T15:25:36Z</time>
   </trkpt>
   <trkpt lat="45.974479675293" lon="7.20409202575684">
    <ele>1481.03637695312</ele>
    <time>2012-06-25T15:25:37Z</time>
   </trkpt>
   <trkpt lat="45.9744567871094" lon="7.20411539077759">
    <ele>1481.21826171875</ele>
    <time>2012-06-25T15:25:38Z</time>
   </trkpt>
   <trkpt lat="45.9742965698242" lon="7.20431518554688">
    <ele>1482.49096679688</ele>
    <time>2012-06-25T15:25:45Z</time>
   </trkpt>
   <trkpt lat="45.9742736816406" lon="7.20434761047363">
    <ele>1482.67272949219</ele>
    <time>2012-06-25T15:25:46Z</time>
   </trkpt>
   <trkpt lat="45.974250793457" lon="7.20438051223755">
    <ele>1483.03637695312</ele>
    <time>2012-06-25T15:25:48Z</time>
   </trkpt>
   <trkpt lat="45.9742317199707" lon="7.20441007614136">
    <ele>1483.21826171875</ele>
    <time>2012-06-25T15:25:49Z</time>
   </trkpt>
   <trkpt lat="45.9742088317871" lon="7.20444345474243">
    <ele>1483.40002441406</ele>
    <time>2012-06-25T15:25:50Z</time>
   </trkpt>
   <trkpt lat="45.9741172790527" lon="7.20461702346802">
    <ele>1483.40002441406</ele>
    <time>2012-06-25T15:25:55Z</time>
   </trkpt>
   <trkpt lat="45.9740829467773" lon="7.2046914100647">
    <ele>1484.13330078125</ele>
    <time>2012-06-25T15:25:57Z</time>
   </trkpt>
   <trkpt lat="45.9740676879883" lon="7.20473098754883">
    <ele>1484.5</ele>
    <time>2012-06-25T15:25:58Z</time>
   </trkpt>
   <trkpt lat="45.9740524291992" lon="7.20476818084717">
    <ele>1484.86669921875</ele>
    <time>2012-06-25T15:25:59Z</time>
   </trkpt>
   <trkpt lat="45.9740371704102" lon="7.20480537414551">
    <ele>1485.23327636719</ele>
    <time>2012-06-25T15:26:00Z</time>
   </trkpt>
   <trkpt lat="45.9740257263184" lon="7.20484495162964">
    <ele>1485.59997558594</ele>
    <time>2012-06-25T15:26:01Z</time>
   </trkpt>
   <trkpt lat="45.974006652832" lon="7.20492506027222">
    <ele>1485.59997558594</ele>
    <time>2012-06-25T15:26:03Z</time>
   </trkpt>
   <trkpt lat="45.9739112854004" lon="7.20524835586548">
    <ele>1487.06665039062</ele>
    <time>2012-06-25T15:26:11Z</time>
   </trkpt>
   <trkpt lat="45.9738998413086" lon="7.20528936386108">
    <ele>1487.25</ele>
    <time>2012-06-25T15:26:12Z</time>
   </trkpt>
   <trkpt lat="45.9738922119141" lon="7.20532894134522">
    <ele>1487.43334960938</ele>
    <time>2012-06-25T15:26:13Z</time>
   </trkpt>
   <trkpt lat="45.9738807678223" lon="7.20537233352661">
    <ele>1487.61669921875</ele>
    <time>2012-06-25T15:26:14Z</time>
   </trkpt>
   <trkpt lat="45.9738693237305" lon="7.20541381835938">
    <ele>1487.80004882812</ele>
    <time>2012-06-25T15:26:15Z</time>
   </trkpt>
   <trkpt lat="45.9738159179688" lon="7.20568609237671">
    <ele>1487.80004882812</ele>
    <time>2012-06-25T15:26:21Z</time>
   </trkpt>
   <trkpt lat="45.9737586975098" lon="7.2059473991394">
    <ele>1489.26672363281</ele>
    <time>2012-06-25T15:26:27Z</time>
   </trkpt>
   <trkpt lat="45.973747253418" lon="7.20599269866943">
    <ele>1489.51110839844</ele>
    <time>2012-06-25T15:26:28Z</time>
   </trkpt>
   <trkpt lat="45.9737396240234" lon="7.20603561401367">
    <ele>1489.75561523438</ele>
    <time>2012-06-25T15:26:29Z</time>
   </trkpt>
   <trkpt lat="45.9737243652344" lon="7.20607900619507">
    <ele>1490</ele>
    <time>2012-06-25T15:26:30Z</time>
   </trkpt>
   <trkpt lat="45.9736404418945" lon="7.20636940002441">
    <ele>1490</ele>
    <time>2012-06-25T15:26:37Z</time>
   </trkpt>
   <trkpt lat="45.9736251831055" lon="7.20641088485718">
    <ele>1490.40002441406</ele>
    <time>2012-06-25T15:26:38Z</time>
   </trkpt>
   <trkpt lat="45.9736137390137" lon="7.20645141601562">
    <ele>1490.80004882812</ele>
    <time>2012-06-25T15:26:39Z</time>
   </trkpt>
   <trkpt lat="45.9735946655273" lon="7.20649290084839">
    <ele>1491.19995117188</ele>
    <time>2012-06-25T15:26:40Z</time>
   </trkpt>
   <trkpt lat="45.9735794067383" lon="7.20653247833252">
    <ele>1491.59997558594</ele>
    <time>2012-06-25T15:26:41Z</time>
   </trkpt>
   <trkpt lat="45.9735641479492" lon="7.20657110214233">
    <ele>1492</ele>
    <time>2012-06-25T15:26:42Z</time>
   </trkpt>
   <trkpt lat="45.9734916687012" lon="7.20672607421875">
    <ele>1492</ele>
    <time>2012-06-25T15:26:46Z</time>
   </trkpt>
   <trkpt lat="45.9733657836914" lon="7.20695543289185">
    <ele>1493.46667480469</ele>
    <time>2012-06-25T15:26:52Z</time>
   </trkpt>
   <trkpt lat="45.9733428955078" lon="7.20698881149292">
    <ele>1493.71105957031</ele>
    <time>2012-06-25T15:26:53Z</time>
   </trkpt>
   <trkpt lat="45.973316192627" lon="7.20702171325684">
    <ele>1493.95556640625</ele>
    <time>2012-06-25T15:26:54Z</time>
   </trkpt>
   <trkpt lat="45.9732933044434" lon="7.20705270767212">
    <ele>1494.19995117188</ele>
    <time>2012-06-25T15:26:55Z</time>
   </trkpt>
   <trkpt lat="45.9731712341309" lon="7.2072114944458">
    <ele>1494.19995117188</ele>
    <time>2012-06-25T15:27:00Z</time>
   </trkpt>
   <trkpt lat="45.9731178283691" lon="7.20726823806763">
    <ele>1494.77136230469</ele>
    <time>2012-06-25T15:27:02Z</time>
   </trkpt>
   <trkpt lat="45.9730911254883" lon="7.20729446411133">
    <ele>1495.05712890625</ele>
    <time>2012-06-25T15:27:03Z</time>
   </trkpt>
   <trkpt lat="45.9730606079102" lon="7.20731782913208">
    <ele>1495.3427734375</ele>
    <time>2012-06-25T15:27:04Z</time>
   </trkpt>
   <trkpt lat="45.9730339050293" lon="7.20734357833862">
    <ele>1495.62854003906</ele>
    <time>2012-06-25T15:27:05Z</time>
   </trkpt>
   <trkpt lat="45.9730033874512" lon="7.20736980438232">
    <ele>1495.91418457031</ele>
    <time>2012-06-25T15:27:06Z</time>
   </trkpt>
   <trkpt lat="45.9729766845703" lon="7.20739984512329">
    <ele>1496.19995117188</ele>
    <time>2012-06-25T15:27:07Z</time>
   </trkpt>
   <trkpt lat="45.9729118347168" lon="7.20745658874512">
    <ele>1496.19995117188</ele>
    <time>2012-06-25T15:27:09Z</time>
   </trkpt>
   <trkpt lat="45.9727935791016" lon="7.20754814147949">
    <ele>1497</ele>
    <time>2012-06-25T15:27:13Z</time>
   </trkpt>
   <trkpt lat="45.9727325439453" lon="7.20758581161499">
    <ele>1497.39990234375</ele>
    <time>2012-06-25T15:27:15Z</time>
   </trkpt>
   <trkpt lat="45.9727020263672" lon="7.20760679244995">
    <ele>1497.59997558594</ele>
    <time>2012-06-25T15:27:16Z</time>
   </trkpt>
   <trkpt lat="45.9726638793945" lon="7.20762538909912">
    <ele>1497.79992675781</ele>
    <time>2012-06-25T15:27:17Z</time>
   </trkpt>
   <trkpt lat="45.9726371765137" lon="7.2076416015625">
    <ele>1498</ele>
    <time>2012-06-25T15:27:18Z</time>
   </trkpt>
   <trkpt lat="45.9726028442383" lon="7.20765829086304">
    <ele>1498.19995117188</ele>
    <time>2012-06-25T15:27:19Z</time>
   </trkpt>
   <trkpt lat="45.9725456237793" lon="7.20769262313843">
    <ele>1498.19995117188</ele>
    <time>2012-06-25T15:27:21Z</time>
   </trkpt>
   <trkpt lat="45.9724235534668" lon="7.20774984359741">
    <ele>1499.177734375</ele>
    <time>2012-06-25T15:27:25Z</time>
   </trkpt>
   <trkpt lat="45.9723968505859" lon="7.20776510238648">
    <ele>1499.42211914062</ele>
    <time>2012-06-25T15:27:26Z</time>
   </trkpt>
   <trkpt lat="45.9723625183106" lon="7.20778226852417">
    <ele>1499.66662597656</ele>
    <time>2012-06-25T15:27:27Z</time>
   </trkpt>
   <trkpt lat="45.9723281860352" lon="7.20779895782471">
    <ele>1499.9111328125</ele>
    <time>2012-06-25T15:27:28Z</time>
   </trkpt>
   <trkpt lat="45.972297668457" lon="7.2078127861023">
    <ele>1500.15551757812</ele>
    <time>2012-06-25T15:27:29Z</time>
   </trkpt>
   <trkpt lat="45.9721145629883" lon="7.20789384841919">
    <ele>1501.62219238281</ele>
    <time>2012-06-25T15:27:35Z</time>
   </trkpt>
   <trkpt lat="45.9720840454102" lon="7.20790863037109">
    <ele>1501.86669921875</ele>
    <time>2012-06-25T15:27:36Z</time>
   </trkpt>
   <trkpt lat="45.9720497131348" lon="7.20792770385742">
    <ele>1502.11108398438</ele>
    <time>2012-06-25T15:27:37Z</time>
   </trkpt>
   <trkpt lat="45.9720191955566" lon="7.20794248580933">
    <ele>1502.35546875</ele>
    <time>2012-06-25T15:27:38Z</time>
   </trkpt>
   <trkpt lat="45.9719886779785" lon="7.20795440673828">
    <ele>1502.59997558594</ele>
    <time>2012-06-25T15:27:39Z</time>
   </trkpt>
   <trkpt lat="45.9718971252441" lon="7.20799970626831">
    <ele>1502.59997558594</ele>
    <time>2012-06-25T15:27:42Z</time>
   </trkpt>
   <trkpt lat="45.9718055725098" lon="7.20805215835571">
    <ele>1503.59997558594</ele>
    <time>2012-06-25T15:27:45Z</time>
   </trkpt>
   <trkpt lat="45.9717750549316" lon="7.20807361602783">
    <ele>1503.93334960938</ele>
    <time>2012-06-25T15:27:46Z</time>
   </trkpt>
   <trkpt lat="45.9717407226562" lon="7.20809459686279">
    <ele>1504.2666015625</ele>
    <time>2012-06-25T15:27:47Z</time>
   </trkpt>
   <trkpt lat="45.9717102050781" lon="7.20811414718628">
    <ele>1504.59997558594</ele>
    <time>2012-06-25T15:27:48Z</time>
   </trkpt>
   <trkpt lat="45.9716796875" lon="7.20813322067261">
    <ele>1504.59997558594</ele>
    <time>2012-06-25T15:27:49Z</time>
   </trkpt>
   <trkpt lat="45.9714393615723" lon="7.20831727981567">
    <ele>1505.93334960938</ele>
    <time>2012-06-25T15:27:57Z</time>
   </trkpt>
   <trkpt lat="45.9714088439941" lon="7.20834112167358">
    <ele>1506.09997558594</ele>
    <time>2012-06-25T15:27:58Z</time>
   </trkpt>
   <trkpt lat="45.971378326416" lon="7.20836639404297">
    <ele>1506.2666015625</ele>
    <time>2012-06-25T15:27:59Z</time>
   </trkpt>
   <trkpt lat="45.9713478088379" lon="7.20839023590088">
    <ele>1506.43334960938</ele>
    <time>2012-06-25T15:28:00Z</time>
   </trkpt>
   <trkpt lat="45.9713134765625" lon="7.20841217041016">
    <ele>1506.59997558594</ele>
    <time>2012-06-25T15:28:01Z</time>
   </trkpt>
   <trkpt lat="45.9711952209473" lon="7.20848941802978">
    <ele>1506.59997558594</ele>
    <time>2012-06-25T15:28:05Z</time>
   </trkpt>
   <trkpt lat="45.9710998535156" lon="7.20854949951172">
    <ele>1507.34118652344</ele>
    <time>2012-06-25T15:28:08Z</time>
   </trkpt>
   <trkpt lat="45.9710731506348" lon="7.20857095718384">
    <ele>1507.58825683594</ele>
    <time>2012-06-25T15:28:09Z</time>
   </trkpt>
   <trkpt lat="45.9710426330566" lon="7.20859003067017">
    <ele>1507.83532714844</ele>
    <time>2012-06-25T15:28:10Z</time>
   </trkpt>
   <trkpt lat="45.9710159301758" lon="7.20860576629639">
    <ele>1508.08239746094</ele>
    <time>2012-06-25T15:28:11Z</time>
   </trkpt>
   <trkpt lat="45.9708099365234" lon="7.20870161056518">
    <ele>1509.81176757812</ele>
    <time>2012-06-25T15:28:18Z</time>
   </trkpt>
   <trkpt lat="45.9707832336426" lon="7.20871448516846">
    <ele>1510.05883789062</ele>
    <time>2012-06-25T15:28:19Z</time>
   </trkpt>
   <trkpt lat="45.9707527160644" lon="7.20873069763184">
    <ele>1510.30590820312</ele>
    <time>2012-06-25T15:28:20Z</time>
   </trkpt>
   <trkpt lat="45.9707221984863" lon="7.20874261856079">
    <ele>1510.55297851562</ele>
    <time>2012-06-25T15:28:21Z</time>
   </trkpt>
   <trkpt lat="45.9706916809082" lon="7.2087574005127">
    <ele>1510.80004882812</ele>
    <time>2012-06-25T15:28:22Z</time>
   </trkpt>
   <trkpt lat="45.9705429077148" lon="7.20879793167114">
    <ele>1510.80004882812</ele>
    <time>2012-06-25T15:28:27Z</time>
   </trkpt>
   <trkpt lat="45.9704170227051" lon="7.20883560180664">
    <ele>1512.17138671875</ele>
    <time>2012-06-25T15:28:31Z</time>
   </trkpt>
   <trkpt lat="45.970386505127" lon="7.2088451385498">
    <ele>1512.51428222656</ele>
    <time>2012-06-25T15:28:32Z</time>
   </trkpt>
   <trkpt lat="45.9703559875488" lon="7.20884990692139">
    <ele>1512.85705566406</ele>
    <time>2012-06-25T15:28:33Z</time>
   </trkpt>
   <trkpt lat="45.9703254699707" lon="7.20885324478149">
    <ele>1513.19995117188</ele>
    <time>2012-06-25T15:28:34Z</time>
   </trkpt>
   <trkpt lat="45.9702301025391" lon="7.20885944366455">
    <ele>1513.19995117188</ele>
    <time>2012-06-25T15:28:37Z</time>
   </trkpt>
   <trkpt lat="45.970142364502" lon="7.20886707305908">
    <ele>1513.93334960938</ele>
    <time>2012-06-25T15:28:40Z</time>
   </trkpt>
   <trkpt lat="45.9701156616211" lon="7.20886468887329">
    <ele>1514.177734375</ele>
    <time>2012-06-25T15:28:41Z</time>
   </trkpt>
   <trkpt lat="45.970085144043" lon="7.20886707305908">
    <ele>1514.42211914062</ele>
    <time>2012-06-25T15:28:42Z</time>
   </trkpt>
   <trkpt lat="45.9700546264648" lon="7.20886754989624">
    <ele>1514.66662597656</ele>
    <time>2012-06-25T15:28:43Z</time>
   </trkpt>
   <trkpt lat="45.9700241088867" lon="7.2088680267334">
    <ele>1514.9111328125</ele>
    <time>2012-06-25T15:28:44Z</time>
   </trkpt>
   <trkpt lat="45.9698143005371" lon="7.20884084701538">
    <ele>1516.62219238281</ele>
    <time>2012-06-25T15:28:51Z</time>
   </trkpt>
   <trkpt lat="45.969783782959" lon="7.20883131027222">
    <ele>1516.86669921875</ele>
    <time>2012-06-25T15:28:52Z</time>
   </trkpt>
   <trkpt lat="45.9697570800781" lon="7.20882272720337">
    <ele>1517.11108398438</ele>
    <time>2012-06-25T15:28:53Z</time>
   </trkpt>
   <trkpt lat="45.9697303771973" lon="7.20881462097168">
    <ele>1517.35546875</ele>
    <time>2012-06-25T15:28:54Z</time>
   </trkpt>
   <trkpt lat="45.9696998596191" lon="7.20880365371704">
    <ele>1517.59997558594</ele>
    <time>2012-06-25T15:28:55Z</time>
   </trkpt>
   <trkpt lat="45.9696731567383" lon="7.20879220962524">
    <ele>1517.59997558594</ele>
    <time>2012-06-25T15:28:56Z</time>
   </trkpt>
   <trkpt lat="45.9696426391602" lon="7.20878076553345">
    <ele>1517.81811523438</ele>
    <time>2012-06-25T15:28:57Z</time>
   </trkpt>
   <trkpt lat="45.9695854187012" lon="7.20875215530396">
    <ele>1518.25451660156</ele>
    <time>2012-06-25T15:28:59Z</time>
   </trkpt>
   <trkpt lat="45.969554901123" lon="7.20873785018921">
    <ele>1518.47265625</ele>
    <time>2012-06-25T15:29:00Z</time>
   </trkpt>
   <trkpt lat="45.9695243835449" lon="7.20873165130615">
    <ele>1518.69091796875</ele>
    <time>2012-06-25T15:29:01Z</time>
   </trkpt>
   <trkpt lat="45.9694709777832" lon="7.20871734619141">
    <ele>1519.12731933594</ele>
    <time>2012-06-25T15:29:03Z</time>
   </trkpt>
   <trkpt lat="45.9694442749023" lon="7.20870780944824">
    <ele>1519.34545898438</ele>
    <time>2012-06-25T15:29:04Z</time>
   </trkpt>
   <trkpt lat="45.9694175720215" lon="7.2086968421936">
    <ele>1519.56359863281</ele>
    <time>2012-06-25T15:29:05Z</time>
   </trkpt>
   <trkpt lat="45.9693870544434" lon="7.20869207382202">
    <ele>1519.78186035156</ele>
    <time>2012-06-25T15:29:06Z</time>
   </trkpt>
   <trkpt lat="45.9693603515625" lon="7.20868873596191">
    <ele>1520</ele>
    <time>2012-06-25T15:29:07Z</time>
   </trkpt>
   <trkpt lat="45.9692687988281" lon="7.20868730545044">
    <ele>1520</ele>
    <time>2012-06-25T15:29:10Z</time>
   </trkpt>
   <trkpt lat="45.9692420959473" lon="7.20867347717285">
    <ele>1520.40002441406</ele>
    <time>2012-06-25T15:29:11Z</time>
   </trkpt>
   <trkpt lat="45.9692153930664" lon="7.20866394042969">
    <ele>1520.80004882812</ele>
    <time>2012-06-25T15:29:12Z</time>
   </trkpt>
   <trkpt lat="45.9691886901856" lon="7.20865392684936">
    <ele>1521.19995117188</ele>
    <time>2012-06-25T15:29:13Z</time>
   </trkpt>
   <trkpt lat="45.9691619873047" lon="7.20864486694336">
    <ele>1521.59997558594</ele>
    <time>2012-06-25T15:29:14Z</time>
   </trkpt>
   <trkpt lat="45.9691352844238" lon="7.20863151550293">
    <ele>1522</ele>
    <time>2012-06-25T15:29:15Z</time>
   </trkpt>
   <trkpt lat="45.969108581543" lon="7.20861911773682">
    <ele>1522</ele>
    <time>2012-06-25T15:29:16Z</time>
   </trkpt>
   <trkpt lat="45.9690017700195" lon="7.20855045318604">
    <ele>1523.14282226562</ele>
    <time>2012-06-25T15:29:20Z</time>
   </trkpt>
   <trkpt lat="45.9689750671387" lon="7.20854234695435">
    <ele>1523.42858886719</ele>
    <time>2012-06-25T15:29:21Z</time>
   </trkpt>
   <trkpt lat="45.9689445495606" lon="7.20853185653686">
    <ele>1523.71423339844</ele>
    <time>2012-06-25T15:29:22Z</time>
   </trkpt>
   <trkpt lat="45.9689178466797" lon="7.20851612091064">
    <ele>1524</ele>
    <time>2012-06-25T15:29:23Z</time>
   </trkpt>
   <trkpt lat="45.968864440918" lon="7.20847749710083">
    <ele>1524</ele>
    <time>2012-06-25T15:29:25Z</time>
   </trkpt>
   <trkpt lat="45.9687805175781" lon="7.20844221115112">
    <ele>1524.75</ele>
    <time>2012-06-25T15:29:28Z</time>
   </trkpt>
   <trkpt lat="45.9687538146973" lon="7.20842981338501">
    <ele>1525</ele>
    <time>2012-06-25T15:29:29Z</time>
   </trkpt>
   <trkpt lat="45.9687232971191" lon="7.20841836929321">
    <ele>1525.25</ele>
    <time>2012-06-25T15:29:30Z</time>
   </trkpt>
   <trkpt lat="45.968692779541" lon="7.20840644836426">
    <ele>1525.5</ele>
    <time>2012-06-25T15:29:31Z</time>
   </trkpt>
   <trkpt lat="45.9686660766602" lon="7.20839643478394">
    <ele>1525.75</ele>
    <time>2012-06-25T15:29:32Z</time>
   </trkpt>
   <trkpt lat="45.9686393737793" lon="7.2083888053894">
    <ele>1526</ele>
    <time>2012-06-25T15:29:33Z</time>
   </trkpt>
   <trkpt lat="45.9685325622559" lon="7.2083568572998">
    <ele>1526</ele>
    <time>2012-06-25T15:29:37Z</time>
   </trkpt>
   <trkpt lat="45.9684562683106" lon="7.20834064483643">
    <ele>1526.94287109375</ele>
    <time>2012-06-25T15:29:40Z</time>
   </trkpt>
   <trkpt lat="45.9684295654297" lon="7.20833396911621">
    <ele>1527.25708007812</ele>
    <time>2012-06-25T15:29:41Z</time>
   </trkpt>
   <trkpt lat="45.9684028625488" lon="7.20832967758179">
    <ele>1527.57141113281</ele>
    <time>2012-06-25T15:29:42Z</time>
   </trkpt>
   <trkpt lat="45.9683723449707" lon="7.20832300186157">
    <ele>1527.88562011719</ele>
    <time>2012-06-25T15:29:43Z</time>
   </trkpt>
   <trkpt lat="45.9683418273926" lon="7.20832443237305">
    <ele>1528.19995117188</ele>
    <time>2012-06-25T15:29:44Z</time>
   </trkpt>
   <trkpt lat="45.9681930541992" lon="7.2083044052124">
    <ele>1528.19995117188</ele>
    <time>2012-06-25T15:29:49Z</time>
   </trkpt>
   <trkpt lat="45.9681282043457" lon="7.20831632614136">
    <ele>1529</ele>
    <time>2012-06-25T15:29:51Z</time>
   </trkpt>
   <trkpt lat="45.9680938720703" lon="7.20831918716431">
    <ele>1529.39990234375</ele>
    <time>2012-06-25T15:29:52Z</time>
   </trkpt>
   <trkpt lat="45.9680595397949" lon="7.20832109451294">
    <ele>1529.79992675781</ele>
    <time>2012-06-25T15:29:53Z</time>
   </trkpt>
   <trkpt lat="45.9680252075195" lon="7.20832538604736">
    <ele>1530.19995117188</ele>
    <time>2012-06-25T15:29:54Z</time>
   </trkpt>
   <trkpt lat="45.9679946899414" lon="7.20833206176758">
    <ele>1530.59997558594</ele>
    <time>2012-06-25T15:29:55Z</time>
   </trkpt>
   <trkpt lat="45.9679336547852" lon="7.20834350585938">
    <ele>1530.59997558594</ele>
    <time>2012-06-25T15:29:57Z</time>
   </trkpt>
   <trkpt lat="45.9678192138672" lon="7.20835828781128">
    <ele>1531.57775878906</ele>
    <time>2012-06-25T15:30:01Z</time>
   </trkpt>
   <trkpt lat="45.9677925109863" lon="7.20836210250854">
    <ele>1531.822265625</ele>
    <time>2012-06-25T15:30:02Z</time>
   </trkpt>
   <trkpt lat="45.9677658081055" lon="7.20836973190308">
    <ele>1532.06665039062</ele>
    <time>2012-06-25T15:30:03Z</time>
   </trkpt>
   <trkpt lat="45.9677391052246" lon="7.20837926864624">
    <ele>1532.31115722656</ele>
    <time>2012-06-25T15:30:04Z</time>
   </trkpt>
   <trkpt lat="45.9677124023438" lon="7.20838689804077">
    <ele>1532.55554199219</ele>
    <time>2012-06-25T15:30:05Z</time>
   </trkpt>
   <trkpt lat="45.9676818847656" lon="7.20839643478394">
    <ele>1532.80004882812</ele>
    <time>2012-06-25T15:30:06Z</time>
   </trkpt>
   <trkpt lat="45.9676246643066" lon="7.20841121673584">
    <ele>1532.80004882812</ele>
    <time>2012-06-25T15:30:08Z</time>
   </trkpt>
   <trkpt lat="45.9675216674805" lon="7.20843744277954">
    <ele>1533.94287109375</ele>
    <time>2012-06-25T15:30:12Z</time>
   </trkpt>
   <trkpt lat="45.9674987792969" lon="7.2084469795227">
    <ele>1534.22863769531</ele>
    <time>2012-06-25T15:30:13Z</time>
   </trkpt>
   <trkpt lat="45.967472076416" lon="7.20845699310303">
    <ele>1534.51428222656</ele>
    <time>2012-06-25T15:30:14Z</time>
   </trkpt>
   <trkpt lat="45.9674453735352" lon="7.2084698677063">
    <ele>1534.80004882812</ele>
    <time>2012-06-25T15:30:15Z</time>
   </trkpt>
   <trkpt lat="45.9673957824707" lon="7.20849323272705">
    <ele>1534.80004882812</ele>
    <time>2012-06-25T15:30:17Z</time>
   </trkpt>
   <trkpt lat="45.9671897888184" lon="7.20859813690186">
    <ele>1536.40002441406</ele>
    <time>2012-06-25T15:30:25Z</time>
   </trkpt>
   <trkpt lat="45.9671630859375" lon="7.20861148834228">
    <ele>1536.59997558594</ele>
    <time>2012-06-25T15:30:26Z</time>
   </trkpt>
   <trkpt lat="45.9671363830566" lon="7.20862054824829">
    <ele>1536.79992675781</ele>
    <time>2012-06-25T15:30:27Z</time>
   </trkpt>
   <trkpt lat="45.9671096801758" lon="7.20863246917725">
    <ele>1537</ele>
    <time>2012-06-25T15:30:28Z</time>
   </trkpt>
   <trkpt lat="45.9670829772949" lon="7.20865058898926">
    <ele>1537.19995117188</ele>
    <time>2012-06-25T15:30:29Z</time>
   </trkpt>
   <trkpt lat="45.9670104980469" lon="7.2086992263794">
    <ele>1537.19995117188</ele>
    <time>2012-06-25T15:30:32Z</time>
   </trkpt>
   <trkpt lat="45.9668388366699" lon="7.20882558822632">
    <ele>1538.36657714844</ele>
    <time>2012-06-25T15:30:39Z</time>
   </trkpt>
   <trkpt lat="45.9668121337891" lon="7.20884132385254">
    <ele>1538.53332519531</ele>
    <time>2012-06-25T15:30:40Z</time>
   </trkpt>
   <trkpt lat="45.9667930603027" lon="7.20885372161865">
    <ele>1538.69995117188</ele>
    <time>2012-06-25T15:30:41Z</time>
   </trkpt>
   <trkpt lat="45.9667663574219" lon="7.20886850357056">
    <ele>1538.86657714844</ele>
    <time>2012-06-25T15:30:42Z</time>
   </trkpt>
   <trkpt lat="45.9667434692383" lon="7.20888519287109">
    <ele>1539.03332519531</ele>
    <time>2012-06-25T15:30:43Z</time>
   </trkpt>
   <trkpt lat="45.9667205810547" lon="7.20890235900879">
    <ele>1539.19995117188</ele>
    <time>2012-06-25T15:30:44Z</time>
   </trkpt>
   <trkpt lat="45.9666938781738" lon="7.20892477035522">
    <ele>1539.19995117188</ele>
    <time>2012-06-25T15:30:45Z</time>
   </trkpt>
   <trkpt lat="45.9665412902832" lon="7.20904111862183">
    <ele>1540.52001953125</ele>
    <time>2012-06-25T15:30:51Z</time>
   </trkpt>
   <trkpt lat="45.9665145874023" lon="7.20905780792236">
    <ele>1540.73999023438</ele>
    <time>2012-06-25T15:30:52Z</time>
   </trkpt>
   <trkpt lat="45.9664916992188" lon="7.20907974243164">
    <ele>1540.9599609375</ele>
    <time>2012-06-25T15:30:53Z</time>
   </trkpt>
   <trkpt lat="45.9664688110352" lon="7.2090950012207">
    <ele>1541.18005371094</ele>
    <time>2012-06-25T15:30:54Z</time>
   </trkpt>
   <trkpt lat="45.9664421081543" lon="7.20911264419556">
    <ele>1541.40002441406</ele>
    <time>2012-06-25T15:30:55Z</time>
   </trkpt>
   <trkpt lat="45.9663391113281" lon="7.2091908454895">
    <ele>1541.40002441406</ele>
    <time>2012-06-25T15:30:59Z</time>
   </trkpt>
   <trkpt lat="45.9662857055664" lon="7.2092170715332">
    <ele>1541.84448242188</ele>
    <time>2012-06-25T15:31:01Z</time>
   </trkpt>
   <trkpt lat="45.9662017822266" lon="7.20927476882935">
    <ele>1542.51110839844</ele>
    <time>2012-06-25T15:31:04Z</time>
   </trkpt>
   <trkpt lat="45.9661712646484" lon="7.20929479598999">
    <ele>1542.7333984375</ele>
    <time>2012-06-25T15:31:05Z</time>
   </trkpt>
   <trkpt lat="45.9661445617676" lon="7.20931005477905">
    <ele>1542.95556640625</ele>
    <time>2012-06-25T15:31:06Z</time>
   </trkpt>
   <trkpt lat="45.966121673584" lon="7.2093243598938">
    <ele>1543.17785644531</ele>
    <time>2012-06-25T15:31:07Z</time>
   </trkpt>
   <trkpt lat="45.9660949707031" lon="7.20933866500854">
    <ele>1543.40002441406</ele>
    <time>2012-06-25T15:31:08Z</time>
   </trkpt>
   <trkpt lat="45.9659729003906" lon="7.20940637588501">
    <ele>1543.40002441406</ele>
    <time>2012-06-25T15:31:13Z</time>
   </trkpt>
   <trkpt lat="45.9659233093262" lon="7.20942497253418">
    <ele>1544.13330078125</ele>
    <time>2012-06-25T15:31:15Z</time>
   </trkpt>
   <trkpt lat="45.9658966064453" lon="7.20943117141724">
    <ele>1544.5</ele>
    <time>2012-06-25T15:31:16Z</time>
   </trkpt>
   <trkpt lat="45.9658699035644" lon="7.20943832397461">
    <ele>1544.86669921875</ele>
    <time>2012-06-25T15:31:17Z</time>
   </trkpt>
   <trkpt lat="45.9658393859863" lon="7.20944356918335">
    <ele>1545.23327636719</ele>
    <time>2012-06-25T15:31:18Z</time>
   </trkpt>
   <trkpt lat="45.9658088684082" lon="7.20944690704346">
    <ele>1545.59997558594</ele>
    <time>2012-06-25T15:31:19Z</time>
   </trkpt>
   <trkpt lat="45.9657516479492" lon="7.2094554901123">
    <ele>1545.59997558594</ele>
    <time>2012-06-25T15:31:21Z</time>
   </trkpt>
   <trkpt lat="45.9656982421875" lon="7.20945644378662">
    <ele>1545.93334960938</ele>
    <time>2012-06-25T15:31:23Z</time>
   </trkpt>
   <trkpt lat="45.965648651123" lon="7.20945978164673">
    <ele>1546.2666015625</ele>
    <time>2012-06-25T15:31:25Z</time>
   </trkpt>
   <trkpt lat="45.9655647277832" lon="7.20945930480957">
    <ele>1546.7666015625</ele>
    <time>2012-06-25T15:31:28Z</time>
   </trkpt>
   <trkpt lat="45.9655380249023" lon="7.20945930480957">
    <ele>1546.93334960938</ele>
    <time>2012-06-25T15:31:29Z</time>
   </trkpt>
   <trkpt lat="45.9655113220215" lon="7.20945644378662">
    <ele>1547.09997558594</ele>
    <time>2012-06-25T15:31:30Z</time>
   </trkpt>
   <trkpt lat="45.9654846191406" lon="7.20945358276367">
    <ele>1547.2666015625</ele>
    <time>2012-06-25T15:31:31Z</time>
   </trkpt>
   <trkpt lat="45.9654579162598" lon="7.20945024490356">
    <ele>1547.43334960938</ele>
    <time>2012-06-25T15:31:32Z</time>
   </trkpt>
   <trkpt lat="45.9654273986816" lon="7.20944881439209">
    <ele>1547.59997558594</ele>
    <time>2012-06-25T15:31:33Z</time>
   </trkpt>
   <trkpt lat="45.965274810791" lon="7.20944023132324">
    <ele>1547.59997558594</ele>
    <time>2012-06-25T15:31:39Z</time>
   </trkpt>
   <trkpt lat="45.9652481079102" lon="7.20943117141724">
    <ele>1548</ele>
    <time>2012-06-25T15:31:40Z</time>
   </trkpt>
   <trkpt lat="45.9652214050293" lon="7.20942544937134">
    <ele>1548.40002441406</ele>
    <time>2012-06-25T15:31:41Z</time>
   </trkpt>
   <trkpt lat="45.9651908874512" lon="7.20942115783691">
    <ele>1548.79992675781</ele>
    <time>2012-06-25T15:31:42Z</time>
   </trkpt>
   <trkpt lat="45.9651641845703" lon="7.20942115783691">
    <ele>1549.19995117188</ele>
    <time>2012-06-25T15:31:43Z</time>
   </trkpt>
   <trkpt lat="45.9651374816894" lon="7.20942258834839">
    <ele>1549.59997558594</ele>
    <time>2012-06-25T15:31:44Z</time>
   </trkpt>
   <trkpt lat="45.9651069641113" lon="7.20941829681396">
    <ele>1549.59997558594</ele>
    <time>2012-06-25T15:31:45Z</time>
   </trkpt>
   <trkpt lat="45.9650802612305" lon="7.20941066741943">
    <ele>1549.84448242188</ele>
    <time>2012-06-25T15:31:46Z</time>
   </trkpt>
   <trkpt lat="45.9649505615234" lon="7.20941400527954">
    <ele>1551.06665039062</ele>
    <time>2012-06-25T15:31:51Z</time>
   </trkpt>
   <trkpt lat="45.9649238586426" lon="7.20941495895386">
    <ele>1551.31115722656</ele>
    <time>2012-06-25T15:31:52Z</time>
   </trkpt>
   <trkpt lat="45.9649085998535" lon="7.2094202041626">
    <ele>1551.55554199219</ele>
    <time>2012-06-25T15:31:53Z</time>
   </trkpt>
   <trkpt lat="45.9648857116699" lon="7.20943021774292">
    <ele>1551.80004882812</ele>
    <time>2012-06-25T15:31:54Z</time>
   </trkpt>
   <trkpt lat="45.9648170471191" lon="7.20947313308716">
    <ele>1551.80004882812</ele>
    <time>2012-06-25T15:31:57Z</time>
   </trkpt>
   <trkpt lat="45.9647560119629" lon="7.2094931602478">
    <ele>1552.74291992188</ele>
    <time>2012-06-25T15:32:00Z</time>
   </trkpt>
   <trkpt lat="45.964729309082" lon="7.20949220657349">
    <ele>1553.05712890625</ele>
    <time>2012-06-25T15:32:01Z</time>
   </trkpt>
   <trkpt lat="45.9646987915039" lon="7.20949220657349">
    <ele>1553.37145996094</ele>
    <time>2012-06-25T15:32:02Z</time>
   </trkpt>
   <trkpt lat="45.9646682739258" lon="7.20948839187622">
    <ele>1553.68566894531</ele>
    <time>2012-06-25T15:32:03Z</time>
   </trkpt>
   <trkpt lat="45.9646339416504" lon="7.20948171615601">
    <ele>1554</ele>
    <time>2012-06-25T15:32:04Z</time>
   </trkpt>
   <trkpt lat="45.9646034240723" lon="7.2094783782959">
    <ele>1554</ele>
    <time>2012-06-25T15:32:05Z</time>
   </trkpt>
   <trkpt lat="45.9645729064941" lon="7.20947647094726">
    <ele>1554.23327636719</ele>
    <time>2012-06-25T15:32:06Z</time>
   </trkpt>
   <trkpt lat="45.9645118713379" lon="7.20947599411011">
    <ele>1554.69995117188</ele>
    <time>2012-06-25T15:32:08Z</time>
   </trkpt>
   <trkpt lat="45.9644203186035" lon="7.20947074890137">
    <ele>1555.40002441406</ele>
    <time>2012-06-25T15:32:11Z</time>
   </trkpt>
   <trkpt lat="45.9643898010254" lon="7.20946836471558">
    <ele>1555.63330078125</ele>
    <time>2012-06-25T15:32:12Z</time>
   </trkpt>
   <trkpt lat="45.9643630981445" lon="7.20946216583252">
    <ele>1555.86669921875</ele>
    <time>2012-06-25T15:32:13Z</time>
   </trkpt>
   <trkpt lat="45.9643325805664" lon="7.2094578742981">
    <ele>1556.09997558594</ele>
    <time>2012-06-25T15:32:14Z</time>
   </trkpt>
   <trkpt lat="45.9643058776856" lon="7.20945501327515">
    <ele>1556.33325195312</ele>
    <time>2012-06-25T15:32:15Z</time>
   </trkpt>
   <trkpt lat="45.964183807373" lon="7.20943784713745">
    <ele>1557.2666015625</ele>
    <time>2012-06-25T15:32:19Z</time>
   </trkpt>
   <trkpt lat="45.9641571044922" lon="7.20943355560303">
    <ele>1557.5</ele>
    <time>2012-06-25T15:32:20Z</time>
   </trkpt>
   <trkpt lat="45.9641304016113" lon="7.20943021774292">
    <ele>1557.73327636719</ele>
    <time>2012-06-25T15:32:21Z</time>
   </trkpt>
   <trkpt lat="45.9640998840332" lon="7.20943212509155">
    <ele>1557.96667480469</ele>
    <time>2012-06-25T15:32:22Z</time>
   </trkpt>
   <trkpt lat="45.9640693664551" lon="7.20943403244018">
    <ele>1558.19995117188</ele>
    <time>2012-06-25T15:32:23Z</time>
   </trkpt>
   <trkpt lat="45.9640083312988" lon="7.20943021774292">
    <ele>1558.19995117188</ele>
    <time>2012-06-25T15:32:25Z</time>
   </trkpt>
   <trkpt lat="45.9638862609863" lon="7.20943546295166">
    <ele>1559.18823242188</ele>
    <time>2012-06-25T15:32:29Z</time>
   </trkpt>
   <trkpt lat="45.9638557434082" lon="7.20943403244018">
    <ele>1559.43530273438</ele>
    <time>2012-06-25T15:32:30Z</time>
   </trkpt>
   <trkpt lat="45.9638252258301" lon="7.20944166183472">
    <ele>1559.68237304688</ele>
    <time>2012-06-25T15:32:31Z</time>
   </trkpt>
   <trkpt lat="45.9637985229492" lon="7.20944356918335">
    <ele>1559.92944335938</ele>
    <time>2012-06-25T15:32:32Z</time>
   </trkpt>
   <trkpt lat="45.9637680053711" lon="7.20944309234619">
    <ele>1560.17651367188</ele>
    <time>2012-06-25T15:32:33Z</time>
   </trkpt>
   <trkpt lat="45.9635963439941" lon="7.20944166183472">
    <ele>1561.65881347656</ele>
    <time>2012-06-25T15:32:39Z</time>
   </trkpt>
   <trkpt lat="45.9635696411133" lon="7.20944738388062">
    <ele>1561.90588378906</ele>
    <time>2012-06-25T15:32:40Z</time>
   </trkpt>
   <trkpt lat="45.9635391235352" lon="7.2094521522522">
    <ele>1562.15295410156</ele>
    <time>2012-06-25T15:32:41Z</time>
   </trkpt>
   <trkpt lat="45.9635047912598" lon="7.2094612121582">
    <ele>1562.40002441406</ele>
    <time>2012-06-25T15:32:42Z</time>
   </trkpt>
   <trkpt lat="45.9634742736816" lon="7.20946455001831">
    <ele>1562.40002441406</ele>
    <time>2012-06-25T15:32:43Z</time>
   </trkpt>
   <trkpt lat="45.9632682800293" lon="7.20950174331665">
    <ele>1563.67272949219</ele>
    <time>2012-06-25T15:32:50Z</time>
   </trkpt>
   <trkpt lat="45.9632377624512" lon="7.20950555801392">
    <ele>1563.85461425781</ele>
    <time>2012-06-25T15:32:51Z</time>
   </trkpt>
   <trkpt lat="45.9632110595703" lon="7.20950555801392">
    <ele>1564.03637695312</ele>
    <time>2012-06-25T15:32:52Z</time>
   </trkpt>
   <trkpt lat="45.9631805419922" lon="7.20951128005982">
    <ele>1564.21826171875</ele>
    <time>2012-06-25T15:32:53Z</time>
   </trkpt>
   <trkpt lat="45.9631538391113" lon="7.20951747894287">
    <ele>1564.40002441406</ele>
    <time>2012-06-25T15:32:54Z</time>
   </trkpt>
   <trkpt lat="45.9630699157715" lon="7.20952606201172">
    <ele>1564.40002441406</ele>
    <time>2012-06-25T15:32:57Z</time>
   </trkpt>
   <trkpt lat="45.9629516601562" lon="7.20954418182373">
    <ele>1565.28576660156</ele>
    <time>2012-06-25T15:33:01Z</time>
   </trkpt>
   <trkpt lat="45.9629211425781" lon="7.209547996521">
    <ele>1565.50720214844</ele>
    <time>2012-06-25T15:33:02Z</time>
   </trkpt>
   <trkpt lat="45.962890625" lon="7.20955181121826">
    <ele>1565.72863769531</ele>
    <time>2012-06-25T15:33:03Z</time>
   </trkpt>
   <trkpt lat="45.9628639221191" lon="7.20955801010132">
    <ele>1565.94995117188</ele>
    <time>2012-06-25T15:33:04Z</time>
   </trkpt>
   <trkpt lat="45.9628372192383" lon="7.20956182479858">
    <ele>1566.17138671875</ele>
    <time>2012-06-25T15:33:05Z</time>
   </trkpt>
   <trkpt lat="45.9626426696777" lon="7.2095685005188">
    <ele>1567.72143554688</ele>
    <time>2012-06-25T15:33:12Z</time>
   </trkpt>
   <trkpt lat="45.9626159667969" lon="7.2095685005188">
    <ele>1567.94287109375</ele>
    <time>2012-06-25T15:33:13Z</time>
   </trkpt>
   <trkpt lat="45.962589263916" lon="7.20956897735596">
    <ele>1568.16430664062</ele>
    <time>2012-06-25T15:33:14Z</time>
   </trkpt>
   <trkpt lat="45.9625663757324" lon="7.20957088470459">
    <ele>1568.3857421875</ele>
    <time>2012-06-25T15:33:15Z</time>
   </trkpt>
   <trkpt lat="45.9625396728516" lon="7.20956707000732">
    <ele>1568.60717773438</ele>
    <time>2012-06-25T15:33:16Z</time>
   </trkpt>
   <trkpt lat="45.9624061584473" lon="7.20955991744995">
    <ele>1569.71423339844</ele>
    <time>2012-06-25T15:33:21Z</time>
   </trkpt>
   <trkpt lat="45.9623756408691" lon="7.20955991744995">
    <ele>1569.93566894531</ele>
    <time>2012-06-25T15:33:22Z</time>
   </trkpt>
   <trkpt lat="45.9623489379883" lon="7.20955896377564">
    <ele>1570.15710449219</ele>
    <time>2012-06-25T15:33:23Z</time>
   </trkpt>
   <trkpt lat="45.9623222351074" lon="7.20955467224121">
    <ele>1570.37854003906</ele>
    <time>2012-06-25T15:33:24Z</time>
   </trkpt>
   <trkpt lat="45.9622917175293" lon="7.2095537185669">
    <ele>1570.59997558594</ele>
    <time>2012-06-25T15:33:25Z</time>
   </trkpt>
   <trkpt lat="45.9622039794922" lon="7.20953941345215">
    <ele>1570.59997558594</ele>
    <time>2012-06-25T15:33:28Z</time>
   </trkpt>
   <trkpt lat="45.9620895385742" lon="7.20950889587402">
    <ele>1571.59997558594</ele>
    <time>2012-06-25T15:33:32Z</time>
   </trkpt>
   <trkpt lat="45.9620628356934" lon="7.20950078964233">
    <ele>1571.84997558594</ele>
    <time>2012-06-25T15:33:33Z</time>
   </trkpt>
   <trkpt lat="45.9620323181152" lon="7.20949506759644">
    <ele>1572.09997558594</ele>
    <time>2012-06-25T15:33:34Z</time>
   </trkpt>
   <trkpt lat="45.9620056152344" lon="7.20948600769043">
    <ele>1572.34997558594</ele>
    <time>2012-06-25T15:33:35Z</time>
   </trkpt>
   <trkpt lat="45.9619750976562" lon="7.20947647094726">
    <ele>1572.59997558594</ele>
    <time>2012-06-25T15:33:36Z</time>
   </trkpt>
   <trkpt lat="45.9619483947754" lon="7.20946598052978">
    <ele>1572.59997558594</ele>
    <time>2012-06-25T15:33:37Z</time>
   </trkpt>
   <trkpt lat="45.9617881774902" lon="7.2094030380249">
    <ele>1573.92626953125</ele>
    <time>2012-06-25T15:33:43Z</time>
   </trkpt>
   <trkpt lat="45.9617614746094" lon="7.20939254760742">
    <ele>1574.14733886719</ele>
    <time>2012-06-25T15:33:44Z</time>
   </trkpt>
   <trkpt lat="45.9617309570312" lon="7.20938444137573">
    <ele>1574.36840820312</ele>
    <time>2012-06-25T15:33:45Z</time>
   </trkpt>
   <trkpt lat="45.9617042541504" lon="7.20937585830688">
    <ele>1574.58947753906</ele>
    <time>2012-06-25T15:33:46Z</time>
   </trkpt>
   <trkpt lat="45.9616775512695" lon="7.2093653678894">
    <ele>1574.810546875</ele>
    <time>2012-06-25T15:33:47Z</time>
   </trkpt>
   <trkpt lat="45.9615173339844" lon="7.20928525924683">
    <ele>1576.13684082031</ele>
    <time>2012-06-25T15:33:53Z</time>
   </trkpt>
   <trkpt lat="45.9614906311035" lon="7.2092695236206">
    <ele>1576.35791015625</ele>
    <time>2012-06-25T15:33:54Z</time>
   </trkpt>
   <trkpt lat="45.9614639282227" lon="7.20925903320312">
    <ele>1576.57897949219</ele>
    <time>2012-06-25T15:33:55Z</time>
   </trkpt>
   <trkpt lat="45.9614372253418" lon="7.20924711227417">
    <ele>1576.80004882812</ele>
    <time>2012-06-25T15:33:56Z</time>
   </trkpt>
   <trkpt lat="45.9613342285156" lon="7.2091965675354">
    <ele>1576.80004882812</ele>
    <time>2012-06-25T15:34:00Z</time>
   </trkpt>
   <trkpt lat="45.9612884521484" lon="7.20917177200317">
    <ele>1577.26672363281</ele>
    <time>2012-06-25T15:34:02Z</time>
   </trkpt>
   <trkpt lat="45.9612617492676" lon="7.20916080474854">
    <ele>1577.5</ele>
    <time>2012-06-25T15:34:03Z</time>
   </trkpt>
   <trkpt lat="45.9612350463867" lon="7.20915174484253">
    <ele>1577.7333984375</ele>
    <time>2012-06-25T15:34:04Z</time>
   </trkpt>
   <trkpt lat="45.9612083435059" lon="7.20914030075073">
    <ele>1577.96667480469</ele>
    <time>2012-06-25T15:34:05Z</time>
   </trkpt>
   <trkpt lat="45.961181640625" lon="7.20912837982178">
    <ele>1578.20007324219</ele>
    <time>2012-06-25T15:34:06Z</time>
   </trkpt>
   <trkpt lat="45.9609527587891" lon="7.20903301239014">
    <ele>1580.06665039062</ele>
    <time>2012-06-25T15:34:14Z</time>
   </trkpt>
   <trkpt lat="45.9609222412109" lon="7.20902061462402">
    <ele>1580.30004882812</ele>
    <time>2012-06-25T15:34:15Z</time>
   </trkpt>
   <trkpt lat="45.9608955383301" lon="7.20900869369507">
    <ele>1580.53332519531</ele>
    <time>2012-06-25T15:34:16Z</time>
   </trkpt>
   <trkpt lat="45.960865020752" lon="7.2089991569519">
    <ele>1580.76672363281</ele>
    <time>2012-06-25T15:34:17Z</time>
   </trkpt>
   <trkpt lat="45.9608345031738" lon="7.20898723602295">
    <ele>1581</ele>
    <time>2012-06-25T15:34:18Z</time>
   </trkpt>
   <trkpt lat="45.960693359375" lon="7.20893001556396">
    <ele>1581</ele>
    <time>2012-06-25T15:34:23Z</time>
   </trkpt>
   <trkpt lat="45.9606399536133" lon="7.20890522003174">
    <ele>1581.73327636719</ele>
    <time>2012-06-25T15:34:25Z</time>
   </trkpt>
   <trkpt lat="45.9606094360352" lon="7.20889616012573">
    <ele>1582.09997558594</ele>
    <time>2012-06-25T15:34:26Z</time>
   </trkpt>
   <trkpt lat="45.960578918457" lon="7.20888757705688">
    <ele>1582.46667480469</ele>
    <time>2012-06-25T15:34:27Z</time>
   </trkpt>
   <trkpt lat="45.9605522155762" lon="7.20887994766235">
    <ele>1582.83325195312</ele>
    <time>2012-06-25T15:34:28Z</time>
   </trkpt>
   <trkpt lat="45.9605178833008" lon="7.20886945724487">
    <ele>1583.19995117188</ele>
    <time>2012-06-25T15:34:29Z</time>
   </trkpt>
   <trkpt lat="45.9604263305664" lon="7.20883846282959">
    <ele>1583.19995117188</ele>
    <time>2012-06-25T15:34:32Z</time>
   </trkpt>
   <trkpt lat="45.9601440429688" lon="7.2087664604187">
    <ele>1584.72302246094</ele>
    <time>2012-06-25T15:34:41Z</time>
   </trkpt>
   <trkpt lat="45.9601135253906" lon="7.20875883102417">
    <ele>1584.89233398438</ele>
    <time>2012-06-25T15:34:42Z</time>
   </trkpt>
   <trkpt lat="45.9600791931152" lon="7.2087516784668">
    <ele>1585.0615234375</ele>
    <time>2012-06-25T15:34:43Z</time>
   </trkpt>
   <trkpt lat="45.9600486755371" lon="7.20874452590942">
    <ele>1585.23083496094</ele>
    <time>2012-06-25T15:34:44Z</time>
   </trkpt>
   <trkpt lat="45.9600143432617" lon="7.208740234375">
    <ele>1585.40002441406</ele>
    <time>2012-06-25T15:34:45Z</time>
   </trkpt>
   <trkpt lat="45.959888458252" lon="7.20871591567993">
    <ele>1585.40002441406</ele>
    <time>2012-06-25T15:34:49Z</time>
   </trkpt>
   <trkpt lat="45.9597930908203" lon="7.20870304107666">
    <ele>1586.42858886719</ele>
    <time>2012-06-25T15:34:52Z</time>
   </trkpt>
   <trkpt lat="45.9597625732422" lon="7.20869779586792">
    <ele>1586.771484375</ele>
    <time>2012-06-25T15:34:53Z</time>
   </trkpt>
   <trkpt lat="45.9597320556641" lon="7.20869207382202">
    <ele>1587.11437988281</ele>
    <time>2012-06-25T15:34:54Z</time>
   </trkpt>
   <trkpt lat="45.9596977233887" lon="7.20868635177612">
    <ele>1587.45715332031</ele>
    <time>2012-06-25T15:34:55Z</time>
   </trkpt>
   <trkpt lat="45.9596710205078" lon="7.20868015289307">
    <ele>1587.80004882812</ele>
    <time>2012-06-25T15:34:56Z</time>
   </trkpt>
   <trkpt lat="45.9596061706543" lon="7.20867252349854">
    <ele>1587.80004882812</ele>
    <time>2012-06-25T15:34:58Z</time>
   </trkpt>
   <trkpt lat="45.959400177002" lon="7.20864772796631">
    <ele>1589</ele>
    <time>2012-06-25T15:35:04Z</time>
   </trkpt>
   <trkpt lat="45.9593276977539" lon="7.20864915847778">
    <ele>1589.40002441406</ele>
    <time>2012-06-25T15:35:06Z</time>
   </trkpt>
   <trkpt lat="45.9592933654785" lon="7.20864677429199">
    <ele>1589.59997558594</ele>
    <time>2012-06-25T15:35:07Z</time>
   </trkpt>
   <trkpt lat="45.9592552185059" lon="7.20864820480347">
    <ele>1589.80004882812</ele>
    <time>2012-06-25T15:35:08Z</time>
   </trkpt>
   <trkpt lat="45.9592247009277" lon="7.20864772796631">
    <ele>1590</ele>
    <time>2012-06-25T15:35:09Z</time>
   </trkpt>
   <trkpt lat="45.9590339660644" lon="7.20864820480347">
    <ele>1590</ele>
    <time>2012-06-25T15:35:15Z</time>
   </trkpt>
   <trkpt lat="45.9589691162109" lon="7.20865058898926">
    <ele>1590.73327636719</ele>
    <time>2012-06-25T15:35:17Z</time>
   </trkpt>
   <trkpt lat="45.9589385986328" lon="7.20865154266357">
    <ele>1591.09997558594</ele>
    <time>2012-06-25T15:35:18Z</time>
   </trkpt>
   <trkpt lat="45.9589080810547" lon="7.20864915847778">
    <ele>1591.46667480469</ele>
    <time>2012-06-25T15:35:19Z</time>
   </trkpt>
   <trkpt lat="45.9588737487793" lon="7.20864772796631">
    <ele>1591.83325195312</ele>
    <time>2012-06-25T15:35:20Z</time>
   </trkpt>
   <trkpt lat="45.9588432312012" lon="7.2086501121521">
    <ele>1592.19995117188</ele>
    <time>2012-06-25T15:35:21Z</time>
   </trkpt>
   <trkpt lat="45.958812713623" lon="7.20865201950073">
    <ele>1592.19995117188</ele>
    <time>2012-06-25T15:35:22Z</time>
   </trkpt>
   <trkpt lat="45.9587440490723" lon="7.20865964889526">
    <ele>1592.56665039062</ele>
    <time>2012-06-25T15:35:24Z</time>
   </trkpt>
   <trkpt lat="45.958610534668" lon="7.20867967605591">
    <ele>1593.30004882812</ele>
    <time>2012-06-25T15:35:28Z</time>
   </trkpt>
   <trkpt lat="45.9585456848144" lon="7.2086935043335">
    <ele>1593.66662597656</ele>
    <time>2012-06-25T15:35:30Z</time>
   </trkpt>
   <trkpt lat="45.9585113525391" lon="7.20869731903076">
    <ele>1593.84997558594</ele>
    <time>2012-06-25T15:35:31Z</time>
   </trkpt>
   <trkpt lat="45.9584846496582" lon="7.20870065689087">
    <ele>1594.03332519531</ele>
    <time>2012-06-25T15:35:32Z</time>
   </trkpt>
   <trkpt lat="45.9584541320801" lon="7.20870399475098">
    <ele>1594.21667480469</ele>
    <time>2012-06-25T15:35:33Z</time>
   </trkpt>
   <trkpt lat="45.9584274291992" lon="7.2087082862854">
    <ele>1594.40002441406</ele>
    <time>2012-06-25T15:35:34Z</time>
   </trkpt>
   <trkpt lat="45.9582672119141" lon="7.20873022079468">
    <ele>1594.40002441406</ele>
    <time>2012-06-25T15:35:39Z</time>
   </trkpt>
   <trkpt lat="45.9581298828125" lon="7.20876169204712">
    <ele>1595.5</ele>
    <time>2012-06-25T15:35:43Z</time>
   </trkpt>
   <trkpt lat="45.9580993652344" lon="7.2087664604187">
    <ele>1595.77502441406</ele>
    <time>2012-06-25T15:35:44Z</time>
   </trkpt>
   <trkpt lat="45.9580688476562" lon="7.20877695083618">
    <ele>1596.05004882812</ele>
    <time>2012-06-25T15:35:45Z</time>
   </trkpt>
   <trkpt lat="45.9580345153809" lon="7.20878219604492">
    <ele>1596.32495117188</ele>
    <time>2012-06-25T15:35:46Z</time>
   </trkpt>
   <trkpt lat="45.9580078125" lon="7.20878887176514">
    <ele>1596.59997558594</ele>
    <time>2012-06-25T15:35:47Z</time>
   </trkpt>
   <trkpt lat="45.9578704833984" lon="7.208824634552">
    <ele>1596.59997558594</ele>
    <time>2012-06-25T15:35:51Z</time>
   </trkpt>
   <trkpt lat="45.9577102661133" lon="7.20888137817383">
    <ele>1597.69995117188</ele>
    <time>2012-06-25T15:35:56Z</time>
   </trkpt>
   <trkpt lat="45.9576721191406" lon="7.20889902114868">
    <ele>1597.92004394531</ele>
    <time>2012-06-25T15:35:57Z</time>
   </trkpt>
   <trkpt lat="45.9576377868652" lon="7.2089114189148">
    <ele>1598.14001464844</ele>
    <time>2012-06-25T15:35:58Z</time>
   </trkpt>
   <trkpt lat="45.9576034545898" lon="7.20892381668091">
    <ele>1598.35998535156</ele>
    <time>2012-06-25T15:35:59Z</time>
   </trkpt>
   <trkpt lat="45.9575691223144" lon="7.20893335342407">
    <ele>1598.580078125</ele>
    <time>2012-06-25T15:36:00Z</time>
   </trkpt>
   <trkpt lat="45.9575347900391" lon="7.20894622802734">
    <ele>1598.80004882812</ele>
    <time>2012-06-25T15:36:01Z</time>
   </trkpt>
   <trkpt lat="45.9574317932129" lon="7.20898151397705">
    <ele>1598.80004882812</ele>
    <time>2012-06-25T15:36:04Z</time>
   </trkpt>
   <trkpt lat="45.9573974609375" lon="7.20899438858032">
    <ele>1599.23999023438</ele>
    <time>2012-06-25T15:36:05Z</time>
   </trkpt>
   <trkpt lat="45.9573669433594" lon="7.20900535583496">
    <ele>1599.68005371094</ele>
    <time>2012-06-25T15:36:06Z</time>
   </trkpt>
   <trkpt lat="45.957332611084" lon="7.20901966094971">
    <ele>1600.11999511719</ele>
    <time>2012-06-25T15:36:07Z</time>
   </trkpt>
   <trkpt lat="45.9573020935059" lon="7.20903539657593">
    <ele>1600.56005859375</ele>
    <time>2012-06-25T15:36:08Z</time>
   </trkpt>
   <trkpt lat="45.9572639465332" lon="7.20905160903931">
    <ele>1601</ele>
    <time>2012-06-25T15:36:09Z</time>
   </trkpt>
   <trkpt lat="45.9571304321289" lon="7.20911026000976">
    <ele>1601</ele>
    <time>2012-06-25T15:36:13Z</time>
   </trkpt>
   <trkpt lat="45.9570388793945" lon="7.20915412902832">
    <ele>1601.08508300781</ele>
    <time>2012-06-25T15:36:16Z</time>
   </trkpt>
   <trkpt lat="45.9570045471191" lon="7.20916986465454">
    <ele>1601.11352539062</ele>
    <time>2012-06-25T15:36:17Z</time>
   </trkpt>
   <trkpt lat="45.9567794799805" lon="7.20926284790039">
    <ele>1605.08642578125</ele>
    <time>2012-06-25T15:38:37Z</time>
   </trkpt>
   <trkpt lat="45.9567413330078" lon="7.20928955078125">
    <ele>1605.11486816406</ele>
    <time>2012-06-25T15:38:38Z</time>
   </trkpt>
   <trkpt lat="45.9567031860352" lon="7.20930528640747">
    <ele>1605.14318847656</ele>
    <time>2012-06-25T15:38:39Z</time>
   </trkpt>
   <trkpt lat="45.9566688537598" lon="7.20932531356812">
    <ele>1605.17163085938</ele>
    <time>2012-06-25T15:38:40Z</time>
   </trkpt>
   <trkpt lat="45.9566345214844" lon="7.20934295654297">
    <ele>1605.19995117188</ele>
    <time>2012-06-25T15:38:41Z</time>
   </trkpt>
   <trkpt lat="45.9565238952637" lon="7.20940208435059">
    <ele>1605.19995117188</ele>
    <time>2012-06-25T15:38:44Z</time>
   </trkpt>
   <trkpt lat="45.9564552307129" lon="7.20944452285767">
    <ele>1605.82849121094</ele>
    <time>2012-06-25T15:38:46Z</time>
   </trkpt>
   <trkpt lat="45.9564208984375" lon="7.20945453643799">
    <ele>1606.14282226562</ele>
    <time>2012-06-25T15:38:47Z</time>
   </trkpt>
   <trkpt lat="45.9563865661621" lon="7.2094669342041">
    <ele>1606.45715332031</ele>
    <time>2012-06-25T15:38:48Z</time>
   </trkpt>
   <trkpt lat="45.956356048584" lon="7.20948219299316">
    <ele>1606.771484375</ele>
    <time>2012-06-25T15:38:49Z</time>
   </trkpt>
   <trkpt lat="45.9563217163086" lon="7.20949649810791">
    <ele>1607.08569335938</ele>
    <time>2012-06-25T15:38:50Z</time>
   </trkpt>
   <trkpt lat="45.9562911987305" lon="7.20951318740845">
    <ele>1607.40002441406</ele>
    <time>2012-06-25T15:38:51Z</time>
   </trkpt>
   <trkpt lat="45.956226348877" lon="7.20954465866089">
    <ele>1607.40002441406</ele>
    <time>2012-06-25T15:38:53Z</time>
   </trkpt>
   <trkpt lat="45.9560928344727" lon="7.20958709716797">
    <ele>1608.40002441406</ele>
    <time>2012-06-25T15:38:57Z</time>
   </trkpt>
   <trkpt lat="45.9560585021973" lon="7.20959711074829">
    <ele>1608.65002441406</ele>
    <time>2012-06-25T15:38:58Z</time>
   </trkpt>
   <trkpt lat="45.9560279846191" lon="7.20960664749146">
    <ele>1608.90002441406</ele>
    <time>2012-06-25T15:38:59Z</time>
   </trkpt>
   <trkpt lat="45.9559936523438" lon="7.2096266746521">
    <ele>1609.15002441406</ele>
    <time>2012-06-25T15:39:00Z</time>
   </trkpt>
   <trkpt lat="45.9559631347656" lon="7.20963954925537">
    <ele>1609.40002441406</ele>
    <time>2012-06-25T15:39:01Z</time>
   </trkpt>
   <trkpt lat="45.9558296203613" lon="7.20966720581055">
    <ele>1609.40002441406</ele>
    <time>2012-06-25T15:39:05Z</time>
   </trkpt>
   <trkpt lat="45.9557571411133" lon="7.20968341827393">
    <ele>1609.83996582031</ele>
    <time>2012-06-25T15:39:07Z</time>
   </trkpt>
   <trkpt lat="45.9556312561035" lon="7.2097053527832">
    <ele>1610.71997070312</ele>
    <time>2012-06-25T15:39:11Z</time>
   </trkpt>
   <trkpt lat="45.9556007385254" lon="7.2097110748291">
    <ele>1610.93994140625</ele>
    <time>2012-06-25T15:39:12Z</time>
   </trkpt>
   <trkpt lat="45.9555778503418" lon="7.20971918106079">
    <ele>1611.16003417969</ele>
    <time>2012-06-25T15:39:13Z</time>
   </trkpt>
   <trkpt lat="45.9555435180664" lon="7.2097225189209">
    <ele>1611.38000488281</ele>
    <time>2012-06-25T15:39:14Z</time>
   </trkpt>
   <trkpt lat="45.9555130004883" lon="7.20973205566406">
    <ele>1611.59997558594</ele>
    <time>2012-06-25T15:39:15Z</time>
   </trkpt>
   <trkpt lat="45.9553833007812" lon="7.20975542068482">
    <ele>1611.59997558594</ele>
    <time>2012-06-25T15:39:19Z</time>
   </trkpt>
   <trkpt lat="45.9553527832031" lon="7.20975828170776">
    <ele>1612</ele>
    <time>2012-06-25T15:39:20Z</time>
   </trkpt>
   <trkpt lat="45.9553184509277" lon="7.20976161956787">
    <ele>1612.40002441406</ele>
    <time>2012-06-25T15:39:21Z</time>
   </trkpt>
   <trkpt lat="45.9552841186523" lon="7.20977067947388">
    <ele>1612.79992675781</ele>
    <time>2012-06-25T15:39:22Z</time>
   </trkpt>
   <trkpt lat="45.9552536010742" lon="7.20977306365967">
    <ele>1613.19995117188</ele>
    <time>2012-06-25T15:39:23Z</time>
   </trkpt>
   <trkpt lat="45.9552230834961" lon="7.20977449417114">
    <ele>1613.59997558594</ele>
    <time>2012-06-25T15:39:24Z</time>
   </trkpt>
   <trkpt lat="45.9551620483398" lon="7.20978212356567">
    <ele>1613.59997558594</ele>
    <time>2012-06-25T15:39:26Z</time>
   </trkpt>
   <trkpt lat="45.9549713134766" lon="7.2097897529602">
    <ele>1615.0400390625</ele>
    <time>2012-06-25T15:39:32Z</time>
   </trkpt>
   <trkpt lat="45.9549407958984" lon="7.20979022979736">
    <ele>1615.28002929688</ele>
    <time>2012-06-25T15:39:33Z</time>
   </trkpt>
   <trkpt lat="45.9549140930176" lon="7.20978927612305">
    <ele>1615.52001953125</ele>
    <time>2012-06-25T15:39:34Z</time>
   </trkpt>
   <trkpt lat="45.9548797607422" lon="7.20978784561157">
    <ele>1615.76000976562</ele>
    <time>2012-06-25T15:39:35Z</time>
   </trkpt>
   <trkpt lat="45.9548492431641" lon="7.20979070663452">
    <ele>1616</ele>
    <time>2012-06-25T15:39:36Z</time>
   </trkpt>
   <trkpt lat="45.954662322998" lon="7.20978546142578">
    <ele>1616</ele>
    <time>2012-06-25T15:39:42Z</time>
   </trkpt>
   <trkpt lat="45.9545669555664" lon="7.20977687835693">
    <ele>1616.94287109375</ele>
    <time>2012-06-25T15:39:45Z</time>
   </trkpt>
   <trkpt lat="45.9545364379883" lon="7.20977544784546">
    <ele>1617.25708007812</ele>
    <time>2012-06-25T15:39:46Z</time>
   </trkpt>
   <trkpt lat="45.9545059204102" lon="7.20977544784546">
    <ele>1617.57141113281</ele>
    <time>2012-06-25T15:39:47Z</time>
   </trkpt>
   <trkpt lat="45.954475402832" lon="7.20977449417114">
    <ele>1617.88562011719</ele>
    <time>2012-06-25T15:39:48Z</time>
   </trkpt>
   <trkpt lat="45.9544410705566" lon="7.20977354049683">
    <ele>1618.19995117188</ele>
    <time>2012-06-25T15:39:49Z</time>
   </trkpt>
   <trkpt lat="45.9543838500977" lon="7.20976066589356">
    <ele>1618.19995117188</ele>
    <time>2012-06-25T15:39:51Z</time>
   </trkpt>
   <trkpt lat="45.9542236328125" lon="7.2097339630127">
    <ele>1619.42224121094</ele>
    <time>2012-06-25T15:39:56Z</time>
   </trkpt>
   <trkpt lat="45.9541893005371" lon="7.2097339630127">
    <ele>1619.66662597656</ele>
    <time>2012-06-25T15:39:57Z</time>
   </trkpt>
   <trkpt lat="45.954158782959" lon="7.20972919464111">
    <ele>1619.9111328125</ele>
    <time>2012-06-25T15:39:58Z</time>
   </trkpt>
   <trkpt lat="45.9541282653809" lon="7.20972204208374">
    <ele>1620.15551757812</ele>
    <time>2012-06-25T15:39:59Z</time>
   </trkpt>
   <trkpt lat="45.9540977478027" lon="7.20971870422363">
    <ele>1620.40002441406</ele>
    <time>2012-06-25T15:40:00Z</time>
   </trkpt>
   <trkpt lat="45.9539337158203" lon="7.20968341827393">
    <ele>1620.40002441406</ele>
    <time>2012-06-25T15:40:05Z</time>
   </trkpt>
   <trkpt lat="45.9538688659668" lon="7.20966291427612">
    <ele>1621.06665039062</ele>
    <time>2012-06-25T15:40:07Z</time>
   </trkpt>
   <trkpt lat="45.9538383483887" lon="7.20965719223022">
    <ele>1621.40002441406</ele>
    <time>2012-06-25T15:40:08Z</time>
   </trkpt>
   <trkpt lat="45.9538078308106" lon="7.20964813232422">
    <ele>1621.7333984375</ele>
    <time>2012-06-25T15:40:09Z</time>
   </trkpt>
   <trkpt lat="45.9537734985352" lon="7.20963954925537">
    <ele>1622.06665039062</ele>
    <time>2012-06-25T15:40:10Z</time>
   </trkpt>
   <trkpt lat="45.953742980957" lon="7.20962953567505">
    <ele>1622.40002441406</ele>
    <time>2012-06-25T15:40:11Z</time>
   </trkpt>
   <trkpt lat="45.9537124633789" lon="7.20962381362915">
    <ele>1622.40002441406</ele>
    <time>2012-06-25T15:40:12Z</time>
   </trkpt>
   <trkpt lat="45.9534645080566" lon="7.20954656600952">
    <ele>1623.86669921875</ele>
    <time>2012-06-25T15:40:20Z</time>
   </trkpt>
   <trkpt lat="45.9534301757812" lon="7.20953321456909">
    <ele>1624.05004882812</ele>
    <time>2012-06-25T15:40:21Z</time>
   </trkpt>
   <trkpt lat="45.9534034729004" lon="7.20951986312866">
    <ele>1624.23327636719</ele>
    <time>2012-06-25T15:40:22Z</time>
   </trkpt>
   <trkpt lat="45.9533729553223" lon="7.2095103263855">
    <ele>1624.41662597656</ele>
    <time>2012-06-25T15:40:23Z</time>
   </trkpt>
   <trkpt lat="45.9533424377441" lon="7.20950031280518">
    <ele>1624.59997558594</ele>
    <time>2012-06-25T15:40:24Z</time>
   </trkpt>
   <trkpt lat="45.9532508850098" lon="7.20947647094726">
    <ele>1624.59997558594</ele>
    <time>2012-06-25T15:40:27Z</time>
   </trkpt>
   <trkpt lat="45.9531555175781" lon="7.20945072174072">
    <ele>1625.59997558594</ele>
    <time>2012-06-25T15:40:30Z</time>
   </trkpt>
   <trkpt lat="45.953125" lon="7.20944261550903">
    <ele>1625.93334960938</ele>
    <time>2012-06-25T15:40:31Z</time>
   </trkpt>
   <trkpt lat="45.9530944824219" lon="7.20943260192871">
    <ele>1626.2666015625</ele>
    <time>2012-06-25T15:40:32Z</time>
   </trkpt>
   <trkpt lat="45.9530639648438" lon="7.2094259262085">
    <ele>1626.59997558594</ele>
    <time>2012-06-25T15:40:33Z</time>
   </trkpt>
   <trkpt lat="45.9529724121094" lon="7.2093915939331">
    <ele>1626.59997558594</ele>
    <time>2012-06-25T15:40:36Z</time>
   </trkpt>
   <trkpt lat="45.9528770446777" lon="7.20936584472656">
    <ele>1627.2666015625</ele>
    <time>2012-06-25T15:40:39Z</time>
   </trkpt>
   <trkpt lat="45.9528465270996" lon="7.20935821533203">
    <ele>1627.48889160156</ele>
    <time>2012-06-25T15:40:40Z</time>
   </trkpt>
   <trkpt lat="45.9528198242188" lon="7.20935106277466">
    <ele>1627.71105957031</ele>
    <time>2012-06-25T15:40:41Z</time>
   </trkpt>
   <trkpt lat="45.9527854919434" lon="7.20934581756592">
    <ele>1627.93334960938</ele>
    <time>2012-06-25T15:40:42Z</time>
   </trkpt>
   <trkpt lat="45.9527549743652" lon="7.20933771133423">
    <ele>1628.15551757812</ele>
    <time>2012-06-25T15:40:43Z</time>
   </trkpt>
   <trkpt lat="45.9525413513184" lon="7.209303855896">
    <ele>1629.71105957031</ele>
    <time>2012-06-25T15:40:50Z</time>
   </trkpt>
   <trkpt lat="45.9525146484375" lon="7.20930099487305">
    <ele>1629.93334960938</ele>
    <time>2012-06-25T15:40:51Z</time>
   </trkpt>
   <trkpt lat="45.9524803161621" lon="7.20929145812988">
    <ele>1630.15551757812</ele>
    <time>2012-06-25T15:40:52Z</time>
   </trkpt>
   <trkpt lat="45.952449798584" lon="7.2092866897583">
    <ele>1630.37780761719</ele>
    <time>2012-06-25T15:40:53Z</time>
   </trkpt>
   <trkpt lat="45.9524192810059" lon="7.20927858352661">
    <ele>1630.59997558594</ele>
    <time>2012-06-25T15:40:54Z</time>
   </trkpt>
   <trkpt lat="45.9522857666016" lon="7.20926284790039">
    <ele>1630.59997558594</ele>
    <time>2012-06-25T15:40:58Z</time>
   </trkpt>
   <trkpt lat="45.9522132873535" lon="7.20925998687744">
    <ele>1631.33337402344</ele>
    <time>2012-06-25T15:41:00Z</time>
   </trkpt>
   <trkpt lat="45.9521789550781" lon="7.20925760269165">
    <ele>1631.69995117188</ele>
    <time>2012-06-25T15:41:01Z</time>
   </trkpt>
   <trkpt lat="45.9521446228027" lon="7.20925235748291">
    <ele>1632.06665039062</ele>
    <time>2012-06-25T15:41:02Z</time>
   </trkpt>
   <trkpt lat="45.9521102905273" lon="7.20924949645996">
    <ele>1632.43334960938</ele>
    <time>2012-06-25T15:41:03Z</time>
   </trkpt>
   <trkpt lat="45.9520797729492" lon="7.20924663543701">
    <ele>1632.80004882812</ele>
    <time>2012-06-25T15:41:04Z</time>
   </trkpt>
   <trkpt lat="45.9520111083984" lon="7.20923757553101">
    <ele>1632.80004882812</ele>
    <time>2012-06-25T15:41:06Z</time>
   </trkpt>
   <trkpt lat="45.9517593383789" lon="7.20922660827637">
    <ele>1634.13342285156</ele>
    <time>2012-06-25T15:41:14Z</time>
   </trkpt>
   <trkpt lat="45.9517250061035" lon="7.20922183990478">
    <ele>1634.30004882812</ele>
    <time>2012-06-25T15:41:15Z</time>
   </trkpt>
   <trkpt lat="45.9516944885254" lon="7.20922327041626">
    <ele>1634.46667480469</ele>
    <time>2012-06-25T15:41:16Z</time>
   </trkpt>
   <trkpt lat="45.9516639709473" lon="7.20922517776489">
    <ele>1634.63342285156</ele>
    <time>2012-06-25T15:41:17Z</time>
   </trkpt>
   <trkpt lat="45.9516334533691" lon="7.20922374725342">
    <ele>1634.80004882812</ele>
    <time>2012-06-25T15:41:18Z</time>
   </trkpt>
   <trkpt lat="45.9514961242676" lon="7.20923185348511">
    <ele>1634.80004882812</ele>
    <time>2012-06-25T15:41:22Z</time>
   </trkpt>
   <trkpt lat="45.9514656066894" lon="7.20923566818237">
    <ele>1635.20007324219</ele>
    <time>2012-06-25T15:41:23Z</time>
   </trkpt>
   <trkpt lat="45.9514350891113" lon="7.20923757553101">
    <ele>1635.60009765625</ele>
    <time>2012-06-25T15:41:24Z</time>
   </trkpt>
   <trkpt lat="45.9514045715332" lon="7.20923852920532">
    <ele>1636</ele>
    <time>2012-06-25T15:41:25Z</time>
   </trkpt>
   <trkpt lat="45.9513740539551" lon="7.2092456817627">
    <ele>1636.40002441406</ele>
    <time>2012-06-25T15:41:26Z</time>
   </trkpt>
   <trkpt lat="45.951343536377" lon="7.20924711227417">
    <ele>1636.80004882812</ele>
    <time>2012-06-25T15:41:27Z</time>
   </trkpt>
   <trkpt lat="45.9512519836426" lon="7.20925664901733">
    <ele>1636.80004882812</ele>
    <time>2012-06-25T15:41:30Z</time>
   </trkpt>
   <trkpt lat="45.9510917663574" lon="7.20927286148071">
    <ele>1637.9052734375</ele>
    <time>2012-06-25T15:41:35Z</time>
   </trkpt>
   <trkpt lat="45.951057434082" lon="7.2092752456665">
    <ele>1638.12634277344</ele>
    <time>2012-06-25T15:41:36Z</time>
   </trkpt>
   <trkpt lat="45.9510269165039" lon="7.2092752456665">
    <ele>1638.34741210938</ele>
    <time>2012-06-25T15:41:37Z</time>
   </trkpt>
   <trkpt lat="45.951000213623" lon="7.20927619934082">
    <ele>1638.56848144531</ele>
    <time>2012-06-25T15:41:38Z</time>
   </trkpt>
   <trkpt lat="45.9509696960449" lon="7.20928382873535">
    <ele>1638.78955078125</ele>
    <time>2012-06-25T15:41:39Z</time>
   </trkpt>
   <trkpt lat="45.9507904052734" lon="7.20932197570801">
    <ele>1640.11584472656</ele>
    <time>2012-06-25T15:41:45Z</time>
   </trkpt>
   <trkpt lat="45.950756072998" lon="7.20933151245117">
    <ele>1640.33679199219</ele>
    <time>2012-06-25T15:41:46Z</time>
   </trkpt>
   <trkpt lat="45.9507255554199" lon="7.20933294296265">
    <ele>1640.55786132812</ele>
    <time>2012-06-25T15:41:47Z</time>
   </trkpt>
   <trkpt lat="45.9506912231445" lon="7.20934152603149">
    <ele>1640.77893066406</ele>
    <time>2012-06-25T15:41:48Z</time>
   </trkpt>
   <trkpt lat="45.9506568908691" lon="7.20934724807739">
    <ele>1641</ele>
    <time>2012-06-25T15:41:49Z</time>
   </trkpt>
   <trkpt lat="45.9505386352539" lon="7.20938396453857">
    <ele>1641</ele>
    <time>2012-06-25T15:41:53Z</time>
   </trkpt>
   <trkpt lat="45.950382232666" lon="7.20941877365112">
    <ele>1642.11108398438</ele>
    <time>2012-06-25T15:41:58Z</time>
   </trkpt>
   <trkpt lat="45.9503517150879" lon="7.20943069458008">
    <ele>1642.33337402344</ele>
    <time>2012-06-25T15:41:59Z</time>
   </trkpt>
   <trkpt lat="45.9503211975098" lon="7.20943880081177">
    <ele>1642.55554199219</ele>
    <time>2012-06-25T15:42:00Z</time>
   </trkpt>
   <trkpt lat="45.9502906799316" lon="7.20945072174072">
    <ele>1642.77783203125</ele>
    <time>2012-06-25T15:42:01Z</time>
   </trkpt>
   <trkpt lat="45.9502639770508" lon="7.20946311950684">
    <ele>1643</ele>
    <time>2012-06-25T15:42:02Z</time>
   </trkpt>
   <trkpt lat="45.9501647949219" lon="7.20949220657349">
    <ele>1643</ele>
    <time>2012-06-25T15:42:05Z</time>
   </trkpt>
   <trkpt lat="45.9500770568848" lon="7.20951223373413">
    <ele>1644.09997558594</ele>
    <time>2012-06-25T15:42:08Z</time>
   </trkpt>
   <trkpt lat="45.9500465393066" lon="7.2095193862915">
    <ele>1644.46667480469</ele>
    <time>2012-06-25T15:42:09Z</time>
   </trkpt>
   <trkpt lat="45.9500198364258" lon="7.20952558517456">
    <ele>1644.83325195312</ele>
    <time>2012-06-25T15:42:10Z</time>
   </trkpt>
   <trkpt lat="45.9499893188477" lon="7.20953559875488">
    <ele>1645.19995117188</ele>
    <time>2012-06-25T15:42:11Z</time>
   </trkpt>
   <trkpt lat="45.9499244689941" lon="7.20955657958984">
    <ele>1645.19995117188</ele>
    <time>2012-06-25T15:42:13Z</time>
   </trkpt>
   <trkpt lat="45.9497756958008" lon="7.20960998535156">
    <ele>1646.03332519531</ele>
    <time>2012-06-25T15:42:18Z</time>
   </trkpt>
   <trkpt lat="45.9496841430664" lon="7.2096357345581">
    <ele>1646.53332519531</ele>
    <time>2012-06-25T15:42:21Z</time>
   </trkpt>
   <trkpt lat="45.9496536254883" lon="7.20964431762695">
    <ele>1646.69995117188</ele>
    <time>2012-06-25T15:42:22Z</time>
   </trkpt>
   <trkpt lat="45.9496231079102" lon="7.20965242385864">
    <ele>1646.86657714844</ele>
    <time>2012-06-25T15:42:23Z</time>
   </trkpt>
   <trkpt lat="45.9495887756348" lon="7.20965957641602">
    <ele>1647.03332519531</ele>
    <time>2012-06-25T15:42:24Z</time>
   </trkpt>
   <trkpt lat="45.9495582580566" lon="7.20966672897339">
    <ele>1647.19995117188</ele>
    <time>2012-06-25T15:42:25Z</time>
   </trkpt>
   <trkpt lat="45.9494323730469" lon="7.20969200134277">
    <ele>1647.19995117188</ele>
    <time>2012-06-25T15:42:29Z</time>
   </trkpt>
   <trkpt lat="45.9493370056152" lon="7.20971536636352">
    <ele>1648.05712890625</ele>
    <time>2012-06-25T15:42:32Z</time>
   </trkpt>
   <trkpt lat="45.9493103027344" lon="7.20971822738648">
    <ele>1648.3427734375</ele>
    <time>2012-06-25T15:42:33Z</time>
   </trkpt>
   <trkpt lat="45.9492797851562" lon="7.20972633361816">
    <ele>1648.62854003906</ele>
    <time>2012-06-25T15:42:34Z</time>
   </trkpt>
   <trkpt lat="45.9492530822754" lon="7.2097315788269">
    <ele>1648.91418457031</ele>
    <time>2012-06-25T15:42:35Z</time>
   </trkpt>
   <trkpt lat="45.9492225646973" lon="7.20973300933838">
    <ele>1649.19995117188</ele>
    <time>2012-06-25T15:42:36Z</time>
   </trkpt>
   <trkpt lat="45.9491958618164" lon="7.20973873138428">
    <ele>1649.19995117188</ele>
    <time>2012-06-25T15:42:37Z</time>
   </trkpt>
   <trkpt lat="45.9490203857422" lon="7.20974111557007">
    <ele>1650.39990234375</ele>
    <time>2012-06-25T15:42:43Z</time>
   </trkpt>
   <trkpt lat="45.9489936828613" lon="7.20974016189575">
    <ele>1650.59997558594</ele>
    <time>2012-06-25T15:42:44Z</time>
   </trkpt>
   <trkpt lat="45.9489669799805" lon="7.20974159240723">
    <ele>1650.79992675781</ele>
    <time>2012-06-25T15:42:45Z</time>
   </trkpt>
   <trkpt lat="45.9489364624023" lon="7.20973968505859">
    <ele>1651</ele>
    <time>2012-06-25T15:42:46Z</time>
   </trkpt>
   <trkpt lat="45.9489059448242" lon="7.20973348617554">
    <ele>1651.19995117188</ele>
    <time>2012-06-25T15:42:47Z</time>
   </trkpt>
   <trkpt lat="45.9487571716309" lon="7.20971965789795">
    <ele>1651.19995117188</ele>
    <time>2012-06-25T15:42:52Z</time>
   </trkpt>
   <trkpt lat="45.9487342834473" lon="7.20971822738648">
    <ele>1651.64001464844</ele>
    <time>2012-06-25T15:42:53Z</time>
   </trkpt>
   <trkpt lat="45.9487075805664" lon="7.20971441268921">
    <ele>1652.07995605469</ele>
    <time>2012-06-25T15:42:54Z</time>
   </trkpt>
   <trkpt lat="45.9486770629883" lon="7.20971250534058">
    <ele>1652.52001953125</ele>
    <time>2012-06-25T15:42:55Z</time>
   </trkpt>
   <trkpt lat="45.9486503601074" lon="7.20970821380615">
    <ele>1652.9599609375</ele>
    <time>2012-06-25T15:42:56Z</time>
   </trkpt>
   <trkpt lat="45.9486198425293" lon="7.20970249176025">
    <ele>1653.40002441406</ele>
    <time>2012-06-25T15:42:57Z</time>
   </trkpt>
   <trkpt lat="45.9485054016113" lon="7.20968866348267">
    <ele>1653.40002441406</ele>
    <time>2012-06-25T15:43:01Z</time>
   </trkpt>
   <trkpt lat="45.9484786987305" lon="7.20968055725098">
    <ele>1653.80004882812</ele>
    <time>2012-06-25T15:43:02Z</time>
   </trkpt>
   <trkpt lat="45.9484443664551" lon="7.20967769622803">
    <ele>1654.20007324219</ele>
    <time>2012-06-25T15:43:03Z</time>
   </trkpt>
   <trkpt lat="45.9484176635742" lon="7.2096734046936">
    <ele>1654.59997558594</ele>
    <time>2012-06-25T15:43:04Z</time>
   </trkpt>
   <trkpt lat="45.9483909606934" lon="7.20966625213623">
    <ele>1655</ele>
    <time>2012-06-25T15:43:05Z</time>
   </trkpt>
   <trkpt lat="45.9483642578125" lon="7.2096586227417">
    <ele>1655.40002441406</ele>
    <time>2012-06-25T15:43:06Z</time>
   </trkpt>
   <trkpt lat="45.9483108520508" lon="7.20964193344116">
    <ele>1655.40002441406</ele>
    <time>2012-06-25T15:43:08Z</time>
   </trkpt>
   <trkpt lat="45.9482879638672" lon="7.20963621139526">
    <ele>1655.80004882812</ele>
    <time>2012-06-25T15:43:09Z</time>
   </trkpt>
   <trkpt lat="45.9482574462891" lon="7.20962762832642">
    <ele>1656.20007324219</ele>
    <time>2012-06-25T15:43:10Z</time>
   </trkpt>
   <trkpt lat="45.9482345581055" lon="7.20962429046631">
    <ele>1656.59997558594</ele>
    <time>2012-06-25T15:43:11Z</time>
   </trkpt>
   <trkpt lat="45.9482040405273" lon="7.20961666107178">
    <ele>1657</ele>
    <time>2012-06-25T15:43:12Z</time>
   </trkpt>
   <trkpt lat="45.9481773376465" lon="7.20961093902588">
    <ele>1657.40002441406</ele>
    <time>2012-06-25T15:43:13Z</time>
   </trkpt>
   <trkpt lat="45.948127746582" lon="7.20959854125976">
    <ele>1657.40002441406</ele>
    <time>2012-06-25T15:43:15Z</time>
   </trkpt>
   <trkpt lat="45.948070526123" lon="7.20958709716797">
    <ele>1658.13330078125</ele>
    <time>2012-06-25T15:43:17Z</time>
   </trkpt>
   <trkpt lat="45.9480400085449" lon="7.20957946777344">
    <ele>1658.5</ele>
    <time>2012-06-25T15:43:18Z</time>
   </trkpt>
   <trkpt lat="45.9480094909668" lon="7.2095742225647">
    <ele>1658.86669921875</ele>
    <time>2012-06-25T15:43:19Z</time>
   </trkpt>
   <trkpt lat="45.9479713439941" lon="7.20957279205322">
    <ele>1659.23327636719</ele>
    <time>2012-06-25T15:43:20Z</time>
   </trkpt>
   <trkpt lat="45.9479446411133" lon="7.20957040786743">
    <ele>1659.59997558594</ele>
    <time>2012-06-25T15:43:21Z</time>
   </trkpt>
   <trkpt lat="45.9478874206543" lon="7.20956611633301">
    <ele>1659.59997558594</ele>
    <time>2012-06-25T15:43:23Z</time>
   </trkpt>
   <trkpt lat="45.9478225708008" lon="7.20955181121826">
    <ele>1660.07055664062</ele>
    <time>2012-06-25T15:43:25Z</time>
   </trkpt>
   <trkpt lat="45.9477882385254" lon="7.20955038070679">
    <ele>1660.30590820312</ele>
    <time>2012-06-25T15:43:26Z</time>
   </trkpt>
   <trkpt lat="45.9477577209473" lon="7.20954370498657">
    <ele>1660.54113769531</ele>
    <time>2012-06-25T15:43:27Z</time>
   </trkpt>
   <trkpt lat="45.9477348327637" lon="7.20954370498657">
    <ele>1660.77648925781</ele>
    <time>2012-06-25T15:43:28Z</time>
   </trkpt>
   <trkpt lat="45.9477043151856" lon="7.20954275131226">
    <ele>1661.01171875</ele>
    <time>2012-06-25T15:43:29Z</time>
   </trkpt>
   <trkpt lat="45.947509765625" lon="7.20957088470459">
    <ele>1662.65881347656</ele>
    <time>2012-06-25T15:43:36Z</time>
   </trkpt>
   <trkpt lat="45.9474792480469" lon="7.20957803726196">
    <ele>1662.89404296875</ele>
    <time>2012-06-25T15:43:37Z</time>
   </trkpt>
   <trkpt lat="45.9474487304688" lon="7.20958948135376">
    <ele>1663.12939453125</ele>
    <time>2012-06-25T15:43:38Z</time>
   </trkpt>
   <trkpt lat="45.9474182128906" lon="7.20958852767944">
    <ele>1663.36462402344</ele>
    <time>2012-06-25T15:43:39Z</time>
   </trkpt>
   <trkpt lat="45.9473915100098" lon="7.2095890045166">
    <ele>1663.59997558594</ele>
    <time>2012-06-25T15:43:40Z</time>
   </trkpt>
   <trkpt lat="45.9473037719727" lon="7.20959329605102">
    <ele>1663.59997558594</ele>
    <time>2012-06-25T15:43:43Z</time>
   </trkpt>
   <trkpt lat="45.9472160339356" lon="7.20960378646851">
    <ele>1664.45715332031</ele>
    <time>2012-06-25T15:43:46Z</time>
   </trkpt>
   <trkpt lat="45.9471817016602" lon="7.20961093902588">
    <ele>1664.74279785156</ele>
    <time>2012-06-25T15:43:47Z</time>
   </trkpt>
   <trkpt lat="45.9471549987793" lon="7.20961713790894">
    <ele>1665.02856445312</ele>
    <time>2012-06-25T15:43:48Z</time>
   </trkpt>
   <trkpt lat="45.9471244812012" lon="7.2096152305603">
    <ele>1665.31420898438</ele>
    <time>2012-06-25T15:43:49Z</time>
   </trkpt>
   <trkpt lat="45.947093963623" lon="7.20961713790894">
    <ele>1665.59997558594</ele>
    <time>2012-06-25T15:43:50Z</time>
   </trkpt>
   <trkpt lat="45.9470634460449" lon="7.20961809158325">
    <ele>1665.59997558594</ele>
    <time>2012-06-25T15:43:51Z</time>
   </trkpt>
   <trkpt lat="45.9469413757324" lon="7.20961427688599">
    <ele>1666.69995117188</ele>
    <time>2012-06-25T15:43:55Z</time>
   </trkpt>
   <trkpt lat="45.946907043457" lon="7.20961761474609">
    <ele>1666.97497558594</ele>
    <time>2012-06-25T15:43:56Z</time>
   </trkpt>
   <trkpt lat="45.9468803405762" lon="7.20961713790894">
    <ele>1667.25</ele>
    <time>2012-06-25T15:43:57Z</time>
   </trkpt>
   <trkpt lat="45.946849822998" lon="7.20961618423462">
    <ele>1667.52502441406</ele>
    <time>2012-06-25T15:43:58Z</time>
   </trkpt>
   <trkpt lat="45.9468193054199" lon="7.20961809158325">
    <ele>1667.80004882812</ele>
    <time>2012-06-25T15:43:59Z</time>
   </trkpt>
   <trkpt lat="45.9467926025391" lon="7.20961761474609">
    <ele>1667.80004882812</ele>
    <time>2012-06-25T15:44:00Z</time>
   </trkpt>
   <trkpt lat="45.9466209411621" lon="7.20958518981934">
    <ele>1669</ele>
    <time>2012-06-25T15:44:06Z</time>
   </trkpt>
   <trkpt lat="45.946590423584" lon="7.20958518981934">
    <ele>1669.20007324219</ele>
    <time>2012-06-25T15:44:07Z</time>
   </trkpt>
   <trkpt lat="45.9465637207031" lon="7.20957803726196">
    <ele>1669.40002441406</ele>
    <time>2012-06-25T15:44:08Z</time>
   </trkpt>
   <trkpt lat="45.9465370178223" lon="7.20957231521606">
    <ele>1669.60009765625</ele>
    <time>2012-06-25T15:44:09Z</time>
   </trkpt>
   <trkpt lat="45.9465026855469" lon="7.20956659317017">
    <ele>1669.80004882812</ele>
    <time>2012-06-25T15:44:10Z</time>
   </trkpt>
   <trkpt lat="45.9463844299316" lon="7.20953130722046">
    <ele>1669.80004882812</ele>
    <time>2012-06-25T15:44:14Z</time>
   </trkpt>
   <trkpt lat="45.9463539123535" lon="7.20952653884888">
    <ele>1670.11437988281</ele>
    <time>2012-06-25T15:44:15Z</time>
   </trkpt>
   <trkpt lat="45.9463233947754" lon="7.20952224731445">
    <ele>1670.42858886719</ele>
    <time>2012-06-25T15:44:16Z</time>
   </trkpt>
   <trkpt lat="45.9462928771973" lon="7.20951890945435">
    <ele>1670.74291992188</ele>
    <time>2012-06-25T15:44:17Z</time>
   </trkpt>
   <trkpt lat="45.9462623596191" lon="7.20951080322266">
    <ele>1671.05712890625</ele>
    <time>2012-06-25T15:44:18Z</time>
   </trkpt>
   <trkpt lat="45.946102142334" lon="7.20944261550903">
    <ele>1672.94287109375</ele>
    <time>2012-06-25T15:44:24Z</time>
   </trkpt>
   <trkpt lat="45.9460754394531" lon="7.2094259262085">
    <ele>1673.25708007812</ele>
    <time>2012-06-25T15:44:25Z</time>
   </trkpt>
   <trkpt lat="45.9460525512695" lon="7.20940923690796">
    <ele>1673.57141113281</ele>
    <time>2012-06-25T15:44:26Z</time>
   </trkpt>
   <trkpt lat="45.9460258483887" lon="7.20939636230469">
    <ele>1673.88562011719</ele>
    <time>2012-06-25T15:44:27Z</time>
   </trkpt>
   <trkpt lat="45.9459991455078" lon="7.20938110351562">
    <ele>1674.19995117188</ele>
    <time>2012-06-25T15:44:28Z</time>
   </trkpt>
   <trkpt lat="45.945858001709" lon="7.2093243598938">
    <ele>1674.19995117188</ele>
    <time>2012-06-25T15:44:33Z</time>
   </trkpt>
   <trkpt lat="45.9458312988281" lon="7.2093186378479">
    <ele>1674.67993164062</ele>
    <time>2012-06-25T15:44:34Z</time>
   </trkpt>
   <trkpt lat="45.9458045959473" lon="7.20931148529053">
    <ele>1675.15991210938</ele>
    <time>2012-06-25T15:44:35Z</time>
   </trkpt>
   <trkpt lat="45.9457778930664" lon="7.20930337905884">
    <ele>1675.64001464844</ele>
    <time>2012-06-25T15:44:36Z</time>
   </trkpt>
   <trkpt lat="45.9457511901856" lon="7.20929002761841">
    <ele>1676.11999511719</ele>
    <time>2012-06-25T15:44:37Z</time>
   </trkpt>
   <trkpt lat="45.945728302002" lon="7.2092809677124">
    <ele>1676.59997558594</ele>
    <time>2012-06-25T15:44:38Z</time>
   </trkpt>
   <trkpt lat="45.9456787109375" lon="7.2092604637146">
    <ele>1676.59997558594</ele>
    <time>2012-06-25T15:44:40Z</time>
   </trkpt>
   <trkpt lat="45.9456024169922" lon="7.20924043655396">
    <ele>1677.54284667969</ele>
    <time>2012-06-25T15:44:43Z</time>
   </trkpt>
   <trkpt lat="45.9455795288086" lon="7.20922899246216">
    <ele>1677.85717773438</ele>
    <time>2012-06-25T15:44:44Z</time>
   </trkpt>
   <trkpt lat="45.945556640625" lon="7.20921993255615">
    <ele>1678.17150878906</ele>
    <time>2012-06-25T15:44:45Z</time>
   </trkpt>
   <trkpt lat="45.9455337524414" lon="7.20920848846436">
    <ele>1678.48571777344</ele>
    <time>2012-06-25T15:44:46Z</time>
   </trkpt>
   <trkpt lat="45.9455070495606" lon="7.20919990539551">
    <ele>1678.80004882812</ele>
    <time>2012-06-25T15:44:47Z</time>
   </trkpt>
   <trkpt lat="45.9454574584961" lon="7.20917415618896">
    <ele>1678.80004882812</ele>
    <time>2012-06-25T15:44:49Z</time>
   </trkpt>
   <trkpt lat="45.9454307556152" lon="7.20916223526001">
    <ele>1679.23999023438</ele>
    <time>2012-06-25T15:44:50Z</time>
   </trkpt>
   <trkpt lat="45.9454040527344" lon="7.20914936065674">
    <ele>1679.68005371094</ele>
    <time>2012-06-25T15:44:51Z</time>
   </trkpt>
   <trkpt lat="45.9453735351562" lon="7.20914125442505">
    <ele>1680.11999511719</ele>
    <time>2012-06-25T15:44:52Z</time>
   </trkpt>
   <trkpt lat="45.9453468322754" lon="7.20913171768188">
    <ele>1680.56005859375</ele>
    <time>2012-06-25T15:44:53Z</time>
   </trkpt>
   <trkpt lat="45.9453201293945" lon="7.2091269493103">
    <ele>1681</ele>
    <time>2012-06-25T15:44:54Z</time>
   </trkpt>
   <trkpt lat="45.9452247619629" lon="7.20909881591797">
    <ele>1681</ele>
    <time>2012-06-25T15:44:58Z</time>
   </trkpt>
   <trkpt lat="45.9452018737793" lon="7.20908880233765">
    <ele>1681.33337402344</ele>
    <time>2012-06-25T15:44:59Z</time>
   </trkpt>
   <trkpt lat="45.9451560974121" lon="7.20907306671143">
    <ele>1682</ele>
    <time>2012-06-25T15:45:01Z</time>
   </trkpt>
   <trkpt lat="45.9451370239258" lon="7.20907020568848">
    <ele>1682.33337402344</ele>
    <time>2012-06-25T15:45:02Z</time>
   </trkpt>
   <trkpt lat="45.9451179504394" lon="7.20906352996826">
    <ele>1682.66662597656</ele>
    <time>2012-06-25T15:45:03Z</time>
   </trkpt>
   <trkpt lat="45.9450950622559" lon="7.20906066894531">
    <ele>1683</ele>
    <time>2012-06-25T15:45:04Z</time>
   </trkpt>
   <trkpt lat="45.9450492858887" lon="7.20904636383057">
    <ele>1683</ele>
    <time>2012-06-25T15:45:06Z</time>
   </trkpt>
   <trkpt lat="45.9449234008789" lon="7.2090106010437">
    <ele>1684.11108398438</ele>
    <time>2012-06-25T15:45:11Z</time>
   </trkpt>
   <trkpt lat="45.9449043273926" lon="7.20900249481201">
    <ele>1684.33337402344</ele>
    <time>2012-06-25T15:45:12Z</time>
   </trkpt>
   <trkpt lat="45.944881439209" lon="7.20899534225464">
    <ele>1684.55554199219</ele>
    <time>2012-06-25T15:45:13Z</time>
   </trkpt>
   <trkpt lat="45.9448585510254" lon="7.20898532867432">
    <ele>1684.77783203125</ele>
    <time>2012-06-25T15:45:14Z</time>
   </trkpt>
   <trkpt lat="45.9448356628418" lon="7.20897674560547">
    <ele>1685</ele>
    <time>2012-06-25T15:45:15Z</time>
   </trkpt>
   <trkpt lat="45.9446907043457" lon="7.20894908905029">
    <ele>1685</ele>
    <time>2012-06-25T15:45:21Z</time>
   </trkpt>
   <trkpt lat="45.9446716308594" lon="7.20894241333008">
    <ele>1685.40002441406</ele>
    <time>2012-06-25T15:45:22Z</time>
   </trkpt>
   <trkpt lat="45.9446487426758" lon="7.20894289016724">
    <ele>1685.80004882812</ele>
    <time>2012-06-25T15:45:23Z</time>
   </trkpt>
   <trkpt lat="45.9446258544922" lon="7.20894002914429">
    <ele>1686.19995117188</ele>
    <time>2012-06-25T15:45:24Z</time>
   </trkpt>
   <trkpt lat="45.9445991516113" lon="7.20893430709839">
    <ele>1686.59997558594</ele>
    <time>2012-06-25T15:45:25Z</time>
   </trkpt>
   <trkpt lat="45.9445724487305" lon="7.20892572402954">
    <ele>1687</ele>
    <time>2012-06-25T15:45:26Z</time>
   </trkpt>
   <trkpt lat="45.944522857666" lon="7.20892906188965">
    <ele>1687</ele>
    <time>2012-06-25T15:45:28Z</time>
   </trkpt>
   <trkpt lat="45.9444427490234" lon="7.20892763137817">
    <ele>1687.94287109375</ele>
    <time>2012-06-25T15:45:31Z</time>
   </trkpt>
   <trkpt lat="45.9444198608398" lon="7.20892333984375">
    <ele>1688.25708007812</ele>
    <time>2012-06-25T15:45:32Z</time>
   </trkpt>
   <trkpt lat="45.944393157959" lon="7.20892095565796">
    <ele>1688.57141113281</ele>
    <time>2012-06-25T15:45:33Z</time>
   </trkpt>
   <trkpt lat="45.9443702697754" lon="7.20891666412354">
    <ele>1688.88562011719</ele>
    <time>2012-06-25T15:45:34Z</time>
   </trkpt>
   <trkpt lat="45.9443473815918" lon="7.20891904830933">
    <ele>1689.19995117188</ele>
    <time>2012-06-25T15:45:35Z</time>
   </trkpt>
   <trkpt lat="45.9441947937012" lon="7.2089262008667">
    <ele>1689.19995117188</ele>
    <time>2012-06-25T15:45:41Z</time>
   </trkpt>
   <trkpt lat="45.9441413879394" lon="7.20892572402954">
    <ele>1689.86657714844</ele>
    <time>2012-06-25T15:45:43Z</time>
   </trkpt>
   <trkpt lat="45.9441184997559" lon="7.20892715454102">
    <ele>1690.19995117188</ele>
    <time>2012-06-25T15:45:44Z</time>
   </trkpt>
   <trkpt lat="45.944091796875" lon="7.20893049240112">
    <ele>1690.53332519531</ele>
    <time>2012-06-25T15:45:45Z</time>
   </trkpt>
   <trkpt lat="45.9440650939941" lon="7.2089319229126">
    <ele>1690.86657714844</ele>
    <time>2012-06-25T15:45:46Z</time>
   </trkpt>
   <trkpt lat="45.944034576416" lon="7.20893573760986">
    <ele>1691.19995117188</ele>
    <time>2012-06-25T15:45:47Z</time>
   </trkpt>
   <trkpt lat="45.9439582824707" lon="7.20894956588745">
    <ele>1691.19995117188</ele>
    <time>2012-06-25T15:45:50Z</time>
   </trkpt>
   <trkpt lat="45.9438591003418" lon="7.20896482467651">
    <ele>1692.07995605469</ele>
    <time>2012-06-25T15:45:54Z</time>
   </trkpt>
   <trkpt lat="45.9438133239746" lon="7.20897054672241">
    <ele>1692.52001953125</ele>
    <time>2012-06-25T15:45:56Z</time>
   </trkpt>
   <trkpt lat="45.9437866210938" lon="7.20897579193115">
    <ele>1692.73999023438</ele>
    <time>2012-06-25T15:45:57Z</time>
   </trkpt>
   <trkpt lat="45.9437599182129" lon="7.20898199081421">
    <ele>1692.9599609375</ele>
    <time>2012-06-25T15:45:58Z</time>
   </trkpt>
   <trkpt lat="45.943733215332" lon="7.20898580551148">
    <ele>1693.18005371094</ele>
    <time>2012-06-25T15:45:59Z</time>
   </trkpt>
   <trkpt lat="45.9437103271484" lon="7.20899105072022">
    <ele>1693.40002441406</ele>
    <time>2012-06-25T15:46:00Z</time>
   </trkpt>
   <trkpt lat="45.9435691833496" lon="7.20902109146118">
    <ele>1693.40002441406</ele>
    <time>2012-06-25T15:46:06Z</time>
   </trkpt>
   <trkpt lat="45.9434471130371" lon="7.20906162261963">
    <ele>1694.62219238281</ele>
    <time>2012-06-25T15:46:11Z</time>
   </trkpt>
   <trkpt lat="45.9434204101562" lon="7.20907020568848">
    <ele>1694.86669921875</ele>
    <time>2012-06-25T15:46:12Z</time>
   </trkpt>
   <trkpt lat="45.9433975219727" lon="7.2090744972229">
    <ele>1695.11108398438</ele>
    <time>2012-06-25T15:46:13Z</time>
   </trkpt>
   <trkpt lat="45.9433670043945" lon="7.20908212661743">
    <ele>1695.35559082031</ele>
    <time>2012-06-25T15:46:14Z</time>
   </trkpt>
   <trkpt lat="45.9433403015137" lon="7.2090916633606">
    <ele>1695.59997558594</ele>
    <time>2012-06-25T15:46:15Z</time>
   </trkpt>
   <trkpt lat="45.943187713623" lon="7.2091474533081">
    <ele>1695.59997558594</ele>
    <time>2012-06-25T15:46:21Z</time>
   </trkpt>
   <trkpt lat="45.9431610107422" lon="7.2091555595398">
    <ele>1696</ele>
    <time>2012-06-25T15:46:22Z</time>
   </trkpt>
   <trkpt lat="45.9431381225586" lon="7.20916271209717">
    <ele>1696.40002441406</ele>
    <time>2012-06-25T15:46:23Z</time>
   </trkpt>
   <trkpt lat="45.9431114196777" lon="7.20916986465454">
    <ele>1696.79992675781</ele>
    <time>2012-06-25T15:46:24Z</time>
   </trkpt>
   <trkpt lat="45.9430847167969" lon="7.20917272567749">
    <ele>1697.19995117188</ele>
    <time>2012-06-25T15:46:25Z</time>
   </trkpt>
   <trkpt lat="45.9430656433106" lon="7.20917272567749">
    <ele>1697.59997558594</ele>
    <time>2012-06-25T15:46:26Z</time>
   </trkpt>
   <trkpt lat="45.9430160522461" lon="7.20918273925781">
    <ele>1697.59997558594</ele>
    <time>2012-06-25T15:46:28Z</time>
   </trkpt>
   <trkpt lat="45.9428749084473" lon="7.20919895172119">
    <ele>1698.79992675781</ele>
    <time>2012-06-25T15:46:34Z</time>
   </trkpt>
   <trkpt lat="45.9428443908691" lon="7.20921230316162">
    <ele>1699</ele>
    <time>2012-06-25T15:46:35Z</time>
   </trkpt>
   <trkpt lat="45.9428215026856" lon="7.20922470092774">
    <ele>1699.19995117188</ele>
    <time>2012-06-25T15:46:36Z</time>
   </trkpt>
   <trkpt lat="45.9427909851074" lon="7.20923471450806">
    <ele>1699.40002441406</ele>
    <time>2012-06-25T15:46:37Z</time>
   </trkpt>
   <trkpt lat="45.9427604675293" lon="7.20923900604248">
    <ele>1699.59997558594</ele>
    <time>2012-06-25T15:46:38Z</time>
   </trkpt>
   <trkpt lat="45.9427108764648" lon="7.20925903320312">
    <ele>1699.59997558594</ele>
    <time>2012-06-25T15:46:40Z</time>
   </trkpt>
   <trkpt lat="45.9426574707031" lon="7.2092661857605">
    <ele>1700</ele>
    <time>2012-06-25T15:46:42Z</time>
   </trkpt>
   <trkpt lat="45.9425926208496" lon="7.20928573608398">
    <ele>1700.59997558594</ele>
    <time>2012-06-25T15:46:45Z</time>
   </trkpt>
   <trkpt lat="45.942569732666" lon="7.20929145812988">
    <ele>1700.80004882812</ele>
    <time>2012-06-25T15:46:46Z</time>
   </trkpt>
   <trkpt lat="45.9425506591797" lon="7.20929384231567">
    <ele>1701</ele>
    <time>2012-06-25T15:46:47Z</time>
   </trkpt>
   <trkpt lat="45.9425277709961" lon="7.20930099487305">
    <ele>1701.20007324219</ele>
    <time>2012-06-25T15:46:48Z</time>
   </trkpt>
   <trkpt lat="45.942512512207" lon="7.20931005477905">
    <ele>1701.40002441406</ele>
    <time>2012-06-25T15:46:49Z</time>
   </trkpt>
   <trkpt lat="45.9424896240234" lon="7.20931577682495">
    <ele>1701.60009765625</ele>
    <time>2012-06-25T15:46:50Z</time>
   </trkpt>
   <trkpt lat="45.9424629211426" lon="7.20931959152222">
    <ele>1701.80004882812</ele>
    <time>2012-06-25T15:46:51Z</time>
   </trkpt>
   <trkpt lat="45.9424171447754" lon="7.20933103561401">
    <ele>1701.80004882812</ele>
    <time>2012-06-25T15:46:53Z</time>
   </trkpt>
   <trkpt lat="45.9422454833984" lon="7.20937395095825">
    <ele>1702.96667480469</ele>
    <time>2012-06-25T15:47:00Z</time>
   </trkpt>
   <trkpt lat="45.9422187805176" lon="7.20937395095825">
    <ele>1703.13342285156</ele>
    <time>2012-06-25T15:47:01Z</time>
   </trkpt>
   <trkpt lat="45.942195892334" lon="7.20937776565552">
    <ele>1703.30004882812</ele>
    <time>2012-06-25T15:47:02Z</time>
   </trkpt>
   <trkpt lat="45.9421691894531" lon="7.20938205718994">
    <ele>1703.46667480469</ele>
    <time>2012-06-25T15:47:03Z</time>
   </trkpt>
   <trkpt lat="45.942138671875" lon="7.20938682556152">
    <ele>1703.63342285156</ele>
    <time>2012-06-25T15:47:04Z</time>
   </trkpt>
   <trkpt lat="45.9421081542969" lon="7.20939683914185">
    <ele>1703.80004882812</ele>
    <time>2012-06-25T15:47:05Z</time>
   </trkpt>
   <trkpt lat="45.9420738220215" lon="7.20940542221069">
    <ele>1703.80004882812</ele>
    <time>2012-06-25T15:47:06Z</time>
   </trkpt>
   <trkpt lat="45.9419174194336" lon="7.20942544937134">
    <ele>1704.9111328125</ele>
    <time>2012-06-25T15:47:11Z</time>
   </trkpt>
   <trkpt lat="45.9418907165527" lon="7.20942831039429">
    <ele>1705.13342285156</ele>
    <time>2012-06-25T15:47:12Z</time>
   </trkpt>
   <trkpt lat="45.9418601989746" lon="7.20942783355713">
    <ele>1705.35559082031</ele>
    <time>2012-06-25T15:47:13Z</time>
   </trkpt>
   <trkpt lat="45.9418296813965" lon="7.20943069458008">
    <ele>1705.57788085938</ele>
    <time>2012-06-25T15:47:14Z</time>
   </trkpt>
   <trkpt lat="45.9417991638184" lon="7.20943117141724">
    <ele>1705.80004882812</ele>
    <time>2012-06-25T15:47:15Z</time>
   </trkpt>
   <trkpt lat="45.9415893554688" lon="7.20943069458008">
    <ele>1705.80004882812</ele>
    <time>2012-06-25T15:47:22Z</time>
   </trkpt>
   <trkpt lat="45.9415588378906" lon="7.20942497253418">
    <ele>1706.23999023438</ele>
    <time>2012-06-25T15:47:23Z</time>
   </trkpt>
   <trkpt lat="45.9415283203125" lon="7.20942068099976">
    <ele>1706.68005371094</ele>
    <time>2012-06-25T15:47:24Z</time>
   </trkpt>
   <trkpt lat="45.9415130615234" lon="7.20942115783691">
    <ele>1707.11999511719</ele>
    <time>2012-06-25T15:47:25Z</time>
   </trkpt>
   <trkpt lat="45.9414863586426" lon="7.20941495895386">
    <ele>1707.56005859375</ele>
    <time>2012-06-25T15:47:26Z</time>
   </trkpt>
   <trkpt lat="45.9414596557617" lon="7.20941209793091">
    <ele>1708</ele>
    <time>2012-06-25T15:47:27Z</time>
   </trkpt>
   <trkpt lat="45.9414291381836" lon="7.20940256118774">
    <ele>1708</ele>
    <time>2012-06-25T15:47:28Z</time>
   </trkpt>
   <trkpt lat="45.94140625" lon="7.20939683914185">
    <ele>1708.21813964844</ele>
    <time>2012-06-25T15:47:29Z</time>
   </trkpt>
   <trkpt lat="45.9413261413574" lon="7.2093653678894">
    <ele>1708.87268066406</ele>
    <time>2012-06-25T15:47:32Z</time>
   </trkpt>
   <trkpt lat="45.9412727355957" lon="7.20933723449707">
    <ele>1709.30908203125</ele>
    <time>2012-06-25T15:47:34Z</time>
   </trkpt>
   <trkpt lat="45.9412498474121" lon="7.20932483673096">
    <ele>1709.52734375</ele>
    <time>2012-06-25T15:47:35Z</time>
   </trkpt>
   <trkpt lat="45.9412231445312" lon="7.20931100845337">
    <ele>1709.74548339844</ele>
    <time>2012-06-25T15:47:36Z</time>
   </trkpt>
   <trkpt lat="45.9411964416504" lon="7.20929956436157">
    <ele>1709.96362304688</ele>
    <time>2012-06-25T15:47:37Z</time>
   </trkpt>
   <trkpt lat="45.9411735534668" lon="7.2092866897583">
    <ele>1710.18188476562</ele>
    <time>2012-06-25T15:47:38Z</time>
   </trkpt>
   <trkpt lat="45.9411430358887" lon="7.20927906036377">
    <ele>1710.40002441406</ele>
    <time>2012-06-25T15:47:39Z</time>
   </trkpt>
   <trkpt lat="45.9410743713379" lon="7.20923185348511">
    <ele>1710.40002441406</ele>
    <time>2012-06-25T15:47:42Z</time>
   </trkpt>
   <trkpt lat="45.9409255981445" lon="7.20915603637695">
    <ele>1711.59997558594</ele>
    <time>2012-06-25T15:47:48Z</time>
   </trkpt>
   <trkpt lat="45.9408988952637" lon="7.209144115448">
    <ele>1711.80004882812</ele>
    <time>2012-06-25T15:47:49Z</time>
   </trkpt>
   <trkpt lat="45.9408721923828" lon="7.20912790298462">
    <ele>1712</ele>
    <time>2012-06-25T15:47:50Z</time>
   </trkpt>
   <trkpt lat="45.940845489502" lon="7.20911407470703">
    <ele>1712.20007324219</ele>
    <time>2012-06-25T15:47:51Z</time>
   </trkpt>
   <trkpt lat="45.9408264160156" lon="7.20909976959228">
    <ele>1712.40002441406</ele>
    <time>2012-06-25T15:47:52Z</time>
   </trkpt>
   <trkpt lat="45.9407272338867" lon="7.20906496047974">
    <ele>1712.40002441406</ele>
    <time>2012-06-25T15:47:56Z</time>
   </trkpt>
   <trkpt lat="45.9406814575195" lon="7.2090425491333">
    <ele>1713.06665039062</ele>
    <time>2012-06-25T15:47:58Z</time>
   </trkpt>
   <trkpt lat="45.9406585693359" lon="7.2090334892273">
    <ele>1713.40002441406</ele>
    <time>2012-06-25T15:47:59Z</time>
   </trkpt>
   <trkpt lat="45.9406356811523" lon="7.2090220451355">
    <ele>1713.7333984375</ele>
    <time>2012-06-25T15:48:00Z</time>
   </trkpt>
   <trkpt lat="45.9406089782715" lon="7.20901107788086">
    <ele>1714.06665039062</ele>
    <time>2012-06-25T15:48:01Z</time>
   </trkpt>
   <trkpt lat="45.9405899047852" lon="7.20899343490601">
    <ele>1714.40002441406</ele>
    <time>2012-06-25T15:48:02Z</time>
   </trkpt>
   <trkpt lat="45.9405479431152" lon="7.2089695930481">
    <ele>1714.40002441406</ele>
    <time>2012-06-25T15:48:04Z</time>
   </trkpt>
   <trkpt lat="45.9403915405273" lon="7.20893096923828">
    <ele>1715.71997070312</ele>
    <time>2012-06-25T15:48:10Z</time>
   </trkpt>
   <trkpt lat="45.9403686523438" lon="7.20892953872681">
    <ele>1715.93994140625</ele>
    <time>2012-06-25T15:48:11Z</time>
   </trkpt>
   <trkpt lat="45.9403495788574" lon="7.20892143249512">
    <ele>1716.16003417969</ele>
    <time>2012-06-25T15:48:12Z</time>
   </trkpt>
   <trkpt lat="45.9403228759766" lon="7.20891857147217">
    <ele>1716.38000488281</ele>
    <time>2012-06-25T15:48:13Z</time>
   </trkpt>
   <trkpt lat="45.9402961730957" lon="7.20891046524048">
    <ele>1716.59997558594</ele>
    <time>2012-06-25T15:48:14Z</time>
   </trkpt>
   <trkpt lat="45.9402236938477" lon="7.20889711380005">
    <ele>1716.59997558594</ele>
    <time>2012-06-25T15:48:17Z</time>
   </trkpt>
   <trkpt lat="45.9401016235352" lon="7.2088794708252">
    <ele>1717.85717773438</ele>
    <time>2012-06-25T15:48:21Z</time>
   </trkpt>
   <trkpt lat="45.9400749206543" lon="7.20886898040772">
    <ele>1718.17150878906</ele>
    <time>2012-06-25T15:48:22Z</time>
   </trkpt>
   <trkpt lat="45.9400444030762" lon="7.20886421203613">
    <ele>1718.48571777344</ele>
    <time>2012-06-25T15:48:23Z</time>
   </trkpt>
   <trkpt lat="45.940013885498" lon="7.20886182785034">
    <ele>1718.80004882812</ele>
    <time>2012-06-25T15:48:24Z</time>
   </trkpt>
   <trkpt lat="45.9399909973144" lon="7.20884132385254">
    <ele>1718.80004882812</ele>
    <time>2012-06-25T15:48:25Z</time>
   </trkpt>
   <trkpt lat="45.9398918151856" lon="7.20885372161865">
    <ele>1719.53332519531</ele>
    <time>2012-06-25T15:48:29Z</time>
   </trkpt>
   <trkpt lat="45.9397850036621" lon="7.20886516571045">
    <ele>1720.26672363281</ele>
    <time>2012-06-25T15:48:33Z</time>
   </trkpt>
   <trkpt lat="45.939754486084" lon="7.20887279510498">
    <ele>1720.44995117188</ele>
    <time>2012-06-25T15:48:34Z</time>
   </trkpt>
   <trkpt lat="45.9397201538086" lon="7.20888519287109">
    <ele>1720.63330078125</ele>
    <time>2012-06-25T15:48:35Z</time>
   </trkpt>
   <trkpt lat="45.939697265625" lon="7.20889663696289">
    <ele>1720.81665039062</ele>
    <time>2012-06-25T15:48:36Z</time>
   </trkpt>
   <trkpt lat="45.9396591186523" lon="7.20891427993774">
    <ele>1721</ele>
    <time>2012-06-25T15:48:37Z</time>
   </trkpt>
   <trkpt lat="45.9395523071289" lon="7.20894718170166">
    <ele>1721</ele>
    <time>2012-06-25T15:48:40Z</time>
   </trkpt>
   <trkpt lat="45.9393577575684" lon="7.20901346206665">
    <ele>1722.19995117188</ele>
    <time>2012-06-25T15:48:46Z</time>
   </trkpt>
   <trkpt lat="45.9393310546875" lon="7.20901870727539">
    <ele>1722.40002441406</ele>
    <time>2012-06-25T15:48:47Z</time>
   </trkpt>
   <trkpt lat="45.9393005371094" lon="7.20902347564697">
    <ele>1722.59997558594</ele>
    <time>2012-06-25T15:48:48Z</time>
   </trkpt>
   <trkpt lat="45.9392700195312" lon="7.2090368270874">
    <ele>1722.80004882812</ele>
    <time>2012-06-25T15:48:49Z</time>
   </trkpt>
   <trkpt lat="45.9392395019531" lon="7.20904684066772">
    <ele>1723</ele>
    <time>2012-06-25T15:48:50Z</time>
   </trkpt>
   <trkpt lat="45.9391441345215" lon="7.20908260345459">
    <ele>1723</ele>
    <time>2012-06-25T15:48:53Z</time>
   </trkpt>
   <trkpt lat="45.9389839172363" lon="7.20913648605347">
    <ele>1724</ele>
    <time>2012-06-25T15:48:58Z</time>
   </trkpt>
   <trkpt lat="45.9389572143555" lon="7.20914268493652">
    <ele>1724.19995117188</ele>
    <time>2012-06-25T15:48:59Z</time>
   </trkpt>
   <trkpt lat="45.9389305114746" lon="7.20914316177368">
    <ele>1724.40002441406</ele>
    <time>2012-06-25T15:49:00Z</time>
   </trkpt>
   <trkpt lat="45.9389038085938" lon="7.209144115448">
    <ele>1724.59997558594</ele>
    <time>2012-06-25T15:49:01Z</time>
   </trkpt>
   <trkpt lat="45.9388771057129" lon="7.20915412902832">
    <ele>1724.80004882812</ele>
    <time>2012-06-25T15:49:02Z</time>
   </trkpt>
   <trkpt lat="45.9388542175293" lon="7.20916318893433">
    <ele>1725</ele>
    <time>2012-06-25T15:49:03Z</time>
   </trkpt>
   <trkpt lat="45.9388084411621" lon="7.2091794013977">
    <ele>1725</ele>
    <time>2012-06-25T15:49:05Z</time>
   </trkpt>
   <trkpt lat="45.9387550354004" lon="7.20918893814087">
    <ele>1725.28576660156</ele>
    <time>2012-06-25T15:49:07Z</time>
   </trkpt>
   <trkpt lat="45.9386367797852" lon="7.20920705795288">
    <ele>1725.85717773438</ele>
    <time>2012-06-25T15:49:11Z</time>
   </trkpt>
   <trkpt lat="45.9385986328125" lon="7.20919799804688">
    <ele>1726</ele>
    <time>2012-06-25T15:49:12Z</time>
   </trkpt>
   <trkpt lat="45.9385070800781" lon="7.20917749404907">
    <ele>1726.42858886719</ele>
    <time>2012-06-25T15:49:15Z</time>
   </trkpt>
   <trkpt lat="45.9384765625" lon="7.20916938781738">
    <ele>1726.57141113281</ele>
    <time>2012-06-25T15:49:16Z</time>
   </trkpt>
   <trkpt lat="45.9384536743164" lon="7.20915937423706">
    <ele>1726.71423339844</ele>
    <time>2012-06-25T15:49:17Z</time>
   </trkpt>
   <trkpt lat="45.9384269714356" lon="7.209153175354">
    <ele>1726.85717773438</ele>
    <time>2012-06-25T15:49:18Z</time>
   </trkpt>
   <trkpt lat="45.938404083252" lon="7.20912885665894">
    <ele>1727</ele>
    <time>2012-06-25T15:49:19Z</time>
   </trkpt>
   <trkpt lat="45.9382705688477" lon="7.20913791656494">
    <ele>1727</ele>
    <time>2012-06-25T15:49:24Z</time>
   </trkpt>
   <trkpt lat="45.9382133483887" lon="7.2091383934021">
    <ele>1727.55004882812</ele>
    <time>2012-06-25T15:49:26Z</time>
   </trkpt>
   <trkpt lat="45.938159942627" lon="7.20914030075073">
    <ele>1728.09997558594</ele>
    <time>2012-06-25T15:49:28Z</time>
   </trkpt>
   <trkpt lat="45.9381294250488" lon="7.20913982391357">
    <ele>1728.375</ele>
    <time>2012-06-25T15:49:29Z</time>
   </trkpt>
   <trkpt lat="45.938102722168" lon="7.20913982391357">
    <ele>1728.64990234375</ele>
    <time>2012-06-25T15:49:30Z</time>
   </trkpt>
   <trkpt lat="45.9380760192871" lon="7.20913410186768">
    <ele>1728.92492675781</ele>
    <time>2012-06-25T15:49:31Z</time>
   </trkpt>
   <trkpt lat="45.938045501709" lon="7.20912647247314">
    <ele>1729.19995117188</ele>
    <time>2012-06-25T15:49:32Z</time>
   </trkpt>
   <trkpt lat="45.9379959106445" lon="7.20912504196167">
    <ele>1729.19995117188</ele>
    <time>2012-06-25T15:49:34Z</time>
   </trkpt>
   <trkpt lat="45.937915802002" lon="7.20911121368408">
    <ele>1730.05712890625</ele>
    <time>2012-06-25T15:49:37Z</time>
   </trkpt>
   <trkpt lat="45.9378890991211" lon="7.20910882949829">
    <ele>1730.3427734375</ele>
    <time>2012-06-25T15:49:38Z</time>
   </trkpt>
   <trkpt lat="45.9378623962402" lon="7.2091007232666">
    <ele>1730.62854003906</ele>
    <time>2012-06-25T15:49:39Z</time>
   </trkpt>
   <trkpt lat="45.9378280639648" lon="7.20909452438354">
    <ele>1730.91418457031</ele>
    <time>2012-06-25T15:49:40Z</time>
   </trkpt>
   <trkpt lat="45.9377975463867" lon="7.20909309387207">
    <ele>1731.19995117188</ele>
    <time>2012-06-25T15:49:41Z</time>
   </trkpt>
   <trkpt lat="45.9377708435059" lon="7.2090892791748">
    <ele>1731.19995117188</ele>
    <time>2012-06-25T15:49:42Z</time>
   </trkpt>
   <trkpt lat="45.9375305175781" lon="7.20904874801636">
    <ele>1732.53332519531</ele>
    <time>2012-06-25T15:49:50Z</time>
   </trkpt>
   <trkpt lat="45.9375" lon="7.20904636383057">
    <ele>1732.69995117188</ele>
    <time>2012-06-25T15:49:51Z</time>
   </trkpt>
   <trkpt lat="45.9374771118164" lon="7.20904874801636">
    <ele>1732.86657714844</ele>
    <time>2012-06-25T15:49:52Z</time>
   </trkpt>
   <trkpt lat="45.9374465942383" lon="7.2090425491333">
    <ele>1733.03332519531</ele>
    <time>2012-06-25T15:49:53Z</time>
   </trkpt>
   <trkpt lat="45.9374160766602" lon="7.20903158187866">
    <ele>1733.19995117188</ele>
    <time>2012-06-25T15:49:54Z</time>
   </trkpt>
   <trkpt lat="45.9373321533203" lon="7.20898580551148">
    <ele>1733.19995117188</ele>
    <time>2012-06-25T15:49:57Z</time>
   </trkpt>
   <trkpt lat="45.9372901916504" lon="7.20897817611694">
    <ele>1733.75</ele>
    <time>2012-06-25T15:49:59Z</time>
   </trkpt>
   <trkpt lat="45.9372253417969" lon="7.20895957946777">
    <ele>1734.30004882812</ele>
    <time>2012-06-25T15:50:01Z</time>
   </trkpt>
   <trkpt lat="45.937198638916" lon="7.20894575119018">
    <ele>1734.57495117188</ele>
    <time>2012-06-25T15:50:02Z</time>
   </trkpt>
   <trkpt lat="45.9371643066406" lon="7.20893287658691">
    <ele>1734.84997558594</ele>
    <time>2012-06-25T15:50:03Z</time>
   </trkpt>
   <trkpt lat="45.9371376037598" lon="7.20892858505249">
    <ele>1735.125</ele>
    <time>2012-06-25T15:50:04Z</time>
   </trkpt>
   <trkpt lat="45.9371070861816" lon="7.20892238616943">
    <ele>1735.40002441406</ele>
    <time>2012-06-25T15:50:05Z</time>
   </trkpt>
   <trkpt lat="45.9369010925293" lon="7.20886564254761">
    <ele>1735.40002441406</ele>
    <time>2012-06-25T15:50:12Z</time>
   </trkpt>
   <trkpt lat="45.9368133544922" lon="7.20883846282959">
    <ele>1736.34289550781</ele>
    <time>2012-06-25T15:50:15Z</time>
   </trkpt>
   <trkpt lat="45.9367828369141" lon="7.20883131027222">
    <ele>1736.65710449219</ele>
    <time>2012-06-25T15:50:16Z</time>
   </trkpt>
   <trkpt lat="45.9367485046387" lon="7.20880699157715">
    <ele>1736.97143554688</ele>
    <time>2012-06-25T15:50:17Z</time>
   </trkpt>
   <trkpt lat="45.9367179870606" lon="7.20879602432251">
    <ele>1737.28564453125</ele>
    <time>2012-06-25T15:50:18Z</time>
   </trkpt>
   <trkpt lat="45.9366836547852" lon="7.20878553390503">
    <ele>1737.59997558594</ele>
    <time>2012-06-25T15:50:19Z</time>
   </trkpt>
   <trkpt lat="45.9366226196289" lon="7.20875835418701">
    <ele>1737.59997558594</ele>
    <time>2012-06-25T15:50:21Z</time>
   </trkpt>
   <trkpt lat="45.9364776611328" lon="7.20868110656738">
    <ele>1738.93334960938</ele>
    <time>2012-06-25T15:50:26Z</time>
   </trkpt>
   <trkpt lat="45.9364471435547" lon="7.20867013931274">
    <ele>1739.19995117188</ele>
    <time>2012-06-25T15:50:27Z</time>
   </trkpt>
   <trkpt lat="45.9364204406738" lon="7.20865964889526">
    <ele>1739.46667480469</ele>
    <time>2012-06-25T15:50:28Z</time>
   </trkpt>
   <trkpt lat="45.936393737793" lon="7.20865106582642">
    <ele>1739.73327636719</ele>
    <time>2012-06-25T15:50:29Z</time>
   </trkpt>
   <trkpt lat="45.9363670349121" lon="7.20864200592041">
    <ele>1740</ele>
    <time>2012-06-25T15:50:30Z</time>
   </trkpt>
   <trkpt lat="45.9362106323242" lon="7.20855474472046">
    <ele>1740</ele>
    <time>2012-06-25T15:50:36Z</time>
   </trkpt>
   <trkpt lat="45.9361572265625" lon="7.20852375030518">
    <ele>1740.494140625</ele>
    <time>2012-06-25T15:50:38Z</time>
   </trkpt>
   <trkpt lat="45.9361305236816" lon="7.20851135253906">
    <ele>1740.7412109375</ele>
    <time>2012-06-25T15:50:39Z</time>
   </trkpt>
   <trkpt lat="45.936107635498" lon="7.20850801467896">
    <ele>1740.98828125</ele>
    <time>2012-06-25T15:50:40Z</time>
   </trkpt>
   <trkpt lat="45.9360847473144" lon="7.20849895477295">
    <ele>1741.23522949219</ele>
    <time>2012-06-25T15:50:41Z</time>
   </trkpt>
   <trkpt lat="45.9360580444336" lon="7.20847988128662">
    <ele>1741.48229980469</ele>
    <time>2012-06-25T15:50:42Z</time>
   </trkpt>
   <trkpt lat="45.9358367919922" lon="7.20835733413696">
    <ele>1743.45874023438</ele>
    <time>2012-06-25T15:50:50Z</time>
   </trkpt>
   <trkpt lat="45.9358100891113" lon="7.20834398269653">
    <ele>1743.70581054688</ele>
    <time>2012-06-25T15:50:51Z</time>
   </trkpt>
   <trkpt lat="45.9357833862305" lon="7.2083330154419">
    <ele>1743.95288085938</ele>
    <time>2012-06-25T15:50:52Z</time>
   </trkpt>
   <trkpt lat="45.9357566833496" lon="7.20832252502441">
    <ele>1744.19995117188</ele>
    <time>2012-06-25T15:50:53Z</time>
   </trkpt>
   <trkpt lat="45.935604095459" lon="7.20826435089111">
    <ele>1744.19995117188</ele>
    <time>2012-06-25T15:50:58Z</time>
   </trkpt>
   <trkpt lat="45.9355201721191" lon="7.20824241638184">
    <ele>1745.14282226562</ele>
    <time>2012-06-25T15:51:01Z</time>
   </trkpt>
   <trkpt lat="45.9354934692383" lon="7.20823049545288">
    <ele>1745.45715332031</ele>
    <time>2012-06-25T15:51:02Z</time>
   </trkpt>
   <trkpt lat="45.9354629516602" lon="7.20821857452393">
    <ele>1745.771484375</ele>
    <time>2012-06-25T15:51:03Z</time>
   </trkpt>
   <trkpt lat="45.9354362487793" lon="7.20820617675781">
    <ele>1746.08569335938</ele>
    <time>2012-06-25T15:51:04Z</time>
   </trkpt>
   <trkpt lat="45.9354095458984" lon="7.20819711685181">
    <ele>1746.40002441406</ele>
    <time>2012-06-25T15:51:05Z</time>
   </trkpt>
   <trkpt lat="45.9353561401367" lon="7.20817995071411">
    <ele>1746.40002441406</ele>
    <time>2012-06-25T15:51:07Z</time>
   </trkpt>
   <trkpt lat="45.9350929260254" lon="7.20812654495239">
    <ele>1747.91198730469</ele>
    <time>2012-06-25T15:51:16Z</time>
   </trkpt>
   <trkpt lat="45.9350395202637" lon="7.20812225341797">
    <ele>1748.248046875</ele>
    <time>2012-06-25T15:51:18Z</time>
   </trkpt>
   <trkpt lat="45.9350128173828" lon="7.20811891555786">
    <ele>1748.416015625</ele>
    <time>2012-06-25T15:51:19Z</time>
   </trkpt>
   <trkpt lat="45.934986114502" lon="7.20811462402344">
    <ele>1748.583984375</ele>
    <time>2012-06-25T15:51:20Z</time>
   </trkpt>
   <trkpt lat="45.9349632263184" lon="7.20810890197754">
    <ele>1748.751953125</ele>
    <time>2012-06-25T15:51:21Z</time>
   </trkpt>
   <trkpt lat="45.934944152832" lon="7.20810413360596">
    <ele>1748.92004394531</ele>
    <time>2012-06-25T15:51:22Z</time>
   </trkpt>
   <trkpt lat="45.9347801208496" lon="7.2080807685852">
    <ele>1749.92797851562</ele>
    <time>2012-06-25T15:51:28Z</time>
   </trkpt>
   <trkpt lat="45.9347496032715" lon="7.20807504653931">
    <ele>1750.09594726562</ele>
    <time>2012-06-25T15:51:29Z</time>
   </trkpt>
   <trkpt lat="45.9347152709961" lon="7.20806694030762">
    <ele>1750.26403808594</ele>
    <time>2012-06-25T15:51:30Z</time>
   </trkpt>
   <trkpt lat="45.934684753418" lon="7.20805931091309">
    <ele>1750.43200683594</ele>
    <time>2012-06-25T15:51:31Z</time>
   </trkpt>
   <trkpt lat="45.9346542358398" lon="7.20805263519287">
    <ele>1750.59997558594</ele>
    <time>2012-06-25T15:51:32Z</time>
   </trkpt>
   <trkpt lat="45.9345321655273" lon="7.20801401138306">
    <ele>1750.59997558594</ele>
    <time>2012-06-25T15:51:36Z</time>
   </trkpt>
   <trkpt lat="45.9344482421875" lon="7.20797920227051">
    <ele>1751.45715332031</ele>
    <time>2012-06-25T15:51:39Z</time>
   </trkpt>
   <trkpt lat="45.9344177246094" lon="7.2079668045044">
    <ele>1751.74279785156</ele>
    <time>2012-06-25T15:51:40Z</time>
   </trkpt>
   <trkpt lat="45.9343910217285" lon="7.20795822143555">
    <ele>1752.02856445312</ele>
    <time>2012-06-25T15:51:41Z</time>
   </trkpt>
   <trkpt lat="45.9343605041504" lon="7.20795011520386">
    <ele>1752.31420898438</ele>
    <time>2012-06-25T15:51:42Z</time>
   </trkpt>
   <trkpt lat="45.9343299865723" lon="7.20794200897217">
    <ele>1752.59997558594</ele>
    <time>2012-06-25T15:51:43Z</time>
   </trkpt>
   <trkpt lat="45.934268951416" lon="7.20792245864868">
    <ele>1752.59997558594</ele>
    <time>2012-06-25T15:51:45Z</time>
   </trkpt>
   <trkpt lat="45.9340629577637" lon="7.20784282684326">
    <ele>1753.87268066406</ele>
    <time>2012-06-25T15:51:52Z</time>
   </trkpt>
   <trkpt lat="45.9340400695801" lon="7.20782709121704">
    <ele>1754.05456542969</ele>
    <time>2012-06-25T15:51:53Z</time>
   </trkpt>
   <trkpt lat="45.934009552002" lon="7.20781373977661">
    <ele>1754.236328125</ele>
    <time>2012-06-25T15:51:54Z</time>
   </trkpt>
   <trkpt lat="45.9339828491211" lon="7.2077956199646">
    <ele>1754.41821289062</ele>
    <time>2012-06-25T15:51:55Z</time>
   </trkpt>
   <trkpt lat="45.9339599609375" lon="7.2077784538269">
    <ele>1754.59997558594</ele>
    <time>2012-06-25T15:51:56Z</time>
   </trkpt>
   <trkpt lat="45.9338874816894" lon="7.20772933959961">
    <ele>1754.59997558594</ele>
    <time>2012-06-25T15:51:59Z</time>
   </trkpt>
   <trkpt lat="45.9337844848633" lon="7.20767450332642">
    <ele>1755.69995117188</ele>
    <time>2012-06-25T15:52:03Z</time>
   </trkpt>
   <trkpt lat="45.9337577819824" lon="7.20765924453735">
    <ele>1755.97497558594</ele>
    <time>2012-06-25T15:52:04Z</time>
   </trkpt>
   <trkpt lat="45.9337310791016" lon="7.2076416015625">
    <ele>1756.25</ele>
    <time>2012-06-25T15:52:05Z</time>
   </trkpt>
   <trkpt lat="45.9337043762207" lon="7.20762634277344">
    <ele>1756.52502441406</ele>
    <time>2012-06-25T15:52:06Z</time>
   </trkpt>
   <trkpt lat="45.9336776733398" lon="7.20761156082153">
    <ele>1756.80004882812</ele>
    <time>2012-06-25T15:52:07Z</time>
   </trkpt>
   <trkpt lat="45.9335746765137" lon="7.20757007598877">
    <ele>1756.80004882812</ele>
    <time>2012-06-25T15:52:11Z</time>
   </trkpt>
   <trkpt lat="45.933521270752" lon="7.20756673812866">
    <ele>1757.46667480469</ele>
    <time>2012-06-25T15:52:13Z</time>
   </trkpt>
   <trkpt lat="45.9334907531738" lon="7.20756721496582">
    <ele>1757.80004882812</ele>
    <time>2012-06-25T15:52:14Z</time>
   </trkpt>
   <trkpt lat="45.933464050293" lon="7.20756530761719">
    <ele>1758.13342285156</ele>
    <time>2012-06-25T15:52:15Z</time>
   </trkpt>
   <trkpt lat="45.9334335327148" lon="7.20755243301392">
    <ele>1758.46667480469</ele>
    <time>2012-06-25T15:52:16Z</time>
   </trkpt>
   <trkpt lat="45.9334030151367" lon="7.20754146575928">
    <ele>1758.80004882812</ele>
    <time>2012-06-25T15:52:17Z</time>
   </trkpt>
   <trkpt lat="45.9333114624023" lon="7.2075138092041">
    <ele>1758.80004882812</ele>
    <time>2012-06-25T15:52:20Z</time>
   </trkpt>
   <trkpt lat="45.9331741333008" lon="7.20745658874512">
    <ele>1760.17504882812</ele>
    <time>2012-06-25T15:52:25Z</time>
   </trkpt>
   <trkpt lat="45.9331436157227" lon="7.2074499130249">
    <ele>1760.44995117188</ele>
    <time>2012-06-25T15:52:26Z</time>
   </trkpt>
   <trkpt lat="45.9331169128418" lon="7.20744276046753">
    <ele>1760.72497558594</ele>
    <time>2012-06-25T15:52:27Z</time>
   </trkpt>
   <trkpt lat="45.9330711364746" lon="7.20736789703369">
    <ele>1761</ele>
    <time>2012-06-25T15:52:28Z</time>
   </trkpt>
   <trkpt lat="45.9328536987305" lon="7.20720386505127">
    <ele>1761</ele>
    <time>2012-06-25T15:52:35Z</time>
   </trkpt>
   <trkpt lat="45.9327583312988" lon="7.20715284347534">
    <ele>1761.94287109375</ele>
    <time>2012-06-25T15:52:38Z</time>
   </trkpt>
   <trkpt lat="45.9327278137207" lon="7.20714330673218">
    <ele>1762.25708007812</ele>
    <time>2012-06-25T15:52:39Z</time>
   </trkpt>
   <trkpt lat="45.9327011108398" lon="7.20713138580322">
    <ele>1762.57141113281</ele>
    <time>2012-06-25T15:52:40Z</time>
   </trkpt>
   <trkpt lat="45.9326705932617" lon="7.20711851119995">
    <ele>1762.88562011719</ele>
    <time>2012-06-25T15:52:41Z</time>
   </trkpt>
   <trkpt lat="45.9326438903809" lon="7.20710229873657">
    <ele>1763.19995117188</ele>
    <time>2012-06-25T15:52:42Z</time>
   </trkpt>
   <trkpt lat="45.9325675964356" lon="7.20705080032349">
    <ele>1763.19995117188</ele>
    <time>2012-06-25T15:52:45Z</time>
   </trkpt>
   <trkpt lat="45.932445526123" lon="7.20700407028198">
    <ele>1764.44995117188</ele>
    <time>2012-06-25T15:52:50Z</time>
   </trkpt>
   <trkpt lat="45.9324111938477" lon="7.20699644088745">
    <ele>1764.69995117188</ele>
    <time>2012-06-25T15:52:51Z</time>
   </trkpt>
   <trkpt lat="45.9323806762695" lon="7.20698690414429">
    <ele>1764.94995117188</ele>
    <time>2012-06-25T15:52:52Z</time>
   </trkpt>
   <trkpt lat="45.9323539733887" lon="7.20697355270386">
    <ele>1765.19995117188</ele>
    <time>2012-06-25T15:52:53Z</time>
   </trkpt>
   <trkpt lat="45.9322166442871" lon="7.20688724517822">
    <ele>1765.19995117188</ele>
    <time>2012-06-25T15:52:58Z</time>
   </trkpt>
   <trkpt lat="45.9321899414062" lon="7.20687103271484">
    <ele>1765.64001464844</ele>
    <time>2012-06-25T15:52:59Z</time>
   </trkpt>
   <trkpt lat="45.9321708679199" lon="7.20685291290283">
    <ele>1766.07995605469</ele>
    <time>2012-06-25T15:53:00Z</time>
   </trkpt>
   <trkpt lat="45.9321479797363" lon="7.20683717727661">
    <ele>1766.52001953125</ele>
    <time>2012-06-25T15:53:01Z</time>
   </trkpt>
   <trkpt lat="45.9321212768555" lon="7.20682144165039">
    <ele>1766.9599609375</ele>
    <time>2012-06-25T15:53:02Z</time>
   </trkpt>
   <trkpt lat="45.9320945739746" lon="7.20680379867554">
    <ele>1767.40002441406</ele>
    <time>2012-06-25T15:53:03Z</time>
   </trkpt>
   <trkpt lat="45.9320678710938" lon="7.206787109375">
    <ele>1767.40002441406</ele>
    <time>2012-06-25T15:53:04Z</time>
   </trkpt>
   <trkpt lat="45.9319343566894" lon="7.20669221878052">
    <ele>1768.40002441406</ele>
    <time>2012-06-25T15:53:09Z</time>
   </trkpt>
   <trkpt lat="45.9318809509277" lon="7.20666074752808">
    <ele>1768.80004882812</ele>
    <time>2012-06-25T15:53:11Z</time>
   </trkpt>
   <trkpt lat="45.9318542480469" lon="7.20664119720459">
    <ele>1769</ele>
    <time>2012-06-25T15:53:12Z</time>
   </trkpt>
   <trkpt lat="45.9318313598633" lon="7.20662117004394">
    <ele>1769.19995117188</ele>
    <time>2012-06-25T15:53:13Z</time>
   </trkpt>
   <trkpt lat="45.9318046569824" lon="7.20660448074341">
    <ele>1769.40002441406</ele>
    <time>2012-06-25T15:53:14Z</time>
   </trkpt>
   <trkpt lat="45.9317817687988" lon="7.20658445358276">
    <ele>1769.59997558594</ele>
    <time>2012-06-25T15:53:15Z</time>
   </trkpt>
   <trkpt lat="45.9317054748535" lon="7.20652389526367">
    <ele>1769.59997558594</ele>
    <time>2012-06-25T15:53:18Z</time>
   </trkpt>
   <trkpt lat="45.9316101074219" lon="7.20645618438721">
    <ele>1770.59997558594</ele>
    <time>2012-06-25T15:53:22Z</time>
   </trkpt>
   <trkpt lat="45.931583404541" lon="7.20643949508667">
    <ele>1770.84997558594</ele>
    <time>2012-06-25T15:53:23Z</time>
   </trkpt>
   <trkpt lat="45.9315605163574" lon="7.20642280578613">
    <ele>1771.09997558594</ele>
    <time>2012-06-25T15:53:24Z</time>
   </trkpt>
   <trkpt lat="45.9315338134766" lon="7.20640563964844">
    <ele>1771.34997558594</ele>
    <time>2012-06-25T15:53:25Z</time>
   </trkpt>
   <trkpt lat="45.931510925293" lon="7.20638942718506">
    <ele>1771.59997558594</ele>
    <time>2012-06-25T15:53:26Z</time>
   </trkpt>
   <trkpt lat="45.9314613342285" lon="7.2063570022583">
    <ele>1771.59997558594</ele>
    <time>2012-06-25T15:53:28Z</time>
   </trkpt>
   <trkpt lat="45.9313621520996" lon="7.20630216598511">
    <ele>1772.59997558594</ele>
    <time>2012-06-25T15:53:32Z</time>
   </trkpt>
   <trkpt lat="45.931339263916" lon="7.20629024505615">
    <ele>1772.84997558594</ele>
    <time>2012-06-25T15:53:33Z</time>
   </trkpt>
   <trkpt lat="45.9313125610352" lon="7.20627546310425">
    <ele>1773.09997558594</ele>
    <time>2012-06-25T15:53:34Z</time>
   </trkpt>
   <trkpt lat="45.9312896728516" lon="7.20626306533814">
    <ele>1773.34997558594</ele>
    <time>2012-06-25T15:53:35Z</time>
   </trkpt>
   <trkpt lat="45.931266784668" lon="7.2062520980835">
    <ele>1773.59997558594</ele>
    <time>2012-06-25T15:53:36Z</time>
   </trkpt>
   <trkpt lat="45.9312400817871" lon="7.20624017715454">
    <ele>1773.59997558594</ele>
    <time>2012-06-25T15:53:37Z</time>
   </trkpt>
   <trkpt lat="45.9310455322266" lon="7.20619201660156">
    <ele>1774.67687988281</ele>
    <time>2012-06-25T15:53:44Z</time>
   </trkpt>
   <trkpt lat="45.9309959411621" lon="7.20616102218628">
    <ele>1774.98461914062</ele>
    <time>2012-06-25T15:53:46Z</time>
   </trkpt>
   <trkpt lat="45.9309692382812" lon="7.20614576339722">
    <ele>1775.13842773438</ele>
    <time>2012-06-25T15:53:47Z</time>
   </trkpt>
   <trkpt lat="45.9309463500977" lon="7.20613145828247">
    <ele>1775.29223632812</ele>
    <time>2012-06-25T15:53:48Z</time>
   </trkpt>
   <trkpt lat="45.9309196472168" lon="7.20611810684204">
    <ele>1775.44616699219</ele>
    <time>2012-06-25T15:53:49Z</time>
   </trkpt>
   <trkpt lat="45.9308967590332" lon="7.20610475540161">
    <ele>1775.59997558594</ele>
    <time>2012-06-25T15:53:50Z</time>
   </trkpt>
   <trkpt lat="45.930721282959" lon="7.20605182647705">
    <ele>1775.59997558594</ele>
    <time>2012-06-25T15:53:57Z</time>
   </trkpt>
   <trkpt lat="45.9306411743164" lon="7.20604467391968">
    <ele>1776.54284667969</ele>
    <time>2012-06-25T15:54:00Z</time>
   </trkpt>
   <trkpt lat="45.9306106567383" lon="7.20604276657104">
    <ele>1776.85717773438</ele>
    <time>2012-06-25T15:54:01Z</time>
   </trkpt>
   <trkpt lat="45.9305839538574" lon="7.20603942871094">
    <ele>1777.17150878906</ele>
    <time>2012-06-25T15:54:02Z</time>
   </trkpt>
   <trkpt lat="45.9305610656738" lon="7.20603609085083">
    <ele>1777.48571777344</ele>
    <time>2012-06-25T15:54:03Z</time>
   </trkpt>
   <trkpt lat="45.930534362793" lon="7.20602989196777">
    <ele>1777.80004882812</ele>
    <time>2012-06-25T15:54:04Z</time>
   </trkpt>
   <trkpt lat="45.9303207397461" lon="7.20596313476562">
    <ele>1777.80004882812</ele>
    <time>2012-06-25T15:54:12Z</time>
   </trkpt>
   <trkpt lat="45.9302711486816" lon="7.20595407485962">
    <ele>1778.31665039062</ele>
    <time>2012-06-25T15:54:14Z</time>
   </trkpt>
   <trkpt lat="45.930248260498" lon="7.2059531211853">
    <ele>1778.57507324219</ele>
    <time>2012-06-25T15:54:15Z</time>
   </trkpt>
   <trkpt lat="45.9302215576172" lon="7.20595407485962">
    <ele>1778.83337402344</ele>
    <time>2012-06-25T15:54:16Z</time>
   </trkpt>
   <trkpt lat="45.9301986694336" lon="7.20595598220825">
    <ele>1779.09167480469</ele>
    <time>2012-06-25T15:54:17Z</time>
   </trkpt>
   <trkpt lat="45.9301719665527" lon="7.20595693588257">
    <ele>1779.35009765625</ele>
    <time>2012-06-25T15:54:18Z</time>
   </trkpt>
   <trkpt lat="45.9300308227539" lon="7.20594549179077">
    <ele>1780.90002441406</ele>
    <time>2012-06-25T15:54:24Z</time>
   </trkpt>
   <trkpt lat="45.9300079345703" lon="7.20593881607056">
    <ele>1781.15832519531</ele>
    <time>2012-06-25T15:54:25Z</time>
   </trkpt>
   <trkpt lat="45.9299850463867" lon="7.20592832565308">
    <ele>1781.41674804688</ele>
    <time>2012-06-25T15:54:26Z</time>
   </trkpt>
   <trkpt lat="45.9299621582031" lon="7.20591449737549">
    <ele>1781.67504882812</ele>
    <time>2012-06-25T15:54:27Z</time>
   </trkpt>
   <trkpt lat="45.9299392700195" lon="7.20589923858643">
    <ele>1781.93334960938</ele>
    <time>2012-06-25T15:54:28Z</time>
   </trkpt>
   <trkpt lat="45.9298477172852" lon="7.2058367729187">
    <ele>1782.96667480469</ele>
    <time>2012-06-25T15:54:32Z</time>
   </trkpt>
   <trkpt lat="45.9298286437988" lon="7.20582294464111">
    <ele>1783.22497558594</ele>
    <time>2012-06-25T15:54:33Z</time>
   </trkpt>
   <trkpt lat="45.9298095703125" lon="7.20580911636352">
    <ele>1783.4833984375</ele>
    <time>2012-06-25T15:54:34Z</time>
   </trkpt>
   <trkpt lat="45.9297904968262" lon="7.20579290390015">
    <ele>1783.74169921875</ele>
    <time>2012-06-25T15:54:35Z</time>
   </trkpt>
   <trkpt lat="45.9297714233398" lon="7.2057728767395">
    <ele>1784</ele>
    <time>2012-06-25T15:54:36Z</time>
   </trkpt>
   <trkpt lat="45.9297332763672" lon="7.20572996139526">
    <ele>1784</ele>
    <time>2012-06-25T15:54:38Z</time>
   </trkpt>
   <trkpt lat="45.9296646118164" lon="7.20563840866089">
    <ele>1784.94116210938</ele>
    <time>2012-06-25T15:54:42Z</time>
   </trkpt>
   <trkpt lat="45.9296455383301" lon="7.20561265945435">
    <ele>1785.17651367188</ele>
    <time>2012-06-25T15:54:43Z</time>
   </trkpt>
   <trkpt lat="45.9296264648438" lon="7.20559120178223">
    <ele>1785.41174316406</ele>
    <time>2012-06-25T15:54:44Z</time>
   </trkpt>
   <trkpt lat="45.9296073913574" lon="7.20557022094726">
    <ele>1785.64709472656</ele>
    <time>2012-06-25T15:54:45Z</time>
   </trkpt>
   <trkpt lat="45.9295883178711" lon="7.20554971694946">
    <ele>1785.88232421875</ele>
    <time>2012-06-25T15:54:46Z</time>
   </trkpt>
   <trkpt lat="45.9294738769531" lon="7.20545816421509">
    <ele>1787.05883789062</ele>
    <time>2012-06-25T15:54:51Z</time>
   </trkpt>
   <trkpt lat="45.9294509887695" lon="7.20544385910034">
    <ele>1787.29406738281</ele>
    <time>2012-06-25T15:54:52Z</time>
   </trkpt>
   <trkpt lat="45.9294281005859" lon="7.20542907714844">
    <ele>1787.52941894531</ele>
    <time>2012-06-25T15:54:53Z</time>
   </trkpt>
   <trkpt lat="45.9294052124023" lon="7.20541381835938">
    <ele>1787.7646484375</ele>
    <time>2012-06-25T15:54:54Z</time>
   </trkpt>
   <trkpt lat="45.929386138916" lon="7.20539903640747">
    <ele>1788</ele>
    <time>2012-06-25T15:54:55Z</time>
   </trkpt>
   <trkpt lat="45.9293632507324" lon="7.20538234710693">
    <ele>1788</ele>
    <time>2012-06-25T15:54:56Z</time>
   </trkpt>
   <trkpt lat="45.9292640686035" lon="7.20532274246216">
    <ele>1789</ele>
    <time>2012-06-25T15:55:00Z</time>
   </trkpt>
   <trkpt lat="45.9292373657227" lon="7.20530843734741">
    <ele>1789.25</ele>
    <time>2012-06-25T15:55:01Z</time>
   </trkpt>
   <trkpt lat="45.9292106628418" lon="7.20529508590698">
    <ele>1789.5</ele>
    <time>2012-06-25T15:55:02Z</time>
   </trkpt>
   <trkpt lat="45.9291801452637" lon="7.20528173446655">
    <ele>1789.75</ele>
    <time>2012-06-25T15:55:03Z</time>
   </trkpt>
   <trkpt lat="45.9291534423828" lon="7.20526742935181">
    <ele>1790</ele>
    <time>2012-06-25T15:55:04Z</time>
   </trkpt>
   <trkpt lat="45.929126739502" lon="7.20525455474854">
    <ele>1790</ele>
    <time>2012-06-25T15:55:05Z</time>
   </trkpt>
   <trkpt lat="45.9290046691894" lon="7.20503854751587">
    <ele>1791.19995117188</ele>
    <time>2012-06-25T15:55:11Z</time>
   </trkpt>
   <trkpt lat="45.9289855957031" lon="7.2049822807312">
    <ele>1791.40002441406</ele>
    <time>2012-06-25T15:55:12Z</time>
   </trkpt>
   <trkpt lat="45.9289588928223" lon="7.20491361618042">
    <ele>1791.59997558594</ele>
    <time>2012-06-25T15:55:13Z</time>
   </trkpt>
   <trkpt lat="45.9289283752441" lon="7.2048716545105">
    <ele>1791.80004882812</ele>
    <time>2012-06-25T15:55:14Z</time>
   </trkpt>
   <trkpt lat="45.9288940429688" lon="7.20484447479248">
    <ele>1792</ele>
    <time>2012-06-25T15:55:15Z</time>
   </trkpt>
   <trkpt lat="45.928825378418" lon="7.20479440689087">
    <ele>1792</ele>
    <time>2012-06-25T15:55:17Z</time>
   </trkpt>
   <trkpt lat="45.9285774230957" lon="7.20459270477295">
    <ele>1793.31994628906</ele>
    <time>2012-06-25T15:55:23Z</time>
   </trkpt>
   <trkpt lat="45.9285469055176" lon="7.20458269119263">
    <ele>1793.53991699219</ele>
    <time>2012-06-25T15:55:24Z</time>
   </trkpt>
   <trkpt lat="45.9285163879394" lon="7.20457887649536">
    <ele>1793.76000976562</ele>
    <time>2012-06-25T15:55:25Z</time>
   </trkpt>
   <trkpt lat="45.9284858703613" lon="7.20457553863525">
    <ele>1793.97998046875</ele>
    <time>2012-06-25T15:55:26Z</time>
   </trkpt>
   <trkpt lat="45.9284477233887" lon="7.20455455780029">
    <ele>1794.19995117188</ele>
    <time>2012-06-25T15:55:27Z</time>
   </trkpt>
   <trkpt lat="45.9283409118652" lon="7.20453691482544">
    <ele>1794.19995117188</ele>
    <time>2012-06-25T15:55:30Z</time>
   </trkpt>
   <trkpt lat="45.9281883239746" lon="7.20451259613037">
    <ele>1795.36669921875</ele>
    <time>2012-06-25T15:55:35Z</time>
   </trkpt>
   <trkpt lat="45.9281578063965" lon="7.20450401306152">
    <ele>1795.59997558594</ele>
    <time>2012-06-25T15:55:36Z</time>
   </trkpt>
   <trkpt lat="45.9281272888184" lon="7.20449352264404">
    <ele>1795.83325195312</ele>
    <time>2012-06-25T15:55:37Z</time>
   </trkpt>
   <trkpt lat="45.928092956543" lon="7.20448303222656">
    <ele>1796.06665039062</ele>
    <time>2012-06-25T15:55:38Z</time>
   </trkpt>
   <trkpt lat="45.9280624389648" lon="7.20446920394898">
    <ele>1796.30004882812</ele>
    <time>2012-06-25T15:55:39Z</time>
   </trkpt>
   <trkpt lat="45.9278869628906" lon="7.20441293716431">
    <ele>1797.69995117188</ele>
    <time>2012-06-25T15:55:45Z</time>
   </trkpt>
   <trkpt lat="45.9278564453125" lon="7.20440340042114">
    <ele>1797.93334960938</ele>
    <time>2012-06-25T15:55:46Z</time>
   </trkpt>
   <trkpt lat="45.9278259277344" lon="7.20439386367798">
    <ele>1798.16674804688</ele>
    <time>2012-06-25T15:55:47Z</time>
   </trkpt>
   <trkpt lat="45.9277992248535" lon="7.20438766479492">
    <ele>1798.40002441406</ele>
    <time>2012-06-25T15:55:48Z</time>
   </trkpt>
   <trkpt lat="45.9276657104492" lon="7.20434188842774">
    <ele>1798.40002441406</ele>
    <time>2012-06-25T15:55:53Z</time>
   </trkpt>
   <trkpt lat="45.9276351928711" lon="7.20432949066162">
    <ele>1798.80004882812</ele>
    <time>2012-06-25T15:55:54Z</time>
   </trkpt>
   <trkpt lat="45.9276084899902" lon="7.20431900024414">
    <ele>1799.20007324219</ele>
    <time>2012-06-25T15:55:55Z</time>
   </trkpt>
   <trkpt lat="45.9275817871094" lon="7.2043080329895">
    <ele>1799.59997558594</ele>
    <time>2012-06-25T15:55:56Z</time>
   </trkpt>
   <trkpt lat="45.9275550842285" lon="7.20429182052612">
    <ele>1800</ele>
    <time>2012-06-25T15:55:57Z</time>
   </trkpt>
   <trkpt lat="45.9275169372559" lon="7.20428133010864">
    <ele>1800.40002441406</ele>
    <time>2012-06-25T15:55:58Z</time>
   </trkpt>
   <trkpt lat="45.927417755127" lon="7.20425844192505">
    <ele>1800.40002441406</ele>
    <time>2012-06-25T15:56:01Z</time>
   </trkpt>
   <trkpt lat="45.927303314209" lon="7.2042236328125">
    <ele>1801.5</ele>
    <time>2012-06-25T15:56:05Z</time>
   </trkpt>
   <trkpt lat="45.9272766113281" lon="7.20421743392944">
    <ele>1801.77502441406</ele>
    <time>2012-06-25T15:56:06Z</time>
   </trkpt>
   <trkpt lat="45.92724609375" lon="7.20421028137207">
    <ele>1802.05004882812</ele>
    <time>2012-06-25T15:56:07Z</time>
   </trkpt>
   <trkpt lat="45.9272193908691" lon="7.20420122146606">
    <ele>1802.32495117188</ele>
    <time>2012-06-25T15:56:08Z</time>
   </trkpt>
   <trkpt lat="45.9271965026856" lon="7.20419216156006">
    <ele>1802.59997558594</ele>
    <time>2012-06-25T15:56:09Z</time>
   </trkpt>
   <trkpt lat="45.9271697998047" lon="7.20418643951416">
    <ele>1802.59997558594</ele>
    <time>2012-06-25T15:56:10Z</time>
   </trkpt>
   <trkpt lat="45.9269714355469" lon="7.20413017272949">
    <ele>1804</ele>
    <time>2012-06-25T15:56:17Z</time>
   </trkpt>
   <trkpt lat="45.9269485473633" lon="7.20412254333496">
    <ele>1804.20007324219</ele>
    <time>2012-06-25T15:56:18Z</time>
   </trkpt>
   <trkpt lat="45.9269218444824" lon="7.20411586761475">
    <ele>1804.40002441406</ele>
    <time>2012-06-25T15:56:19Z</time>
   </trkpt>
   <trkpt lat="45.9268913269043" lon="7.20410490036011">
    <ele>1804.60009765625</ele>
    <time>2012-06-25T15:56:20Z</time>
   </trkpt>
   <trkpt lat="45.9268608093262" lon="7.20409870147705">
    <ele>1804.80004882812</ele>
    <time>2012-06-25T15:56:21Z</time>
   </trkpt>
   <trkpt lat="45.9267234802246" lon="7.20408010482788">
    <ele>1804.80004882812</ele>
    <time>2012-06-25T15:56:26Z</time>
   </trkpt>
   <trkpt lat="45.926700592041" lon="7.20407772064209">
    <ele>1804.96667480469</ele>
    <time>2012-06-25T15:56:27Z</time>
   </trkpt>
   <trkpt lat="45.9266738891602" lon="7.2040753364563">
    <ele>1805.13342285156</ele>
    <time>2012-06-25T15:56:28Z</time>
   </trkpt>
   <trkpt lat="45.9266510009766" lon="7.20407295227051">
    <ele>1805.30004882812</ele>
    <time>2012-06-25T15:56:29Z</time>
   </trkpt>
   <trkpt lat="45.926628112793" lon="7.20407056808472">
    <ele>1805.46667480469</ele>
    <time>2012-06-25T15:56:30Z</time>
   </trkpt>
   <trkpt lat="45.9266052246094" lon="7.20406913757324">
    <ele>1805.63342285156</ele>
    <time>2012-06-25T15:56:31Z</time>
   </trkpt>
   <trkpt lat="45.9265365600586" lon="7.20406532287598">
    <ele>1806.13342285156</ele>
    <time>2012-06-25T15:56:34Z</time>
   </trkpt>
   <trkpt lat="45.926513671875" lon="7.20406293869018">
    <ele>1806.30004882812</ele>
    <time>2012-06-25T15:56:35Z</time>
   </trkpt>
   <trkpt lat="45.9264907836914" lon="7.20405769348144">
    <ele>1806.46667480469</ele>
    <time>2012-06-25T15:56:36Z</time>
   </trkpt>
   <trkpt lat="45.9264678955078" lon="7.2040524482727">
    <ele>1806.63342285156</ele>
    <time>2012-06-25T15:56:37Z</time>
   </trkpt>
   <trkpt lat="45.9214744567871" lon="7.20123147964478">
    <ele>1827.63342285156</ele>
    <time>2012-06-25T15:58:43Z</time>
   </trkpt>
   <trkpt lat="45.921443939209" lon="7.20123243331909">
    <ele>1827.80004882812</ele>
    <time>2012-06-25T15:58:44Z</time>
   </trkpt>
   <trkpt lat="45.9213447570801" lon="7.20123624801636">
    <ele>1827.80004882812</ele>
    <time>2012-06-25T15:58:47Z</time>
   </trkpt>
   <trkpt lat="45.9212036132812" lon="7.20126628875732">
    <ele>1828.46667480469</ele>
    <time>2012-06-25T15:58:51Z</time>
   </trkpt>
   <trkpt lat="45.9210815429688" lon="7.20131969451904">
    <ele>1828.96667480469</ele>
    <time>2012-06-25T15:58:54Z</time>
   </trkpt>
   <trkpt lat="45.921070098877" lon="7.20134258270264">
    <ele>1829.13342285156</ele>
    <time>2012-06-25T15:58:55Z</time>
   </trkpt>
   <trkpt lat="45.921070098877" lon="7.20136594772339">
    <ele>1829.30004882812</ele>
    <time>2012-06-25T15:58:56Z</time>
   </trkpt>
   <trkpt lat="45.9210739135742" lon="7.20138883590698">
    <ele>1829.46667480469</ele>
    <time>2012-06-25T15:58:57Z</time>
   </trkpt>
   <trkpt lat="45.921085357666" lon="7.20141363143921">
    <ele>1829.63342285156</ele>
    <time>2012-06-25T15:58:58Z</time>
   </trkpt>
   <trkpt lat="45.9210929870606" lon="7.20143556594849">
    <ele>1829.80004882812</ele>
    <time>2012-06-25T15:58:59Z</time>
   </trkpt>
   <trkpt lat="45.9210357666016" lon="7.20151853561401">
    <ele>1829.80004882812</ele>
    <time>2012-06-25T15:59:03Z</time>
   </trkpt>
   <trkpt lat="45.920726776123" lon="7.20171880722046">
    <ele>1830.70007324219</ele>
    <time>2012-06-25T15:59:12Z</time>
   </trkpt>
   <trkpt lat="45.92041015625" lon="7.20172929763794">
    <ele>1831.30004882812</ele>
    <time>2012-06-25T15:59:18Z</time>
   </trkpt>
   <trkpt lat="45.9202461242676" lon="7.2017183303833">
    <ele>1831.59997558594</ele>
    <time>2012-06-25T15:59:21Z</time>
   </trkpt>
   <trkpt lat="45.9201965332031" lon="7.20172452926636">
    <ele>1831.69995117188</ele>
    <time>2012-06-25T15:59:22Z</time>
   </trkpt>
   <trkpt lat="45.9201507568359" lon="7.20173263549805">
    <ele>1831.80004882812</ele>
    <time>2012-06-25T15:59:23Z</time>
   </trkpt>
   <trkpt lat="45.9201011657715" lon="7.20173168182373">
    <ele>1831.90002441406</ele>
    <time>2012-06-25T15:59:24Z</time>
   </trkpt>
   <trkpt lat="45.9200477600098" lon="7.2017297744751">
    <ele>1832</ele>
    <time>2012-06-25T15:59:25Z</time>
   </trkpt>
   <trkpt lat="45.9197769165039" lon="7.20169830322266">
    <ele>1832</ele>
    <time>2012-06-25T15:59:31Z</time>
   </trkpt>
   <trkpt lat="45.9196662902832" lon="7.20167541503906">
    <ele>1832.69995117188</ele>
    <time>2012-06-25T15:59:34Z</time>
   </trkpt>
   <trkpt lat="45.9196357727051" lon="7.2016773223877">
    <ele>1832.93334960938</ele>
    <time>2012-06-25T15:59:35Z</time>
   </trkpt>
   <trkpt lat="45.9195976257324" lon="7.20167779922485">
    <ele>1833.16662597656</ele>
    <time>2012-06-25T15:59:36Z</time>
   </trkpt>
   <trkpt lat="45.9195594787598" lon="7.20167207717896">
    <ele>1833.40002441406</ele>
    <time>2012-06-25T15:59:37Z</time>
   </trkpt>
   <trkpt lat="45.9195175170898" lon="7.20166635513306">
    <ele>1833.63330078125</ele>
    <time>2012-06-25T15:59:38Z</time>
   </trkpt>
   <trkpt lat="45.9192543029785" lon="7.20168495178223">
    <ele>1835.2666015625</ele>
    <time>2012-06-25T15:59:45Z</time>
   </trkpt>
   <trkpt lat="45.9192199707031" lon="7.20169067382812">
    <ele>1835.5</ele>
    <time>2012-06-25T15:59:46Z</time>
   </trkpt>
   <trkpt lat="45.9191780090332" lon="7.20169448852539">
    <ele>1835.73327636719</ele>
    <time>2012-06-25T15:59:47Z</time>
   </trkpt>
   <trkpt lat="45.9191360473633" lon="7.20169925689697">
    <ele>1835.96667480469</ele>
    <time>2012-06-25T15:59:48Z</time>
   </trkpt>
   <trkpt lat="45.9190902709961" lon="7.20170736312866">
    <ele>1836.19995117188</ele>
    <time>2012-06-25T15:59:49Z</time>
   </trkpt>
   <trkpt lat="45.9189758300781" lon="7.20172262191772">
    <ele>1836.19995117188</ele>
    <time>2012-06-25T15:59:51Z</time>
   </trkpt>
   <trkpt lat="45.9185028076172" lon="7.20180940628052">
    <ele>1836.919921875</ele>
    <time>2012-06-25T16:00:00Z</time>
   </trkpt>
   <trkpt lat="45.9180946350098" lon="7.2019305229187">
    <ele>1837.55993652344</ele>
    <time>2012-06-25T16:00:08Z</time>
   </trkpt>
   <trkpt lat="45.9178504943848" lon="7.20199632644653">
    <ele>1837.9599609375</ele>
    <time>2012-06-25T16:00:13Z</time>
   </trkpt>
   <trkpt lat="45.9178047180176" lon="7.20200967788696">
    <ele>1838.03991699219</ele>
    <time>2012-06-25T16:00:14Z</time>
   </trkpt>
   <trkpt lat="45.9177589416504" lon="7.20201921463013">
    <ele>1838.11999511719</ele>
    <time>2012-06-25T16:00:15Z</time>
   </trkpt>
   <trkpt lat="45.9177131652832" lon="7.20203256607056">
    <ele>1838.19995117188</ele>
    <time>2012-06-25T16:00:16Z</time>
   </trkpt>
   <trkpt lat="45.9176635742188" lon="7.20204210281372">
    <ele>1838.19995117188</ele>
    <time>2012-06-25T16:00:17Z</time>
   </trkpt>
   <trkpt lat="45.9174156188965" lon="7.20210838317871">
    <ele>1838.84704589844</ele>
    <time>2012-06-25T16:00:22Z</time>
   </trkpt>
   <trkpt lat="45.917121887207" lon="7.20210409164429">
    <ele>1839.62353515625</ele>
    <time>2012-06-25T16:00:28Z</time>
   </trkpt>
   <trkpt lat="45.9170112609863" lon="7.20209312438965">
    <ele>1839.88232421875</ele>
    <time>2012-06-25T16:00:30Z</time>
   </trkpt>
   <trkpt lat="45.9169616699219" lon="7.20208072662354">
    <ele>1840.01171875</ele>
    <time>2012-06-25T16:00:31Z</time>
   </trkpt>
   <trkpt lat="45.9169082641602" lon="7.20206546783447">
    <ele>1840.14123535156</ele>
    <time>2012-06-25T16:00:32Z</time>
   </trkpt>
   <trkpt lat="45.9168548583984" lon="7.20204305648804">
    <ele>1840.27062988281</ele>
    <time>2012-06-25T16:00:33Z</time>
   </trkpt>
   <trkpt lat="45.916805267334" lon="7.20202207565308">
    <ele>1840.40002441406</ele>
    <time>2012-06-25T16:00:34Z</time>
   </trkpt>
   <trkpt lat="45.9167556762695" lon="7.20200490951538">
    <ele>1840.40002441406</ele>
    <time>2012-06-25T16:00:35Z</time>
   </trkpt>
   <trkpt lat="45.9166564941406" lon="7.20196866989136">
    <ele>1841.13330078125</ele>
    <time>2012-06-25T16:00:37Z</time>
   </trkpt>
   <trkpt lat="45.9166069030762" lon="7.20195150375366">
    <ele>1841.5</ele>
    <time>2012-06-25T16:00:38Z</time>
   </trkpt>
   <trkpt lat="45.916561126709" lon="7.20193433761597">
    <ele>1841.86669921875</ele>
    <time>2012-06-25T16:00:39Z</time>
   </trkpt>
   <trkpt lat="45.9165153503418" lon="7.2019214630127">
    <ele>1842.23327636719</ele>
    <time>2012-06-25T16:00:40Z</time>
   </trkpt>
   <trkpt lat="45.9164657592773" lon="7.20191192626953">
    <ele>1842.59997558594</ele>
    <time>2012-06-25T16:00:41Z</time>
   </trkpt>
   <trkpt lat="45.9164199829102" lon="7.20189666748047">
    <ele>1842.59997558594</ele>
    <time>2012-06-25T16:00:42Z</time>
   </trkpt>
   <trkpt lat="45.9160766601562" lon="7.20183706283569">
    <ele>1843.59997558594</ele>
    <time>2012-06-25T16:00:49Z</time>
   </trkpt>
   <trkpt lat="45.9160232543945" lon="7.20183277130127">
    <ele>1843.74279785156</ele>
    <time>2012-06-25T16:00:50Z</time>
   </trkpt>
   <trkpt lat="45.9159240722656" lon="7.20183372497559">
    <ele>1844.02856445312</ele>
    <time>2012-06-25T16:00:52Z</time>
   </trkpt>
   <trkpt lat="45.9158630371094" lon="7.20183610916138">
    <ele>1844.17138671875</ele>
    <time>2012-06-25T16:00:53Z</time>
   </trkpt>
   <trkpt lat="45.9158058166504" lon="7.20183658599854">
    <ele>1844.31420898438</ele>
    <time>2012-06-25T16:00:54Z</time>
   </trkpt>
   <trkpt lat="45.9157600402832" lon="7.20184087753296">
    <ele>1844.45715332031</ele>
    <time>2012-06-25T16:00:55Z</time>
   </trkpt>
   <trkpt lat="45.9157104492188" lon="7.20184755325317">
    <ele>1844.59997558594</ele>
    <time>2012-06-25T16:00:56Z</time>
   </trkpt>
   <trkpt lat="45.9153709411621" lon="7.2019305229187">
    <ele>1844.59997558594</ele>
    <time>2012-06-25T16:01:03Z</time>
   </trkpt>
   <trkpt lat="45.9150085449219" lon="7.20190715789795">
    <ele>1845.87268066406</ele>
    <time>2012-06-25T16:01:10Z</time>
   </trkpt>
   <trkpt lat="45.9149589538574" lon="7.20189666748047">
    <ele>1846.05456542969</ele>
    <time>2012-06-25T16:01:11Z</time>
   </trkpt>
   <trkpt lat="45.9149055480957" lon="7.20188999176025">
    <ele>1846.236328125</ele>
    <time>2012-06-25T16:01:12Z</time>
   </trkpt>
   <trkpt lat="45.9148597717285" lon="7.20189046859741">
    <ele>1846.41821289062</ele>
    <time>2012-06-25T16:01:13Z</time>
   </trkpt>
   <trkpt lat="45.9148101806641" lon="7.20189237594604">
    <ele>1846.59997558594</ele>
    <time>2012-06-25T16:01:14Z</time>
   </trkpt>
   <trkpt lat="45.9145050048828" lon="7.20187044143677">
    <ele>1846.59997558594</ele>
    <time>2012-06-25T16:01:21Z</time>
   </trkpt>
   <trkpt lat="45.9144287109375" lon="7.20186614990234">
    <ele>1847.228515625</ele>
    <time>2012-06-25T16:01:23Z</time>
   </trkpt>
   <trkpt lat="45.9143867492676" lon="7.20186471939087">
    <ele>1847.54284667969</ele>
    <time>2012-06-25T16:01:24Z</time>
   </trkpt>
   <trkpt lat="45.9143486022949" lon="7.20186614990234">
    <ele>1847.85717773438</ele>
    <time>2012-06-25T16:01:25Z</time>
   </trkpt>
   <trkpt lat="45.9143104553223" lon="7.2018666267395">
    <ele>1848.17138671875</ele>
    <time>2012-06-25T16:01:26Z</time>
   </trkpt>
   <trkpt lat="45.9142684936523" lon="7.20186805725098">
    <ele>1848.48571777344</ele>
    <time>2012-06-25T16:01:27Z</time>
   </trkpt>
   <trkpt lat="45.9141120910644" lon="7.2018871307373">
    <ele>1849.74279785156</ele>
    <time>2012-06-25T16:01:31Z</time>
   </trkpt>
   <trkpt lat="45.9140815734863" lon="7.20189476013184">
    <ele>1850.05712890625</ele>
    <time>2012-06-25T16:01:32Z</time>
   </trkpt>
   <trkpt lat="45.9140434265137" lon="7.20190191268921">
    <ele>1850.37145996094</ele>
    <time>2012-06-25T16:01:33Z</time>
   </trkpt>
   <trkpt lat="45.9140014648438" lon="7.20190811157226">
    <ele>1850.68566894531</ele>
    <time>2012-06-25T16:01:34Z</time>
   </trkpt>
   <trkpt lat="45.9139671325684" lon="7.2019157409668">
    <ele>1851</ele>
    <time>2012-06-25T16:01:35Z</time>
   </trkpt>
   <trkpt lat="45.9137916564941" lon="7.2019476890564">
    <ele>1851</ele>
    <time>2012-06-25T16:01:39Z</time>
   </trkpt>
   <trkpt lat="45.9136695861816" lon="7.20196533203125">
    <ele>1851.94287109375</ele>
    <time>2012-06-25T16:01:42Z</time>
   </trkpt>
   <trkpt lat="45.9136276245117" lon="7.20198059082031">
    <ele>1852.25708007812</ele>
    <time>2012-06-25T16:01:43Z</time>
   </trkpt>
   <trkpt lat="45.9135818481445" lon="7.20199346542358">
    <ele>1852.57141113281</ele>
    <time>2012-06-25T16:01:44Z</time>
   </trkpt>
   <trkpt lat="45.9135398864746" lon="7.20200967788696">
    <ele>1852.88562011719</ele>
    <time>2012-06-25T16:01:45Z</time>
   </trkpt>
   <trkpt lat="45.9134902954102" lon="7.20200300216675">
    <ele>1853.19995117188</ele>
    <time>2012-06-25T16:01:46Z</time>
   </trkpt>
   <trkpt lat="45.9134368896484" lon="7.20198678970337">
    <ele>1853.19995117188</ele>
    <time>2012-06-25T16:01:47Z</time>
   </trkpt>
   <trkpt lat="45.9131965637207" lon="7.20197057723999">
    <ele>1854.25256347656</ele>
    <time>2012-06-25T16:01:52Z</time>
   </trkpt>
   <trkpt lat="45.9131546020508" lon="7.20197200775146">
    <ele>1854.46313476562</ele>
    <time>2012-06-25T16:01:53Z</time>
   </trkpt>
   <trkpt lat="45.9131126403809" lon="7.20197677612305">
    <ele>1854.67358398438</ele>
    <time>2012-06-25T16:01:54Z</time>
   </trkpt>
   <trkpt lat="45.9130706787109" lon="7.2019853591919">
    <ele>1854.88415527344</ele>
    <time>2012-06-25T16:01:55Z</time>
   </trkpt>
   <trkpt lat="45.9127922058106" lon="7.20199823379517">
    <ele>1856.35778808594</ele>
    <time>2012-06-25T16:02:02Z</time>
   </trkpt>
   <trkpt lat="45.9127540588379" lon="7.20199489593506">
    <ele>1856.568359375</ele>
    <time>2012-06-25T16:02:03Z</time>
   </trkpt>
   <trkpt lat="45.9127159118652" lon="7.20198965072632">
    <ele>1856.77893066406</ele>
    <time>2012-06-25T16:02:04Z</time>
   </trkpt>
   <trkpt lat="45.9126739501953" lon="7.20198488235474">
    <ele>1856.98937988281</ele>
    <time>2012-06-25T16:02:05Z</time>
   </trkpt>
   <trkpt lat="45.9126243591309" lon="7.20198726654053">
    <ele>1857.19995117188</ele>
    <time>2012-06-25T16:02:06Z</time>
   </trkpt>
   <trkpt lat="45.9123878479004" lon="7.20198631286621">
    <ele>1857.19995117188</ele>
    <time>2012-06-25T16:02:11Z</time>
   </trkpt>
   <trkpt lat="45.9122734069824" lon="7.20196008682251">
    <ele>1858.14282226562</ele>
    <time>2012-06-25T16:02:14Z</time>
   </trkpt>
   <trkpt lat="45.9122352600098" lon="7.20194625854492">
    <ele>1858.45715332031</ele>
    <time>2012-06-25T16:02:15Z</time>
   </trkpt>
   <trkpt lat="45.9121932983398" lon="7.20193290710449">
    <ele>1858.771484375</ele>
    <time>2012-06-25T16:02:16Z</time>
   </trkpt>
   <trkpt lat="45.9121551513672" lon="7.20192003250122">
    <ele>1859.08569335938</ele>
    <time>2012-06-25T16:02:17Z</time>
   </trkpt>
   <trkpt lat="45.9121131896973" lon="7.20190525054932">
    <ele>1859.40002441406</ele>
    <time>2012-06-25T16:02:18Z</time>
   </trkpt>
   <trkpt lat="45.9120712280273" lon="7.20189094543457">
    <ele>1859.40002441406</ele>
    <time>2012-06-25T16:02:19Z</time>
   </trkpt>
   <trkpt lat="45.9119415283203" lon="7.20185804367065">
    <ele>1860.25720214844</ele>
    <time>2012-06-25T16:02:22Z</time>
   </trkpt>
   <trkpt lat="45.9118995666504" lon="7.20184326171875">
    <ele>1860.54284667969</ele>
    <time>2012-06-25T16:02:23Z</time>
   </trkpt>
   <trkpt lat="45.9118537902832" lon="7.20182991027832">
    <ele>1860.82861328125</ele>
    <time>2012-06-25T16:02:24Z</time>
   </trkpt>
   <trkpt lat="45.9118118286133" lon="7.20181369781494">
    <ele>1861.1142578125</ele>
    <time>2012-06-25T16:02:25Z</time>
   </trkpt>
   <trkpt lat="45.9117736816406" lon="7.20179796218872">
    <ele>1861.40002441406</ele>
    <time>2012-06-25T16:02:26Z</time>
   </trkpt>
   <trkpt lat="45.9117279052734" lon="7.20178508758545">
    <ele>1861.40002441406</ele>
    <time>2012-06-25T16:02:27Z</time>
   </trkpt>
   <trkpt lat="45.9116897583008" lon="7.20177030563354">
    <ele>1861.58178710938</ele>
    <time>2012-06-25T16:02:28Z</time>
   </trkpt>
   <trkpt lat="45.9115142822266" lon="7.20170021057129">
    <ele>1862.30908203125</ele>
    <time>2012-06-25T16:02:32Z</time>
   </trkpt>
   <trkpt lat="45.9114227294922" lon="7.20165872573852">
    <ele>1862.67272949219</ele>
    <time>2012-06-25T16:02:34Z</time>
   </trkpt>
   <trkpt lat="45.9113731384277" lon="7.20163726806641">
    <ele>1862.85461425781</ele>
    <time>2012-06-25T16:02:35Z</time>
   </trkpt>
   <trkpt lat="45.9113273620606" lon="7.20161437988281">
    <ele>1863.03637695312</ele>
    <time>2012-06-25T16:02:36Z</time>
   </trkpt>
   <trkpt lat="45.9112815856934" lon="7.20159435272217">
    <ele>1863.21826171875</ele>
    <time>2012-06-25T16:02:37Z</time>
   </trkpt>
   <trkpt lat="45.9112396240234" lon="7.20157098770142">
    <ele>1863.40002441406</ele>
    <time>2012-06-25T16:02:38Z</time>
   </trkpt>
   <trkpt lat="45.9110794067383" lon="7.20148134231567">
    <ele>1863.40002441406</ele>
    <time>2012-06-25T16:02:42Z</time>
   </trkpt>
   <trkpt lat="45.9108352661133" lon="7.20138311386108">
    <ele>1864.59997558594</ele>
    <time>2012-06-25T16:02:48Z</time>
   </trkpt>
   <trkpt lat="45.9107933044434" lon="7.20137214660644">
    <ele>1864.80004882812</ele>
    <time>2012-06-25T16:02:49Z</time>
   </trkpt>
   <trkpt lat="45.9107513427734" lon="7.20136308670044">
    <ele>1865</ele>
    <time>2012-06-25T16:02:50Z</time>
   </trkpt>
   <trkpt lat="45.910701751709" lon="7.20135259628296">
    <ele>1865.20007324219</ele>
    <time>2012-06-25T16:02:51Z</time>
   </trkpt>
   <trkpt lat="45.9106521606445" lon="7.2013430595398">
    <ele>1865.40002441406</ele>
    <time>2012-06-25T16:02:52Z</time>
   </trkpt>
   <trkpt lat="45.9104881286621" lon="7.20132398605347">
    <ele>1865.40002441406</ele>
    <time>2012-06-25T16:02:55Z</time>
   </trkpt>
   <trkpt lat="45.9101333618164" lon="7.20130300521851">
    <ele>1866.13684082031</ele>
    <time>2012-06-25T16:03:02Z</time>
   </trkpt>
   <trkpt lat="45.9098281860352" lon="7.20132398605347">
    <ele>1866.76843261719</ele>
    <time>2012-06-25T16:03:08Z</time>
   </trkpt>
   <trkpt lat="45.9097709655762" lon="7.20132493972778">
    <ele>1866.87365722656</ele>
    <time>2012-06-25T16:03:09Z</time>
   </trkpt>
   <trkpt lat="45.9097213745117" lon="7.20131635665894">
    <ele>1866.97900390625</ele>
    <time>2012-06-25T16:03:10Z</time>
   </trkpt>
   <trkpt lat="45.9096755981445" lon="7.20131397247314">
    <ele>1867.08422851562</ele>
    <time>2012-06-25T16:03:11Z</time>
   </trkpt>
   <trkpt lat="45.9096260070801" lon="7.20131063461304">
    <ele>1867.189453125</ele>
    <time>2012-06-25T16:03:12Z</time>
   </trkpt>
   <trkpt lat="45.9095726013184" lon="7.20130300521851">
    <ele>1867.29479980469</ele>
    <time>2012-06-25T16:03:13Z</time>
   </trkpt>
   <trkpt lat="45.9095191955566" lon="7.20129489898682">
    <ele>1867.40002441406</ele>
    <time>2012-06-25T16:03:14Z</time>
   </trkpt>
   <trkpt lat="45.9091339111328" lon="7.20124530792236">
    <ele>1867.40002441406</ele>
    <time>2012-06-25T16:03:21Z</time>
   </trkpt>
   <trkpt lat="45.9088859558106" lon="7.20118951797485">
    <ele>1868.62219238281</ele>
    <time>2012-06-25T16:03:26Z</time>
   </trkpt>
   <trkpt lat="45.9088401794434" lon="7.20118188858032">
    <ele>1868.86669921875</ele>
    <time>2012-06-25T16:03:27Z</time>
   </trkpt>
   <trkpt lat="45.9087867736816" lon="7.20117807388306">
    <ele>1869.11108398438</ele>
    <time>2012-06-25T16:03:28Z</time>
   </trkpt>
   <trkpt lat="45.9087371826172" lon="7.20117378234863">
    <ele>1869.35559082031</ele>
    <time>2012-06-25T16:03:29Z</time>
   </trkpt>
   <trkpt lat="45.9086875915527" lon="7.20116758346558">
    <ele>1869.59997558594</ele>
    <time>2012-06-25T16:03:30Z</time>
   </trkpt>
   <trkpt lat="45.908447265625" lon="7.2011342048645">
    <ele>1869.59997558594</ele>
    <time>2012-06-25T16:03:35Z</time>
   </trkpt>
   <trkpt lat="45.9083557128906" lon="7.2011284828186">
    <ele>1869.82214355469</ele>
    <time>2012-06-25T16:03:37Z</time>
   </trkpt>
   <trkpt lat="45.9079399108887" lon="7.20115184783936">
    <ele>1870.82214355469</ele>
    <time>2012-06-25T16:03:46Z</time>
   </trkpt>
   <trkpt lat="45.9078102111816" lon="7.20114517211914">
    <ele>1871.15551757812</ele>
    <time>2012-06-25T16:03:49Z</time>
   </trkpt>
   <trkpt lat="45.9077682495117" lon="7.20115041732788">
    <ele>1871.2666015625</ele>
    <time>2012-06-25T16:03:50Z</time>
   </trkpt>
   <trkpt lat="45.9077262878418" lon="7.20115423202515">
    <ele>1871.37780761719</ele>
    <time>2012-06-25T16:03:51Z</time>
   </trkpt>
   <trkpt lat="45.9076805114746" lon="7.20115375518799">
    <ele>1871.48889160156</ele>
    <time>2012-06-25T16:03:52Z</time>
   </trkpt>
   <trkpt lat="45.9076347351074" lon="7.20115661621094">
    <ele>1871.59997558594</ele>
    <time>2012-06-25T16:03:53Z</time>
   </trkpt>
   <trkpt lat="45.9074211120606" lon="7.20117473602295">
    <ele>1871.59997558594</ele>
    <time>2012-06-25T16:03:58Z</time>
   </trkpt>
   <trkpt lat="45.9072914123535" lon="7.2011866569519">
    <ele>1872.45715332031</ele>
    <time>2012-06-25T16:04:01Z</time>
   </trkpt>
   <trkpt lat="45.9072456359863" lon="7.20118808746338">
    <ele>1872.74279785156</ele>
    <time>2012-06-25T16:04:02Z</time>
   </trkpt>
   <trkpt lat="45.9071960449219" lon="7.2011923789978">
    <ele>1873.02856445312</ele>
    <time>2012-06-25T16:04:03Z</time>
   </trkpt>
   <trkpt lat="45.9071502685547" lon="7.20119571685791">
    <ele>1873.31420898438</ele>
    <time>2012-06-25T16:04:04Z</time>
   </trkpt>
   <trkpt lat="45.9071044921875" lon="7.20119619369507">
    <ele>1873.59997558594</ele>
    <time>2012-06-25T16:04:05Z</time>
   </trkpt>
   <trkpt lat="45.9069366455078" lon="7.20120620727539">
    <ele>1873.59997558594</ele>
    <time>2012-06-25T16:04:09Z</time>
   </trkpt>
   <trkpt lat="45.9068984985352" lon="7.20121049880982">
    <ele>1873.80993652344</ele>
    <time>2012-06-25T16:04:10Z</time>
   </trkpt>
   <trkpt lat="45.9067764282227" lon="7.20121145248413">
    <ele>1874.43994140625</ele>
    <time>2012-06-25T16:04:13Z</time>
   </trkpt>
   <trkpt lat="45.9066886901856" lon="7.20121145248413">
    <ele>1874.85998535156</ele>
    <time>2012-06-25T16:04:15Z</time>
   </trkpt>
   <trkpt lat="45.9066467285156" lon="7.20121192932129">
    <ele>1875.06994628906</ele>
    <time>2012-06-25T16:04:16Z</time>
   </trkpt>
   <trkpt lat="45.9066047668457" lon="7.20121383666992">
    <ele>1875.28002929688</ele>
    <time>2012-06-25T16:04:17Z</time>
   </trkpt>
   <trkpt lat="45.9065589904785" lon="7.20121431350708">
    <ele>1875.48999023438</ele>
    <time>2012-06-25T16:04:18Z</time>
   </trkpt>
   <trkpt lat="45.9065170288086" lon="7.20121335983276">
    <ele>1875.69995117188</ele>
    <time>2012-06-25T16:04:19Z</time>
   </trkpt>
   <trkpt lat="45.9062576293945" lon="7.20119094848633">
    <ele>1876.96008300781</ele>
    <time>2012-06-25T16:04:25Z</time>
   </trkpt>
   <trkpt lat="45.9062118530273" lon="7.20118761062622">
    <ele>1877.17004394531</ele>
    <time>2012-06-25T16:04:26Z</time>
   </trkpt>
   <trkpt lat="45.9061698913574" lon="7.20118141174316">
    <ele>1877.38000488281</ele>
    <time>2012-06-25T16:04:27Z</time>
   </trkpt>
   <trkpt lat="45.9061317443848" lon="7.20117521286011">
    <ele>1877.59008789062</ele>
    <time>2012-06-25T16:04:28Z</time>
   </trkpt>
   <trkpt lat="45.9060935974121" lon="7.20116901397705">
    <ele>1877.80004882812</ele>
    <time>2012-06-25T16:04:29Z</time>
   </trkpt>
   <trkpt lat="45.905876159668" lon="7.20110464096069">
    <ele>1877.80004882812</ele>
    <time>2012-06-25T16:04:35Z</time>
   </trkpt>
   <trkpt lat="45.9057235717773" lon="7.2010612487793">
    <ele>1878.80004882812</ele>
    <time>2012-06-25T16:04:39Z</time>
   </trkpt>
   <trkpt lat="45.9056854248047" lon="7.20105123519898">
    <ele>1879.05004882812</ele>
    <time>2012-06-25T16:04:40Z</time>
   </trkpt>
   <trkpt lat="45.9056434631348" lon="7.20104074478149">
    <ele>1879.30004882812</ele>
    <time>2012-06-25T16:04:41Z</time>
   </trkpt>
   <trkpt lat="45.9056015014648" lon="7.20103025436401">
    <ele>1879.55004882812</ele>
    <time>2012-06-25T16:04:42Z</time>
   </trkpt>
   <trkpt lat="45.9055595397949" lon="7.20102024078369">
    <ele>1879.80004882812</ele>
    <time>2012-06-25T16:04:43Z</time>
   </trkpt>
   <trkpt lat="45.9055213928223" lon="7.20100831985474">
    <ele>1879.80004882812</ele>
    <time>2012-06-25T16:04:44Z</time>
   </trkpt>
   <trkpt lat="45.9052772521973" lon="7.20093393325806">
    <ele>1881.11999511719</ele>
    <time>2012-06-25T16:04:50Z</time>
   </trkpt>
   <trkpt lat="45.9052391052246" lon="7.2009220123291">
    <ele>1881.33996582031</ele>
    <time>2012-06-25T16:04:51Z</time>
   </trkpt>
   <trkpt lat="45.9052047729492" lon="7.20090770721436">
    <ele>1881.56005859375</ele>
    <time>2012-06-25T16:04:52Z</time>
   </trkpt>
   <trkpt lat="45.9051628112793" lon="7.20089626312256">
    <ele>1881.78002929688</ele>
    <time>2012-06-25T16:04:53Z</time>
   </trkpt>
   <trkpt lat="45.9051246643066" lon="7.20088291168213">
    <ele>1882</ele>
    <time>2012-06-25T16:04:54Z</time>
   </trkpt>
   <trkpt lat="45.9048080444336" lon="7.20080041885376">
    <ele>1882</ele>
    <time>2012-06-25T16:05:02Z</time>
   </trkpt>
   <trkpt lat="45.9047317504883" lon="7.20077228546143">
    <ele>1882.66662597656</ele>
    <time>2012-06-25T16:05:04Z</time>
   </trkpt>
   <trkpt lat="45.9046974182129" lon="7.20075511932373">
    <ele>1883</ele>
    <time>2012-06-25T16:05:05Z</time>
   </trkpt>
   <trkpt lat="45.9046592712402" lon="7.20073938369751">
    <ele>1883.33337402344</ele>
    <time>2012-06-25T16:05:06Z</time>
   </trkpt>
   <trkpt lat="45.9046249389648" lon="7.2007212638855">
    <ele>1883.66662597656</ele>
    <time>2012-06-25T16:05:07Z</time>
   </trkpt>
   <trkpt lat="45.9045867919922" lon="7.20070171356201">
    <ele>1884</ele>
    <time>2012-06-25T16:05:08Z</time>
   </trkpt>
   <trkpt lat="45.9045143127441" lon="7.20065450668335">
    <ele>1884</ele>
    <time>2012-06-25T16:05:10Z</time>
   </trkpt>
   <trkpt lat="45.9043273925781" lon="7.20053434371948">
    <ele>1885.09997558594</ele>
    <time>2012-06-25T16:05:15Z</time>
   </trkpt>
   <trkpt lat="45.9043006896973" lon="7.20050954818726">
    <ele>1885.31994628906</ele>
    <time>2012-06-25T16:05:16Z</time>
   </trkpt>
   <trkpt lat="45.9042778015137" lon="7.20048522949219">
    <ele>1885.53991699219</ele>
    <time>2012-06-25T16:05:17Z</time>
   </trkpt>
   <trkpt lat="45.9042549133301" lon="7.20045709609985">
    <ele>1885.76000976562</ele>
    <time>2012-06-25T16:05:18Z</time>
   </trkpt>
   <trkpt lat="45.9042320251465" lon="7.20043277740478">
    <ele>1885.97998046875</ele>
    <time>2012-06-25T16:05:19Z</time>
   </trkpt>
   <trkpt lat="45.9042091369629" lon="7.20040512084961">
    <ele>1886.19995117188</ele>
    <time>2012-06-25T16:05:20Z</time>
   </trkpt>
   <trkpt lat="45.904182434082" lon="7.20037746429443">
    <ele>1886.19995117188</ele>
    <time>2012-06-25T16:05:21Z</time>
   </trkpt>
   <trkpt lat="45.9040641784668" lon="7.2002215385437">
    <ele>1886.88745117188</ele>
    <time>2012-06-25T16:05:26Z</time>
   </trkpt>
   <trkpt lat="45.9040069580078" lon="7.1999921798706">
    <ele>1887.71252441406</ele>
    <time>2012-06-25T16:05:32Z</time>
   </trkpt>
   <trkpt lat="45.9039764404297" lon="7.19988965988159">
    <ele>1887.98754882812</ele>
    <time>2012-06-25T16:05:34Z</time>
   </trkpt>
   <trkpt lat="45.9039726257324" lon="7.19983816146851">
    <ele>1888.125</ele>
    <time>2012-06-25T16:05:35Z</time>
   </trkpt>
   <trkpt lat="45.9039649963379" lon="7.199791431427">
    <ele>1888.26257324219</ele>
    <time>2012-06-25T16:05:36Z</time>
   </trkpt>
   <trkpt lat="45.9039573669434" lon="7.19974422454834">
    <ele>1888.40002441406</ele>
    <time>2012-06-25T16:05:37Z</time>
   </trkpt>
   <trkpt lat="45.9039459228516" lon="7.19965219497681">
    <ele>1888.40002441406</ele>
    <time>2012-06-25T16:05:39Z</time>
   </trkpt>
   <trkpt lat="45.903076171875" lon="7.19882011413574">
    <ele>1888.86157226562</ele>
    <time>2012-06-25T16:05:42Z</time>
   </trkpt>
   <trkpt lat="45.902587890625" lon="7.19848012924194">
    <ele>1889.78466796875</ele>
    <time>2012-06-25T16:05:48Z</time>
   </trkpt>
   <trkpt lat="45.9025459289551" lon="7.19845962524414">
    <ele>1889.9384765625</ele>
    <time>2012-06-25T16:05:49Z</time>
   </trkpt>
   <trkpt lat="45.9025192260742" lon="7.1984691619873">
    <ele>1890.09228515625</ele>
    <time>2012-06-25T16:05:50Z</time>
   </trkpt>
   <trkpt lat="45.9024963378906" lon="7.19850301742554">
    <ele>1890.24621582031</ele>
    <time>2012-06-25T16:05:51Z</time>
   </trkpt>
   <trkpt lat="45.9024696350098" lon="7.19854211807251">
    <ele>1890.40002441406</ele>
    <time>2012-06-25T16:05:52Z</time>
   </trkpt>
   <trkpt lat="45.9024353027344" lon="7.19858741760254">
    <ele>1890.40002441406</ele>
    <time>2012-06-25T16:05:53Z</time>
   </trkpt>
   <trkpt lat="45.9023780822754" lon="7.19859838485718">
    <ele>1890.51770019531</ele>
    <time>2012-06-25T16:05:54Z</time>
   </trkpt>
   <trkpt lat="45.9023361206055" lon="7.19860172271728">
    <ele>1890.63537597656</ele>
    <time>2012-06-25T16:05:55Z</time>
   </trkpt>
   <trkpt lat="45.902271270752" lon="7.19839191436768">
    <ele>1890.98828125</ele>
    <time>2012-06-25T16:05:58Z</time>
   </trkpt>
   <trkpt lat="45.9022827148438" lon="7.19809436798096">
    <ele>1891.22351074219</ele>
    <time>2012-06-25T16:06:00Z</time>
   </trkpt>
   <trkpt lat="45.9022636413574" lon="7.19786882400513">
    <ele>1891.45886230469</ele>
    <time>2012-06-25T16:06:02Z</time>
   </trkpt>
   <trkpt lat="45.9023132324219" lon="7.19763374328613">
    <ele>1891.57653808594</ele>
    <time>2012-06-25T16:06:03Z</time>
   </trkpt>
   <trkpt lat="45.9022979736328" lon="7.19751691818237">
    <ele>1891.69409179688</ele>
    <time>2012-06-25T16:06:04Z</time>
   </trkpt>
   <trkpt lat="45.9022674560547" lon="7.19734716415405">
    <ele>1891.92944335938</ele>
    <time>2012-06-25T16:06:06Z</time>
   </trkpt>
   <trkpt lat="45.9022674560547" lon="7.19726085662842">
    <ele>1892.04711914062</ele>
    <time>2012-06-25T16:06:07Z</time>
   </trkpt>
   <trkpt lat="45.9023246765137" lon="7.19719171524048">
    <ele>1892.16467285156</ele>
    <time>2012-06-25T16:06:08Z</time>
   </trkpt>
   <trkpt lat="45.9023628234863" lon="7.19712209701538">
    <ele>1892.28234863281</ele>
    <time>2012-06-25T16:06:09Z</time>
   </trkpt>
   <trkpt lat="45.9023818969727" lon="7.1970591545105">
    <ele>1892.40002441406</ele>
    <time>2012-06-25T16:06:10Z</time>
   </trkpt>
   <trkpt lat="45.9024925231934" lon="7.19680404663086">
    <ele>1892.40002441406</ele>
    <time>2012-06-25T16:06:14Z</time>
   </trkpt>
   <trkpt lat="45.9025001525879" lon="7.19658136367798">
    <ele>1893.5</ele>
    <time>2012-06-25T16:06:18Z</time>
   </trkpt>
   <trkpt lat="45.9024848937988" lon="7.19653081893921">
    <ele>1893.77502441406</ele>
    <time>2012-06-25T16:06:19Z</time>
   </trkpt>
   <trkpt lat="45.9024696350098" lon="7.19648313522339">
    <ele>1894.05004882812</ele>
    <time>2012-06-25T16:06:20Z</time>
   </trkpt>
   <trkpt lat="45.9024505615234" lon="7.19643306732178">
    <ele>1894.32495117188</ele>
    <time>2012-06-25T16:06:21Z</time>
   </trkpt>
   <trkpt lat="45.9024429321289" lon="7.19638395309448">
    <ele>1894.59997558594</ele>
    <time>2012-06-25T16:06:22Z</time>
   </trkpt>
   <trkpt lat="45.9023094177246" lon="7.19615936279297">
    <ele>1894.59997558594</ele>
    <time>2012-06-25T16:06:27Z</time>
   </trkpt>
   <trkpt lat="45.9022789001465" lon="7.19611501693726">
    <ele>1894.79992675781</ele>
    <time>2012-06-25T16:06:28Z</time>
   </trkpt>
   <trkpt lat="45.9021224975586" lon="7.19593191146851">
    <ele>1895.79992675781</ele>
    <time>2012-06-25T16:06:33Z</time>
   </trkpt>
   <trkpt lat="45.9020843505859" lon="7.19589900970459">
    <ele>1896</ele>
    <time>2012-06-25T16:06:34Z</time>
   </trkpt>
   <trkpt lat="45.9020462036133" lon="7.19586658477783">
    <ele>1896.19995117188</ele>
    <time>2012-06-25T16:06:35Z</time>
   </trkpt>
   <trkpt lat="45.9020042419434" lon="7.19583606719971">
    <ele>1896.40002441406</ele>
    <time>2012-06-25T16:06:36Z</time>
   </trkpt>
   <trkpt lat="45.9019622802734" lon="7.19580602645874">
    <ele>1896.59997558594</ele>
    <time>2012-06-25T16:06:37Z</time>
   </trkpt>
   <trkpt lat="45.9018783569336" lon="7.19576072692871">
    <ele>1896.59997558594</ele>
    <time>2012-06-25T16:06:39Z</time>
   </trkpt>
   <trkpt lat="45.9017486572266" lon="7.19571781158447">
    <ele>1897.02575683594</ele>
    <time>2012-06-25T16:06:42Z</time>
   </trkpt>
   <trkpt lat="45.9014053344727" lon="7.19565153121948">
    <ele>1898.01928710938</ele>
    <time>2012-06-25T16:06:49Z</time>
   </trkpt>
   <trkpt lat="45.9011039733887" lon="7.1956467628479">
    <ele>1898.87097167969</ele>
    <time>2012-06-25T16:06:55Z</time>
   </trkpt>
   <trkpt lat="45.9009132385254" lon="7.19564390182495">
    <ele>1899.43872070312</ele>
    <time>2012-06-25T16:06:59Z</time>
   </trkpt>
   <trkpt lat="45.9008674621582" lon="7.1956467628479">
    <ele>1899.58068847656</ele>
    <time>2012-06-25T16:07:00Z</time>
   </trkpt>
   <trkpt lat="45.9008293151856" lon="7.19565296173096">
    <ele>1899.72253417969</ele>
    <time>2012-06-25T16:07:01Z</time>
   </trkpt>
   <trkpt lat="45.9007873535156" lon="7.19565725326538">
    <ele>1899.86450195312</ele>
    <time>2012-06-25T16:07:02Z</time>
   </trkpt>
   <trkpt lat="45.900749206543" lon="7.19565773010254">
    <ele>1900.00646972656</ele>
    <time>2012-06-25T16:07:03Z</time>
   </trkpt>
   <trkpt lat="45.9006385803223" lon="7.19564723968506">
    <ele>1900.43225097656</ele>
    <time>2012-06-25T16:07:06Z</time>
   </trkpt>
   <trkpt lat="45.9006004333496" lon="7.19564867019653">
    <ele>1900.57421875</ele>
    <time>2012-06-25T16:07:07Z</time>
   </trkpt>
   <trkpt lat="45.9005661010742" lon="7.1956467628479">
    <ele>1900.71618652344</ele>
    <time>2012-06-25T16:07:08Z</time>
   </trkpt>
   <trkpt lat="45.9005279541016" lon="7.19564580917358">
    <ele>1900.85803222656</ele>
    <time>2012-06-25T16:07:09Z</time>
   </trkpt>
   <trkpt lat="45.9004859924316" lon="7.19564771652222">
    <ele>1901</ele>
    <time>2012-06-25T16:07:10Z</time>
   </trkpt>
   <trkpt lat="45.9003639221191" lon="7.19565391540527">
    <ele>1901</ele>
    <time>2012-06-25T16:07:13Z</time>
   </trkpt>
   <trkpt lat="45.9002113342285" lon="7.19566774368286">
    <ele>1902.09997558594</ele>
    <time>2012-06-25T16:07:17Z</time>
   </trkpt>
   <trkpt lat="45.9001770019531" lon="7.19567346572876">
    <ele>1902.375</ele>
    <time>2012-06-25T16:07:18Z</time>
   </trkpt>
   <trkpt lat="45.9001426696777" lon="7.19568586349487">
    <ele>1902.64990234375</ele>
    <time>2012-06-25T16:07:19Z</time>
   </trkpt>
   <trkpt lat="45.9001045227051" lon="7.19569253921509">
    <ele>1902.92492675781</ele>
    <time>2012-06-25T16:07:20Z</time>
   </trkpt>
   <trkpt lat="45.9000701904297" lon="7.1956934928894">
    <ele>1903.19995117188</ele>
    <time>2012-06-25T16:07:21Z</time>
   </trkpt>
   <trkpt lat="45.8999977111816" lon="7.19570112228394">
    <ele>1903.19995117188</ele>
    <time>2012-06-25T16:07:23Z</time>
   </trkpt>
   <trkpt lat="45.8999633789062" lon="7.19570541381836">
    <ele>1903.59997558594</ele>
    <time>2012-06-25T16:07:24Z</time>
   </trkpt>
   <trkpt lat="45.8999252319336" lon="7.19570541381836">
    <ele>1904</ele>
    <time>2012-06-25T16:07:25Z</time>
   </trkpt>
   <trkpt lat="45.8998908996582" lon="7.19570732116699">
    <ele>1904.39990234375</ele>
    <time>2012-06-25T16:07:26Z</time>
   </trkpt>
   <trkpt lat="45.8998527526856" lon="7.19571495056152">
    <ele>1904.79992675781</ele>
    <time>2012-06-25T16:07:27Z</time>
   </trkpt>
   <trkpt lat="45.8998107910156" lon="7.19572305679321">
    <ele>1905.19995117188</ele>
    <time>2012-06-25T16:07:28Z</time>
   </trkpt>
   <trkpt lat="45.8997764587402" lon="7.19572448730469">
    <ele>1905.19995117188</ele>
    <time>2012-06-25T16:07:29Z</time>
   </trkpt>
   <trkpt lat="45.8994674682617" lon="7.19568061828613">
    <ele>1906.80004882812</ele>
    <time>2012-06-25T16:07:37Z</time>
   </trkpt>
   <trkpt lat="45.8994331359863" lon="7.19567966461182">
    <ele>1907</ele>
    <time>2012-06-25T16:07:38Z</time>
   </trkpt>
   <trkpt lat="45.8994026184082" lon="7.19567966461182">
    <ele>1907.20007324219</ele>
    <time>2012-06-25T16:07:39Z</time>
   </trkpt>
   <trkpt lat="45.8993682861328" lon="7.19567680358887">
    <ele>1907.40002441406</ele>
    <time>2012-06-25T16:07:40Z</time>
   </trkpt>
   <trkpt lat="45.8991928100586" lon="7.19566440582275">
    <ele>1907.40002441406</ele>
    <time>2012-06-25T16:07:45Z</time>
   </trkpt>
   <trkpt lat="45.8989410400391" lon="7.19555711746216">
    <ele>1908.53076171875</ele>
    <time>2012-06-25T16:07:52Z</time>
   </trkpt>
   <trkpt lat="45.8988380432129" lon="7.19547843933106">
    <ele>1909.01538085938</ele>
    <time>2012-06-25T16:07:55Z</time>
   </trkpt>
   <trkpt lat="45.8988037109375" lon="7.19545125961304">
    <ele>1909.17687988281</ele>
    <time>2012-06-25T16:07:56Z</time>
   </trkpt>
   <trkpt lat="45.8987731933594" lon="7.19542169570923">
    <ele>1909.33850097656</ele>
    <time>2012-06-25T16:07:57Z</time>
   </trkpt>
   <trkpt lat="45.8987426757812" lon="7.19539070129394">
    <ele>1909.5</ele>
    <time>2012-06-25T16:07:58Z</time>
   </trkpt>
   <trkpt lat="45.8987121582031" lon="7.19535541534424">
    <ele>1909.66149902344</ele>
    <time>2012-06-25T16:07:59Z</time>
   </trkpt>
   <trkpt lat="45.8984985351562" lon="7.19503355026245">
    <ele>1910.95385742188</ele>
    <time>2012-06-25T16:08:07Z</time>
   </trkpt>
   <trkpt lat="45.8984756469727" lon="7.19498872756958">
    <ele>1911.11535644531</ele>
    <time>2012-06-25T16:08:08Z</time>
   </trkpt>
   <trkpt lat="45.8984527587891" lon="7.19494438171387">
    <ele>1911.27685546875</ele>
    <time>2012-06-25T16:08:09Z</time>
   </trkpt>
   <trkpt lat="45.8984336853027" lon="7.19489908218384">
    <ele>1911.4384765625</ele>
    <time>2012-06-25T16:08:10Z</time>
   </trkpt>
   <trkpt lat="45.8984107971191" lon="7.1948561668396">
    <ele>1911.59997558594</ele>
    <time>2012-06-25T16:08:11Z</time>
   </trkpt>
   <trkpt lat="45.8983192443848" lon="7.19467163085938">
    <ele>1911.59997558594</ele>
    <time>2012-06-25T16:08:15Z</time>
   </trkpt>
   <trkpt lat="45.8981666564941" lon="7.19430923461914">
    <ele>1912.7666015625</ele>
    <time>2012-06-25T16:08:22Z</time>
   </trkpt>
   <trkpt lat="45.8981475830078" lon="7.19425678253174">
    <ele>1912.93334960938</ele>
    <time>2012-06-25T16:08:23Z</time>
   </trkpt>
   <trkpt lat="45.8981285095215" lon="7.19420433044434">
    <ele>1913.09997558594</ele>
    <time>2012-06-25T16:08:24Z</time>
   </trkpt>
   <trkpt lat="45.8981132507324" lon="7.19415426254272">
    <ele>1913.2666015625</ele>
    <time>2012-06-25T16:08:25Z</time>
   </trkpt>
   <trkpt lat="45.8980979919434" lon="7.19410133361816">
    <ele>1913.43334960938</ele>
    <time>2012-06-25T16:08:26Z</time>
   </trkpt>
   <trkpt lat="45.8980827331543" lon="7.1940507888794">
    <ele>1913.59997558594</ele>
    <time>2012-06-25T16:08:27Z</time>
   </trkpt>
   <trkpt lat="45.8980522155762" lon="7.19395208358765">
    <ele>1913.59997558594</ele>
    <time>2012-06-25T16:08:29Z</time>
   </trkpt>
   <trkpt lat="45.8980255126953" lon="7.19385862350464">
    <ele>1914.2666015625</ele>
    <time>2012-06-25T16:08:31Z</time>
   </trkpt>
   <trkpt lat="45.8980102539062" lon="7.19380807876587">
    <ele>1914.59997558594</ele>
    <time>2012-06-25T16:08:32Z</time>
   </trkpt>
   <trkpt lat="45.8979988098144" lon="7.19375658035278">
    <ele>1914.93334960938</ele>
    <time>2012-06-25T16:08:33Z</time>
   </trkpt>
   <trkpt lat="45.8979835510254" lon="7.19370985031128">
    <ele>1915.2666015625</ele>
    <time>2012-06-25T16:08:34Z</time>
   </trkpt>
   <trkpt lat="45.8979721069336" lon="7.19366025924683">
    <ele>1915.59997558594</ele>
    <time>2012-06-25T16:08:35Z</time>
   </trkpt>
   <trkpt lat="45.8979606628418" lon="7.19355726242065">
    <ele>1915.59997558594</ele>
    <time>2012-06-25T16:08:37Z</time>
   </trkpt>
   <trkpt lat="45.8979911804199" lon="7.19332218170166">
    <ele>1916.69091796875</ele>
    <time>2012-06-25T16:08:42Z</time>
   </trkpt>
   <trkpt lat="45.8980178833008" lon="7.19322538375854">
    <ele>1917.12731933594</ele>
    <time>2012-06-25T16:08:44Z</time>
   </trkpt>
   <trkpt lat="45.8980331420898" lon="7.19317817687988">
    <ele>1917.34545898438</ele>
    <time>2012-06-25T16:08:45Z</time>
   </trkpt>
   <trkpt lat="45.8980445861816" lon="7.19312715530396">
    <ele>1917.56359863281</ele>
    <time>2012-06-25T16:08:46Z</time>
   </trkpt>
   <trkpt lat="45.8980560302734" lon="7.1930832862854">
    <ele>1917.78186035156</ele>
    <time>2012-06-25T16:08:47Z</time>
   </trkpt>
   <trkpt lat="45.8980712890625" lon="7.19303846359253">
    <ele>1918</ele>
    <time>2012-06-25T16:08:48Z</time>
   </trkpt>
   <trkpt lat="45.8980827331543" lon="7.19299221038818">
    <ele>1918</ele>
    <time>2012-06-25T16:08:49Z</time>
   </trkpt>
   <trkpt lat="45.8981170654297" lon="7.19285583496094">
    <ele>1919</ele>
    <time>2012-06-25T16:08:52Z</time>
   </trkpt>
   <trkpt lat="45.898120880127" lon="7.19280481338501">
    <ele>1919.33337402344</ele>
    <time>2012-06-25T16:08:53Z</time>
   </trkpt>
   <trkpt lat="45.8981246948242" lon="7.19275808334351">
    <ele>1919.66662597656</ele>
    <time>2012-06-25T16:08:54Z</time>
   </trkpt>
   <trkpt lat="45.8981323242188" lon="7.19271087646484">
    <ele>1920</ele>
    <time>2012-06-25T16:08:55Z</time>
   </trkpt>
   <trkpt lat="45.8981437683106" lon="7.19261693954468">
    <ele>1920</ele>
    <time>2012-06-25T16:08:57Z</time>
   </trkpt>
   <trkpt lat="45.8981475830078" lon="7.19257116317749">
    <ele>1920.21899414062</ele>
    <time>2012-06-25T16:08:58Z</time>
   </trkpt>
   <trkpt lat="45.8981513977051" lon="7.19252395629883">
    <ele>1920.43811035156</ele>
    <time>2012-06-25T16:08:59Z</time>
   </trkpt>
   <trkpt lat="45.8981895446777" lon="7.19233989715576">
    <ele>1921.31433105469</ele>
    <time>2012-06-25T16:09:03Z</time>
   </trkpt>
   <trkpt lat="45.8982048034668" lon="7.19229936599732">
    <ele>1921.53332519531</ele>
    <time>2012-06-25T16:09:04Z</time>
   </trkpt>
   <trkpt lat="45.8983383178711" lon="7.19211483001709">
    <ele>1922.62854003906</ele>
    <time>2012-06-25T16:09:09Z</time>
   </trkpt>
   <trkpt lat="45.8983573913574" lon="7.1920804977417">
    <ele>1922.84765625</ele>
    <time>2012-06-25T16:09:10Z</time>
   </trkpt>
   <trkpt lat="45.898380279541" lon="7.19204330444336">
    <ele>1923.06665039062</ele>
    <time>2012-06-25T16:09:11Z</time>
   </trkpt>
   <trkpt lat="45.8983993530273" lon="7.19200801849365">
    <ele>1923.28564453125</ele>
    <time>2012-06-25T16:09:12Z</time>
   </trkpt>
   <trkpt lat="45.8984146118164" lon="7.1919674873352">
    <ele>1923.50476074219</ele>
    <time>2012-06-25T16:09:13Z</time>
   </trkpt>
   <trkpt lat="45.8984298706055" lon="7.19192361831665">
    <ele>1923.72375488281</ele>
    <time>2012-06-25T16:09:14Z</time>
   </trkpt>
   <trkpt lat="45.8984451293945" lon="7.19187831878662">
    <ele>1923.94287109375</ele>
    <time>2012-06-25T16:09:15Z</time>
   </trkpt>
   <trkpt lat="45.8984565734863" lon="7.19182920455933">
    <ele>1924.16186523438</ele>
    <time>2012-06-25T16:09:16Z</time>
   </trkpt>
   <trkpt lat="45.8984680175781" lon="7.19178104400635">
    <ele>1924.38098144531</ele>
    <time>2012-06-25T16:09:17Z</time>
   </trkpt>
   <trkpt lat="45.8984756469727" lon="7.19173383712768">
    <ele>1924.59997558594</ele>
    <time>2012-06-25T16:09:18Z</time>
   </trkpt>
   <trkpt lat="45.898494720459" lon="7.19158697128296">
    <ele>1924.59997558594</ele>
    <time>2012-06-25T16:09:21Z</time>
   </trkpt>
   <trkpt lat="45.8985061645508" lon="7.19153547286987">
    <ele>1924.7666015625</ele>
    <time>2012-06-25T16:09:22Z</time>
   </trkpt>
   <trkpt lat="45.8985481262207" lon="7.19140768051148">
    <ele>1925.2666015625</ele>
    <time>2012-06-25T16:09:25Z</time>
   </trkpt>
   <trkpt lat="45.8985748291016" lon="7.19137477874756">
    <ele>1925.43334960938</ele>
    <time>2012-06-25T16:09:26Z</time>
   </trkpt>
   <trkpt lat="45.8985977172852" lon="7.19134855270386">
    <ele>1925.59997558594</ele>
    <time>2012-06-25T16:09:27Z</time>
   </trkpt>
   <trkpt lat="45.8986625671387" lon="7.1913046836853">
    <ele>1925.93334960938</ele>
    <time>2012-06-25T16:09:29Z</time>
   </trkpt>
   <trkpt lat="45.8986930847168" lon="7.19128322601318">
    <ele>1926.09997558594</ele>
    <time>2012-06-25T16:09:30Z</time>
   </trkpt>
   <trkpt lat="45.8987197875977" lon="7.19125890731812">
    <ele>1926.2666015625</ele>
    <time>2012-06-25T16:09:31Z</time>
   </trkpt>
   <trkpt lat="45.898738861084" lon="7.19123029708862">
    <ele>1926.43334960938</ele>
    <time>2012-06-25T16:09:32Z</time>
   </trkpt>
   <trkpt lat="45.8987579345703" lon="7.19119882583618">
    <ele>1926.59997558594</ele>
    <time>2012-06-25T16:09:33Z</time>
   </trkpt>
   <trkpt lat="45.8987808227539" lon="7.19116497039795">
    <ele>1926.59997558594</ele>
    <time>2012-06-25T16:09:34Z</time>
   </trkpt>
   <trkpt lat="45.898811340332" lon="7.19108867645264">
    <ele>1927.17932128906</ele>
    <time>2012-06-25T16:09:36Z</time>
   </trkpt>
   <trkpt lat="45.8988265991211" lon="7.19104862213135">
    <ele>1927.46899414062</ele>
    <time>2012-06-25T16:09:37Z</time>
   </trkpt>
   <trkpt lat="45.8988380432129" lon="7.19100856781006">
    <ele>1927.75854492188</ele>
    <time>2012-06-25T16:09:38Z</time>
   </trkpt>
   <trkpt lat="45.8988456726074" lon="7.19096755981445">
    <ele>1928.04821777344</ele>
    <time>2012-06-25T16:09:39Z</time>
   </trkpt>
   <trkpt lat="45.898853302002" lon="7.19092655181885">
    <ele>1928.337890625</ele>
    <time>2012-06-25T16:09:40Z</time>
   </trkpt>
   <trkpt lat="45.8988609313965" lon="7.19080781936646">
    <ele>1929.20690917969</ele>
    <time>2012-06-25T16:09:43Z</time>
   </trkpt>
   <trkpt lat="45.8988609313965" lon="7.19077062606812">
    <ele>1929.49658203125</ele>
    <time>2012-06-25T16:09:44Z</time>
   </trkpt>
   <trkpt lat="45.8988609313965" lon="7.19073390960693">
    <ele>1929.7861328125</ele>
    <time>2012-06-25T16:09:45Z</time>
   </trkpt>
   <trkpt lat="45.8988647460938" lon="7.19069623947144">
    <ele>1930.07580566406</ele>
    <time>2012-06-25T16:09:46Z</time>
   </trkpt>
   <trkpt lat="45.898868560791" lon="7.19065570831299">
    <ele>1930.36547851562</ele>
    <time>2012-06-25T16:09:47Z</time>
   </trkpt>
   <trkpt lat="45.8988914489746" lon="7.19048166275024">
    <ele>1931.81384277344</ele>
    <time>2012-06-25T16:09:52Z</time>
   </trkpt>
   <trkpt lat="45.8988952636719" lon="7.19044923782349">
    <ele>1932.10339355469</ele>
    <time>2012-06-25T16:09:53Z</time>
   </trkpt>
   <trkpt lat="45.8989028930664" lon="7.19041395187378">
    <ele>1932.39306640625</ele>
    <time>2012-06-25T16:09:54Z</time>
   </trkpt>
   <trkpt lat="45.8989028930664" lon="7.19037818908691">
    <ele>1932.68273925781</ele>
    <time>2012-06-25T16:09:55Z</time>
   </trkpt>
   <trkpt lat="45.8989067077637" lon="7.19034671783447">
    <ele>1932.97241210938</ele>
    <time>2012-06-25T16:09:56Z</time>
   </trkpt>
   <trkpt lat="45.89892578125" lon="7.19025182723999">
    <ele>1933.84143066406</ele>
    <time>2012-06-25T16:09:59Z</time>
   </trkpt>
   <trkpt lat="45.8989295959473" lon="7.19022226333618">
    <ele>1934.13098144531</ele>
    <time>2012-06-25T16:10:00Z</time>
   </trkpt>
   <trkpt lat="45.8989334106445" lon="7.19018840789795">
    <ele>1934.42065429688</ele>
    <time>2012-06-25T16:10:01Z</time>
   </trkpt>
   <trkpt lat="45.8989410400391" lon="7.1901535987854">
    <ele>1934.71032714844</ele>
    <time>2012-06-25T16:10:02Z</time>
   </trkpt>
   <trkpt lat="45.8989448547363" lon="7.19012308120728">
    <ele>1935</ele>
    <time>2012-06-25T16:10:03Z</time>
   </trkpt>
   <trkpt lat="45.8989372253418" lon="7.1900577545166">
    <ele>1935</ele>
    <time>2012-06-25T16:10:05Z</time>
   </trkpt>
   <trkpt lat="45.8989334106445" lon="7.19002342224121">
    <ele>1935.5</ele>
    <time>2012-06-25T16:10:06Z</time>
   </trkpt>
   <trkpt lat="45.8989295959473" lon="7.18999004364014">
    <ele>1936</ele>
    <time>2012-06-25T16:10:07Z</time>
   </trkpt>
   <trkpt lat="45.8989295959473" lon="7.18995380401611">
    <ele>1936.5</ele>
    <time>2012-06-25T16:10:08Z</time>
   </trkpt>
   <trkpt lat="45.8989295959473" lon="7.18992137908936">
    <ele>1937</ele>
    <time>2012-06-25T16:10:09Z</time>
   </trkpt>
   <trkpt lat="45.8989219665527" lon="7.1898307800293">
    <ele>1937</ele>
    <time>2012-06-25T16:10:12Z</time>
   </trkpt>
   <trkpt lat="45.8989181518555" lon="7.18980264663696">
    <ele>1937.43994140625</ele>
    <time>2012-06-25T16:10:13Z</time>
   </trkpt>
   <trkpt lat="45.8989105224609" lon="7.18977165222168">
    <ele>1937.88000488281</ele>
    <time>2012-06-25T16:10:14Z</time>
   </trkpt>
   <trkpt lat="45.8988990783691" lon="7.18973970413208">
    <ele>1938.31994628906</ele>
    <time>2012-06-25T16:10:15Z</time>
   </trkpt>
   <trkpt lat="45.8988952636719" lon="7.18970918655396">
    <ele>1938.76000976562</ele>
    <time>2012-06-25T16:10:16Z</time>
   </trkpt>
   <trkpt lat="45.8988838195801" lon="7.18967723846436">
    <ele>1939.19995117188</ele>
    <time>2012-06-25T16:10:17Z</time>
   </trkpt>
   <trkpt lat="45.8988647460938" lon="7.189621925354">
    <ele>1939.19995117188</ele>
    <time>2012-06-25T16:10:19Z</time>
   </trkpt>
   <trkpt lat="45.8988571166992" lon="7.18959188461304">
    <ele>1939.59997558594</ele>
    <time>2012-06-25T16:10:20Z</time>
   </trkpt>
   <trkpt lat="45.898853302002" lon="7.18955945968628">
    <ele>1940</ele>
    <time>2012-06-25T16:10:21Z</time>
   </trkpt>
   <trkpt lat="45.8988456726074" lon="7.18952512741089">
    <ele>1940.39990234375</ele>
    <time>2012-06-25T16:10:22Z</time>
   </trkpt>
   <trkpt lat="45.8988304138184" lon="7.18949604034424">
    <ele>1940.79992675781</ele>
    <time>2012-06-25T16:10:23Z</time>
   </trkpt>
   <trkpt lat="45.8988189697266" lon="7.18946886062622">
    <ele>1941.19995117188</ele>
    <time>2012-06-25T16:10:24Z</time>
   </trkpt>
   <trkpt lat="45.898811340332" lon="7.18943977355957">
    <ele>1941.19995117188</ele>
    <time>2012-06-25T16:10:25Z</time>
   </trkpt>
   <trkpt lat="45.8987770080566" lon="7.18935060501099">
    <ele>1942.01000976562</ele>
    <time>2012-06-25T16:10:28Z</time>
   </trkpt>
   <trkpt lat="45.8987655639648" lon="7.18932151794434">
    <ele>1942.27990722656</ele>
    <time>2012-06-25T16:10:29Z</time>
   </trkpt>
   <trkpt lat="45.8987579345703" lon="7.18929147720337">
    <ele>1942.54992675781</ele>
    <time>2012-06-25T16:10:30Z</time>
   </trkpt>
   <trkpt lat="45.8987503051758" lon="7.18925905227661">
    <ele>1942.81994628906</ele>
    <time>2012-06-25T16:10:31Z</time>
   </trkpt>
   <trkpt lat="45.898738861084" lon="7.18923234939575">
    <ele>1943.08996582031</ele>
    <time>2012-06-25T16:10:32Z</time>
   </trkpt>
   <trkpt lat="45.8986701965332" lon="7.18907403945923">
    <ele>1944.43994140625</ele>
    <time>2012-06-25T16:10:37Z</time>
   </trkpt>
   <trkpt lat="45.8986587524414" lon="7.18904495239258">
    <ele>1944.7099609375</ele>
    <time>2012-06-25T16:10:38Z</time>
   </trkpt>
   <trkpt lat="45.8986511230469" lon="7.18901300430298">
    <ele>1944.97998046875</ele>
    <time>2012-06-25T16:10:39Z</time>
   </trkpt>
   <trkpt lat="45.8986396789551" lon="7.18897819519043">
    <ele>1945.25</ele>
    <time>2012-06-25T16:10:40Z</time>
   </trkpt>
   <trkpt lat="45.8986320495606" lon="7.18894529342651">
    <ele>1945.52001953125</ele>
    <time>2012-06-25T16:10:41Z</time>
   </trkpt>
   <trkpt lat="45.8985824584961" lon="7.18879413604736">
    <ele>1946.86999511719</ele>
    <time>2012-06-25T16:10:46Z</time>
   </trkpt>
   <trkpt lat="45.8985748291016" lon="7.18876266479492">
    <ele>1947.14001464844</ele>
    <time>2012-06-25T16:10:47Z</time>
   </trkpt>
   <trkpt lat="45.8985633850098" lon="7.18873596191406">
    <ele>1947.41003417969</ele>
    <time>2012-06-25T16:10:48Z</time>
   </trkpt>
   <trkpt lat="45.898551940918" lon="7.18871068954468">
    <ele>1947.67993164062</ele>
    <time>2012-06-25T16:10:49Z</time>
   </trkpt>
   <trkpt lat="45.8985404968262" lon="7.18867921829224">
    <ele>1947.94995117188</ele>
    <time>2012-06-25T16:10:50Z</time>
   </trkpt>
   <trkpt lat="45.8985061645508" lon="7.18859672546387">
    <ele>1948.76000976562</ele>
    <time>2012-06-25T16:10:53Z</time>
   </trkpt>
   <trkpt lat="45.898494720459" lon="7.18856954574585">
    <ele>1949.03002929688</ele>
    <time>2012-06-25T16:10:54Z</time>
   </trkpt>
   <trkpt lat="45.8984794616699" lon="7.18854427337646">
    <ele>1949.30004882812</ele>
    <time>2012-06-25T16:10:55Z</time>
   </trkpt>
   <trkpt lat="45.8984680175781" lon="7.18851518630982">
    <ele>1949.56994628906</ele>
    <time>2012-06-25T16:10:56Z</time>
   </trkpt>
   <trkpt lat="45.8984565734863" lon="7.18848752975464">
    <ele>1949.83996582031</ele>
    <time>2012-06-25T16:10:57Z</time>
   </trkpt>
   <trkpt lat="45.8983955383301" lon="7.18837881088257">
    <ele>1950.92004394531</ele>
    <time>2012-06-25T16:11:01Z</time>
   </trkpt>
   <trkpt lat="45.898380279541" lon="7.18835020065308">
    <ele>1951.18994140625</ele>
    <time>2012-06-25T16:11:02Z</time>
   </trkpt>
   <trkpt lat="45.898365020752" lon="7.18832492828369">
    <ele>1951.4599609375</ele>
    <time>2012-06-25T16:11:03Z</time>
   </trkpt>
   <trkpt lat="45.8983535766602" lon="7.18829870223999">
    <ele>1951.72998046875</ele>
    <time>2012-06-25T16:11:04Z</time>
   </trkpt>
   <trkpt lat="45.8983383178711" lon="7.18827390670776">
    <ele>1952</ele>
    <time>2012-06-25T16:11:05Z</time>
   </trkpt>
   <trkpt lat="45.8982925415039" lon="7.18819904327393">
    <ele>1952</ele>
    <time>2012-06-25T16:11:08Z</time>
   </trkpt>
   <trkpt lat="45.8982620239258" lon="7.18814945220947">
    <ele>1952.66662597656</ele>
    <time>2012-06-25T16:11:10Z</time>
   </trkpt>
   <trkpt lat="45.8982429504394" lon="7.18812084197998">
    <ele>1953</ele>
    <time>2012-06-25T16:11:11Z</time>
   </trkpt>
   <trkpt lat="45.8982315063477" lon="7.18809366226196">
    <ele>1953.33337402344</ele>
    <time>2012-06-25T16:11:12Z</time>
   </trkpt>
   <trkpt lat="45.8982162475586" lon="7.18806505203247">
    <ele>1953.66662597656</ele>
    <time>2012-06-25T16:11:13Z</time>
   </trkpt>
   <trkpt lat="45.8982048034668" lon="7.18803691864014">
    <ele>1954</ele>
    <time>2012-06-25T16:11:14Z</time>
   </trkpt>
   <trkpt lat="45.8981590270996" lon="7.18795347213745">
    <ele>1954</ele>
    <time>2012-06-25T16:11:17Z</time>
   </trkpt>
   <trkpt lat="45.8981475830078" lon="7.18792581558228">
    <ele>1954.34741210938</ele>
    <time>2012-06-25T16:11:18Z</time>
   </trkpt>
   <trkpt lat="45.898136138916" lon="7.18789625167847">
    <ele>1955.04211425781</ele>
    <time>2012-06-25T16:11:20Z</time>
   </trkpt>
   <trkpt lat="45.8981246948242" lon="7.18786811828613">
    <ele>1955.38952636719</ele>
    <time>2012-06-25T16:11:21Z</time>
   </trkpt>
   <trkpt lat="45.8981132507324" lon="7.1878399848938">
    <ele>1955.73681640625</ele>
    <time>2012-06-25T16:11:22Z</time>
   </trkpt>
   <trkpt lat="45.8980712890625" lon="7.18775796890259">
    <ele>1956.77893066406</ele>
    <time>2012-06-25T16:11:25Z</time>
   </trkpt>
   <trkpt lat="45.8980560302734" lon="7.18772792816162">
    <ele>1957.12634277344</ele>
    <time>2012-06-25T16:11:26Z</time>
   </trkpt>
   <trkpt lat="45.8980407714844" lon="7.18770360946655">
    <ele>1957.4736328125</ele>
    <time>2012-06-25T16:11:27Z</time>
   </trkpt>
   <trkpt lat="45.898021697998" lon="7.18767786026001">
    <ele>1957.82104492188</ele>
    <time>2012-06-25T16:11:28Z</time>
   </trkpt>
   <trkpt lat="45.8980026245117" lon="7.18765735626221">
    <ele>1958.16845703125</ele>
    <time>2012-06-25T16:11:29Z</time>
   </trkpt>
   <trkpt lat="45.89794921875" lon="7.18759059906006">
    <ele>1959.21044921875</ele>
    <time>2012-06-25T16:11:32Z</time>
   </trkpt>
   <trkpt lat="45.8979263305664" lon="7.18756914138794">
    <ele>1959.55786132812</ele>
    <time>2012-06-25T16:11:33Z</time>
   </trkpt>
   <trkpt lat="45.8979072570801" lon="7.18755292892456">
    <ele>1959.9052734375</ele>
    <time>2012-06-25T16:11:34Z</time>
   </trkpt>
   <trkpt lat="45.8978881835938" lon="7.18753480911255">
    <ele>1960.25256347656</ele>
    <time>2012-06-25T16:11:35Z</time>
   </trkpt>
   <trkpt lat="45.8978691101074" lon="7.18751525878906">
    <ele>1960.59997558594</ele>
    <time>2012-06-25T16:11:36Z</time>
   </trkpt>
   <trkpt lat="45.8978080749512" lon="7.18747758865356">
    <ele>1960.59997558594</ele>
    <time>2012-06-25T16:11:39Z</time>
   </trkpt>
   <trkpt lat="45.8976516723633" lon="7.18743658065796">
    <ele>1962.13330078125</ele>
    <time>2012-06-25T16:11:45Z</time>
   </trkpt>
   <trkpt lat="45.8976249694824" lon="7.18743228912354">
    <ele>1962.38891601562</ele>
    <time>2012-06-25T16:11:46Z</time>
   </trkpt>
   <trkpt lat="45.8976020812988" lon="7.18742799758911">
    <ele>1962.64440917969</ele>
    <time>2012-06-25T16:11:47Z</time>
   </trkpt>
   <trkpt lat="45.8975791931152" lon="7.18742275238037">
    <ele>1962.89990234375</ele>
    <time>2012-06-25T16:11:48Z</time>
   </trkpt>
   <trkpt lat="45.8974609375" lon="7.18734645843506">
    <ele>1964.177734375</ele>
    <time>2012-06-25T16:11:53Z</time>
   </trkpt>
   <trkpt lat="45.8974380493164" lon="7.18733263015747">
    <ele>1964.43334960938</ele>
    <time>2012-06-25T16:11:54Z</time>
   </trkpt>
   <trkpt lat="45.8974113464356" lon="7.1873197555542">
    <ele>1964.68884277344</ele>
    <time>2012-06-25T16:11:55Z</time>
   </trkpt>
   <trkpt lat="45.8973846435547" lon="7.18730592727661">
    <ele>1964.9443359375</ele>
    <time>2012-06-25T16:11:56Z</time>
   </trkpt>
   <trkpt lat="45.8973579406738" lon="7.1872935295105">
    <ele>1965.19995117188</ele>
    <time>2012-06-25T16:11:57Z</time>
   </trkpt>
   <trkpt lat="45.8972434997559" lon="7.18725109100342">
    <ele>1965.19995117188</ele>
    <time>2012-06-25T16:12:01Z</time>
   </trkpt>
   <trkpt lat="45.897102355957" lon="7.18719863891602">
    <ele>1965.78820800781</ele>
    <time>2012-06-25T16:12:06Z</time>
   </trkpt>
   <trkpt lat="45.8968505859375" lon="7.18716907501221">
    <ele>1966.72937011719</ele>
    <time>2012-06-25T16:12:14Z</time>
   </trkpt>
   <trkpt lat="45.8968200683594" lon="7.18716239929199">
    <ele>1966.84704589844</ele>
    <time>2012-06-25T16:12:15Z</time>
   </trkpt>
   <trkpt lat="45.896785736084" lon="7.18716096878052">
    <ele>1966.96459960938</ele>
    <time>2012-06-25T16:12:16Z</time>
   </trkpt>
   <trkpt lat="45.8967552185059" lon="7.18715715408325">
    <ele>1967.08227539062</ele>
    <time>2012-06-25T16:12:17Z</time>
   </trkpt>
   <trkpt lat="45.8967247009277" lon="7.18715333938599">
    <ele>1967.19995117188</ele>
    <time>2012-06-25T16:12:18Z</time>
   </trkpt>
   <trkpt lat="45.8966903686523" lon="7.18714570999146">
    <ele>1967.19995117188</ele>
    <time>2012-06-25T16:12:19Z</time>
   </trkpt>
   <trkpt lat="45.8966064453125" lon="7.18710374832153">
    <ele>1968.14282226562</ele>
    <time>2012-06-25T16:12:25Z</time>
   </trkpt>
   <trkpt lat="45.8965530395508" lon="7.1870756149292">
    <ele>1968.771484375</ele>
    <time>2012-06-25T16:12:29Z</time>
   </trkpt>
   <trkpt lat="45.8965377807617" lon="7.18706369400024">
    <ele>1968.92858886719</ele>
    <time>2012-06-25T16:12:30Z</time>
   </trkpt>
   <trkpt lat="45.8965225219727" lon="7.1870527267456">
    <ele>1969.08569335938</ele>
    <time>2012-06-25T16:12:31Z</time>
   </trkpt>
   <trkpt lat="45.8965072631836" lon="7.18704223632812">
    <ele>1969.24291992188</ele>
    <time>2012-06-25T16:12:32Z</time>
   </trkpt>
   <trkpt lat="45.8964920043945" lon="7.18703174591064">
    <ele>1969.40002441406</ele>
    <time>2012-06-25T16:12:33Z</time>
   </trkpt>
   <trkpt lat="45.8964691162109" lon="7.18702411651611">
    <ele>1969.40002441406</ele>
    <time>2012-06-25T16:12:34Z</time>
   </trkpt>
   <trkpt lat="45.8964347839356" lon="7.18700838088989">
    <ele>1969.97143554688</ele>
    <time>2012-06-25T16:12:36Z</time>
   </trkpt>
   <trkpt lat="45.8964195251465" lon="7.18700170516968">
    <ele>1970.25720214844</ele>
    <time>2012-06-25T16:12:37Z</time>
   </trkpt>
   <trkpt lat="45.8963966369629" lon="7.18699359893799">
    <ele>1970.54284667969</ele>
    <time>2012-06-25T16:12:38Z</time>
   </trkpt>
   <trkpt lat="45.8963775634766" lon="7.18698501586914">
    <ele>1970.82861328125</ele>
    <time>2012-06-25T16:12:39Z</time>
   </trkpt>
   <trkpt lat="45.8963584899902" lon="7.1869740486145">
    <ele>1971.1142578125</ele>
    <time>2012-06-25T16:12:40Z</time>
   </trkpt>
   <trkpt lat="45.8963394165039" lon="7.18696165084839">
    <ele>1971.40002441406</ele>
    <time>2012-06-25T16:12:41Z</time>
   </trkpt>
   <trkpt lat="45.8962936401367" lon="7.18694353103638">
    <ele>1971.40002441406</ele>
    <time>2012-06-25T16:12:43Z</time>
   </trkpt>
   <trkpt lat="45.8962364196777" lon="7.18691301345825">
    <ele>1972.34289550781</ele>
    <time>2012-06-25T16:12:46Z</time>
   </trkpt>
   <trkpt lat="45.8962173461914" lon="7.18690490722656">
    <ele>1972.65710449219</ele>
    <time>2012-06-25T16:12:47Z</time>
   </trkpt>
   <trkpt lat="45.8961944580078" lon="7.18689489364624">
    <ele>1972.97143554688</ele>
    <time>2012-06-25T16:12:48Z</time>
   </trkpt>
   <trkpt lat="45.8961715698242" lon="7.18688774108887">
    <ele>1973.28564453125</ele>
    <time>2012-06-25T16:12:49Z</time>
   </trkpt>
   <trkpt lat="45.8961448669434" lon="7.18688201904297">
    <ele>1973.59997558594</ele>
    <time>2012-06-25T16:12:50Z</time>
   </trkpt>
   <trkpt lat="45.8961219787598" lon="7.18687725067139">
    <ele>1973.59997558594</ele>
    <time>2012-06-25T16:12:51Z</time>
   </trkpt>
   <trkpt lat="45.8960075378418" lon="7.18685722351074">
    <ele>1974.71105957031</ele>
    <time>2012-06-25T16:12:56Z</time>
   </trkpt>
   <trkpt lat="45.8959884643555" lon="7.18684530258179">
    <ele>1974.93334960938</ele>
    <time>2012-06-25T16:12:57Z</time>
   </trkpt>
   <trkpt lat="45.8959617614746" lon="7.1868405342102">
    <ele>1975.15551757812</ele>
    <time>2012-06-25T16:12:58Z</time>
   </trkpt>
   <trkpt lat="45.895938873291" lon="7.18683338165283">
    <ele>1975.37780761719</ele>
    <time>2012-06-25T16:12:59Z</time>
   </trkpt>
   <trkpt lat="45.8959121704102" lon="7.18683338165283">
    <ele>1975.59997558594</ele>
    <time>2012-06-25T16:13:00Z</time>
   </trkpt>
   <trkpt lat="45.895866394043" lon="7.18682384490967">
    <ele>1975.59997558594</ele>
    <time>2012-06-25T16:13:02Z</time>
   </trkpt>
   <trkpt lat="45.8957977294922" lon="7.1868143081665">
    <ele>1976.54284667969</ele>
    <time>2012-06-25T16:13:05Z</time>
   </trkpt>
   <trkpt lat="45.8957710266113" lon="7.18681192398071">
    <ele>1976.85717773438</ele>
    <time>2012-06-25T16:13:06Z</time>
   </trkpt>
   <trkpt lat="45.8957481384277" lon="7.1868052482605">
    <ele>1977.17150878906</ele>
    <time>2012-06-25T16:13:07Z</time>
   </trkpt>
   <trkpt lat="45.8957290649414" lon="7.18680429458618">
    <ele>1977.48571777344</ele>
    <time>2012-06-25T16:13:08Z</time>
   </trkpt>
   <trkpt lat="45.8957061767578" lon="7.18680381774902">
    <ele>1977.80004882812</ele>
    <time>2012-06-25T16:13:09Z</time>
   </trkpt>
   <trkpt lat="45.895679473877" lon="7.18679761886597">
    <ele>1977.80004882812</ele>
    <time>2012-06-25T16:13:10Z</time>
   </trkpt>
   <trkpt lat="45.8955612182617" lon="7.18676137924194">
    <ele>1979.05871582031</ele>
    <time>2012-06-25T16:13:15Z</time>
   </trkpt>
   <trkpt lat="45.8955383300781" lon="7.1867527961731">
    <ele>1979.31042480469</ele>
    <time>2012-06-25T16:13:16Z</time>
   </trkpt>
   <trkpt lat="45.8955192565918" lon="7.1867470741272">
    <ele>1979.56213378906</ele>
    <time>2012-06-25T16:13:17Z</time>
   </trkpt>
   <trkpt lat="45.8954963684082" lon="7.18674373626709">
    <ele>1979.81384277344</ele>
    <time>2012-06-25T16:13:18Z</time>
   </trkpt>
   <trkpt lat="45.8954772949219" lon="7.1867413520813">
    <ele>1980.06555175781</ele>
    <time>2012-06-25T16:13:19Z</time>
   </trkpt>
   <trkpt lat="45.8954620361328" lon="7.18673372268677">
    <ele>1981.32421875</ele>
    <time>2012-06-25T16:13:24Z</time>
   </trkpt>
   <trkpt lat="45.8954620361328" lon="7.18673372268677">
    <ele>1981.57592773438</ele>
    <time>2012-06-25T16:13:25Z</time>
   </trkpt>
   <trkpt lat="45.8954544067383" lon="7.18673372268677">
    <ele>1981.82763671875</ele>
    <time>2012-06-25T16:13:26Z</time>
   </trkpt>
   <trkpt lat="45.895450592041" lon="7.18673324584961">
    <ele>1982.07934570312</ele>
    <time>2012-06-25T16:13:27Z</time>
   </trkpt>
   <trkpt lat="45.8953514099121" lon="7.18670654296875">
    <ele>1983.58972167969</ele>
    <time>2012-06-25T16:13:33Z</time>
   </trkpt>
   <trkpt lat="45.8953285217285" lon="7.18669891357422">
    <ele>1983.84143066406</ele>
    <time>2012-06-25T16:13:34Z</time>
   </trkpt>
   <trkpt lat="45.8953094482422" lon="7.18669033050537">
    <ele>1984.09313964844</ele>
    <time>2012-06-25T16:13:35Z</time>
   </trkpt>
   <trkpt lat="45.8952865600586" lon="7.18668127059936">
    <ele>1984.34484863281</ele>
    <time>2012-06-25T16:13:36Z</time>
   </trkpt>
   <trkpt lat="45.8952674865723" lon="7.18667650222778">
    <ele>1984.59655761719</ele>
    <time>2012-06-25T16:13:37Z</time>
   </trkpt>
   <trkpt lat="45.895206451416" lon="7.18665456771851">
    <ele>1985.35180664062</ele>
    <time>2012-06-25T16:13:40Z</time>
   </trkpt>
   <trkpt lat="45.8951873779297" lon="7.1866455078125">
    <ele>1985.603515625</ele>
    <time>2012-06-25T16:13:41Z</time>
   </trkpt>
   <trkpt lat="45.8951644897461" lon="7.18663692474365">
    <ele>1985.85522460938</ele>
    <time>2012-06-25T16:13:42Z</time>
   </trkpt>
   <trkpt lat="45.8951416015625" lon="7.18663311004639">
    <ele>1986.10693359375</ele>
    <time>2012-06-25T16:13:43Z</time>
   </trkpt>
   <trkpt lat="45.8951187133789" lon="7.18662357330322">
    <ele>1986.35864257812</ele>
    <time>2012-06-25T16:13:44Z</time>
   </trkpt>
   <trkpt lat="45.8949890136719" lon="7.18658399581909">
    <ele>1987.86901855469</ele>
    <time>2012-06-25T16:13:50Z</time>
   </trkpt>
   <trkpt lat="45.8949661254883" lon="7.1865758895874">
    <ele>1988.12072753906</ele>
    <time>2012-06-25T16:13:51Z</time>
   </trkpt>
   <trkpt lat="45.894947052002" lon="7.18656492233276">
    <ele>1988.37243652344</ele>
    <time>2012-06-25T16:13:52Z</time>
   </trkpt>
   <trkpt lat="45.8949279785156" lon="7.18655204772949">
    <ele>1988.62414550781</ele>
    <time>2012-06-25T16:13:53Z</time>
   </trkpt>
   <trkpt lat="45.8949089050293" lon="7.18653964996338">
    <ele>1988.87585449219</ele>
    <time>2012-06-25T16:13:54Z</time>
   </trkpt>
   <trkpt lat="45.8948440551758" lon="7.18650913238525">
    <ele>1989.63110351562</ele>
    <time>2012-06-25T16:13:57Z</time>
   </trkpt>
   <trkpt lat="45.8948287963867" lon="7.18649816513062">
    <ele>1989.8828125</ele>
    <time>2012-06-25T16:13:58Z</time>
   </trkpt>
   <trkpt lat="45.8948059082031" lon="7.18648910522461">
    <ele>1990.13452148438</ele>
    <time>2012-06-25T16:13:59Z</time>
   </trkpt>
   <trkpt lat="45.8947868347168" lon="7.1864767074585">
    <ele>1990.38623046875</ele>
    <time>2012-06-25T16:14:00Z</time>
   </trkpt>
   <trkpt lat="45.8947677612305" lon="7.18646621704102">
    <ele>1990.63793945312</ele>
    <time>2012-06-25T16:14:01Z</time>
   </trkpt>
   <trkpt lat="45.8947067260742" lon="7.186448097229">
    <ele>1991.39318847656</ele>
    <time>2012-06-25T16:14:04Z</time>
   </trkpt>
   <trkpt lat="45.8946876525879" lon="7.18644714355469">
    <ele>1991.64489746094</ele>
    <time>2012-06-25T16:14:05Z</time>
   </trkpt>
   <trkpt lat="45.8946647644043" lon="7.18644332885742">
    <ele>1991.89660644531</ele>
    <time>2012-06-25T16:14:06Z</time>
   </trkpt>
   <trkpt lat="45.8946418762207" lon="7.18644189834595">
    <ele>1992.14831542969</ele>
    <time>2012-06-25T16:14:07Z</time>
   </trkpt>
   <trkpt lat="45.8946228027344" lon="7.18644380569458">
    <ele>1992.40002441406</ele>
    <time>2012-06-25T16:14:08Z</time>
   </trkpt>
   <trkpt lat="45.8945999145508" lon="7.18644094467163">
    <ele>1992.40002441406</ele>
    <time>2012-06-25T16:14:09Z</time>
   </trkpt>
   <trkpt lat="45.89453125" lon="7.18644618988037">
    <ele>1993.25720214844</ele>
    <time>2012-06-25T16:14:12Z</time>
   </trkpt>
   <trkpt lat="45.8945083618164" lon="7.18644666671753">
    <ele>1993.54284667969</ele>
    <time>2012-06-25T16:14:13Z</time>
   </trkpt>
   <trkpt lat="45.8944778442383" lon="7.18644762039185">
    <ele>1993.82861328125</ele>
    <time>2012-06-25T16:14:14Z</time>
   </trkpt>
   <trkpt lat="45.8944511413574" lon="7.18644428253174">
    <ele>1994.1142578125</ele>
    <time>2012-06-25T16:14:15Z</time>
   </trkpt>
   <trkpt lat="45.8944244384766" lon="7.18644285202026">
    <ele>1994.40002441406</ele>
    <time>2012-06-25T16:14:16Z</time>
   </trkpt>
   <trkpt lat="45.8943252563477" lon="7.18644428253174">
    <ele>1994.40002441406</ele>
    <time>2012-06-25T16:14:20Z</time>
   </trkpt>
   <trkpt lat="45.8942832946777" lon="7.18644618988037">
    <ele>1995.06665039062</ele>
    <time>2012-06-25T16:14:22Z</time>
   </trkpt>
   <trkpt lat="45.8942604064941" lon="7.18644714355469">
    <ele>1995.40002441406</ele>
    <time>2012-06-25T16:14:23Z</time>
   </trkpt>
   <trkpt lat="45.8942375183106" lon="7.18644666671753">
    <ele>1995.7333984375</ele>
    <time>2012-06-25T16:14:24Z</time>
   </trkpt>
   <trkpt lat="45.894214630127" lon="7.1864447593689">
    <ele>1996.06665039062</ele>
    <time>2012-06-25T16:14:25Z</time>
   </trkpt>
   <trkpt lat="45.8941917419434" lon="7.18644046783447">
    <ele>1996.40002441406</ele>
    <time>2012-06-25T16:14:26Z</time>
   </trkpt>
   <trkpt lat="45.8941688537598" lon="7.18644046783447">
    <ele>1996.40002441406</ele>
    <time>2012-06-25T16:14:27Z</time>
   </trkpt>
   <trkpt lat="45.8940963745117" lon="7.18644905090332">
    <ele>1997.1875</ele>
    <time>2012-06-25T16:14:30Z</time>
   </trkpt>
   <trkpt lat="45.8940734863281" lon="7.1864504814148">
    <ele>1997.44995117188</ele>
    <time>2012-06-25T16:14:31Z</time>
   </trkpt>
   <trkpt lat="45.8940505981445" lon="7.18645143508911">
    <ele>1997.71252441406</ele>
    <time>2012-06-25T16:14:32Z</time>
   </trkpt>
   <trkpt lat="45.8940238952637" lon="7.18645143508911">
    <ele>1997.97497558594</ele>
    <time>2012-06-25T16:14:33Z</time>
   </trkpt>
   <trkpt lat="45.8940010070801" lon="7.18645095825195">
    <ele>1998.23754882812</ele>
    <time>2012-06-25T16:14:34Z</time>
   </trkpt>
   <trkpt lat="45.8938636779785" lon="7.18645668029785">
    <ele>1999.8125</ele>
    <time>2012-06-25T16:14:40Z</time>
   </trkpt>
   <trkpt lat="45.8938369750977" lon="7.18645858764648">
    <ele>2000.07495117188</ele>
    <time>2012-06-25T16:14:41Z</time>
   </trkpt>
   <trkpt lat="45.8938140869141" lon="7.18646240234375">
    <ele>2000.33752441406</ele>
    <time>2012-06-25T16:14:42Z</time>
   </trkpt>
   <trkpt lat="45.893798828125" lon="7.18645668029785">
    <ele>2000.59997558594</ele>
    <time>2012-06-25T16:14:43Z</time>
   </trkpt>
   <trkpt lat="45.8937530517578" lon="7.18646240234375">
    <ele>2000.59997558594</ele>
    <time>2012-06-25T16:14:45Z</time>
   </trkpt>
   <trkpt lat="45.8937034606934" lon="7.18647336959839">
    <ele>2001.33337402344</ele>
    <time>2012-06-25T16:14:47Z</time>
   </trkpt>
   <trkpt lat="45.8936767578125" lon="7.18647813796997">
    <ele>2001.69995117188</ele>
    <time>2012-06-25T16:14:48Z</time>
   </trkpt>
   <trkpt lat="45.8936538696289" lon="7.18648290634155">
    <ele>2002.06665039062</ele>
    <time>2012-06-25T16:14:49Z</time>
   </trkpt>
   <trkpt lat="45.893627166748" lon="7.18648767471314">
    <ele>2002.43334960938</ele>
    <time>2012-06-25T16:14:50Z</time>
   </trkpt>
   <trkpt lat="45.8935966491699" lon="7.18649053573608">
    <ele>2002.80004882812</ele>
    <time>2012-06-25T16:14:51Z</time>
   </trkpt>
   <trkpt lat="45.8935737609863" lon="7.18648958206177">
    <ele>2002.80004882812</ele>
    <time>2012-06-25T16:14:52Z</time>
   </trkpt>
   <trkpt lat="45.8934783935547" lon="7.18647718429565">
    <ele>2003.95861816406</ele>
    <time>2012-06-25T16:14:56Z</time>
   </trkpt>
   <trkpt lat="45.8934555053711" lon="7.18647575378418">
    <ele>2004.24829101562</ele>
    <time>2012-06-25T16:14:57Z</time>
   </trkpt>
   <trkpt lat="45.8934326171875" lon="7.1864743232727">
    <ele>2004.53796386719</ele>
    <time>2012-06-25T16:14:58Z</time>
   </trkpt>
   <trkpt lat="45.8934059143066" lon="7.18646860122681">
    <ele>2004.82763671875</ele>
    <time>2012-06-25T16:14:59Z</time>
   </trkpt>
   <trkpt lat="45.893383026123" lon="7.18646383285522">
    <ele>2005.11730957031</ele>
    <time>2012-06-25T16:15:00Z</time>
   </trkpt>
   <trkpt lat="45.8933601379394" lon="7.18646335601807">
    <ele>2005.40686035156</ele>
    <time>2012-06-25T16:15:01Z</time>
   </trkpt>
   <trkpt lat="45.8932914733887" lon="7.18645858764648">
    <ele>2006.27587890625</ele>
    <time>2012-06-25T16:15:04Z</time>
   </trkpt>
   <trkpt lat="45.8932685852051" lon="7.18645095825195">
    <ele>2006.56555175781</ele>
    <time>2012-06-25T16:15:05Z</time>
   </trkpt>
   <trkpt lat="45.8932418823242" lon="7.18644189834595">
    <ele>2006.85522460938</ele>
    <time>2012-06-25T16:15:06Z</time>
   </trkpt>
   <trkpt lat="45.8932189941406" lon="7.18643569946289">
    <ele>2007.14477539062</ele>
    <time>2012-06-25T16:15:07Z</time>
   </trkpt>
   <trkpt lat="45.8931465148926" lon="7.18642854690552">
    <ele>2008.01379394531</ele>
    <time>2012-06-25T16:15:10Z</time>
   </trkpt>
   <trkpt lat="45.893123626709" lon="7.18642902374268">
    <ele>2008.30346679688</ele>
    <time>2012-06-25T16:15:11Z</time>
   </trkpt>
   <trkpt lat="45.8931007385254" lon="7.18643188476562">
    <ele>2008.59313964844</ele>
    <time>2012-06-25T16:15:12Z</time>
   </trkpt>
   <trkpt lat="45.8930778503418" lon="7.18643712997436">
    <ele>2008.88269042969</ele>
    <time>2012-06-25T16:15:13Z</time>
   </trkpt>
   <trkpt lat="45.8930549621582" lon="7.18644142150879">
    <ele>2009.17236328125</ele>
    <time>2012-06-25T16:15:14Z</time>
   </trkpt>
   <trkpt lat="45.8929824829102" lon="7.18646001815796">
    <ele>2010.04138183594</ele>
    <time>2012-06-25T16:15:17Z</time>
   </trkpt>
   <trkpt lat="45.8929557800293" lon="7.18647193908691">
    <ele>2010.3310546875</ele>
    <time>2012-06-25T16:15:18Z</time>
   </trkpt>
   <trkpt lat="45.8929252624512" lon="7.18648147583008">
    <ele>2010.62060546875</ele>
    <time>2012-06-25T16:15:19Z</time>
   </trkpt>
   <trkpt lat="45.8928985595703" lon="7.18649005889893">
    <ele>2010.91027832031</ele>
    <time>2012-06-25T16:15:20Z</time>
   </trkpt>
   <trkpt lat="45.8928642272949" lon="7.18649482727051">
    <ele>2011.19995117188</ele>
    <time>2012-06-25T16:15:21Z</time>
   </trkpt>
   <trkpt lat="45.8928146362305" lon="7.18651485443115">
    <ele>2011.19995117188</ele>
    <time>2012-06-25T16:15:23Z</time>
   </trkpt>
   <trkpt lat="45.8926887512207" lon="7.18655252456665">
    <ele>2012.5478515625</ele>
    <time>2012-06-25T16:15:28Z</time>
   </trkpt>
   <trkpt lat="45.8926658630371" lon="7.18655967712402">
    <ele>2012.8173828125</ele>
    <time>2012-06-25T16:15:29Z</time>
   </trkpt>
   <trkpt lat="45.8926429748535" lon="7.1865644454956">
    <ele>2013.0869140625</ele>
    <time>2012-06-25T16:15:30Z</time>
   </trkpt>
   <trkpt lat="45.8926200866699" lon="7.18657064437866">
    <ele>2013.3564453125</ele>
    <time>2012-06-25T16:15:31Z</time>
   </trkpt>
   <trkpt lat="45.8925552368164" lon="7.18658590316772">
    <ele>2014.16516113281</ele>
    <time>2012-06-25T16:15:34Z</time>
   </trkpt>
   <trkpt lat="45.8925323486328" lon="7.18659114837646">
    <ele>2014.43481445312</ele>
    <time>2012-06-25T16:15:35Z</time>
   </trkpt>
   <trkpt lat="45.8925094604492" lon="7.18659400939941">
    <ele>2014.70434570312</ele>
    <time>2012-06-25T16:15:36Z</time>
   </trkpt>
   <trkpt lat="45.8924865722656" lon="7.18659782409668">
    <ele>2014.97387695312</ele>
    <time>2012-06-25T16:15:37Z</time>
   </trkpt>
   <trkpt lat="45.8924674987793" lon="7.18660402297974">
    <ele>2015.24353027344</ele>
    <time>2012-06-25T16:15:38Z</time>
   </trkpt>
   <trkpt lat="45.8923835754394" lon="7.18662357330322">
    <ele>2016.32177734375</ele>
    <time>2012-06-25T16:15:42Z</time>
   </trkpt>
   <trkpt lat="45.8923645019531" lon="7.18663024902344">
    <ele>2016.59130859375</ele>
    <time>2012-06-25T16:15:43Z</time>
   </trkpt>
   <trkpt lat="45.8923416137695" lon="7.18663835525513">
    <ele>2016.86083984375</ele>
    <time>2012-06-25T16:15:44Z</time>
   </trkpt>
   <trkpt lat="45.8923187255859" lon="7.18664646148682">
    <ele>2017.13049316406</ele>
    <time>2012-06-25T16:15:45Z</time>
   </trkpt>
   <trkpt lat="45.8922996520996" lon="7.1866569519043">
    <ele>2017.40002441406</ele>
    <time>2012-06-25T16:15:46Z</time>
   </trkpt>
   <trkpt lat="45.8922386169434" lon="7.18668460845947">
    <ele>2017.40002441406</ele>
    <time>2012-06-25T16:15:49Z</time>
   </trkpt>
   <trkpt lat="45.8922157287598" lon="7.18668699264526">
    <ele>2017.73681640625</ele>
    <time>2012-06-25T16:15:50Z</time>
   </trkpt>
   <trkpt lat="45.8921928405762" lon="7.18669605255127">
    <ele>2018.07373046875</ele>
    <time>2012-06-25T16:15:51Z</time>
   </trkpt>
   <trkpt lat="45.8921737670898" lon="7.18670415878296">
    <ele>2018.41052246094</ele>
    <time>2012-06-25T16:15:52Z</time>
   </trkpt>
   <trkpt lat="45.8921508789062" lon="7.18671607971191">
    <ele>2018.74743652344</ele>
    <time>2012-06-25T16:15:53Z</time>
   </trkpt>
   <trkpt lat="45.8921318054199" lon="7.18673133850098">
    <ele>2019.08422851562</ele>
    <time>2012-06-25T16:15:54Z</time>
   </trkpt>
   <trkpt lat="45.89208984375" lon="7.18675470352173">
    <ele>2019.75793457031</ele>
    <time>2012-06-25T16:15:56Z</time>
   </trkpt>
   <trkpt lat="45.8920745849609" lon="7.18676567077637">
    <ele>2020.0947265625</ele>
    <time>2012-06-25T16:15:57Z</time>
   </trkpt>
   <trkpt lat="45.8920516967773" lon="7.18677711486816">
    <ele>2020.431640625</ele>
    <time>2012-06-25T16:15:58Z</time>
   </trkpt>
   <trkpt lat="45.892032623291" lon="7.18678951263428">
    <ele>2020.76843261719</ele>
    <time>2012-06-25T16:15:59Z</time>
   </trkpt>
   <trkpt lat="45.8920097351074" lon="7.1867995262146">
    <ele>2021.10534667969</ele>
    <time>2012-06-25T16:16:00Z</time>
   </trkpt>
   <trkpt lat="45.8919258117676" lon="7.18682384490967">
    <ele>2022.45263671875</ele>
    <time>2012-06-25T16:16:04Z</time>
   </trkpt>
   <trkpt lat="45.8919067382812" lon="7.1868314743042">
    <ele>2022.78955078125</ele>
    <time>2012-06-25T16:16:05Z</time>
   </trkpt>
   <trkpt lat="45.8918838500977" lon="7.18683958053589">
    <ele>2023.12634277344</ele>
    <time>2012-06-25T16:16:06Z</time>
   </trkpt>
   <trkpt lat="45.8918609619141" lon="7.18684816360474">
    <ele>2023.46325683594</ele>
    <time>2012-06-25T16:16:07Z</time>
   </trkpt>
   <trkpt lat="45.8918380737305" lon="7.18685150146484">
    <ele>2023.80004882812</ele>
    <time>2012-06-25T16:16:08Z</time>
   </trkpt>
   <trkpt lat="45.8917541503906" lon="7.18685960769653">
    <ele>2023.80004882812</ele>
    <time>2012-06-25T16:16:12Z</time>
   </trkpt>
   <trkpt lat="45.891731262207" lon="7.18686294555664">
    <ele>2024.20007324219</ele>
    <time>2012-06-25T16:16:13Z</time>
   </trkpt>
   <trkpt lat="45.8917121887207" lon="7.18686723709106">
    <ele>2024.60009765625</ele>
    <time>2012-06-25T16:16:14Z</time>
   </trkpt>
   <trkpt lat="45.8916893005371" lon="7.18688011169434">
    <ele>2025</ele>
    <time>2012-06-25T16:16:15Z</time>
   </trkpt>
   <trkpt lat="45.8916664123535" lon="7.1868896484375">
    <ele>2025.40002441406</ele>
    <time>2012-06-25T16:16:16Z</time>
   </trkpt>
   <trkpt lat="45.8916435241699" lon="7.1869044303894">
    <ele>2025.80004882812</ele>
    <time>2012-06-25T16:16:17Z</time>
   </trkpt>
   <trkpt lat="45.8916206359863" lon="7.18691730499268">
    <ele>2025.80004882812</ele>
    <time>2012-06-25T16:16:18Z</time>
   </trkpt>
   <trkpt lat="45.8916015625" lon="7.18693399429321">
    <ele>2026.20007324219</ele>
    <time>2012-06-25T16:16:19Z</time>
   </trkpt>
   <trkpt lat="45.8915824890137" lon="7.1869535446167">
    <ele>2026.60009765625</ele>
    <time>2012-06-25T16:16:20Z</time>
   </trkpt>
   <trkpt lat="45.8915634155273" lon="7.18697118759155">
    <ele>2027</ele>
    <time>2012-06-25T16:16:21Z</time>
   </trkpt>
   <trkpt lat="45.891544342041" lon="7.18698501586914">
    <ele>2027.40002441406</ele>
    <time>2012-06-25T16:16:22Z</time>
   </trkpt>
   <trkpt lat="45.8915214538574" lon="7.18700313568115">
    <ele>2027.80004882812</ele>
    <time>2012-06-25T16:16:23Z</time>
   </trkpt>
   <trkpt lat="45.8914833068848" lon="7.18704223632812">
    <ele>2027.80004882812</ele>
    <time>2012-06-25T16:16:25Z</time>
   </trkpt>
   <trkpt lat="45.891429901123" lon="7.18709182739258">
    <ele>2028.74291992188</ele>
    <time>2012-06-25T16:16:28Z</time>
   </trkpt>
   <trkpt lat="45.8914184570312" lon="7.18709897994995">
    <ele>2029.05712890625</ele>
    <time>2012-06-25T16:16:29Z</time>
   </trkpt>
   <trkpt lat="45.8914031982422" lon="7.18711042404175">
    <ele>2029.37145996094</ele>
    <time>2012-06-25T16:16:30Z</time>
   </trkpt>
   <trkpt lat="45.8913879394531" lon="7.18712377548218">
    <ele>2029.68566894531</ele>
    <time>2012-06-25T16:16:31Z</time>
   </trkpt>
   <trkpt lat="45.8913726806641" lon="7.1871337890625">
    <ele>2030</ele>
    <time>2012-06-25T16:16:32Z</time>
   </trkpt>
   <trkpt lat="45.8913421630859" lon="7.18717098236084">
    <ele>2030</ele>
    <time>2012-06-25T16:16:34Z</time>
   </trkpt>
   <trkpt lat="45.8912582397461" lon="7.18725919723511">
    <ele>2031.42858886719</ele>
    <time>2012-06-25T16:16:39Z</time>
   </trkpt>
   <trkpt lat="45.8912391662598" lon="7.18728160858154">
    <ele>2031.71423339844</ele>
    <time>2012-06-25T16:16:40Z</time>
   </trkpt>
   <trkpt lat="45.8912200927734" lon="7.18730020523071">
    <ele>2032</ele>
    <time>2012-06-25T16:16:41Z</time>
   </trkpt>
   <trkpt lat="45.8912010192871" lon="7.18731641769409">
    <ele>2032.28576660156</ele>
    <time>2012-06-25T16:16:42Z</time>
   </trkpt>
   <trkpt lat="45.8911781311035" lon="7.187331199646">
    <ele>2032.57141113281</ele>
    <time>2012-06-25T16:16:43Z</time>
   </trkpt>
   <trkpt lat="45.8911590576172" lon="7.18735265731812">
    <ele>2032.85717773438</ele>
    <time>2012-06-25T16:16:44Z</time>
   </trkpt>
   <trkpt lat="45.8911399841309" lon="7.18737030029297">
    <ele>2033.14282226562</ele>
    <time>2012-06-25T16:16:45Z</time>
   </trkpt>
   <trkpt lat="45.8911209106445" lon="7.18739032745361">
    <ele>2033.42858886719</ele>
    <time>2012-06-25T16:16:46Z</time>
   </trkpt>
   <trkpt lat="45.8911018371582" lon="7.18740606307983">
    <ele>2033.71423339844</ele>
    <time>2012-06-25T16:16:47Z</time>
   </trkpt>
   <trkpt lat="45.8910827636719" lon="7.18742322921753">
    <ele>2034</ele>
    <time>2012-06-25T16:16:48Z</time>
   </trkpt>
   <trkpt lat="45.8909378051758" lon="7.1875410079956">
    <ele>2034</ele>
    <time>2012-06-25T16:16:55Z</time>
   </trkpt>
   <trkpt lat="45.8909187316894" lon="7.18755483627319">
    <ele>2034.47998046875</ele>
    <time>2012-06-25T16:16:56Z</time>
   </trkpt>
   <trkpt lat="45.8908996582031" lon="7.18756532669067">
    <ele>2034.9599609375</ele>
    <time>2012-06-25T16:16:57Z</time>
   </trkpt>
   <trkpt lat="45.8908767700195" lon="7.18757724761963">
    <ele>2035.44006347656</ele>
    <time>2012-06-25T16:16:58Z</time>
   </trkpt>
   <trkpt lat="45.8908615112305" lon="7.18759393692017">
    <ele>2035.92004394531</ele>
    <time>2012-06-25T16:16:59Z</time>
   </trkpt>
   <trkpt lat="45.8908424377441" lon="7.18760681152344">
    <ele>2036.40002441406</ele>
    <time>2012-06-25T16:17:00Z</time>
   </trkpt>
   <trkpt lat="45.8907814025879" lon="7.18764972686768">
    <ele>2036.40002441406</ele>
    <time>2012-06-25T16:17:03Z</time>
   </trkpt>
   <trkpt lat="45.8907165527344" lon="7.18768167495728">
    <ele>2037.60009765625</ele>
    <time>2012-06-25T16:17:06Z</time>
   </trkpt>
   <trkpt lat="45.890697479248" lon="7.18769598007202">
    <ele>2038</ele>
    <time>2012-06-25T16:17:07Z</time>
   </trkpt>
   <trkpt lat="45.8906745910644" lon="7.18770885467529">
    <ele>2038.40002441406</ele>
    <time>2012-06-25T16:17:08Z</time>
   </trkpt>
   <trkpt lat="45.8906593322754" lon="7.18772077560425">
    <ele>2038.80004882812</ele>
    <time>2012-06-25T16:17:09Z</time>
   </trkpt>
   <trkpt lat="45.8906364440918" lon="7.18773412704468">
    <ele>2038.80004882812</ele>
    <time>2012-06-25T16:17:10Z</time>
   </trkpt>
   <trkpt lat="45.8905410766602" lon="7.18779706954956">
    <ele>2040.02221679688</ele>
    <time>2012-06-25T16:17:15Z</time>
   </trkpt>
   <trkpt lat="45.8905220031738" lon="7.18780899047852">
    <ele>2040.26672363281</ele>
    <time>2012-06-25T16:17:16Z</time>
   </trkpt>
   <trkpt lat="45.8905029296875" lon="7.18782329559326">
    <ele>2040.51110839844</ele>
    <time>2012-06-25T16:17:17Z</time>
   </trkpt>
   <trkpt lat="45.8904838562012" lon="7.18783378601074">
    <ele>2040.75561523438</ele>
    <time>2012-06-25T16:17:18Z</time>
   </trkpt>
   <trkpt lat="45.8904609680176" lon="7.1878457069397">
    <ele>2041</ele>
    <time>2012-06-25T16:17:19Z</time>
   </trkpt>
   <trkpt lat="45.890438079834" lon="7.18785905838013">
    <ele>2041</ele>
    <time>2012-06-25T16:17:20Z</time>
   </trkpt>
   <trkpt lat="45.8903999328613" lon="7.18788576126099">
    <ele>2041.80004882812</ele>
    <time>2012-06-25T16:17:22Z</time>
   </trkpt>
   <trkpt lat="45.8903770446777" lon="7.18789672851562">
    <ele>2042.19995117188</ele>
    <time>2012-06-25T16:17:23Z</time>
   </trkpt>
   <trkpt lat="45.8903579711914" lon="7.18790817260742">
    <ele>2042.59997558594</ele>
    <time>2012-06-25T16:17:24Z</time>
   </trkpt>
   <trkpt lat="45.8903350830078" lon="7.18791913986206">
    <ele>2043</ele>
    <time>2012-06-25T16:17:25Z</time>
   </trkpt>
   <trkpt lat="45.8903160095215" lon="7.18792819976807">
    <ele>2043.40002441406</ele>
    <time>2012-06-25T16:17:26Z</time>
   </trkpt>
   <trkpt lat="45.8902740478516" lon="7.18795776367188">
    <ele>2043.40002441406</ele>
    <time>2012-06-25T16:17:28Z</time>
   </trkpt>
   <trkpt lat="45.8901977539062" lon="7.18802404403686">
    <ele>2044.54284667969</ele>
    <time>2012-06-25T16:17:32Z</time>
   </trkpt>
   <trkpt lat="45.8901748657227" lon="7.18804121017456">
    <ele>2044.82861328125</ele>
    <time>2012-06-25T16:17:33Z</time>
   </trkpt>
   <trkpt lat="45.8901557922363" lon="7.18806171417236">
    <ele>2045.1142578125</ele>
    <time>2012-06-25T16:17:34Z</time>
   </trkpt>
   <trkpt lat="45.89013671875" lon="7.18808031082153">
    <ele>2045.40002441406</ele>
    <time>2012-06-25T16:17:35Z</time>
   </trkpt>
   <trkpt lat="45.8901023864746" lon="7.18812036514282">
    <ele>2045.40002441406</ele>
    <time>2012-06-25T16:17:37Z</time>
   </trkpt>
   <trkpt lat="45.890022277832" lon="7.18819999694824">
    <ele>2046.38464355469</ele>
    <time>2012-06-25T16:17:41Z</time>
   </trkpt>
   <trkpt lat="45.890007019043" lon="7.18822479248047">
    <ele>2046.630859375</ele>
    <time>2012-06-25T16:17:42Z</time>
   </trkpt>
   <trkpt lat="45.8899879455566" lon="7.18824434280396">
    <ele>2046.876953125</ele>
    <time>2012-06-25T16:17:43Z</time>
   </trkpt>
   <trkpt lat="45.8899688720703" lon="7.18826293945312">
    <ele>2047.123046875</ele>
    <time>2012-06-25T16:17:44Z</time>
   </trkpt>
   <trkpt lat="45.889949798584" lon="7.18828058242798">
    <ele>2047.36926269531</ele>
    <time>2012-06-25T16:17:45Z</time>
   </trkpt>
   <trkpt lat="45.8898620605469" lon="7.18838405609131">
    <ele>2048.60009765625</ele>
    <time>2012-06-25T16:17:50Z</time>
   </trkpt>
   <trkpt lat="45.8898429870606" lon="7.18840169906616">
    <ele>2048.84619140625</ele>
    <time>2012-06-25T16:17:51Z</time>
   </trkpt>
   <trkpt lat="45.8898277282715" lon="7.18842506408691">
    <ele>2049.09228515625</ele>
    <time>2012-06-25T16:17:52Z</time>
   </trkpt>
   <trkpt lat="45.8898124694824" lon="7.18844842910767">
    <ele>2049.33837890625</ele>
    <time>2012-06-25T16:17:53Z</time>
   </trkpt>
   <trkpt lat="45.8897933959961" lon="7.18846607208252">
    <ele>2049.58471679688</ele>
    <time>2012-06-25T16:17:54Z</time>
   </trkpt>
   <trkpt lat="45.889705657959" lon="7.18857049942017">
    <ele>2050.8154296875</ele>
    <time>2012-06-25T16:17:59Z</time>
   </trkpt>
   <trkpt lat="45.8896903991699" lon="7.18859100341797">
    <ele>2051.0615234375</ele>
    <time>2012-06-25T16:18:00Z</time>
   </trkpt>
   <trkpt lat="45.8896713256836" lon="7.18861055374146">
    <ele>2051.3076171875</ele>
    <time>2012-06-25T16:18:01Z</time>
   </trkpt>
   <trkpt lat="45.8896522521973" lon="7.18862771987915">
    <ele>2051.55395507812</ele>
    <time>2012-06-25T16:18:02Z</time>
   </trkpt>
   <trkpt lat="45.8896293640137" lon="7.18864488601685">
    <ele>2051.80004882812</ele>
    <time>2012-06-25T16:18:03Z</time>
   </trkpt>
   <trkpt lat="45.8895721435547" lon="7.18869304656982">
    <ele>2051.80004882812</ele>
    <time>2012-06-25T16:18:06Z</time>
   </trkpt>
   <trkpt lat="45.8895492553711" lon="7.18869638442993">
    <ele>2052.23999023438</ele>
    <time>2012-06-25T16:18:07Z</time>
   </trkpt>
   <trkpt lat="45.8895301818848" lon="7.18869972229004">
    <ele>2052.67993164062</ele>
    <time>2012-06-25T16:18:08Z</time>
   </trkpt>
   <trkpt lat="45.8895072937012" lon="7.18870735168457">
    <ele>2053.1201171875</ele>
    <time>2012-06-25T16:18:09Z</time>
   </trkpt>
   <trkpt lat="45.8894844055176" lon="7.18870878219604">
    <ele>2053.56005859375</ele>
    <time>2012-06-25T16:18:10Z</time>
   </trkpt>
   <trkpt lat="45.889461517334" lon="7.18870973587036">
    <ele>2054</ele>
    <time>2012-06-25T16:18:11Z</time>
   </trkpt>
   <trkpt lat="45.8894386291504" lon="7.18871259689331">
    <ele>2054</ele>
    <time>2012-06-25T16:18:12Z</time>
   </trkpt>
   <trkpt lat="45.8893699645996" lon="7.18871021270752">
    <ele>2054.85717773438</ele>
    <time>2012-06-25T16:18:15Z</time>
   </trkpt>
   <trkpt lat="45.889347076416" lon="7.18870878219604">
    <ele>2055.14282226562</ele>
    <time>2012-06-25T16:18:16Z</time>
   </trkpt>
   <trkpt lat="45.8893280029297" lon="7.18871021270752">
    <ele>2055.42846679688</ele>
    <time>2012-06-25T16:18:17Z</time>
   </trkpt>
   <trkpt lat="45.8893051147461" lon="7.18870830535889">
    <ele>2055.71435546875</ele>
    <time>2012-06-25T16:18:18Z</time>
   </trkpt>
   <trkpt lat="45.8892822265625" lon="7.18870973587036">
    <ele>2056</ele>
    <time>2012-06-25T16:18:19Z</time>
   </trkpt>
   <trkpt lat="45.8892364501953" lon="7.1887149810791">
    <ele>2056</ele>
    <time>2012-06-25T16:18:21Z</time>
   </trkpt>
   <trkpt lat="45.8891716003418" lon="7.18871879577637">
    <ele>2056.84008789062</ele>
    <time>2012-06-25T16:18:24Z</time>
   </trkpt>
   <trkpt lat="45.8891487121582" lon="7.18872547149658">
    <ele>2057.11987304688</ele>
    <time>2012-06-25T16:18:25Z</time>
   </trkpt>
   <trkpt lat="45.8891258239746" lon="7.18872833251953">
    <ele>2057.39990234375</ele>
    <time>2012-06-25T16:18:26Z</time>
   </trkpt>
   <trkpt lat="45.889102935791" lon="7.18873023986816">
    <ele>2057.67993164062</ele>
    <time>2012-06-25T16:18:27Z</time>
   </trkpt>
   <trkpt lat="45.8890800476074" lon="7.18872737884522">
    <ele>2057.9599609375</ele>
    <time>2012-06-25T16:18:28Z</time>
   </trkpt>
   <trkpt lat="45.8889961242676" lon="7.18873357772827">
    <ele>2059.080078125</ele>
    <time>2012-06-25T16:18:32Z</time>
   </trkpt>
   <trkpt lat="45.8889770507812" lon="7.18873453140259">
    <ele>2059.35986328125</ele>
    <time>2012-06-25T16:18:33Z</time>
   </trkpt>
   <trkpt lat="45.8889541625977" lon="7.18873262405396">
    <ele>2059.63989257812</ele>
    <time>2012-06-25T16:18:34Z</time>
   </trkpt>
   <trkpt lat="45.8889312744141" lon="7.18873023986816">
    <ele>2059.919921875</ele>
    <time>2012-06-25T16:18:35Z</time>
   </trkpt>
   <trkpt lat="45.8889122009277" lon="7.18872928619385">
    <ele>2060.19995117188</ele>
    <time>2012-06-25T16:18:36Z</time>
   </trkpt>
   <trkpt lat="45.8888702392578" lon="7.18872928619385">
    <ele>2060.76000976562</ele>
    <time>2012-06-25T16:18:38Z</time>
   </trkpt>
   <trkpt lat="45.888843536377" lon="7.18871927261352">
    <ele>2061.0400390625</ele>
    <time>2012-06-25T16:18:39Z</time>
   </trkpt>
   <trkpt lat="45.8888206481934" lon="7.18871545791626">
    <ele>2061.32006835938</ele>
    <time>2012-06-25T16:18:40Z</time>
   </trkpt>
   <trkpt lat="45.888801574707" lon="7.18871641159058">
    <ele>2061.59985351562</ele>
    <time>2012-06-25T16:18:41Z</time>
   </trkpt>
   <trkpt lat="45.8887748718262" lon="7.18871021270752">
    <ele>2061.8798828125</ele>
    <time>2012-06-25T16:18:42Z</time>
   </trkpt>
   <trkpt lat="45.8886680603027" lon="7.18872451782226">
    <ele>2063.28002929688</ele>
    <time>2012-06-25T16:18:47Z</time>
   </trkpt>
   <trkpt lat="45.8886451721191" lon="7.18872594833374">
    <ele>2063.56005859375</ele>
    <time>2012-06-25T16:18:48Z</time>
   </trkpt>
   <trkpt lat="45.8886222839356" lon="7.18873119354248">
    <ele>2063.83984375</ele>
    <time>2012-06-25T16:18:49Z</time>
   </trkpt>
   <trkpt lat="45.8885955810547" lon="7.18873310089111">
    <ele>2064.11987304688</ele>
    <time>2012-06-25T16:18:50Z</time>
   </trkpt>
   <trkpt lat="45.888484954834" lon="7.18875169754028">
    <ele>2065.52001953125</ele>
    <time>2012-06-25T16:18:55Z</time>
   </trkpt>
   <trkpt lat="45.8884620666504" lon="7.18875694274902">
    <ele>2065.80004882812</ele>
    <time>2012-06-25T16:18:56Z</time>
   </trkpt>
   <trkpt lat="45.8884429931641" lon="7.18876266479492">
    <ele>2066.07983398438</ele>
    <time>2012-06-25T16:18:57Z</time>
   </trkpt>
   <trkpt lat="45.8884201049805" lon="7.18876504898071">
    <ele>2066.35986328125</ele>
    <time>2012-06-25T16:18:58Z</time>
   </trkpt>
   <trkpt lat="45.8883972167969" lon="7.18877220153809">
    <ele>2066.63989257812</ele>
    <time>2012-06-25T16:18:59Z</time>
   </trkpt>
   <trkpt lat="45.8882827758789" lon="7.18877983093262">
    <ele>2068.0400390625</ele>
    <time>2012-06-25T16:19:04Z</time>
   </trkpt>
   <trkpt lat="45.8882598876953" lon="7.18878602981567">
    <ele>2068.31982421875</ele>
    <time>2012-06-25T16:19:05Z</time>
   </trkpt>
   <trkpt lat="45.8882369995117" lon="7.18879508972168">
    <ele>2068.59985351562</ele>
    <time>2012-06-25T16:19:06Z</time>
   </trkpt>
   <trkpt lat="45.8882141113281" lon="7.18880319595337">
    <ele>2068.8798828125</ele>
    <time>2012-06-25T16:19:07Z</time>
   </trkpt>
   <trkpt lat="45.8881950378418" lon="7.188805103302">
    <ele>2069.15991210938</ele>
    <time>2012-06-25T16:19:08Z</time>
   </trkpt>
   <trkpt lat="45.8881072998047" lon="7.18880891799927">
    <ele>2070.28002929688</ele>
    <time>2012-06-25T16:19:12Z</time>
   </trkpt>
   <trkpt lat="45.8880882263184" lon="7.18880367279053">
    <ele>2070.55981445312</ele>
    <time>2012-06-25T16:19:13Z</time>
   </trkpt>
   <trkpt lat="45.8880653381348" lon="7.18879985809326">
    <ele>2070.83984375</ele>
    <time>2012-06-25T16:19:14Z</time>
   </trkpt>
   <trkpt lat="45.8880424499512" lon="7.18879699707031">
    <ele>2071.11987304688</ele>
    <time>2012-06-25T16:19:15Z</time>
   </trkpt>
   <trkpt lat="45.8880233764648" lon="7.1887993812561">
    <ele>2071.39990234375</ele>
    <time>2012-06-25T16:19:16Z</time>
   </trkpt>
   <trkpt lat="45.8879852294922" lon="7.18879842758179">
    <ele>2071.39990234375</ele>
    <time>2012-06-25T16:19:18Z</time>
   </trkpt>
   <trkpt lat="45.8879203796387" lon="7.18880224227905">
    <ele>2072.25708007812</ele>
    <time>2012-06-25T16:19:21Z</time>
   </trkpt>
   <trkpt lat="45.8878974914551" lon="7.18880367279053">
    <ele>2072.54272460938</ele>
    <time>2012-06-25T16:19:22Z</time>
   </trkpt>
   <trkpt lat="45.8878746032715" lon="7.1888017654419">
    <ele>2072.82836914062</ele>
    <time>2012-06-25T16:19:23Z</time>
   </trkpt>
   <trkpt lat="45.8878517150879" lon="7.188796043396">
    <ele>2073.1142578125</ele>
    <time>2012-06-25T16:19:24Z</time>
   </trkpt>
   <trkpt lat="45.887825012207" lon="7.18878507614136">
    <ele>2073.39990234375</ele>
    <time>2012-06-25T16:19:25Z</time>
   </trkpt>
   <trkpt lat="45.8878059387207" lon="7.18878221511841">
    <ele>2073.39990234375</ele>
    <time>2012-06-25T16:19:26Z</time>
   </trkpt>
   <trkpt lat="45.8876914978027" lon="7.18878269195557">
    <ele>2074.62231445312</ele>
    <time>2012-06-25T16:19:31Z</time>
   </trkpt>
   <trkpt lat="45.8876686096191" lon="7.18877172470093">
    <ele>2074.86669921875</ele>
    <time>2012-06-25T16:19:32Z</time>
   </trkpt>
   <trkpt lat="45.8876495361328" lon="7.18875789642334">
    <ele>2075.11108398438</ele>
    <time>2012-06-25T16:19:33Z</time>
   </trkpt>
   <trkpt lat="45.8876266479492" lon="7.18875074386597">
    <ele>2075.35571289062</ele>
    <time>2012-06-25T16:19:34Z</time>
   </trkpt>
   <trkpt lat="45.8876037597656" lon="7.1887469291687">
    <ele>2075.60009765625</ele>
    <time>2012-06-25T16:19:35Z</time>
   </trkpt>
   <trkpt lat="45.8875350952148" lon="7.18873119354248">
    <ele>2075.60009765625</ele>
    <time>2012-06-25T16:19:38Z</time>
   </trkpt>
   <trkpt lat="45.8874931335449" lon="7.18870878219604">
    <ele>2076.40014648438</ele>
    <time>2012-06-25T16:19:40Z</time>
   </trkpt>
   <trkpt lat="45.8874702453613" lon="7.1886944770813">
    <ele>2076.80004882812</ele>
    <time>2012-06-25T16:19:41Z</time>
   </trkpt>
   <trkpt lat="45.8874549865723" lon="7.18868350982666">
    <ele>2077.19995117188</ele>
    <time>2012-06-25T16:19:42Z</time>
   </trkpt>
   <trkpt lat="45.8874320983887" lon="7.1886682510376">
    <ele>2077.60009765625</ele>
    <time>2012-06-25T16:19:43Z</time>
   </trkpt>
   <trkpt lat="45.8874168395996" lon="7.18865013122559">
    <ele>2078</ele>
    <time>2012-06-25T16:19:44Z</time>
   </trkpt>
   <trkpt lat="45.8874015808106" lon="7.18863773345947">
    <ele>2078.40014648438</ele>
    <time>2012-06-25T16:19:45Z</time>
   </trkpt>
   <trkpt lat="45.8873825073242" lon="7.18861722946167">
    <ele>2078.80004882812</ele>
    <time>2012-06-25T16:19:46Z</time>
   </trkpt>
   <trkpt lat="45.8873672485352" lon="7.18859481811524">
    <ele>2079.19995117188</ele>
    <time>2012-06-25T16:19:47Z</time>
   </trkpt>
   <trkpt lat="45.8873481750488" lon="7.18857431411743">
    <ele>2079.60009765625</ele>
    <time>2012-06-25T16:19:48Z</time>
   </trkpt>
   <trkpt lat="45.8873329162598" lon="7.18855381011963">
    <ele>2080</ele>
    <time>2012-06-25T16:19:49Z</time>
   </trkpt>
   <trkpt lat="45.8872909545898" lon="7.18848705291748">
    <ele>2080</ele>
    <time>2012-06-25T16:19:52Z</time>
   </trkpt>
   <trkpt lat="45.8872718811035" lon="7.18845987319946">
    <ele>2080.2880859375</ele>
    <time>2012-06-25T16:19:53Z</time>
   </trkpt>
   <trkpt lat="45.8872528076172" lon="7.18843650817871">
    <ele>2080.57592773438</ele>
    <time>2012-06-25T16:19:54Z</time>
   </trkpt>
   <trkpt lat="45.8872375488281" lon="7.18841409683228">
    <ele>2080.86401367188</ele>
    <time>2012-06-25T16:19:55Z</time>
   </trkpt>
   <trkpt lat="45.8872222900391" lon="7.1883955001831">
    <ele>2081.15209960938</ele>
    <time>2012-06-25T16:19:56Z</time>
   </trkpt>
   <trkpt lat="45.8872032165527" lon="7.18837308883667">
    <ele>2081.43994140625</ele>
    <time>2012-06-25T16:19:57Z</time>
   </trkpt>
   <trkpt lat="45.8871879577637" lon="7.18834733963013">
    <ele>2081.72802734375</ele>
    <time>2012-06-25T16:19:58Z</time>
   </trkpt>
   <trkpt lat="45.8871726989746" lon="7.18832588195801">
    <ele>2082.01586914062</ele>
    <time>2012-06-25T16:19:59Z</time>
   </trkpt>
   <trkpt lat="45.8870849609375" lon="7.1881833076477">
    <ele>2083.74389648438</ele>
    <time>2012-06-25T16:20:05Z</time>
   </trkpt>
   <trkpt lat="45.8870697021484" lon="7.18816232681274">
    <ele>2084.03198242188</ele>
    <time>2012-06-25T16:20:06Z</time>
   </trkpt>
   <trkpt lat="45.8870544433594" lon="7.18814086914062">
    <ele>2084.32006835938</ele>
    <time>2012-06-25T16:20:07Z</time>
   </trkpt>
   <trkpt lat="45.8870391845703" lon="7.18812274932861">
    <ele>2084.60791015625</ele>
    <time>2012-06-25T16:20:08Z</time>
   </trkpt>
   <trkpt lat="45.8870239257812" lon="7.18809843063354">
    <ele>2084.89599609375</ele>
    <time>2012-06-25T16:20:09Z</time>
   </trkpt>
   <trkpt lat="45.8869514465332" lon="7.18801355361938">
    <ele>2086.0478515625</ele>
    <time>2012-06-25T16:20:13Z</time>
   </trkpt>
   <trkpt lat="45.8869323730469" lon="7.18799591064453">
    <ele>2086.3359375</ele>
    <time>2012-06-25T16:20:14Z</time>
   </trkpt>
   <trkpt lat="45.8869132995606" lon="7.1879768371582">
    <ele>2086.6240234375</ele>
    <time>2012-06-25T16:20:15Z</time>
   </trkpt>
   <trkpt lat="45.8868942260742" lon="7.18796110153198">
    <ele>2086.91186523438</ele>
    <time>2012-06-25T16:20:16Z</time>
   </trkpt>
   <trkpt lat="45.8868751525879" lon="7.18794059753418">
    <ele>2087.19995117188</ele>
    <time>2012-06-25T16:20:17Z</time>
   </trkpt>
   <trkpt lat="45.8867874145508" lon="7.18786001205444">
    <ele>2087.19995117188</ele>
    <time>2012-06-25T16:20:21Z</time>
   </trkpt>
   <trkpt lat="45.8866233825684" lon="7.18770122528076">
    <ele>2089.23071289062</ele>
    <time>2012-06-25T16:20:29Z</time>
   </trkpt>
   <trkpt lat="45.8866081237793" lon="7.1876745223999">
    <ele>2089.48461914062</ele>
    <time>2012-06-25T16:20:30Z</time>
   </trkpt>
   <trkpt lat="45.8865928649902" lon="7.18764495849609">
    <ele>2089.73852539062</ele>
    <time>2012-06-25T16:20:31Z</time>
   </trkpt>
   <trkpt lat="45.8865776062012" lon="7.18761777877808">
    <ele>2089.9921875</ele>
    <time>2012-06-25T16:20:32Z</time>
   </trkpt>
   <trkpt lat="45.8865585327148" lon="7.18759250640869">
    <ele>2090.24609375</ele>
    <time>2012-06-25T16:20:33Z</time>
   </trkpt>
   <trkpt lat="45.8865432739258" lon="7.18753004074097">
    <ele>2090.75390625</ele>
    <time>2012-06-25T16:20:35Z</time>
   </trkpt>
   <trkpt lat="45.8865356445312" lon="7.18749809265137">
    <ele>2091.0078125</ele>
    <time>2012-06-25T16:20:36Z</time>
   </trkpt>
   <trkpt lat="45.8865242004394" lon="7.18745994567871">
    <ele>2091.26147460938</ele>
    <time>2012-06-25T16:20:37Z</time>
   </trkpt>
   <trkpt lat="45.8865165710449" lon="7.18742513656616">
    <ele>2091.51538085938</ele>
    <time>2012-06-25T16:20:38Z</time>
   </trkpt>
   <trkpt lat="45.8865013122559" lon="7.18739032745361">
    <ele>2091.76928710938</ele>
    <time>2012-06-25T16:20:39Z</time>
   </trkpt>
   <trkpt lat="45.8864669799805" lon="7.18725156784058">
    <ele>2092.78466796875</ele>
    <time>2012-06-25T16:20:43Z</time>
   </trkpt>
   <trkpt lat="45.8864479064941" lon="7.18722915649414">
    <ele>2093.03857421875</ele>
    <time>2012-06-25T16:20:44Z</time>
   </trkpt>
   <trkpt lat="45.8864364624023" lon="7.1871976852417">
    <ele>2093.29223632812</ele>
    <time>2012-06-25T16:20:45Z</time>
   </trkpt>
   <trkpt lat="45.8864288330078" lon="7.18716144561768">
    <ele>2093.54614257812</ele>
    <time>2012-06-25T16:20:46Z</time>
   </trkpt>
   <trkpt lat="45.886417388916" lon="7.18712997436524">
    <ele>2093.80004882812</ele>
    <time>2012-06-25T16:20:47Z</time>
   </trkpt>
   <trkpt lat="45.8863754272461" lon="7.18708515167236">
    <ele>2093.80004882812</ele>
    <time>2012-06-25T16:20:49Z</time>
   </trkpt>
   <trkpt lat="45.8863258361816" lon="7.18705368041992">
    <ele>2094.37158203125</ele>
    <time>2012-06-25T16:20:51Z</time>
   </trkpt>
   <trkpt lat="45.8862991333008" lon="7.18704652786255">
    <ele>2094.6572265625</ele>
    <time>2012-06-25T16:20:52Z</time>
   </trkpt>
   <trkpt lat="45.8862762451172" lon="7.18705129623413">
    <ele>2094.94287109375</ele>
    <time>2012-06-25T16:20:53Z</time>
   </trkpt>
   <trkpt lat="45.8862457275391" lon="7.18707275390625">
    <ele>2095.228515625</ele>
    <time>2012-06-25T16:20:54Z</time>
   </trkpt>
   <trkpt lat="45.8862342834473" lon="7.18711423873901">
    <ele>2095.51440429688</ele>
    <time>2012-06-25T16:20:55Z</time>
   </trkpt>
   <trkpt lat="45.88623046875" lon="7.18715476989746">
    <ele>2095.80004882812</ele>
    <time>2012-06-25T16:20:56Z</time>
   </trkpt>
   <trkpt lat="45.8862228393555" lon="7.18719100952148">
    <ele>2095.80004882812</ele>
    <time>2012-06-25T16:20:57Z</time>
   </trkpt>
   <trkpt lat="45.8862228393555" lon="7.18730354309082">
    <ele>2096.10009765625</ele>
    <time>2012-06-25T16:21:00Z</time>
   </trkpt>
   <trkpt lat="45.8862457275391" lon="7.18757200241089">
    <ele>2096.80004882812</ele>
    <time>2012-06-25T16:21:07Z</time>
   </trkpt>
   <trkpt lat="45.8862686157227" lon="7.18783760070801">
    <ele>2097.5</ele>
    <time>2012-06-25T16:21:14Z</time>
   </trkpt>
   <trkpt lat="45.8862686157227" lon="7.18787908554077">
    <ele>2097.60009765625</ele>
    <time>2012-06-25T16:21:15Z</time>
   </trkpt>
   <trkpt lat="45.8862762451172" lon="7.18792057037354">
    <ele>2097.69995117188</ele>
    <time>2012-06-25T16:21:16Z</time>
   </trkpt>
   <trkpt lat="45.886287689209" lon="7.1879620552063">
    <ele>2097.80004882812</ele>
    <time>2012-06-25T16:21:17Z</time>
   </trkpt>
   <trkpt lat="45.886302947998" lon="7.1880373954773">
    <ele>2097.80004882812</ele>
    <time>2012-06-25T16:21:19Z</time>
   </trkpt>
   <trkpt lat="45.8862724304199" lon="7.18814992904663">
    <ele>2098.80004882812</ele>
    <time>2012-06-25T16:21:24Z</time>
   </trkpt>
   <trkpt lat="45.8862266540527" lon="7.18804788589478">
    <ele>2099.39990234375</ele>
    <time>2012-06-25T16:21:27Z</time>
   </trkpt>
   <trkpt lat="45.8862152099609" lon="7.18801355361938">
    <ele>2099.60009765625</ele>
    <time>2012-06-25T16:21:28Z</time>
   </trkpt>
   <trkpt lat="45.8861999511719" lon="7.18797969818115">
    <ele>2099.80004882812</ele>
    <time>2012-06-25T16:21:29Z</time>
   </trkpt>
   <trkpt lat="45.8861846923828" lon="7.18794822692871">
    <ele>2100</ele>
    <time>2012-06-25T16:21:30Z</time>
   </trkpt>
   <trkpt lat="45.8861694335938" lon="7.18791580200195">
    <ele>2100.19995117188</ele>
    <time>2012-06-25T16:21:31Z</time>
   </trkpt>
   <trkpt lat="45.886116027832" lon="7.18779277801514">
    <ele>2100.19995117188</ele>
    <time>2012-06-25T16:21:35Z</time>
   </trkpt>
   <trkpt lat="45.8861045837402" lon="7.18776321411133">
    <ele>2100.80004882812</ele>
    <time>2012-06-25T16:21:36Z</time>
   </trkpt>
   <trkpt lat="45.8860893249512" lon="7.18773555755615">
    <ele>2101.39990234375</ele>
    <time>2012-06-25T16:21:37Z</time>
   </trkpt>
   <trkpt lat="45.8860740661621" lon="7.1877064704895">
    <ele>2102</ele>
    <time>2012-06-25T16:21:38Z</time>
   </trkpt>
   <trkpt lat="45.8860664367676" lon="7.18767738342285">
    <ele>2102.60009765625</ele>
    <time>2012-06-25T16:21:39Z</time>
   </trkpt>
   <trkpt lat="45.8860130310059" lon="7.18755149841309">
    <ele>2102.60009765625</ele>
    <time>2012-06-25T16:21:43Z</time>
   </trkpt>
   <trkpt lat="45.8859977722168" lon="7.18751955032349">
    <ele>2103.0400390625</ele>
    <time>2012-06-25T16:21:44Z</time>
   </trkpt>
   <trkpt lat="45.8859825134277" lon="7.18748903274536">
    <ele>2103.47998046875</ele>
    <time>2012-06-25T16:21:45Z</time>
   </trkpt>
   <trkpt lat="45.8859748840332" lon="7.18746137619018">
    <ele>2103.92016601562</ele>
    <time>2012-06-25T16:21:46Z</time>
   </trkpt>
   <trkpt lat="45.8859596252441" lon="7.18742847442627">
    <ele>2104.36010742188</ele>
    <time>2012-06-25T16:21:47Z</time>
   </trkpt>
   <trkpt lat="45.8859443664551" lon="7.18740081787109">
    <ele>2104.80004882812</ele>
    <time>2012-06-25T16:21:48Z</time>
   </trkpt>
   <trkpt lat="45.8859252929688" lon="7.18737888336182">
    <ele>2104.80004882812</ele>
    <time>2012-06-25T16:21:49Z</time>
   </trkpt>
   <trkpt lat="45.8858642578125" lon="7.18729639053345">
    <ele>2105.92944335938</ele>
    <time>2012-06-25T16:21:52Z</time>
   </trkpt>
   <trkpt lat="45.8858489990234" lon="7.1872673034668">
    <ele>2106.30590820312</ele>
    <time>2012-06-25T16:21:53Z</time>
   </trkpt>
   <trkpt lat="45.8858261108398" lon="7.18724346160889">
    <ele>2106.68237304688</ele>
    <time>2012-06-25T16:21:54Z</time>
   </trkpt>
   <trkpt lat="45.8858070373535" lon="7.18720960617065">
    <ele>2107.05883789062</ele>
    <time>2012-06-25T16:21:55Z</time>
   </trkpt>
   <trkpt lat="45.8857841491699" lon="7.18718147277832">
    <ele>2107.43530273438</ele>
    <time>2012-06-25T16:21:56Z</time>
   </trkpt>
   <trkpt lat="45.8857192993164" lon="7.18708944320679">
    <ele>2108.56469726562</ele>
    <time>2012-06-25T16:21:59Z</time>
   </trkpt>
   <trkpt lat="45.8857002258301" lon="7.18706178665161">
    <ele>2108.94116210938</ele>
    <time>2012-06-25T16:22:00Z</time>
   </trkpt>
   <trkpt lat="45.8856811523438" lon="7.18703269958496">
    <ele>2109.31762695312</ele>
    <time>2012-06-25T16:22:01Z</time>
   </trkpt>
   <trkpt lat="45.8856658935547" lon="7.1869945526123">
    <ele>2109.69409179688</ele>
    <time>2012-06-25T16:22:02Z</time>
   </trkpt>
   <trkpt lat="45.8856544494629" lon="7.1869683265686">
    <ele>2110.07055664062</ele>
    <time>2012-06-25T16:22:03Z</time>
   </trkpt>
   <trkpt lat="45.885627746582" lon="7.18691825866699">
    <ele>2110.82348632812</ele>
    <time>2012-06-25T16:22:05Z</time>
   </trkpt>
   <trkpt lat="45.8856163024902" lon="7.18689107894898">
    <ele>2111.2001953125</ele>
    <time>2012-06-25T16:22:06Z</time>
   </trkpt>
   <trkpt lat="45.8856048583984" lon="7.18685579299927">
    <ele>2111.57666015625</ele>
    <time>2012-06-25T16:22:07Z</time>
   </trkpt>
   <trkpt lat="45.8855895996094" lon="7.18682050704956">
    <ele>2111.953125</ele>
    <time>2012-06-25T16:22:08Z</time>
   </trkpt>
   <trkpt lat="45.8855781555176" lon="7.1867823600769">
    <ele>2112.32958984375</ele>
    <time>2012-06-25T16:22:09Z</time>
   </trkpt>
   <trkpt lat="45.8855628967285" lon="7.18675374984741">
    <ele>2112.7060546875</ele>
    <time>2012-06-25T16:22:10Z</time>
   </trkpt>
   <trkpt lat="45.8855400085449" lon="7.18672561645508">
    <ele>2113.08251953125</ele>
    <time>2012-06-25T16:22:11Z</time>
   </trkpt>
   <trkpt lat="45.8855247497559" lon="7.18669176101685">
    <ele>2113.458984375</ele>
    <time>2012-06-25T16:22:12Z</time>
   </trkpt>
   <trkpt lat="45.8855056762695" lon="7.18665981292725">
    <ele>2113.83544921875</ele>
    <time>2012-06-25T16:22:13Z</time>
   </trkpt>
   <trkpt lat="45.8854866027832" lon="7.18663549423218">
    <ele>2114.2119140625</ele>
    <time>2012-06-25T16:22:14Z</time>
   </trkpt>
   <trkpt lat="45.8854675292969" lon="7.18659734725952">
    <ele>2114.58837890625</ele>
    <time>2012-06-25T16:22:15Z</time>
   </trkpt>
   <trkpt lat="45.8854560852051" lon="7.18656015396118">
    <ele>2114.96484375</ele>
    <time>2012-06-25T16:22:16Z</time>
   </trkpt>
   <trkpt lat="45.885440826416" lon="7.18653583526611">
    <ele>2115.34130859375</ele>
    <time>2012-06-25T16:22:17Z</time>
   </trkpt>
   <trkpt lat="45.8854217529297" lon="7.18650245666504">
    <ele>2115.7177734375</ele>
    <time>2012-06-25T16:22:18Z</time>
   </trkpt>
   <trkpt lat="45.8853988647461" lon="7.18647480010986">
    <ele>2116.09423828125</ele>
    <time>2012-06-25T16:22:19Z</time>
   </trkpt>
   <trkpt lat="45.8853797912598" lon="7.18644666671753">
    <ele>2116.470703125</ele>
    <time>2012-06-25T16:22:20Z</time>
   </trkpt>
   <trkpt lat="45.8853645324707" lon="7.1864185333252">
    <ele>2116.84716796875</ele>
    <time>2012-06-25T16:22:21Z</time>
   </trkpt>
   <trkpt lat="45.8853416442871" lon="7.18638896942139">
    <ele>2117.2236328125</ele>
    <time>2012-06-25T16:22:22Z</time>
   </trkpt>
   <trkpt lat="45.885326385498" lon="7.1863603591919">
    <ele>2117.60009765625</ele>
    <time>2012-06-25T16:22:23Z</time>
   </trkpt>
   <trkpt lat="45.8852920532227" lon="7.18629360198975">
    <ele>2117.60009765625</ele>
    <time>2012-06-25T16:22:25Z</time>
   </trkpt>
   <trkpt lat="45.8852729797363" lon="7.18626356124878">
    <ele>2118.10009765625</ele>
    <time>2012-06-25T16:22:26Z</time>
   </trkpt>
   <trkpt lat="45.8852577209473" lon="7.18623113632202">
    <ele>2118.60009765625</ele>
    <time>2012-06-25T16:22:27Z</time>
   </trkpt>
   <trkpt lat="45.8852462768555" lon="7.18620109558106">
    <ele>2119.10009765625</ele>
    <time>2012-06-25T16:22:28Z</time>
   </trkpt>
   <trkpt lat="45.8852310180664" lon="7.18616962432861">
    <ele>2119.60009765625</ele>
    <time>2012-06-25T16:22:29Z</time>
   </trkpt>
   <trkpt lat="45.8852195739746" lon="7.18614101409912">
    <ele>2119.60009765625</ele>
    <time>2012-06-25T16:22:30Z</time>
   </trkpt>
   <trkpt lat="45.8851852416992" lon="7.18608570098877">
    <ele>2120.3818359375</ele>
    <time>2012-06-25T16:22:32Z</time>
   </trkpt>
   <trkpt lat="45.8851699829102" lon="7.18605613708496">
    <ele>2120.77270507812</ele>
    <time>2012-06-25T16:22:33Z</time>
   </trkpt>
   <trkpt lat="45.8851585388184" lon="7.18602609634399">
    <ele>2121.16381835938</ele>
    <time>2012-06-25T16:22:34Z</time>
   </trkpt>
   <trkpt lat="45.8851356506348" lon="7.18600177764893">
    <ele>2121.5546875</ele>
    <time>2012-06-25T16:22:35Z</time>
   </trkpt>
   <trkpt lat="45.8851280212402" lon="7.18597221374512">
    <ele>2121.94555664062</ele>
    <time>2012-06-25T16:22:36Z</time>
   </trkpt>
   <trkpt lat="45.8851127624512" lon="7.1859450340271">
    <ele>2122.33642578125</ele>
    <time>2012-06-25T16:22:37Z</time>
   </trkpt>
   <trkpt lat="45.8851013183594" lon="7.18591547012329">
    <ele>2122.72729492188</ele>
    <time>2012-06-25T16:22:38Z</time>
   </trkpt>
   <trkpt lat="45.8850898742676" lon="7.18588066101074">
    <ele>2123.1181640625</ele>
    <time>2012-06-25T16:22:39Z</time>
   </trkpt>
   <trkpt lat="45.8850898742676" lon="7.18585109710693">
    <ele>2123.50903320312</ele>
    <time>2012-06-25T16:22:40Z</time>
   </trkpt>
   <trkpt lat="45.8850975036621" lon="7.1857852935791">
    <ele>2124.291015625</ele>
    <time>2012-06-25T16:22:42Z</time>
   </trkpt>
   <trkpt lat="45.8850975036621" lon="7.1857500076294">
    <ele>2124.68188476562</ele>
    <time>2012-06-25T16:22:43Z</time>
   </trkpt>
   <trkpt lat="45.8850975036621" lon="7.18571949005127">
    <ele>2125.07275390625</ele>
    <time>2012-06-25T16:22:44Z</time>
   </trkpt>
   <trkpt lat="45.8850898742676" lon="7.18569278717041">
    <ele>2125.46362304688</ele>
    <time>2012-06-25T16:22:45Z</time>
   </trkpt>
   <trkpt lat="45.885082244873" lon="7.18566703796387">
    <ele>2125.8544921875</ele>
    <time>2012-06-25T16:22:46Z</time>
   </trkpt>
   <trkpt lat="45.8850555419922" lon="7.18561840057373">
    <ele>2126.63623046875</ele>
    <time>2012-06-25T16:22:48Z</time>
   </trkpt>
   <trkpt lat="45.8850440979004" lon="7.18559551239014">
    <ele>2127.02734375</ele>
    <time>2012-06-25T16:22:49Z</time>
   </trkpt>
   <trkpt lat="45.8850288391113" lon="7.18557119369507">
    <ele>2127.41821289062</ele>
    <time>2012-06-25T16:22:50Z</time>
   </trkpt>
   <trkpt lat="45.885009765625" lon="7.18555116653442">
    <ele>2127.80908203125</ele>
    <time>2012-06-25T16:22:51Z</time>
   </trkpt>
   <trkpt lat="45.8849906921387" lon="7.18552684783936">
    <ele>2128.19995117188</ele>
    <time>2012-06-25T16:22:52Z</time>
   </trkpt>
   <trkpt lat="45.8848762512207" lon="7.18539905548096">
    <ele>2128.19995117188</ele>
    <time>2012-06-25T16:22:58Z</time>
   </trkpt>
   <trkpt lat="45.8848304748535" lon="7.18536376953125">
    <ele>2128.7333984375</ele>
    <time>2012-06-25T16:23:00Z</time>
   </trkpt>
   <trkpt lat="45.8847579956055" lon="7.18531560897827">
    <ele>2129.53344726562</ele>
    <time>2012-06-25T16:23:03Z</time>
   </trkpt>
   <trkpt lat="45.8847389221191" lon="7.18530511856079">
    <ele>2129.80004882812</ele>
    <time>2012-06-25T16:23:04Z</time>
   </trkpt>
   <trkpt lat="45.8847198486328" lon="7.18529081344604">
    <ele>2130.06665039062</ele>
    <time>2012-06-25T16:23:05Z</time>
   </trkpt>
   <trkpt lat="45.8846969604492" lon="7.18528127670288">
    <ele>2130.33349609375</ele>
    <time>2012-06-25T16:23:06Z</time>
   </trkpt>
   <trkpt lat="45.8846740722656" lon="7.18527317047119">
    <ele>2130.60009765625</ele>
    <time>2012-06-25T16:23:07Z</time>
   </trkpt>
   <trkpt lat="45.8845138549805" lon="7.18525266647339">
    <ele>2130.60009765625</ele>
    <time>2012-06-25T16:23:14Z</time>
   </trkpt>
   <trkpt lat="45.8844184875488" lon="7.18524646759033">
    <ele>2131.58837890625</ele>
    <time>2012-06-25T16:23:18Z</time>
   </trkpt>
   <trkpt lat="45.884391784668" lon="7.18524742126465">
    <ele>2131.83544921875</ele>
    <time>2012-06-25T16:23:19Z</time>
   </trkpt>
   <trkpt lat="45.8843688964844" lon="7.18524932861328">
    <ele>2132.08251953125</ele>
    <time>2012-06-25T16:23:20Z</time>
   </trkpt>
   <trkpt lat="45.884349822998" lon="7.18524932861328">
    <ele>2132.32958984375</ele>
    <time>2012-06-25T16:23:21Z</time>
   </trkpt>
   <trkpt lat="45.884204864502" lon="7.18525791168213">
    <ele>2133.81176757812</ele>
    <time>2012-06-25T16:23:27Z</time>
   </trkpt>
   <trkpt lat="45.8841819763184" lon="7.18525838851929">
    <ele>2134.05883789062</ele>
    <time>2012-06-25T16:23:28Z</time>
   </trkpt>
   <trkpt lat="45.8841590881348" lon="7.1852593421936">
    <ele>2134.30590820312</ele>
    <time>2012-06-25T16:23:29Z</time>
   </trkpt>
   <trkpt lat="45.8841361999512" lon="7.18526601791382">
    <ele>2134.55297851562</ele>
    <time>2012-06-25T16:23:30Z</time>
   </trkpt>
   <trkpt lat="45.8841133117676" lon="7.18527173995972">
    <ele>2134.80004882812</ele>
    <time>2012-06-25T16:23:31Z</time>
   </trkpt>
   <trkpt lat="45.8840408325195" lon="7.1852855682373">
    <ele>2134.80004882812</ele>
    <time>2012-06-25T16:23:34Z</time>
   </trkpt>
   <trkpt lat="45.8840217590332" lon="7.18529033660889">
    <ele>2135.1181640625</ele>
    <time>2012-06-25T16:23:35Z</time>
   </trkpt>
   <trkpt lat="45.8839530944824" lon="7.18529462814331">
    <ele>2136.07275390625</ele>
    <time>2012-06-25T16:23:38Z</time>
   </trkpt>
   <trkpt lat="45.8839302062988" lon="7.18529653549194">
    <ele>2136.39086914062</ele>
    <time>2012-06-25T16:23:39Z</time>
   </trkpt>
   <trkpt lat="45.8839073181152" lon="7.18529987335205">
    <ele>2136.70922851562</ele>
    <time>2012-06-25T16:23:40Z</time>
   </trkpt>
   <trkpt lat="45.8838844299316" lon="7.18530082702637">
    <ele>2137.02734375</ele>
    <time>2012-06-25T16:23:41Z</time>
   </trkpt>
   <trkpt lat="45.883861541748" lon="7.185302734375">
    <ele>2137.34545898438</ele>
    <time>2012-06-25T16:23:42Z</time>
   </trkpt>
   <trkpt lat="45.8837242126465" lon="7.18531370162964">
    <ele>2139.25463867188</ele>
    <time>2012-06-25T16:23:48Z</time>
   </trkpt>
   <trkpt lat="45.8837013244629" lon="7.1853141784668">
    <ele>2139.57275390625</ele>
    <time>2012-06-25T16:23:49Z</time>
   </trkpt>
   <trkpt lat="45.8836784362793" lon="7.18531370162964">
    <ele>2139.89086914062</ele>
    <time>2012-06-25T16:23:50Z</time>
   </trkpt>
   <trkpt lat="45.8836555480957" lon="7.18530893325806">
    <ele>2140.20922851562</ele>
    <time>2012-06-25T16:23:51Z</time>
   </trkpt>
   <trkpt lat="45.8836364746094" lon="7.18530178070068">
    <ele>2140.52734375</ele>
    <time>2012-06-25T16:23:52Z</time>
   </trkpt>
   <trkpt lat="45.8836135864258" lon="7.18530225753784">
    <ele>2140.84545898438</ele>
    <time>2012-06-25T16:23:53Z</time>
   </trkpt>
   <trkpt lat="45.8835906982422" lon="7.18530035018921">
    <ele>2141.16357421875</ele>
    <time>2012-06-25T16:23:54Z</time>
   </trkpt>
   <trkpt lat="45.8835716247559" lon="7.18530225753784">
    <ele>2141.48193359375</ele>
    <time>2012-06-25T16:23:55Z</time>
   </trkpt>
   <trkpt lat="45.8835487365723" lon="7.18530178070068">
    <ele>2141.80004882812</ele>
    <time>2012-06-25T16:23:56Z</time>
   </trkpt>
   <trkpt lat="45.8835258483887" lon="7.18530559539795">
    <ele>2141.80004882812</ele>
    <time>2012-06-25T16:23:57Z</time>
   </trkpt>
   <trkpt lat="45.883358001709" lon="7.1853461265564">
    <ele>2143.39990234375</ele>
    <time>2012-06-25T16:24:05Z</time>
   </trkpt>
   <trkpt lat="45.8833351135254" lon="7.18535232543945">
    <ele>2143.60009765625</ele>
    <time>2012-06-25T16:24:06Z</time>
   </trkpt>
   <trkpt lat="45.8833160400391" lon="7.18535852432251">
    <ele>2143.80004882812</ele>
    <time>2012-06-25T16:24:07Z</time>
   </trkpt>
   <trkpt lat="45.8832931518555" lon="7.18536806106567">
    <ele>2144</ele>
    <time>2012-06-25T16:24:08Z</time>
   </trkpt>
   <trkpt lat="45.883186340332" lon="7.18540477752686">
    <ele>2144</ele>
    <time>2012-06-25T16:24:13Z</time>
   </trkpt>
   <trkpt lat="45.8831634521484" lon="7.18541479110718">
    <ele>2144.39990234375</ele>
    <time>2012-06-25T16:24:14Z</time>
   </trkpt>
   <trkpt lat="45.8831405639648" lon="7.18542098999024">
    <ele>2144.80004882812</ele>
    <time>2012-06-25T16:24:15Z</time>
   </trkpt>
   <trkpt lat="45.8831176757812" lon="7.18542432785034">
    <ele>2145.19995117188</ele>
    <time>2012-06-25T16:24:16Z</time>
   </trkpt>
   <trkpt lat="45.8830986022949" lon="7.18543148040772">
    <ele>2145.60009765625</ele>
    <time>2012-06-25T16:24:17Z</time>
   </trkpt>
   <trkpt lat="45.8830718994141" lon="7.18543720245361">
    <ele>2146</ele>
    <time>2012-06-25T16:24:18Z</time>
   </trkpt>
   <trkpt lat="45.8830070495606" lon="7.18544769287109">
    <ele>2146</ele>
    <time>2012-06-25T16:24:21Z</time>
   </trkpt>
   <trkpt lat="45.882942199707" lon="7.18545055389404">
    <ele>2147.05004882812</ele>
    <time>2012-06-25T16:24:24Z</time>
   </trkpt>
   <trkpt lat="45.882926940918" lon="7.18544578552246">
    <ele>2147.39990234375</ele>
    <time>2012-06-25T16:24:25Z</time>
   </trkpt>
   <trkpt lat="45.8829040527344" lon="7.18544054031372">
    <ele>2147.75</ele>
    <time>2012-06-25T16:24:26Z</time>
   </trkpt>
   <trkpt lat="45.8828811645508" lon="7.18543338775635">
    <ele>2148.10009765625</ele>
    <time>2012-06-25T16:24:27Z</time>
   </trkpt>
   <trkpt lat="45.8828620910644" lon="7.18542718887329">
    <ele>2148.44995117188</ele>
    <time>2012-06-25T16:24:28Z</time>
   </trkpt>
   <trkpt lat="45.8828125" lon="7.18540620803833">
    <ele>2149.14990234375</ele>
    <time>2012-06-25T16:24:30Z</time>
   </trkpt>
   <trkpt lat="45.8827934265137" lon="7.18539810180664">
    <ele>2149.5</ele>
    <time>2012-06-25T16:24:31Z</time>
   </trkpt>
   <trkpt lat="45.8827705383301" lon="7.18538570404053">
    <ele>2149.84985351562</ele>
    <time>2012-06-25T16:24:32Z</time>
   </trkpt>
   <trkpt lat="45.8827514648438" lon="7.18537378311157">
    <ele>2150.19995117188</ele>
    <time>2012-06-25T16:24:33Z</time>
   </trkpt>
   <trkpt lat="45.8826942443848" lon="7.18533039093018">
    <ele>2150.19995117188</ele>
    <time>2012-06-25T16:24:36Z</time>
   </trkpt>
   <trkpt lat="45.8825645446777" lon="7.18522024154663">
    <ele>2151.19995117188</ele>
    <time>2012-06-25T16:24:43Z</time>
   </trkpt>
   <trkpt lat="45.8825187683106" lon="7.18516635894775">
    <ele>2151.62841796875</ele>
    <time>2012-06-25T16:24:46Z</time>
   </trkpt>
   <trkpt lat="45.8825035095215" lon="7.18515157699585">
    <ele>2151.771484375</ele>
    <time>2012-06-25T16:24:47Z</time>
   </trkpt>
   <trkpt lat="45.8824882507324" lon="7.18513107299805">
    <ele>2151.91430664062</ele>
    <time>2012-06-25T16:24:48Z</time>
   </trkpt>
   <trkpt lat="45.8824691772461" lon="7.18511962890625">
    <ele>2152.05712890625</ele>
    <time>2012-06-25T16:24:49Z</time>
   </trkpt>
   <trkpt lat="45.8824501037598" lon="7.18509674072266">
    <ele>2152.19995117188</ele>
    <time>2012-06-25T16:24:50Z</time>
   </trkpt>
   <trkpt lat="45.8824234008789" lon="7.18505668640137">
    <ele>2152.19995117188</ele>
    <time>2012-06-25T16:24:52Z</time>
   </trkpt>
   <trkpt lat="45.8823890686035" lon="7.1850175857544">
    <ele>2153</ele>
    <time>2012-06-25T16:24:54Z</time>
   </trkpt>
   <trkpt lat="45.8823738098144" lon="7.18499708175659">
    <ele>2153.39990234375</ele>
    <time>2012-06-25T16:24:55Z</time>
   </trkpt>
   <trkpt lat="45.8823585510254" lon="7.18497180938721">
    <ele>2153.80004882812</ele>
    <time>2012-06-25T16:24:56Z</time>
   </trkpt>
   <trkpt lat="45.8823394775391" lon="7.1849513053894">
    <ele>2154.19995117188</ele>
    <time>2012-06-25T16:24:57Z</time>
   </trkpt>
   <trkpt lat="45.88232421875" lon="7.18493223190308">
    <ele>2154.19995117188</ele>
    <time>2012-06-25T16:24:58Z</time>
   </trkpt>
   <trkpt lat="45.8823089599609" lon="7.18491172790527">
    <ele>2154.63989257812</ele>
    <time>2012-06-25T16:24:59Z</time>
   </trkpt>
   <trkpt lat="45.8822937011719" lon="7.18489599227905">
    <ele>2155.07983398438</ele>
    <time>2012-06-25T16:25:00Z</time>
   </trkpt>
   <trkpt lat="45.8822784423828" lon="7.18487739562988">
    <ele>2155.52001953125</ele>
    <time>2012-06-25T16:25:01Z</time>
   </trkpt>
   <trkpt lat="45.8822593688965" lon="7.18485832214356">
    <ele>2155.9599609375</ele>
    <time>2012-06-25T16:25:02Z</time>
   </trkpt>
   <trkpt lat="45.8822441101074" lon="7.18483734130859">
    <ele>2156.39990234375</ele>
    <time>2012-06-25T16:25:03Z</time>
   </trkpt>
   <trkpt lat="45.8821792602539" lon="7.18474817276001">
    <ele>2156.39990234375</ele>
    <time>2012-06-25T16:25:07Z</time>
   </trkpt>
   <trkpt lat="45.8821029663086" lon="7.18464946746826">
    <ele>2157.80004882812</ele>
    <time>2012-06-25T16:25:12Z</time>
   </trkpt>
   <trkpt lat="45.8820877075195" lon="7.18462705612183">
    <ele>2158.080078125</ele>
    <time>2012-06-25T16:25:13Z</time>
   </trkpt>
   <trkpt lat="45.8820686340332" lon="7.18460607528686">
    <ele>2158.36010742188</ele>
    <time>2012-06-25T16:25:14Z</time>
   </trkpt>
   <trkpt lat="45.8820533752441" lon="7.1845850944519">
    <ele>2158.63989257812</ele>
    <time>2012-06-25T16:25:15Z</time>
   </trkpt>
   <trkpt lat="45.8820419311523" lon="7.18456983566284">
    <ele>2158.919921875</ele>
    <time>2012-06-25T16:25:16Z</time>
   </trkpt>
   <trkpt lat="45.8819999694824" lon="7.18450450897217">
    <ele>2159.76000976562</ele>
    <time>2012-06-25T16:25:19Z</time>
   </trkpt>
   <trkpt lat="45.8819885253906" lon="7.18449449539185">
    <ele>2160.0400390625</ele>
    <time>2012-06-25T16:25:20Z</time>
   </trkpt>
   <trkpt lat="45.8819694519043" lon="7.18447256088257">
    <ele>2160.32006835938</ele>
    <time>2012-06-25T16:25:21Z</time>
   </trkpt>
   <trkpt lat="45.8819541931152" lon="7.18445587158203">
    <ele>2160.60009765625</ele>
    <time>2012-06-25T16:25:22Z</time>
   </trkpt>
   <trkpt lat="45.8818817138672" lon="7.18439197540283">
    <ele>2160.60009765625</ele>
    <time>2012-06-25T16:25:26Z</time>
   </trkpt>
   <trkpt lat="45.8818016052246" lon="7.18433570861816">
    <ele>2161.7001953125</ele>
    <time>2012-06-25T16:25:30Z</time>
   </trkpt>
   <trkpt lat="45.881778717041" lon="7.18432188034058">
    <ele>2161.97509765625</ele>
    <time>2012-06-25T16:25:31Z</time>
   </trkpt>
   <trkpt lat="45.8817596435547" lon="7.18431663513184">
    <ele>2162.25</ele>
    <time>2012-06-25T16:25:32Z</time>
   </trkpt>
   <trkpt lat="45.8817367553711" lon="7.1843056678772">
    <ele>2162.52514648438</ele>
    <time>2012-06-25T16:25:33Z</time>
   </trkpt>
   <trkpt lat="45.8817138671875" lon="7.18428897857666">
    <ele>2162.80004882812</ele>
    <time>2012-06-25T16:25:34Z</time>
   </trkpt>
   <trkpt lat="45.8815765380859" lon="7.18424034118652">
    <ele>2162.80004882812</ele>
    <time>2012-06-25T16:25:39Z</time>
   </trkpt>
   <trkpt lat="45.8815002441406" lon="7.18421363830566">
    <ele>2163.74291992188</ele>
    <time>2012-06-25T16:25:42Z</time>
   </trkpt>
   <trkpt lat="45.881477355957" lon="7.18420267105102">
    <ele>2164.05712890625</ele>
    <time>2012-06-25T16:25:43Z</time>
   </trkpt>
   <trkpt lat="45.8814506530762" lon="7.18418836593628">
    <ele>2164.37133789062</ele>
    <time>2012-06-25T16:25:44Z</time>
   </trkpt>
   <trkpt lat="45.8814277648926" lon="7.18418645858765">
    <ele>2164.68579101562</ele>
    <time>2012-06-25T16:25:45Z</time>
   </trkpt>
   <trkpt lat="45.881404876709" lon="7.18417310714722">
    <ele>2165</ele>
    <time>2012-06-25T16:25:46Z</time>
   </trkpt>
   <trkpt lat="45.8813514709473" lon="7.18413591384888">
    <ele>2165</ele>
    <time>2012-06-25T16:25:49Z</time>
   </trkpt>
   <trkpt lat="45.8813095092773" lon="7.18412923812866">
    <ele>2165.66674804688</ele>
    <time>2012-06-25T16:25:51Z</time>
   </trkpt>
   <trkpt lat="45.8812866210938" lon="7.18412590026856">
    <ele>2166</ele>
    <time>2012-06-25T16:25:52Z</time>
   </trkpt>
   <trkpt lat="45.8812675476074" lon="7.18412017822266">
    <ele>2166.33325195312</ele>
    <time>2012-06-25T16:25:53Z</time>
   </trkpt>
   <trkpt lat="45.8812484741211" lon="7.18411493301392">
    <ele>2166.66674804688</ele>
    <time>2012-06-25T16:25:54Z</time>
   </trkpt>
   <trkpt lat="45.8812217712402" lon="7.18410873413086">
    <ele>2167</ele>
    <time>2012-06-25T16:25:55Z</time>
   </trkpt>
   <trkpt lat="45.8812026977539" lon="7.18409872055054">
    <ele>2167</ele>
    <time>2012-06-25T16:25:56Z</time>
   </trkpt>
   <trkpt lat="45.8810501098633" lon="7.18406534194946">
    <ele>2168.19995117188</ele>
    <time>2012-06-25T16:26:02Z</time>
   </trkpt>
   <trkpt lat="45.8810272216797" lon="7.18406391143799">
    <ele>2168.39990234375</ele>
    <time>2012-06-25T16:26:03Z</time>
   </trkpt>
   <trkpt lat="45.8810005187988" lon="7.18405532836914">
    <ele>2168.60009765625</ele>
    <time>2012-06-25T16:26:04Z</time>
   </trkpt>
   <trkpt lat="45.8809776306152" lon="7.18404197692871">
    <ele>2168.80004882812</ele>
    <time>2012-06-25T16:26:05Z</time>
   </trkpt>
   <trkpt lat="45.8809509277344" lon="7.18401956558228">
    <ele>2169</ele>
    <time>2012-06-25T16:26:06Z</time>
   </trkpt>
   <trkpt lat="45.8808937072754" lon="7.18393468856812">
    <ele>2169</ele>
    <time>2012-06-25T16:26:09Z</time>
   </trkpt>
   <trkpt lat="45.8808784484863" lon="7.18389749526978">
    <ele>2169.64990234375</ele>
    <time>2012-06-25T16:26:10Z</time>
   </trkpt>
   <trkpt lat="45.8808670043945" lon="7.18386220932007">
    <ele>2170.30004882812</ele>
    <time>2012-06-25T16:26:11Z</time>
   </trkpt>
   <trkpt lat="45.8808631896973" lon="7.18382930755615">
    <ele>2170.9501953125</ele>
    <time>2012-06-25T16:26:12Z</time>
   </trkpt>
   <trkpt lat="45.8807144165039" lon="7.18371152877808">
    <ele>2171.60009765625</ele>
    <time>2012-06-25T16:26:13Z</time>
   </trkpt>
   <trkpt lat="45.8807067871094" lon="7.18366432189941">
    <ele>2171.60009765625</ele>
    <time>2012-06-25T16:26:15Z</time>
   </trkpt>
   <trkpt lat="45.8806991577148" lon="7.18360471725464">
    <ele>2172.26684570312</ele>
    <time>2012-06-25T16:26:17Z</time>
   </trkpt>
   <trkpt lat="45.8806991577148" lon="7.18356990814209">
    <ele>2172.60009765625</ele>
    <time>2012-06-25T16:26:18Z</time>
   </trkpt>
   <trkpt lat="45.8806953430176" lon="7.18353748321533">
    <ele>2172.93334960938</ele>
    <time>2012-06-25T16:26:19Z</time>
   </trkpt>
   <trkpt lat="45.8806838989258" lon="7.18351125717163">
    <ele>2173.26684570312</ele>
    <time>2012-06-25T16:26:20Z</time>
   </trkpt>
   <trkpt lat="45.8806838989258" lon="7.18347978591919">
    <ele>2173.60009765625</ele>
    <time>2012-06-25T16:26:21Z</time>
   </trkpt>
   <trkpt lat="45.8806571960449" lon="7.18328809738159">
    <ele>2173.60009765625</ele>
    <time>2012-06-25T16:26:28Z</time>
   </trkpt>
   <trkpt lat="45.8806533813477" lon="7.18311071395874">
    <ele>2174.76684570312</ele>
    <time>2012-06-25T16:26:33Z</time>
   </trkpt>
   <trkpt lat="45.8806343078613" lon="7.18301773071289">
    <ele>2175.466796875</ele>
    <time>2012-06-25T16:26:36Z</time>
   </trkpt>
   <trkpt lat="45.8806266784668" lon="7.18298292160034">
    <ele>2175.7001953125</ele>
    <time>2012-06-25T16:26:37Z</time>
   </trkpt>
   <trkpt lat="45.8806228637695" lon="7.18295574188232">
    <ele>2175.93334960938</ele>
    <time>2012-06-25T16:26:38Z</time>
   </trkpt>
   <trkpt lat="45.8806228637695" lon="7.18292284011841">
    <ele>2176.16674804688</ele>
    <time>2012-06-25T16:26:39Z</time>
   </trkpt>
   <trkpt lat="45.8806037902832" lon="7.18280935287476">
    <ele>2176.86669921875</ele>
    <time>2012-06-25T16:26:42Z</time>
   </trkpt>
   <trkpt lat="45.8805961608887" lon="7.18277788162232">
    <ele>2177.10009765625</ele>
    <time>2012-06-25T16:26:43Z</time>
   </trkpt>
   <trkpt lat="45.8805885314941" lon="7.18274879455566">
    <ele>2177.33349609375</ele>
    <time>2012-06-25T16:26:44Z</time>
   </trkpt>
   <trkpt lat="45.8805885314941" lon="7.18271732330322">
    <ele>2177.56665039062</ele>
    <time>2012-06-25T16:26:45Z</time>
   </trkpt>
   <trkpt lat="45.8805847167969" lon="7.18269348144531">
    <ele>2177.80004882812</ele>
    <time>2012-06-25T16:26:46Z</time>
   </trkpt>
   <trkpt lat="45.880558013916" lon="7.18260049819946">
    <ele>2177.80004882812</ele>
    <time>2012-06-25T16:26:49Z</time>
   </trkpt>
   <trkpt lat="45.8805084228516" lon="7.18253660202026">
    <ele>2178.74291992188</ele>
    <time>2012-06-25T16:26:52Z</time>
   </trkpt>
   <trkpt lat="45.8804893493652" lon="7.18252992630005">
    <ele>2179.05712890625</ele>
    <time>2012-06-25T16:26:53Z</time>
   </trkpt>
   <trkpt lat="45.8804702758789" lon="7.18252277374268">
    <ele>2179.37133789062</ele>
    <time>2012-06-25T16:26:54Z</time>
   </trkpt>
   <trkpt lat="45.8804512023926" lon="7.18254089355469">
    <ele>2179.68579101562</ele>
    <time>2012-06-25T16:26:55Z</time>
   </trkpt>
   <trkpt lat="45.880428314209" lon="7.18256759643555">
    <ele>2180</ele>
    <time>2012-06-25T16:26:56Z</time>
   </trkpt>
   <trkpt lat="45.8803901672363" lon="7.18262147903442">
    <ele>2180</ele>
    <time>2012-06-25T16:26:58Z</time>
   </trkpt>
   <trkpt lat="45.88037109375" lon="7.18264436721802">
    <ele>2180.25</ele>
    <time>2012-06-25T16:26:59Z</time>
   </trkpt>
   <trkpt lat="45.8803215026856" lon="7.18272829055786">
    <ele>2181</ele>
    <time>2012-06-25T16:27:02Z</time>
   </trkpt>
   <trkpt lat="45.8803062438965" lon="7.18275547027588">
    <ele>2181.25</ele>
    <time>2012-06-25T16:27:03Z</time>
   </trkpt>
   <trkpt lat="45.8802871704102" lon="7.18277931213379">
    <ele>2181.5</ele>
    <time>2012-06-25T16:27:04Z</time>
   </trkpt>
   <trkpt lat="45.8802680969238" lon="7.18281126022339">
    <ele>2181.75</ele>
    <time>2012-06-25T16:27:05Z</time>
   </trkpt>
   <trkpt lat="45.880256652832" lon="7.18284130096436">
    <ele>2182</ele>
    <time>2012-06-25T16:27:06Z</time>
   </trkpt>
   <trkpt lat="45.8801918029785" lon="7.18297863006592">
    <ele>2182</ele>
    <time>2012-06-25T16:27:11Z</time>
   </trkpt>
   <trkpt lat="45.8801765441894" lon="7.18300724029541">
    <ele>2182.47998046875</ele>
    <time>2012-06-25T16:27:12Z</time>
   </trkpt>
   <trkpt lat="45.8801574707031" lon="7.1830358505249">
    <ele>2182.9599609375</ele>
    <time>2012-06-25T16:27:13Z</time>
   </trkpt>
   <trkpt lat="45.8801422119141" lon="7.18305778503418">
    <ele>2183.43994140625</ele>
    <time>2012-06-25T16:27:14Z</time>
   </trkpt>
   <trkpt lat="45.880126953125" lon="7.18308687210083">
    <ele>2183.919921875</ele>
    <time>2012-06-25T16:27:15Z</time>
   </trkpt>
   <trkpt lat="45.8801116943359" lon="7.1831169128418">
    <ele>2184.39990234375</ele>
    <time>2012-06-25T16:27:16Z</time>
   </trkpt>
   <trkpt lat="45.8800849914551" lon="7.18316602706909">
    <ele>2184.39990234375</ele>
    <time>2012-06-25T16:27:18Z</time>
   </trkpt>
   <trkpt lat="45.8800506591797" lon="7.18318796157837">
    <ele>2185.07983398438</ele>
    <time>2012-06-25T16:27:20Z</time>
   </trkpt>
   <trkpt lat="45.8800239562988" lon="7.18318462371826">
    <ele>2185.419921875</ele>
    <time>2012-06-25T16:27:21Z</time>
   </trkpt>
   <trkpt lat="45.8800048828125" lon="7.18317985534668">
    <ele>2185.76000976562</ele>
    <time>2012-06-25T16:27:22Z</time>
   </trkpt>
   <trkpt lat="45.8799858093262" lon="7.18316841125488">
    <ele>2186.09985351562</ele>
    <time>2012-06-25T16:27:23Z</time>
   </trkpt>
   <trkpt lat="45.8799705505371" lon="7.18314266204834">
    <ele>2186.43994140625</ele>
    <time>2012-06-25T16:27:24Z</time>
   </trkpt>
   <trkpt lat="45.8799591064453" lon="7.18311166763306">
    <ele>2186.78002929688</ele>
    <time>2012-06-25T16:27:25Z</time>
   </trkpt>
   <trkpt lat="45.8799438476562" lon="7.18308162689209">
    <ele>2187.11987304688</ele>
    <time>2012-06-25T16:27:26Z</time>
   </trkpt>
   <trkpt lat="45.8799324035644" lon="7.18305397033691">
    <ele>2187.4599609375</ele>
    <time>2012-06-25T16:27:27Z</time>
   </trkpt>
   <trkpt lat="45.8799247741699" lon="7.1830244064331">
    <ele>2187.7998046875</ele>
    <time>2012-06-25T16:27:28Z</time>
   </trkpt>
   <trkpt lat="45.8799171447754" lon="7.18299245834351">
    <ele>2188.13989257812</ele>
    <time>2012-06-25T16:27:29Z</time>
   </trkpt>
   <trkpt lat="45.8799057006836" lon="7.1829686164856">
    <ele>2188.47998046875</ele>
    <time>2012-06-25T16:27:30Z</time>
   </trkpt>
   <trkpt lat="45.8798599243164" lon="7.18285799026489">
    <ele>2189.83984375</ele>
    <time>2012-06-25T16:27:34Z</time>
   </trkpt>
   <trkpt lat="45.8798522949219" lon="7.1828236579895">
    <ele>2190.17993164062</ele>
    <time>2012-06-25T16:27:35Z</time>
   </trkpt>
   <trkpt lat="45.8798408508301" lon="7.18279027938843">
    <ele>2190.52001953125</ele>
    <time>2012-06-25T16:27:36Z</time>
   </trkpt>
   <trkpt lat="45.8798332214356" lon="7.18275737762451">
    <ele>2190.85986328125</ele>
    <time>2012-06-25T16:27:37Z</time>
   </trkpt>
   <trkpt lat="45.879825592041" lon="7.18272733688354">
    <ele>2191.19995117188</ele>
    <time>2012-06-25T16:27:38Z</time>
   </trkpt>
   <trkpt lat="45.879768371582" lon="7.18258094787598">
    <ele>2191.19995117188</ele>
    <time>2012-06-25T16:27:43Z</time>
   </trkpt>
   <trkpt lat="45.8796577453613" lon="7.18244075775146">
    <ele>2192.66650390625</ele>
    <time>2012-06-25T16:27:49Z</time>
   </trkpt>
   <trkpt lat="45.8796348571777" lon="7.18242835998535">
    <ele>2192.9111328125</ele>
    <time>2012-06-25T16:27:50Z</time>
   </trkpt>
   <trkpt lat="45.8796119689941" lon="7.18241691589356">
    <ele>2193.15551757812</ele>
    <time>2012-06-25T16:27:51Z</time>
   </trkpt>
   <trkpt lat="45.8795890808106" lon="7.18241167068482">
    <ele>2193.39990234375</ele>
    <time>2012-06-25T16:27:52Z</time>
   </trkpt>
   <trkpt lat="45.8794937133789" lon="7.18241596221924">
    <ele>2193.39990234375</ele>
    <time>2012-06-25T16:27:56Z</time>
   </trkpt>
   <trkpt lat="45.8794212341309" lon="7.18245077133179">
    <ele>2194.14111328125</ele>
    <time>2012-06-25T16:27:59Z</time>
   </trkpt>
   <trkpt lat="45.8794059753418" lon="7.1824688911438">
    <ele>2194.38818359375</ele>
    <time>2012-06-25T16:28:00Z</time>
   </trkpt>
   <trkpt lat="45.8793869018555" lon="7.18248414993286">
    <ele>2194.63525390625</ele>
    <time>2012-06-25T16:28:01Z</time>
   </trkpt>
   <trkpt lat="45.8793640136719" lon="7.18249559402466">
    <ele>2194.88232421875</ele>
    <time>2012-06-25T16:28:02Z</time>
   </trkpt>
   <trkpt lat="45.8793449401856" lon="7.18250417709351">
    <ele>2195.12939453125</ele>
    <time>2012-06-25T16:28:03Z</time>
   </trkpt>
   <trkpt lat="45.8792190551758" lon="7.18259763717651">
    <ele>2196.61181640625</ele>
    <time>2012-06-25T16:28:09Z</time>
   </trkpt>
   <trkpt lat="45.8791999816894" lon="7.18261241912842">
    <ele>2196.85888671875</ele>
    <time>2012-06-25T16:28:10Z</time>
   </trkpt>
   <trkpt lat="45.8791809082031" lon="7.18262434005737">
    <ele>2197.10595703125</ele>
    <time>2012-06-25T16:28:11Z</time>
   </trkpt>
   <trkpt lat="45.8791618347168" lon="7.18263673782349">
    <ele>2197.35302734375</ele>
    <time>2012-06-25T16:28:12Z</time>
   </trkpt>
   <trkpt lat="45.8791389465332" lon="7.1826491355896">
    <ele>2197.60009765625</ele>
    <time>2012-06-25T16:28:13Z</time>
   </trkpt>
   <trkpt lat="45.8790588378906" lon="7.1826982498169">
    <ele>2197.60009765625</ele>
    <time>2012-06-25T16:28:17Z</time>
   </trkpt>
   <trkpt lat="45.8790168762207" lon="7.1827220916748">
    <ele>2198.26684570312</ele>
    <time>2012-06-25T16:28:19Z</time>
   </trkpt>
   <trkpt lat="45.8789939880371" lon="7.18273496627808">
    <ele>2198.60009765625</ele>
    <time>2012-06-25T16:28:20Z</time>
   </trkpt>
   <trkpt lat="45.8789710998535" lon="7.18274259567261">
    <ele>2198.93334960938</ele>
    <time>2012-06-25T16:28:21Z</time>
   </trkpt>
   <trkpt lat="45.8789520263672" lon="7.18274784088135">
    <ele>2199.26684570312</ele>
    <time>2012-06-25T16:28:22Z</time>
   </trkpt>
   <trkpt lat="45.8789291381836" lon="7.18275547027588">
    <ele>2199.60009765625</ele>
    <time>2012-06-25T16:28:23Z</time>
   </trkpt>
   <trkpt lat="45.87890625" lon="7.18276357650757">
    <ele>2199.60009765625</ele>
    <time>2012-06-25T16:28:24Z</time>
   </trkpt>
   <trkpt lat="45.8788604736328" lon="7.18279027938843">
    <ele>2200.19311523438</ele>
    <time>2012-06-25T16:28:26Z</time>
   </trkpt>
   <trkpt lat="45.8787956237793" lon="7.1828236579895">
    <ele>2201.08276367188</ele>
    <time>2012-06-25T16:28:29Z</time>
   </trkpt>
   <trkpt lat="45.8787727355957" lon="7.18283367156982">
    <ele>2201.37939453125</ele>
    <time>2012-06-25T16:28:30Z</time>
   </trkpt>
   <trkpt lat="45.8787498474121" lon="7.18284463882446">
    <ele>2201.67602539062</ele>
    <time>2012-06-25T16:28:31Z</time>
   </trkpt>
   <trkpt lat="45.8787307739258" lon="7.18285179138184">
    <ele>2201.97241210938</ele>
    <time>2012-06-25T16:28:32Z</time>
   </trkpt>
   <trkpt lat="45.8787078857422" lon="7.18285512924194">
    <ele>2202.26904296875</ele>
    <time>2012-06-25T16:28:33Z</time>
   </trkpt>
   <trkpt lat="45.8786849975586" lon="7.182861328125">
    <ele>2202.56567382812</ele>
    <time>2012-06-25T16:28:34Z</time>
   </trkpt>
   <trkpt lat="45.8786201477051" lon="7.18287706375122">
    <ele>2203.45532226562</ele>
    <time>2012-06-25T16:28:37Z</time>
   </trkpt>
   <trkpt lat="45.8786010742188" lon="7.18288469314575">
    <ele>2203.75170898438</ele>
    <time>2012-06-25T16:28:38Z</time>
   </trkpt>
   <trkpt lat="45.8785781860352" lon="7.18288993835449">
    <ele>2204.04833984375</ele>
    <time>2012-06-25T16:28:39Z</time>
   </trkpt>
   <trkpt lat="45.8785552978516" lon="7.18289995193482">
    <ele>2204.3447265625</ele>
    <time>2012-06-25T16:28:40Z</time>
   </trkpt>
   <trkpt lat="45.8784866333008" lon="7.18291473388672">
    <ele>2205.234375</ele>
    <time>2012-06-25T16:28:43Z</time>
   </trkpt>
   <trkpt lat="45.8784637451172" lon="7.18291807174683">
    <ele>2205.53100585938</ele>
    <time>2012-06-25T16:28:44Z</time>
   </trkpt>
   <trkpt lat="45.8784408569336" lon="7.1829195022583">
    <ele>2205.82763671875</ele>
    <time>2012-06-25T16:28:45Z</time>
   </trkpt>
   <trkpt lat="45.87841796875" lon="7.18292713165283">
    <ele>2206.1240234375</ele>
    <time>2012-06-25T16:28:46Z</time>
   </trkpt>
   <trkpt lat="45.8783950805664" lon="7.18293046951294">
    <ele>2206.42065429688</ele>
    <time>2012-06-25T16:28:47Z</time>
   </trkpt>
   <trkpt lat="45.8783531188965" lon="7.18293380737305">
    <ele>2207.013671875</ele>
    <time>2012-06-25T16:28:49Z</time>
   </trkpt>
   <trkpt lat="45.8783264160156" lon="7.18293809890747">
    <ele>2207.31030273438</ele>
    <time>2012-06-25T16:28:50Z</time>
   </trkpt>
   <trkpt lat="45.878303527832" lon="7.18294620513916">
    <ele>2207.60693359375</ele>
    <time>2012-06-25T16:28:51Z</time>
   </trkpt>
   <trkpt lat="45.8782844543457" lon="7.18294811248779">
    <ele>2207.9033203125</ele>
    <time>2012-06-25T16:28:52Z</time>
   </trkpt>
   <trkpt lat="45.8782653808594" lon="7.18294763565064">
    <ele>2208.19995117188</ele>
    <time>2012-06-25T16:28:53Z</time>
   </trkpt>
   <trkpt lat="45.8782005310059" lon="7.18294334411621">
    <ele>2208.19995117188</ele>
    <time>2012-06-25T16:28:56Z</time>
   </trkpt>
   <trkpt lat="45.8781089782715" lon="7.18296051025391">
    <ele>2209.2998046875</ele>
    <time>2012-06-25T16:29:00Z</time>
   </trkpt>
   <trkpt lat="45.8780899047852" lon="7.1829628944397">
    <ele>2209.57495117188</ele>
    <time>2012-06-25T16:29:01Z</time>
   </trkpt>
   <trkpt lat="45.8780632019043" lon="7.18297004699707">
    <ele>2209.84985351562</ele>
    <time>2012-06-25T16:29:02Z</time>
   </trkpt>
   <trkpt lat="45.878044128418" lon="7.18297719955444">
    <ele>2210.125</ele>
    <time>2012-06-25T16:29:03Z</time>
   </trkpt>
   <trkpt lat="45.8780212402344" lon="7.18298101425171">
    <ele>2210.39990234375</ele>
    <time>2012-06-25T16:29:04Z</time>
   </trkpt>
   <trkpt lat="45.878002166748" lon="7.18298721313476">
    <ele>2210.39990234375</ele>
    <time>2012-06-25T16:29:05Z</time>
   </trkpt>
   <trkpt lat="45.8779602050781" lon="7.18299007415772">
    <ele>2211.30908203125</ele>
    <time>2012-06-25T16:29:07Z</time>
   </trkpt>
   <trkpt lat="45.8779373168945" lon="7.18299007415772">
    <ele>2211.76342773438</ele>
    <time>2012-06-25T16:29:08Z</time>
   </trkpt>
   <trkpt lat="45.8779144287109" lon="7.18299674987793">
    <ele>2212.21801757812</ele>
    <time>2012-06-25T16:29:09Z</time>
   </trkpt>
   <trkpt lat="45.8778877258301" lon="7.18299913406372">
    <ele>2212.67260742188</ele>
    <time>2012-06-25T16:29:10Z</time>
   </trkpt>
   <trkpt lat="45.8778686523438" lon="7.18300580978394">
    <ele>2213.12719726562</ele>
    <time>2012-06-25T16:29:11Z</time>
   </trkpt>
   <trkpt lat="45.8778495788574" lon="7.18300819396973">
    <ele>2213.58178710938</ele>
    <time>2012-06-25T16:29:12Z</time>
   </trkpt>
   <trkpt lat="45.8778266906738" lon="7.18301296234131">
    <ele>2214.03637695312</ele>
    <time>2012-06-25T16:29:13Z</time>
   </trkpt>
   <trkpt lat="45.8778038024902" lon="7.18301153182983">
    <ele>2214.49072265625</ele>
    <time>2012-06-25T16:29:14Z</time>
   </trkpt>
   <trkpt lat="45.8777770996094" lon="7.1830153465271">
    <ele>2214.9453125</ele>
    <time>2012-06-25T16:29:15Z</time>
   </trkpt>
   <trkpt lat="45.8777542114258" lon="7.18301486968994">
    <ele>2215.39990234375</ele>
    <time>2012-06-25T16:29:16Z</time>
   </trkpt>
   <trkpt lat="45.8776588439941" lon="7.18300771713257">
    <ele>2215.39990234375</ele>
    <time>2012-06-25T16:29:20Z</time>
   </trkpt>
   <trkpt lat="45.8775634765625" lon="7.18296480178833">
    <ele>2216.63989257812</ele>
    <time>2012-06-25T16:29:25Z</time>
   </trkpt>
   <trkpt lat="45.8775482177734" lon="7.18294811248779">
    <ele>2216.88793945312</ele>
    <time>2012-06-25T16:29:26Z</time>
   </trkpt>
   <trkpt lat="45.8775329589844" lon="7.18293190002441">
    <ele>2217.13598632812</ele>
    <time>2012-06-25T16:29:27Z</time>
   </trkpt>
   <trkpt lat="45.877513885498" lon="7.18291997909546">
    <ele>2217.38403320312</ele>
    <time>2012-06-25T16:29:28Z</time>
   </trkpt>
   <trkpt lat="45.8774604797363" lon="7.18286418914795">
    <ele>2218.1279296875</ele>
    <time>2012-06-25T16:29:31Z</time>
   </trkpt>
   <trkpt lat="45.87744140625" lon="7.18285083770752">
    <ele>2218.3759765625</ele>
    <time>2012-06-25T16:29:32Z</time>
   </trkpt>
   <trkpt lat="45.8774261474609" lon="7.18283891677856">
    <ele>2218.6240234375</ele>
    <time>2012-06-25T16:29:33Z</time>
   </trkpt>
   <trkpt lat="45.8774108886719" lon="7.18282175064087">
    <ele>2218.8720703125</ele>
    <time>2012-06-25T16:29:34Z</time>
   </trkpt>
   <trkpt lat="45.8773994445801" lon="7.18280649185181">
    <ele>2219.1201171875</ele>
    <time>2012-06-25T16:29:35Z</time>
   </trkpt>
   <trkpt lat="45.8772850036621" lon="7.18270015716553">
    <ele>2220.60815429688</ele>
    <time>2012-06-25T16:29:41Z</time>
   </trkpt>
   <trkpt lat="45.8772621154785" lon="7.18268871307373">
    <ele>2220.85595703125</ele>
    <time>2012-06-25T16:29:42Z</time>
   </trkpt>
   <trkpt lat="45.8772430419922" lon="7.18267965316772">
    <ele>2221.10400390625</ele>
    <time>2012-06-25T16:29:43Z</time>
   </trkpt>
   <trkpt lat="45.8772239685059" lon="7.18266439437866">
    <ele>2221.35205078125</ele>
    <time>2012-06-25T16:29:44Z</time>
   </trkpt>
   <trkpt lat="45.8772087097168" lon="7.18265533447266">
    <ele>2221.60009765625</ele>
    <time>2012-06-25T16:29:45Z</time>
   </trkpt>
   <trkpt lat="45.8771553039551" lon="7.1826171875">
    <ele>2221.60009765625</ele>
    <time>2012-06-25T16:29:48Z</time>
   </trkpt>
   <trkpt lat="45.8770904541016" lon="7.18254041671753">
    <ele>2222.85717773438</ele>
    <time>2012-06-25T16:29:52Z</time>
   </trkpt>
   <trkpt lat="45.8770790100098" lon="7.18252086639404">
    <ele>2223.17138671875</ele>
    <time>2012-06-25T16:29:53Z</time>
   </trkpt>
   <trkpt lat="45.8770599365234" lon="7.18251037597656">
    <ele>2223.48583984375</ele>
    <time>2012-06-25T16:29:54Z</time>
   </trkpt>
   <trkpt lat="45.8770446777344" lon="7.18249750137329">
    <ele>2223.80004882812</ele>
    <time>2012-06-25T16:29:55Z</time>
   </trkpt>
   <trkpt lat="45.8769874572754" lon="7.182448387146">
    <ele>2223.80004882812</ele>
    <time>2012-06-25T16:29:59Z</time>
   </trkpt>
   <trkpt lat="45.8768920898438" lon="7.18239164352417">
    <ele>2225.03540039062</ele>
    <time>2012-06-25T16:30:04Z</time>
   </trkpt>
   <trkpt lat="45.8768768310547" lon="7.18237638473511">
    <ele>2225.28247070312</ele>
    <time>2012-06-25T16:30:05Z</time>
   </trkpt>
   <trkpt lat="45.8768615722656" lon="7.18235874176025">
    <ele>2225.52954101562</ele>
    <time>2012-06-25T16:30:06Z</time>
   </trkpt>
   <trkpt lat="45.8768463134766" lon="7.18234586715698">
    <ele>2225.77661132812</ele>
    <time>2012-06-25T16:30:07Z</time>
   </trkpt>
   <trkpt lat="45.8768272399902" lon="7.18233156204224">
    <ele>2226.0234375</ele>
    <time>2012-06-25T16:30:08Z</time>
   </trkpt>
   <trkpt lat="45.8767471313477" lon="7.18228435516357">
    <ele>2227.01171875</ele>
    <time>2012-06-25T16:30:12Z</time>
   </trkpt>
   <trkpt lat="45.8767242431641" lon="7.18226957321167">
    <ele>2227.2587890625</ele>
    <time>2012-06-25T16:30:13Z</time>
   </trkpt>
   <trkpt lat="45.8767051696777" lon="7.18225812911987">
    <ele>2227.505859375</ele>
    <time>2012-06-25T16:30:14Z</time>
   </trkpt>
   <trkpt lat="45.8766822814941" lon="7.18224954605102">
    <ele>2227.7529296875</ele>
    <time>2012-06-25T16:30:15Z</time>
   </trkpt>
   <trkpt lat="45.8766632080078" lon="7.18223857879639">
    <ele>2228</ele>
    <time>2012-06-25T16:30:16Z</time>
   </trkpt>
   <trkpt lat="45.8766250610352" lon="7.18220567703247">
    <ele>2228</ele>
    <time>2012-06-25T16:30:18Z</time>
   </trkpt>
   <trkpt lat="45.8766059875488" lon="7.18218517303467">
    <ele>2228.3076171875</ele>
    <time>2012-06-25T16:30:19Z</time>
   </trkpt>
   <trkpt lat="45.8765869140625" lon="7.18216705322266">
    <ele>2228.61547851562</ele>
    <time>2012-06-25T16:30:20Z</time>
   </trkpt>
   <trkpt lat="45.8765678405762" lon="7.18215894699097">
    <ele>2228.92309570312</ele>
    <time>2012-06-25T16:30:21Z</time>
   </trkpt>
   <trkpt lat="45.8765563964844" lon="7.18213987350464">
    <ele>2229.23071289062</ele>
    <time>2012-06-25T16:30:22Z</time>
   </trkpt>
   <trkpt lat="45.8765335083008" lon="7.18212938308716">
    <ele>2229.53857421875</ele>
    <time>2012-06-25T16:30:23Z</time>
   </trkpt>
   <trkpt lat="45.8764495849609" lon="7.18206930160522">
    <ele>2230.76928710938</ele>
    <time>2012-06-25T16:30:27Z</time>
   </trkpt>
   <trkpt lat="45.8764343261719" lon="7.18205881118774">
    <ele>2231.07690429688</ele>
    <time>2012-06-25T16:30:28Z</time>
   </trkpt>
   <trkpt lat="45.8764114379883" lon="7.18203067779541">
    <ele>2231.38452148438</ele>
    <time>2012-06-25T16:30:29Z</time>
   </trkpt>
   <trkpt lat="45.876392364502" lon="7.18201398849487">
    <ele>2231.6923828125</ele>
    <time>2012-06-25T16:30:30Z</time>
   </trkpt>
   <trkpt lat="45.8763732910156" lon="7.18199157714844">
    <ele>2232</ele>
    <time>2012-06-25T16:30:31Z</time>
   </trkpt>
   <trkpt lat="45.8763008117676" lon="7.18192863464356">
    <ele>2232</ele>
    <time>2012-06-25T16:30:35Z</time>
   </trkpt>
   <trkpt lat="45.8762550354004" lon="7.18189001083374">
    <ele>2232.70776367188</ele>
    <time>2012-06-25T16:30:37Z</time>
   </trkpt>
   <trkpt lat="45.8762397766113" lon="7.18187046051025">
    <ele>2233.0615234375</ele>
    <time>2012-06-25T16:30:38Z</time>
   </trkpt>
   <trkpt lat="45.876220703125" lon="7.18184661865234">
    <ele>2233.41552734375</ele>
    <time>2012-06-25T16:30:39Z</time>
   </trkpt>
   <trkpt lat="45.8762016296387" lon="7.18183135986328">
    <ele>2233.76928710938</ele>
    <time>2012-06-25T16:30:40Z</time>
   </trkpt>
   <trkpt lat="45.8761863708496" lon="7.18180704116821">
    <ele>2234.123046875</ele>
    <time>2012-06-25T16:30:41Z</time>
   </trkpt>
   <trkpt lat="45.8761329650879" lon="7.18176317214966">
    <ele>2235.1845703125</ele>
    <time>2012-06-25T16:30:44Z</time>
   </trkpt>
   <trkpt lat="45.8761138916016" lon="7.18173694610596">
    <ele>2235.53857421875</ele>
    <time>2012-06-25T16:30:45Z</time>
   </trkpt>
   <trkpt lat="45.8760986328125" lon="7.18171215057373">
    <ele>2235.89233398438</ele>
    <time>2012-06-25T16:30:46Z</time>
   </trkpt>
   <trkpt lat="45.8760871887207" lon="7.18168592453003">
    <ele>2236.24633789062</ele>
    <time>2012-06-25T16:30:47Z</time>
   </trkpt>
   <trkpt lat="45.8760719299316" lon="7.18166399002075">
    <ele>2236.60009765625</ele>
    <time>2012-06-25T16:30:48Z</time>
   </trkpt>
   <trkpt lat="45.876049041748" lon="7.18164014816284">
    <ele>2236.60009765625</ele>
    <time>2012-06-25T16:30:49Z</time>
   </trkpt>
   <trkpt lat="45.8760299682617" lon="7.18161964416504">
    <ele>2236.76684570312</ele>
    <time>2012-06-25T16:30:50Z</time>
   </trkpt>
   <trkpt lat="45.8759956359863" lon="7.18158960342407">
    <ele>2237.10009765625</ele>
    <time>2012-06-25T16:30:52Z</time>
   </trkpt>
   <trkpt lat="45.8759078979492" lon="7.18154335021973">
    <ele>2237.76684570312</ele>
    <time>2012-06-25T16:30:56Z</time>
   </trkpt>
   <trkpt lat="45.8758850097656" lon="7.1815299987793">
    <ele>2237.93334960938</ele>
    <time>2012-06-25T16:30:57Z</time>
   </trkpt>
   <trkpt lat="45.8758659362793" lon="7.18152523040772">
    <ele>2238.10009765625</ele>
    <time>2012-06-25T16:30:58Z</time>
   </trkpt>
   <trkpt lat="45.8758430480957" lon="7.18151664733887">
    <ele>2238.26684570312</ele>
    <time>2012-06-25T16:30:59Z</time>
   </trkpt>
   <trkpt lat="45.8758239746094" lon="7.18150281906128">
    <ele>2238.43334960938</ele>
    <time>2012-06-25T16:31:00Z</time>
   </trkpt>
   <trkpt lat="45.875804901123" lon="7.18149328231812">
    <ele>2238.60009765625</ele>
    <time>2012-06-25T16:31:01Z</time>
   </trkpt>
   <trkpt lat="45.8756980895996" lon="7.1814694404602">
    <ele>2238.60009765625</ele>
    <time>2012-06-25T16:31:06Z</time>
   </trkpt>
   <trkpt lat="45.875659942627" lon="7.18145608901978">
    <ele>2239.40014648438</ele>
    <time>2012-06-25T16:31:08Z</time>
   </trkpt>
   <trkpt lat="45.8756408691406" lon="7.18144941329956">
    <ele>2239.80004882812</ele>
    <time>2012-06-25T16:31:09Z</time>
   </trkpt>
   <trkpt lat="45.875617980957" lon="7.18144035339356">
    <ele>2240.2001953125</ele>
    <time>2012-06-25T16:31:10Z</time>
   </trkpt>
   <trkpt lat="45.8755989074707" lon="7.18142223358154">
    <ele>2240.60009765625</ele>
    <time>2012-06-25T16:31:11Z</time>
   </trkpt>
   <trkpt lat="45.8755493164062" lon="7.18139362335205">
    <ele>2240.60009765625</ele>
    <time>2012-06-25T16:31:14Z</time>
   </trkpt>
   <trkpt lat="45.8755302429199" lon="7.18138694763184">
    <ele>2241.0400390625</ele>
    <time>2012-06-25T16:31:15Z</time>
   </trkpt>
   <trkpt lat="45.8755073547363" lon="7.18137407302856">
    <ele>2241.47998046875</ele>
    <time>2012-06-25T16:31:16Z</time>
   </trkpt>
   <trkpt lat="45.87548828125" lon="7.18136405944824">
    <ele>2241.92016601562</ele>
    <time>2012-06-25T16:31:17Z</time>
   </trkpt>
   <trkpt lat="45.8754653930664" lon="7.18135595321655">
    <ele>2242.36010742188</ele>
    <time>2012-06-25T16:31:18Z</time>
   </trkpt>
   <trkpt lat="45.8754386901856" lon="7.18133974075317">
    <ele>2242.80004882812</ele>
    <time>2012-06-25T16:31:19Z</time>
   </trkpt>
   <trkpt lat="45.8753967285156" lon="7.18131160736084">
    <ele>2242.80004882812</ele>
    <time>2012-06-25T16:31:21Z</time>
   </trkpt>
   <trkpt lat="45.8752822875977" lon="7.1812539100647">
    <ele>2244</ele>
    <time>2012-06-25T16:31:27Z</time>
   </trkpt>
   <trkpt lat="45.8752593994141" lon="7.18124771118164">
    <ele>2244.19995117188</ele>
    <time>2012-06-25T16:31:28Z</time>
   </trkpt>
   <trkpt lat="45.8752365112305" lon="7.18124437332153">
    <ele>2244.39990234375</ele>
    <time>2012-06-25T16:31:29Z</time>
   </trkpt>
   <trkpt lat="45.8752059936523" lon="7.18123722076416">
    <ele>2244.60009765625</ele>
    <time>2012-06-25T16:31:30Z</time>
   </trkpt>
   <trkpt lat="45.8751792907715" lon="7.18122959136963">
    <ele>2244.80004882812</ele>
    <time>2012-06-25T16:31:31Z</time>
   </trkpt>
   <trkpt lat="45.8751564025879" lon="7.18121433258057">
    <ele>2245</ele>
    <time>2012-06-25T16:31:32Z</time>
   </trkpt>
   <trkpt lat="45.875114440918" lon="7.18120765686035">
    <ele>2245</ele>
    <time>2012-06-25T16:31:34Z</time>
   </trkpt>
   <trkpt lat="45.8750228881836" lon="7.18120908737183">
    <ele>2246.05004882812</ele>
    <time>2012-06-25T16:31:38Z</time>
   </trkpt>
   <trkpt lat="45.875" lon="7.1812105178833">
    <ele>2246.3125</ele>
    <time>2012-06-25T16:31:39Z</time>
   </trkpt>
   <trkpt lat="45.8749771118164" lon="7.18120813369751">
    <ele>2246.57495117188</ele>
    <time>2012-06-25T16:31:40Z</time>
   </trkpt>
   <trkpt lat="45.8749504089356" lon="7.18120908737183">
    <ele>2246.83740234375</ele>
    <time>2012-06-25T16:31:41Z</time>
   </trkpt>
   <trkpt lat="45.8749313354492" lon="7.18119239807129">
    <ele>2247.10009765625</ele>
    <time>2012-06-25T16:31:42Z</time>
   </trkpt>
   <trkpt lat="45.8748397827148" lon="7.1811580657959">
    <ele>2248.14990234375</ele>
    <time>2012-06-25T16:31:46Z</time>
   </trkpt>
   <trkpt lat="45.8748207092285" lon="7.18114471435547">
    <ele>2248.41235351562</ele>
    <time>2012-06-25T16:31:47Z</time>
   </trkpt>
   <trkpt lat="45.8748054504394" lon="7.18113613128662">
    <ele>2248.67504882812</ele>
    <time>2012-06-25T16:31:48Z</time>
   </trkpt>
   <trkpt lat="45.8747825622559" lon="7.18113136291504">
    <ele>2248.9375</ele>
    <time>2012-06-25T16:31:49Z</time>
   </trkpt>
   <trkpt lat="45.8747596740723" lon="7.18111085891724">
    <ele>2249.19995117188</ele>
    <time>2012-06-25T16:31:50Z</time>
   </trkpt>
   <trkpt lat="45.8746871948242" lon="7.18105554580688">
    <ele>2249.19995117188</ele>
    <time>2012-06-25T16:31:54Z</time>
   </trkpt>
   <trkpt lat="45.8746337890625" lon="7.18101835250854">
    <ele>2250.19995117188</ele>
    <time>2012-06-25T16:31:57Z</time>
   </trkpt>
   <trkpt lat="45.8746109008789" lon="7.18100643157959">
    <ele>2250.533203125</ele>
    <time>2012-06-25T16:31:58Z</time>
   </trkpt>
   <trkpt lat="45.8745956420898" lon="7.18099355697632">
    <ele>2250.86669921875</ele>
    <time>2012-06-25T16:31:59Z</time>
   </trkpt>
   <trkpt lat="45.8745803833008" lon="7.18097972869873">
    <ele>2251.19995117188</ele>
    <time>2012-06-25T16:32:00Z</time>
   </trkpt>
   <trkpt lat="45.8745574951172" lon="7.18097496032715">
    <ele>2251.19995117188</ele>
    <time>2012-06-25T16:32:01Z</time>
   </trkpt>
   <trkpt lat="45.8744506835938" lon="7.18090867996216">
    <ele>2252.42211914062</ele>
    <time>2012-06-25T16:32:06Z</time>
   </trkpt>
   <trkpt lat="45.8744316101074" lon="7.18089532852173">
    <ele>2252.66650390625</ele>
    <time>2012-06-25T16:32:07Z</time>
   </trkpt>
   <trkpt lat="45.8744125366211" lon="7.1808876991272">
    <ele>2252.9111328125</ele>
    <time>2012-06-25T16:32:08Z</time>
   </trkpt>
   <trkpt lat="45.8743934631348" lon="7.18088626861572">
    <ele>2253.15551757812</ele>
    <time>2012-06-25T16:32:09Z</time>
   </trkpt>
   <trkpt lat="45.8743705749512" lon="7.18087816238403">
    <ele>2253.39990234375</ele>
    <time>2012-06-25T16:32:10Z</time>
   </trkpt>
   <trkpt lat="45.8742752075195" lon="7.18087196350098">
    <ele>2253.39990234375</ele>
    <time>2012-06-25T16:32:14Z</time>
   </trkpt>
   <trkpt lat="45.8742332458496" lon="7.18087148666382">
    <ele>2254.13330078125</ele>
    <time>2012-06-25T16:32:16Z</time>
   </trkpt>
   <trkpt lat="45.8742141723633" lon="7.18087196350098">
    <ele>2254.5</ele>
    <time>2012-06-25T16:32:17Z</time>
   </trkpt>
   <trkpt lat="45.874195098877" lon="7.18087005615234">
    <ele>2254.86669921875</ele>
    <time>2012-06-25T16:32:18Z</time>
   </trkpt>
   <trkpt lat="45.8741722106934" lon="7.18086624145508">
    <ele>2255.2333984375</ele>
    <time>2012-06-25T16:32:19Z</time>
   </trkpt>
   <trkpt lat="45.874153137207" lon="7.18087005615234">
    <ele>2255.60009765625</ele>
    <time>2012-06-25T16:32:20Z</time>
   </trkpt>
   <trkpt lat="45.8741264343262" lon="7.1808648109436">
    <ele>2255.60009765625</ele>
    <time>2012-06-25T16:32:21Z</time>
   </trkpt>
   <trkpt lat="45.8740005493164" lon="7.18084764480591">
    <ele>2256.822265625</ele>
    <time>2012-06-25T16:32:26Z</time>
   </trkpt>
   <trkpt lat="45.8739852905273" lon="7.18083000183106">
    <ele>2257.06665039062</ele>
    <time>2012-06-25T16:32:27Z</time>
   </trkpt>
   <trkpt lat="45.8739700317383" lon="7.18080949783325">
    <ele>2257.31127929688</ele>
    <time>2012-06-25T16:32:28Z</time>
   </trkpt>
   <trkpt lat="45.873950958252" lon="7.18077898025513">
    <ele>2257.5556640625</ele>
    <time>2012-06-25T16:32:29Z</time>
   </trkpt>
   <trkpt lat="45.8739395141602" lon="7.18074893951416">
    <ele>2257.80004882812</ele>
    <time>2012-06-25T16:32:30Z</time>
   </trkpt>
   <trkpt lat="45.873950958252" lon="7.18068838119507">
    <ele>2257.80004882812</ele>
    <time>2012-06-25T16:32:32Z</time>
   </trkpt>
   <trkpt lat="45.8740425109863" lon="7.1805591583252">
    <ele>2259.02221679688</ele>
    <time>2012-06-25T16:32:37Z</time>
   </trkpt>
   <trkpt lat="45.8740615844727" lon="7.18052864074707">
    <ele>2259.2666015625</ele>
    <time>2012-06-25T16:32:38Z</time>
   </trkpt>
   <trkpt lat="45.874080657959" lon="7.18050384521484">
    <ele>2259.51123046875</ele>
    <time>2012-06-25T16:32:39Z</time>
   </trkpt>
   <trkpt lat="45.8741035461426" lon="7.18048048019409">
    <ele>2259.75561523438</ele>
    <time>2012-06-25T16:32:40Z</time>
   </trkpt>
   <trkpt lat="45.8741264343262" lon="7.1804609298706">
    <ele>2260</ele>
    <time>2012-06-25T16:32:41Z</time>
   </trkpt>
   <trkpt lat="45.8741760253906" lon="7.18041086196899">
    <ele>2260</ele>
    <time>2012-06-25T16:32:43Z</time>
   </trkpt>
   <trkpt lat="45.8742561340332" lon="7.18033123016357">
    <ele>2261.10009765625</ele>
    <time>2012-06-25T16:32:47Z</time>
   </trkpt>
   <trkpt lat="45.8742752075195" lon="7.18031120300293">
    <ele>2261.375</ele>
    <time>2012-06-25T16:32:48Z</time>
   </trkpt>
   <trkpt lat="45.8742904663086" lon="7.18029260635376">
    <ele>2261.64990234375</ele>
    <time>2012-06-25T16:32:49Z</time>
   </trkpt>
   <trkpt lat="45.8743095397949" lon="7.18027591705322">
    <ele>2261.92504882812</ele>
    <time>2012-06-25T16:32:50Z</time>
   </trkpt>
   <trkpt lat="45.8743286132812" lon="7.18025875091553">
    <ele>2262.19995117188</ele>
    <time>2012-06-25T16:32:51Z</time>
   </trkpt>
   <trkpt lat="45.8743667602539" lon="7.18021774291992">
    <ele>2262.19995117188</ele>
    <time>2012-06-25T16:32:53Z</time>
   </trkpt>
   <trkpt lat="45.8743858337402" lon="7.18019676208496">
    <ele>2262.533203125</ele>
    <time>2012-06-25T16:32:54Z</time>
   </trkpt>
   <trkpt lat="45.8744049072266" lon="7.18017768859863">
    <ele>2262.86669921875</ele>
    <time>2012-06-25T16:32:55Z</time>
   </trkpt>
   <trkpt lat="45.8744239807129" lon="7.1801609992981">
    <ele>2263.19995117188</ele>
    <time>2012-06-25T16:32:56Z</time>
   </trkpt>
   <trkpt lat="45.8744430541992" lon="7.18014430999756">
    <ele>2263.533203125</ele>
    <time>2012-06-25T16:32:57Z</time>
   </trkpt>
   <trkpt lat="45.8744621276856" lon="7.18013048171997">
    <ele>2263.86669921875</ele>
    <time>2012-06-25T16:32:58Z</time>
   </trkpt>
   <trkpt lat="45.8745193481445" lon="7.18009090423584">
    <ele>2264.86669921875</ele>
    <time>2012-06-25T16:33:01Z</time>
   </trkpt>
   <trkpt lat="45.8745384216309" lon="7.1800799369812">
    <ele>2265.19995117188</ele>
    <time>2012-06-25T16:33:02Z</time>
   </trkpt>
   <trkpt lat="45.8745613098144" lon="7.18007326126099">
    <ele>2265.533203125</ele>
    <time>2012-06-25T16:33:03Z</time>
   </trkpt>
   <trkpt lat="45.8745803833008" lon="7.18006801605225">
    <ele>2265.86669921875</ele>
    <time>2012-06-25T16:33:04Z</time>
   </trkpt>
   <trkpt lat="45.8745994567871" lon="7.18005752563476">
    <ele>2266.19995117188</ele>
    <time>2012-06-25T16:33:05Z</time>
   </trkpt>
   <trkpt lat="45.874641418457" lon="7.18004608154297">
    <ele>2266.19995117188</ele>
    <time>2012-06-25T16:33:07Z</time>
   </trkpt>
   <trkpt lat="45.8747291564941" lon="7.1800365447998">
    <ele>2267.177734375</ele>
    <time>2012-06-25T16:33:11Z</time>
   </trkpt>
   <trkpt lat="45.8747482299805" lon="7.18003845214844">
    <ele>2267.42211914062</ele>
    <time>2012-06-25T16:33:12Z</time>
   </trkpt>
   <trkpt lat="45.8747673034668" lon="7.18004369735718">
    <ele>2267.66674804688</ele>
    <time>2012-06-25T16:33:13Z</time>
   </trkpt>
   <trkpt lat="45.8747901916504" lon="7.18005084991455">
    <ele>2267.9111328125</ele>
    <time>2012-06-25T16:33:14Z</time>
   </trkpt>
   <trkpt lat="45.8748092651367" lon="7.18005704879761">
    <ele>2268.15551757812</ele>
    <time>2012-06-25T16:33:15Z</time>
   </trkpt>
   <trkpt lat="45.8749008178711" lon="7.18005800247192">
    <ele>2269.13330078125</ele>
    <time>2012-06-25T16:33:19Z</time>
   </trkpt>
   <trkpt lat="45.8749237060547" lon="7.18006134033203">
    <ele>2269.37768554688</ele>
    <time>2012-06-25T16:33:20Z</time>
   </trkpt>
   <trkpt lat="45.8749465942383" lon="7.18006467819214">
    <ele>2269.62231445312</ele>
    <time>2012-06-25T16:33:21Z</time>
   </trkpt>
   <trkpt lat="45.8749694824219" lon="7.18006944656372">
    <ele>2269.86669921875</ele>
    <time>2012-06-25T16:33:22Z</time>
   </trkpt>
   <trkpt lat="45.8749923706055" lon="7.18007850646973">
    <ele>2270.11108398438</ele>
    <time>2012-06-25T16:33:23Z</time>
   </trkpt>
   <trkpt lat="45.8751411437988" lon="7.18010663986206">
    <ele>2271.822265625</ele>
    <time>2012-06-25T16:33:30Z</time>
   </trkpt>
   <trkpt lat="45.8751602172852" lon="7.18010854721069">
    <ele>2272.06665039062</ele>
    <time>2012-06-25T16:33:31Z</time>
   </trkpt>
   <trkpt lat="45.8751792907715" lon="7.18010520935059">
    <ele>2272.31103515625</ele>
    <time>2012-06-25T16:33:32Z</time>
   </trkpt>
   <trkpt lat="45.8751983642578" lon="7.18010091781616">
    <ele>2272.5556640625</ele>
    <time>2012-06-25T16:33:33Z</time>
   </trkpt>
   <trkpt lat="45.8752250671387" lon="7.18009090423584">
    <ele>2272.80004882812</ele>
    <time>2012-06-25T16:33:34Z</time>
   </trkpt>
   <trkpt lat="45.8752670288086" lon="7.1800684928894">
    <ele>2272.80004882812</ele>
    <time>2012-06-25T16:33:36Z</time>
   </trkpt>
   <trkpt lat="45.8753089904785" lon="7.18004989624024">
    <ele>2273.60009765625</ele>
    <time>2012-06-25T16:33:38Z</time>
   </trkpt>
   <trkpt lat="45.8753280639648" lon="7.18003845214844">
    <ele>2274</ele>
    <time>2012-06-25T16:33:39Z</time>
   </trkpt>
   <trkpt lat="45.8753509521484" lon="7.18002653121948">
    <ele>2274.39990234375</ele>
    <time>2012-06-25T16:33:40Z</time>
   </trkpt>
   <trkpt lat="45.8753700256348" lon="7.18001222610474">
    <ele>2274.80004882812</ele>
    <time>2012-06-25T16:33:41Z</time>
   </trkpt>
   <trkpt lat="45.8753890991211" lon="7.17999887466431">
    <ele>2275.19995117188</ele>
    <time>2012-06-25T16:33:42Z</time>
   </trkpt>
   <trkpt lat="45.8754081726074" lon="7.17998647689819">
    <ele>2275.19995117188</ele>
    <time>2012-06-25T16:33:43Z</time>
   </trkpt>
   <trkpt lat="45.8754463195801" lon="7.17996311187744">
    <ele>2276</ele>
    <time>2012-06-25T16:33:45Z</time>
   </trkpt>
   <trkpt lat="45.8754692077637" lon="7.1799521446228">
    <ele>2276.39990234375</ele>
    <time>2012-06-25T16:33:46Z</time>
   </trkpt>
   <trkpt lat="45.8754920959473" lon="7.17994070053101">
    <ele>2276.80004882812</ele>
    <time>2012-06-25T16:33:47Z</time>
   </trkpt>
   <trkpt lat="45.8755111694336" lon="7.17992830276489">
    <ele>2277.19995117188</ele>
    <time>2012-06-25T16:33:48Z</time>
   </trkpt>
   <trkpt lat="45.875560760498" lon="7.17990446090698">
    <ele>2277.19995117188</ele>
    <time>2012-06-25T16:33:50Z</time>
   </trkpt>
   <trkpt lat="45.8756103515625" lon="7.17989110946655">
    <ele>2277.93334960938</ele>
    <time>2012-06-25T16:33:52Z</time>
   </trkpt>
   <trkpt lat="45.8756370544434" lon="7.17988729476929">
    <ele>2278.2998046875</ele>
    <time>2012-06-25T16:33:53Z</time>
   </trkpt>
   <trkpt lat="45.875659942627" lon="7.17988872528076">
    <ele>2278.66650390625</ele>
    <time>2012-06-25T16:33:54Z</time>
   </trkpt>
   <trkpt lat="45.8756828308106" lon="7.17988967895508">
    <ele>2279.033203125</ele>
    <time>2012-06-25T16:33:55Z</time>
   </trkpt>
   <trkpt lat="45.8757095336914" lon="7.1798939704895">
    <ele>2279.39990234375</ele>
    <time>2012-06-25T16:33:56Z</time>
   </trkpt>
   <trkpt lat="45.875732421875" lon="7.17990350723267">
    <ele>2279.39990234375</ele>
    <time>2012-06-25T16:33:57Z</time>
   </trkpt>
   <trkpt lat="45.8758583068848" lon="7.17998552322388">
    <ele>2280.84008789062</ele>
    <time>2012-06-25T16:34:03Z</time>
   </trkpt>
   <trkpt lat="45.8758773803711" lon="7.17999744415283">
    <ele>2281.080078125</ele>
    <time>2012-06-25T16:34:04Z</time>
   </trkpt>
   <trkpt lat="45.8758964538574" lon="7.1800103187561">
    <ele>2281.32006835938</ele>
    <time>2012-06-25T16:34:05Z</time>
   </trkpt>
   <trkpt lat="45.875919342041" lon="7.18002223968506">
    <ele>2281.56005859375</ele>
    <time>2012-06-25T16:34:06Z</time>
   </trkpt>
   <trkpt lat="45.8759384155273" lon="7.18003702163696">
    <ele>2281.80004882812</ele>
    <time>2012-06-25T16:34:07Z</time>
   </trkpt>
   <trkpt lat="45.8760223388672" lon="7.18008995056152">
    <ele>2281.80004882812</ele>
    <time>2012-06-25T16:34:11Z</time>
   </trkpt>
   <trkpt lat="45.876163482666" lon="7.18016910552978">
    <ele>2282.966796875</ele>
    <time>2012-06-25T16:34:18Z</time>
   </trkpt>
   <trkpt lat="45.8761825561523" lon="7.18018102645874">
    <ele>2283.13330078125</ele>
    <time>2012-06-25T16:34:19Z</time>
   </trkpt>
   <trkpt lat="45.8762054443359" lon="7.18018865585327">
    <ele>2283.30004882812</ele>
    <time>2012-06-25T16:34:20Z</time>
   </trkpt>
   <trkpt lat="45.8762283325195" lon="7.18019723892212">
    <ele>2283.466796875</ele>
    <time>2012-06-25T16:34:21Z</time>
   </trkpt>
   <trkpt lat="45.8762512207031" lon="7.18020629882812">
    <ele>2283.63330078125</ele>
    <time>2012-06-25T16:34:22Z</time>
   </trkpt>
   <trkpt lat="45.8762741088867" lon="7.18021392822266">
    <ele>2283.80004882812</ele>
    <time>2012-06-25T16:34:23Z</time>
   </trkpt>
   <trkpt lat="45.8763389587402" lon="7.18023586273193">
    <ele>2283.80004882812</ele>
    <time>2012-06-25T16:34:26Z</time>
   </trkpt>
   <trkpt lat="45.8763885498047" lon="7.18024110794067">
    <ele>2284.53344726562</ele>
    <time>2012-06-25T16:34:28Z</time>
   </trkpt>
   <trkpt lat="45.8764114379883" lon="7.18025159835815">
    <ele>2284.89990234375</ele>
    <time>2012-06-25T16:34:29Z</time>
   </trkpt>
   <trkpt lat="45.8764305114746" lon="7.180260181427">
    <ele>2285.2666015625</ele>
    <time>2012-06-25T16:34:30Z</time>
   </trkpt>
   <trkpt lat="45.8764572143555" lon="7.18026542663574">
    <ele>2285.63330078125</ele>
    <time>2012-06-25T16:34:31Z</time>
   </trkpt>
   <trkpt lat="45.8764839172363" lon="7.1802659034729">
    <ele>2286</ele>
    <time>2012-06-25T16:34:32Z</time>
   </trkpt>
   <trkpt lat="45.8765068054199" lon="7.1802659034729">
    <ele>2286</ele>
    <time>2012-06-25T16:34:33Z</time>
   </trkpt>
   <trkpt lat="45.8766403198242" lon="7.1802659034729">
    <ele>2287.84619140625</ele>
    <time>2012-06-25T16:34:38Z</time>
   </trkpt>
   <trkpt lat="45.8766670227051" lon="7.18027067184448">
    <ele>2288.21533203125</ele>
    <time>2012-06-25T16:34:39Z</time>
   </trkpt>
   <trkpt lat="45.8766937255859" lon="7.18027353286743">
    <ele>2288.58471679688</ele>
    <time>2012-06-25T16:34:40Z</time>
   </trkpt>
   <trkpt lat="45.8767204284668" lon="7.18027782440186">
    <ele>2288.95385742188</ele>
    <time>2012-06-25T16:34:41Z</time>
   </trkpt>
   <trkpt lat="45.8767509460449" lon="7.18027830123901">
    <ele>2289.32299804688</ele>
    <time>2012-06-25T16:34:42Z</time>
   </trkpt>
   <trkpt lat="45.876781463623" lon="7.18027210235596">
    <ele>2289.6923828125</ele>
    <time>2012-06-25T16:34:43Z</time>
   </trkpt>
   <trkpt lat="45.8768043518066" lon="7.18025922775268">
    <ele>2290.0615234375</ele>
    <time>2012-06-25T16:34:44Z</time>
   </trkpt>
   <trkpt lat="45.876823425293" lon="7.18023872375488">
    <ele>2290.43090820312</ele>
    <time>2012-06-25T16:34:45Z</time>
   </trkpt>
   <trkpt lat="45.8768348693848" lon="7.18021583557129">
    <ele>2290.80004882812</ele>
    <time>2012-06-25T16:34:46Z</time>
   </trkpt>
   <trkpt lat="45.8768272399902" lon="7.18008089065552">
    <ele>2290.80004882812</ele>
    <time>2012-06-25T16:34:52Z</time>
   </trkpt>
   <trkpt lat="45.8767356872559" lon="7.18002128601074">
    <ele>2291.67993164062</ele>
    <time>2012-06-25T16:34:56Z</time>
   </trkpt>
   <trkpt lat="45.876708984375" lon="7.18001651763916">
    <ele>2291.89990234375</ele>
    <time>2012-06-25T16:34:57Z</time>
   </trkpt>
   <trkpt lat="45.8765525817871" lon="7.18003988265991">
    <ele>2293.21997070312</ele>
    <time>2012-06-25T16:35:03Z</time>
   </trkpt>
   <trkpt lat="45.8765258789062" lon="7.18004179000854">
    <ele>2293.43994140625</ele>
    <time>2012-06-25T16:35:04Z</time>
   </trkpt>
   <trkpt lat="45.8765029907227" lon="7.18003797531128">
    <ele>2293.65991210938</ele>
    <time>2012-06-25T16:35:05Z</time>
   </trkpt>
   <trkpt lat="45.8764724731445" lon="7.18003511428833">
    <ele>2293.8798828125</ele>
    <time>2012-06-25T16:35:06Z</time>
   </trkpt>
   <trkpt lat="45.8764457702637" lon="7.18002653121948">
    <ele>2294.10009765625</ele>
    <time>2012-06-25T16:35:07Z</time>
   </trkpt>
   <trkpt lat="45.8764228820801" lon="7.18001651763916">
    <ele>2294.32006835938</ele>
    <time>2012-06-25T16:35:08Z</time>
   </trkpt>
   <trkpt lat="45.8763999938965" lon="7.1800012588501">
    <ele>2294.5400390625</ele>
    <time>2012-06-25T16:35:09Z</time>
   </trkpt>
   <trkpt lat="45.8763771057129" lon="7.17998838424683">
    <ele>2294.76000976562</ele>
    <time>2012-06-25T16:35:10Z</time>
   </trkpt>
   <trkpt lat="45.8763542175293" lon="7.17997598648071">
    <ele>2294.97998046875</ele>
    <time>2012-06-25T16:35:11Z</time>
   </trkpt>
   <trkpt lat="45.876335144043" lon="7.17996120452881">
    <ele>2295.19995117188</ele>
    <time>2012-06-25T16:35:12Z</time>
   </trkpt>
   <trkpt lat="45.8762893676758" lon="7.17993831634522">
    <ele>2295.19995117188</ele>
    <time>2012-06-25T16:35:14Z</time>
   </trkpt>
   <trkpt lat="45.876220703125" lon="7.1798825263977">
    <ele>2296.14282226562</ele>
    <time>2012-06-25T16:35:17Z</time>
   </trkpt>
   <trkpt lat="45.8761978149414" lon="7.1798677444458">
    <ele>2296.45703125</ele>
    <time>2012-06-25T16:35:18Z</time>
   </trkpt>
   <trkpt lat="45.8761711120606" lon="7.17985677719116">
    <ele>2296.77124023438</ele>
    <time>2012-06-25T16:35:19Z</time>
   </trkpt>
   <trkpt lat="45.8761520385742" lon="7.17984533309936">
    <ele>2297.08569335938</ele>
    <time>2012-06-25T16:35:20Z</time>
   </trkpt>
   <trkpt lat="45.8761329650879" lon="7.1798300743103">
    <ele>2297.39990234375</ele>
    <time>2012-06-25T16:35:21Z</time>
   </trkpt>
   <trkpt lat="45.876033782959" lon="7.17972326278686">
    <ele>2297.39990234375</ele>
    <time>2012-06-25T16:35:26Z</time>
   </trkpt>
   <trkpt lat="45.8760223388672" lon="7.17970561981201">
    <ele>2297.89990234375</ele>
    <time>2012-06-25T16:35:27Z</time>
   </trkpt>
   <trkpt lat="45.8760070800781" lon="7.17967987060547">
    <ele>2298.39990234375</ele>
    <time>2012-06-25T16:35:28Z</time>
   </trkpt>
   <trkpt lat="45.8759841918945" lon="7.17965459823608">
    <ele>2298.89990234375</ele>
    <time>2012-06-25T16:35:29Z</time>
   </trkpt>
   <trkpt lat="45.8759651184082" lon="7.1796350479126">
    <ele>2299.39990234375</ele>
    <time>2012-06-25T16:35:30Z</time>
   </trkpt>
   <trkpt lat="45.8759498596191" lon="7.17960786819458">
    <ele>2299.39990234375</ele>
    <time>2012-06-25T16:35:31Z</time>
   </trkpt>
   <trkpt lat="45.8758659362793" lon="7.1794548034668">
    <ele>2300.59985351562</ele>
    <time>2012-06-25T16:35:37Z</time>
   </trkpt>
   <trkpt lat="45.8758506774902" lon="7.17943525314331">
    <ele>2300.7998046875</ele>
    <time>2012-06-25T16:35:38Z</time>
   </trkpt>
   <trkpt lat="45.8758354187012" lon="7.17941570281982">
    <ele>2301</ele>
    <time>2012-06-25T16:35:39Z</time>
   </trkpt>
   <trkpt lat="45.8758163452148" lon="7.1794023513794">
    <ele>2301.19995117188</ele>
    <time>2012-06-25T16:35:40Z</time>
   </trkpt>
   <trkpt lat="45.8758010864258" lon="7.17938470840454">
    <ele>2301.39990234375</ele>
    <time>2012-06-25T16:35:41Z</time>
   </trkpt>
   <trkpt lat="45.875732421875" lon="7.17931270599365">
    <ele>2301.39990234375</ele>
    <time>2012-06-25T16:35:45Z</time>
   </trkpt>
   <trkpt lat="45.8756675720215" lon="7.17927551269531">
    <ele>2302.3427734375</ele>
    <time>2012-06-25T16:35:48Z</time>
   </trkpt>
   <trkpt lat="45.8756484985352" lon="7.17926406860352">
    <ele>2302.6572265625</ele>
    <time>2012-06-25T16:35:49Z</time>
   </trkpt>
   <trkpt lat="45.8756256103516" lon="7.17925357818604">
    <ele>2302.97143554688</ele>
    <time>2012-06-25T16:35:50Z</time>
   </trkpt>
   <trkpt lat="45.875602722168" lon="7.17924642562866">
    <ele>2303.28588867188</ele>
    <time>2012-06-25T16:35:51Z</time>
   </trkpt>
   <trkpt lat="45.8755798339844" lon="7.17924118041992">
    <ele>2303.60009765625</ele>
    <time>2012-06-25T16:35:52Z</time>
   </trkpt>
   <trkpt lat="45.8755073547363" lon="7.17922401428223">
    <ele>2303.60009765625</ele>
    <time>2012-06-25T16:35:55Z</time>
   </trkpt>
   <trkpt lat="45.8754844665527" lon="7.17922496795654">
    <ele>2303.91430664062</ele>
    <time>2012-06-25T16:35:56Z</time>
   </trkpt>
   <trkpt lat="45.8754348754883" lon="7.17922067642212">
    <ele>2304.54296875</ele>
    <time>2012-06-25T16:35:58Z</time>
   </trkpt>
   <trkpt lat="45.875415802002" lon="7.17922592163086">
    <ele>2304.85717773438</ele>
    <time>2012-06-25T16:35:59Z</time>
   </trkpt>
   <trkpt lat="45.8753929138184" lon="7.17923164367676">
    <ele>2305.17138671875</ele>
    <time>2012-06-25T16:36:00Z</time>
   </trkpt>
   <trkpt lat="45.8753662109375" lon="7.17923450469971">
    <ele>2305.48583984375</ele>
    <time>2012-06-25T16:36:01Z</time>
   </trkpt>
   <trkpt lat="45.8753356933594" lon="7.17923927307129">
    <ele>2305.80004882812</ele>
    <time>2012-06-25T16:36:02Z</time>
   </trkpt>
   <trkpt lat="45.8752632141113" lon="7.17925930023193">
    <ele>2305.80004882812</ele>
    <time>2012-06-25T16:36:05Z</time>
   </trkpt>
   <trkpt lat="45.8752174377441" lon="7.17926597595215">
    <ele>2306.53344726562</ele>
    <time>2012-06-25T16:36:07Z</time>
   </trkpt>
   <trkpt lat="45.8751907348633" lon="7.17926692962646">
    <ele>2306.89990234375</ele>
    <time>2012-06-25T16:36:08Z</time>
   </trkpt>
   <trkpt lat="45.8751678466797" lon="7.17927265167236">
    <ele>2307.2666015625</ele>
    <time>2012-06-25T16:36:09Z</time>
   </trkpt>
   <trkpt lat="45.8751449584961" lon="7.17927598953247">
    <ele>2307.63330078125</ele>
    <time>2012-06-25T16:36:10Z</time>
   </trkpt>
   <trkpt lat="45.8751258850098" lon="7.17927360534668">
    <ele>2308</ele>
    <time>2012-06-25T16:36:11Z</time>
   </trkpt>
   <trkpt lat="45.8751029968262" lon="7.17927169799805">
    <ele>2308</ele>
    <time>2012-06-25T16:36:12Z</time>
   </trkpt>
   <trkpt lat="45.8749847412109" lon="7.17920303344726">
    <ele>2309.583984375</ele>
    <time>2012-06-25T16:36:18Z</time>
   </trkpt>
   <trkpt lat="45.8749656677246" lon="7.17918729782104">
    <ele>2309.84814453125</ele>
    <time>2012-06-25T16:36:19Z</time>
   </trkpt>
   <trkpt lat="45.8749465942383" lon="7.17917680740356">
    <ele>2310.11206054688</ele>
    <time>2012-06-25T16:36:20Z</time>
   </trkpt>
   <trkpt lat="45.874927520752" lon="7.17916345596314">
    <ele>2310.3759765625</ele>
    <time>2012-06-25T16:36:21Z</time>
   </trkpt>
   <trkpt lat="45.8748664855957" lon="7.17912483215332">
    <ele>2311.16796875</ele>
    <time>2012-06-25T16:36:24Z</time>
   </trkpt>
   <trkpt lat="45.8748474121094" lon="7.17911100387573">
    <ele>2311.43212890625</ele>
    <time>2012-06-25T16:36:25Z</time>
   </trkpt>
   <trkpt lat="45.874828338623" lon="7.17910194396973">
    <ele>2311.69604492188</ele>
    <time>2012-06-25T16:36:26Z</time>
   </trkpt>
   <trkpt lat="45.8748054504394" lon="7.17909049987793">
    <ele>2311.9599609375</ele>
    <time>2012-06-25T16:36:27Z</time>
   </trkpt>
   <trkpt lat="45.8747863769531" lon="7.17908239364624">
    <ele>2312.22412109375</ele>
    <time>2012-06-25T16:36:28Z</time>
   </trkpt>
   <trkpt lat="45.8746719360352" lon="7.17906522750854">
    <ele>2313.54418945312</ele>
    <time>2012-06-25T16:36:33Z</time>
   </trkpt>
   <trkpt lat="45.8746452331543" lon="7.17907619476318">
    <ele>2313.80810546875</ele>
    <time>2012-06-25T16:36:34Z</time>
   </trkpt>
   <trkpt lat="45.8746223449707" lon="7.17908382415772">
    <ele>2314.07202148438</ele>
    <time>2012-06-25T16:36:35Z</time>
   </trkpt>
   <trkpt lat="45.8745994567871" lon="7.1790943145752">
    <ele>2314.33618164062</ele>
    <time>2012-06-25T16:36:36Z</time>
   </trkpt>
   <trkpt lat="45.8745803833008" lon="7.17911052703857">
    <ele>2314.60009765625</ele>
    <time>2012-06-25T16:36:37Z</time>
   </trkpt>
   <trkpt lat="45.8745079040527" lon="7.17916965484619">
    <ele>2314.60009765625</ele>
    <time>2012-06-25T16:36:40Z</time>
   </trkpt>
   <trkpt lat="45.8744850158691" lon="7.1791877746582">
    <ele>2315.15014648438</ele>
    <time>2012-06-25T16:36:41Z</time>
   </trkpt>
   <trkpt lat="45.8744621276856" lon="7.17920637130737">
    <ele>2315.7001953125</ele>
    <time>2012-06-25T16:36:42Z</time>
   </trkpt>
   <trkpt lat="45.874439239502" lon="7.17922401428223">
    <ele>2316.25</ele>
    <time>2012-06-25T16:36:43Z</time>
   </trkpt>
   <trkpt lat="45.8744163513184" lon="7.17923831939697">
    <ele>2316.80004882812</ele>
    <time>2012-06-25T16:36:44Z</time>
   </trkpt>
   <trkpt lat="45.8743934631348" lon="7.17925596237183">
    <ele>2316.80004882812</ele>
    <time>2012-06-25T16:36:45Z</time>
   </trkpt>
   <trkpt lat="45.8743705749512" lon="7.17926788330078">
    <ele>2317.19995117188</ele>
    <time>2012-06-25T16:36:46Z</time>
   </trkpt>
   <trkpt lat="45.8743438720703" lon="7.17927694320679">
    <ele>2317.60009765625</ele>
    <time>2012-06-25T16:36:47Z</time>
   </trkpt>
   <trkpt lat="45.874324798584" lon="7.17927742004394">
    <ele>2318</ele>
    <time>2012-06-25T16:36:48Z</time>
   </trkpt>
   <trkpt lat="45.8743019104004" lon="7.17927694320679">
    <ele>2318.40014648438</ele>
    <time>2012-06-25T16:36:49Z</time>
   </trkpt>
   <trkpt lat="45.8742828369141" lon="7.17927360534668">
    <ele>2318.80004882812</ele>
    <time>2012-06-25T16:36:50Z</time>
   </trkpt>
   <trkpt lat="45.874210357666" lon="7.17924737930298">
    <ele>2318.80004882812</ele>
    <time>2012-06-25T16:36:53Z</time>
   </trkpt>
   <trkpt lat="45.8740615844727" lon="7.17918109893799">
    <ele>2320.51123046875</ele>
    <time>2012-06-25T16:37:00Z</time>
   </trkpt>
   <trkpt lat="45.8740425109863" lon="7.17916631698608">
    <ele>2320.75561523438</ele>
    <time>2012-06-25T16:37:01Z</time>
   </trkpt>
   <trkpt lat="45.8740196228027" lon="7.17915105819702">
    <ele>2321</ele>
    <time>2012-06-25T16:37:02Z</time>
   </trkpt>
   <trkpt lat="45.8740005493164" lon="7.17913770675659">
    <ele>2321.24438476562</ele>
    <time>2012-06-25T16:37:03Z</time>
   </trkpt>
   <trkpt lat="45.8739776611328" lon="7.17912912368774">
    <ele>2321.48876953125</ele>
    <time>2012-06-25T16:37:04Z</time>
   </trkpt>
   <trkpt lat="45.873908996582" lon="7.17911434173584">
    <ele>2322.22216796875</ele>
    <time>2012-06-25T16:37:07Z</time>
   </trkpt>
   <trkpt lat="45.8738861083984" lon="7.17910385131836">
    <ele>2322.46655273438</ele>
    <time>2012-06-25T16:37:08Z</time>
   </trkpt>
   <trkpt lat="45.8738670349121" lon="7.17909240722656">
    <ele>2322.71118164062</ele>
    <time>2012-06-25T16:37:09Z</time>
   </trkpt>
   <trkpt lat="45.873851776123" lon="7.17908096313476">
    <ele>2322.95556640625</ele>
    <time>2012-06-25T16:37:10Z</time>
   </trkpt>
   <trkpt lat="45.8738288879394" lon="7.1790714263916">
    <ele>2323.19995117188</ele>
    <time>2012-06-25T16:37:11Z</time>
   </trkpt>
   <trkpt lat="45.8738098144531" lon="7.17906379699707">
    <ele>2323.19995117188</ele>
    <time>2012-06-25T16:37:12Z</time>
   </trkpt>
   <trkpt lat="45.8736763000488" lon="7.17904567718506">
    <ele>2324.52001953125</ele>
    <time>2012-06-25T16:37:18Z</time>
   </trkpt>
   <trkpt lat="45.8736534118652" lon="7.17904901504517">
    <ele>2324.73999023438</ele>
    <time>2012-06-25T16:37:19Z</time>
   </trkpt>
   <trkpt lat="45.8736267089844" lon="7.17905712127686">
    <ele>2324.9599609375</ele>
    <time>2012-06-25T16:37:20Z</time>
   </trkpt>
   <trkpt lat="45.8736038208008" lon="7.17905378341675">
    <ele>2325.17993164062</ele>
    <time>2012-06-25T16:37:21Z</time>
   </trkpt>
   <trkpt lat="45.8735771179199" lon="7.17905521392822">
    <ele>2325.39990234375</ele>
    <time>2012-06-25T16:37:22Z</time>
   </trkpt>
   <trkpt lat="45.8735313415527" lon="7.17906808853149">
    <ele>2325.39990234375</ele>
    <time>2012-06-25T16:37:24Z</time>
   </trkpt>
   <trkpt lat="45.8734588623047" lon="7.17908811569214">
    <ele>2326.24829101562</ele>
    <time>2012-06-25T16:37:27Z</time>
   </trkpt>
   <trkpt lat="45.8734359741211" lon="7.17910051345825">
    <ele>2326.53100585938</ele>
    <time>2012-06-25T16:37:28Z</time>
   </trkpt>
   <trkpt lat="45.8734130859375" lon="7.17910242080688">
    <ele>2326.81372070312</ele>
    <time>2012-06-25T16:37:29Z</time>
   </trkpt>
   <trkpt lat="45.8733940124512" lon="7.17910766601562">
    <ele>2327.09643554688</ele>
    <time>2012-06-25T16:37:30Z</time>
   </trkpt>
   <trkpt lat="45.8733711242676" lon="7.17911434173584">
    <ele>2327.37915039062</ele>
    <time>2012-06-25T16:37:31Z</time>
   </trkpt>
   <trkpt lat="45.8732833862305" lon="7.17912435531616">
    <ele>2328.51025390625</ele>
    <time>2012-06-25T16:37:35Z</time>
   </trkpt>
   <trkpt lat="45.8732604980469" lon="7.17912530899048">
    <ele>2328.79296875</ele>
    <time>2012-06-25T16:37:36Z</time>
   </trkpt>
   <trkpt lat="45.8732376098633" lon="7.17913150787354">
    <ele>2329.07592773438</ele>
    <time>2012-06-25T16:37:37Z</time>
   </trkpt>
   <trkpt lat="45.873218536377" lon="7.17913389205933">
    <ele>2329.35864257812</ele>
    <time>2012-06-25T16:37:38Z</time>
   </trkpt>
   <trkpt lat="45.8731956481934" lon="7.17913484573364">
    <ele>2329.64135742188</ele>
    <time>2012-06-25T16:37:39Z</time>
   </trkpt>
   <trkpt lat="45.8731536865234" lon="7.17913055419922">
    <ele>2330.20703125</ele>
    <time>2012-06-25T16:37:41Z</time>
   </trkpt>
   <trkpt lat="45.8731346130371" lon="7.17912340164185">
    <ele>2330.48974609375</ele>
    <time>2012-06-25T16:37:42Z</time>
   </trkpt>
   <trkpt lat="45.8731117248535" lon="7.17912435531616">
    <ele>2330.7724609375</ele>
    <time>2012-06-25T16:37:43Z</time>
   </trkpt>
   <trkpt lat="45.8730926513672" lon="7.1791181564331">
    <ele>2331.05517578125</ele>
    <time>2012-06-25T16:37:44Z</time>
   </trkpt>
   <trkpt lat="45.8730659484863" lon="7.17911243438721">
    <ele>2331.337890625</ele>
    <time>2012-06-25T16:37:45Z</time>
   </trkpt>
   <trkpt lat="45.8729820251465" lon="7.17910671234131">
    <ele>2332.46899414062</ele>
    <time>2012-06-25T16:37:49Z</time>
   </trkpt>
   <trkpt lat="45.8729591369629" lon="7.17910146713257">
    <ele>2332.75170898438</ele>
    <time>2012-06-25T16:37:50Z</time>
   </trkpt>
   <trkpt lat="45.8729400634766" lon="7.1790919303894">
    <ele>2333.03466796875</ele>
    <time>2012-06-25T16:37:51Z</time>
   </trkpt>
   <trkpt lat="45.8729209899902" lon="7.1790771484375">
    <ele>2333.3173828125</ele>
    <time>2012-06-25T16:37:52Z</time>
   </trkpt>
   <trkpt lat="45.8729019165039" lon="7.17906379699707">
    <ele>2333.60009765625</ele>
    <time>2012-06-25T16:37:53Z</time>
   </trkpt>
   <trkpt lat="45.8728408813477" lon="7.17902755737305">
    <ele>2333.60009765625</ele>
    <time>2012-06-25T16:37:56Z</time>
   </trkpt>
   <trkpt lat="45.8728218078613" lon="7.17902135848999">
    <ele>2334.080078125</ele>
    <time>2012-06-25T16:37:57Z</time>
   </trkpt>
   <trkpt lat="45.872802734375" lon="7.17901468276978">
    <ele>2334.56005859375</ele>
    <time>2012-06-25T16:37:58Z</time>
   </trkpt>
   <trkpt lat="45.8727836608887" lon="7.17901277542114">
    <ele>2335.0400390625</ele>
    <time>2012-06-25T16:37:59Z</time>
   </trkpt>
   <trkpt lat="45.8727607727051" lon="7.17901372909546">
    <ele>2335.52001953125</ele>
    <time>2012-06-25T16:38:00Z</time>
   </trkpt>
   <trkpt lat="45.8727378845215" lon="7.17901611328125">
    <ele>2336</ele>
    <time>2012-06-25T16:38:01Z</time>
   </trkpt>
   <trkpt lat="45.8727149963379" lon="7.17901420593262">
    <ele>2336</ele>
    <time>2012-06-25T16:38:02Z</time>
   </trkpt>
   <trkpt lat="45.8725891113281" lon="7.17907238006592">
    <ele>2337.19995117188</ele>
    <time>2012-06-25T16:38:08Z</time>
   </trkpt>
   <trkpt lat="45.8725624084473" lon="7.17908573150635">
    <ele>2337.39990234375</ele>
    <time>2012-06-25T16:38:09Z</time>
   </trkpt>
   <trkpt lat="45.8725395202637" lon="7.17909812927246">
    <ele>2337.60009765625</ele>
    <time>2012-06-25T16:38:10Z</time>
   </trkpt>
   <trkpt lat="45.8725204467773" lon="7.17911100387573">
    <ele>2337.80004882812</ele>
    <time>2012-06-25T16:38:11Z</time>
   </trkpt>
   <trkpt lat="45.8725051879883" lon="7.17913198471069">
    <ele>2338</ele>
    <time>2012-06-25T16:38:12Z</time>
   </trkpt>
   <trkpt lat="45.8724670410156" lon="7.17916536331177">
    <ele>2338</ele>
    <time>2012-06-25T16:38:14Z</time>
   </trkpt>
   <trkpt lat="45.8723831176758" lon="7.17924404144287">
    <ele>2339.8798828125</ele>
    <time>2012-06-25T16:38:19Z</time>
   </trkpt>
   <trkpt lat="45.8723678588867" lon="7.17926502227783">
    <ele>2340.255859375</ele>
    <time>2012-06-25T16:38:20Z</time>
   </trkpt>
   <trkpt lat="45.8723487854004" lon="7.17928314208984">
    <ele>2340.63208007812</ele>
    <time>2012-06-25T16:38:21Z</time>
   </trkpt>
   <trkpt lat="45.8723335266113" lon="7.17929744720459">
    <ele>2341.00805664062</ele>
    <time>2012-06-25T16:38:22Z</time>
   </trkpt>
   <trkpt lat="45.8722648620606" lon="7.17937326431274">
    <ele>2342.51196289062</ele>
    <time>2012-06-25T16:38:26Z</time>
   </trkpt>
   <trkpt lat="45.8722457885742" lon="7.17939519882202">
    <ele>2342.88793945312</ele>
    <time>2012-06-25T16:38:27Z</time>
   </trkpt>
   <trkpt lat="45.8722305297852" lon="7.17941427230835">
    <ele>2343.26391601562</ele>
    <time>2012-06-25T16:38:28Z</time>
   </trkpt>
   <trkpt lat="45.8722152709961" lon="7.1794319152832">
    <ele>2343.63989257812</ele>
    <time>2012-06-25T16:38:29Z</time>
   </trkpt>
   <trkpt lat="45.872200012207" lon="7.17944812774658">
    <ele>2344.01586914062</ele>
    <time>2012-06-25T16:38:30Z</time>
   </trkpt>
   <trkpt lat="45.8721580505371" lon="7.17947578430176">
    <ele>2344.76782226562</ele>
    <time>2012-06-25T16:38:32Z</time>
   </trkpt>
   <trkpt lat="45.8721389770508" lon="7.17948913574219">
    <ele>2345.14404296875</ele>
    <time>2012-06-25T16:38:33Z</time>
   </trkpt>
   <trkpt lat="45.8721199035644" lon="7.17950105667114">
    <ele>2345.52001953125</ele>
    <time>2012-06-25T16:38:34Z</time>
   </trkpt>
   <trkpt lat="45.8720970153809" lon="7.17951154708862">
    <ele>2345.89599609375</ele>
    <time>2012-06-25T16:38:35Z</time>
   </trkpt>
   <trkpt lat="45.8720741271973" lon="7.17951726913452">
    <ele>2346.27197265625</ele>
    <time>2012-06-25T16:38:36Z</time>
   </trkpt>
   <trkpt lat="45.8720512390137" lon="7.1795129776001">
    <ele>2346.64794921875</ele>
    <time>2012-06-25T16:38:37Z</time>
   </trkpt>
   <trkpt lat="45.8720283508301" lon="7.17950868606567">
    <ele>2347.02392578125</ele>
    <time>2012-06-25T16:38:38Z</time>
   </trkpt>
   <trkpt lat="45.8720092773438" lon="7.17950296401978">
    <ele>2347.39990234375</ele>
    <time>2012-06-25T16:38:39Z</time>
   </trkpt>
   <trkpt lat="45.8719902038574" lon="7.17949390411377">
    <ele>2347.39990234375</ele>
    <time>2012-06-25T16:38:40Z</time>
   </trkpt>
   <trkpt lat="45.8718681335449" lon="7.17937421798706">
    <ele>2348.80004882812</ele>
    <time>2012-06-25T16:38:47Z</time>
   </trkpt>
   <trkpt lat="45.8718490600586" lon="7.17935562133789">
    <ele>2349</ele>
    <time>2012-06-25T16:38:48Z</time>
   </trkpt>
   <trkpt lat="45.8718299865723" lon="7.17934036254883">
    <ele>2349.19995117188</ele>
    <time>2012-06-25T16:38:49Z</time>
   </trkpt>
   <trkpt lat="45.8718109130859" lon="7.17932033538818">
    <ele>2349.39990234375</ele>
    <time>2012-06-25T16:38:50Z</time>
   </trkpt>
   <trkpt lat="45.8717918395996" lon="7.17930030822754">
    <ele>2349.60009765625</ele>
    <time>2012-06-25T16:38:51Z</time>
   </trkpt>
   <trkpt lat="45.8717727661133" lon="7.17927932739258">
    <ele>2349.80004882812</ele>
    <time>2012-06-25T16:38:52Z</time>
   </trkpt>
   <trkpt lat="45.8717422485352" lon="7.17923879623413">
    <ele>2349.80004882812</ele>
    <time>2012-06-25T16:38:54Z</time>
   </trkpt>
   <trkpt lat="45.871639251709" lon="7.17912817001343">
    <ele>2351.1201171875</ele>
    <time>2012-06-25T16:39:00Z</time>
   </trkpt>
   <trkpt lat="45.8716201782227" lon="7.17911052703857">
    <ele>2351.34008789062</ele>
    <time>2012-06-25T16:39:01Z</time>
   </trkpt>
   <trkpt lat="45.8716049194336" lon="7.17909479141235">
    <ele>2351.56005859375</ele>
    <time>2012-06-25T16:39:02Z</time>
   </trkpt>
   <trkpt lat="45.8715896606445" lon="7.17907238006592">
    <ele>2351.78002929688</ele>
    <time>2012-06-25T16:39:03Z</time>
   </trkpt>
   <trkpt lat="45.8715744018555" lon="7.17905473709106">
    <ele>2352</ele>
    <time>2012-06-25T16:39:04Z</time>
   </trkpt>
   <trkpt lat="45.8715057373047" lon="7.17896032333374">
    <ele>2352</ele>
    <time>2012-06-25T16:39:08Z</time>
   </trkpt>
   <trkpt lat="45.8714714050293" lon="7.17892265319824">
    <ele>2352.8798828125</ele>
    <time>2012-06-25T16:39:10Z</time>
   </trkpt>
   <trkpt lat="45.8714561462402" lon="7.17890214920044">
    <ele>2353.32006835938</ele>
    <time>2012-06-25T16:39:11Z</time>
   </trkpt>
   <trkpt lat="45.8714332580566" lon="7.1788821220398">
    <ele>2353.76000976562</ele>
    <time>2012-06-25T16:39:12Z</time>
   </trkpt>
   <trkpt lat="45.8714179992676" lon="7.17886114120483">
    <ele>2354.19995117188</ele>
    <time>2012-06-25T16:39:13Z</time>
   </trkpt>
   <trkpt lat="45.8714065551758" lon="7.17884206771851">
    <ele>2354.19995117188</ele>
    <time>2012-06-25T16:39:14Z</time>
   </trkpt>
   <trkpt lat="45.8713836669922" lon="7.17878723144531">
    <ele>2354.76000976562</ele>
    <time>2012-06-25T16:39:16Z</time>
   </trkpt>
   <trkpt lat="45.8713722229004" lon="7.17875623703003">
    <ele>2355.0400390625</ele>
    <time>2012-06-25T16:39:17Z</time>
   </trkpt>
   <trkpt lat="45.8713531494141" lon="7.17872428894043">
    <ele>2355.31982421875</ele>
    <time>2012-06-25T16:39:18Z</time>
   </trkpt>
   <trkpt lat="45.8713340759277" lon="7.17870569229126">
    <ele>2355.59985351562</ele>
    <time>2012-06-25T16:39:19Z</time>
   </trkpt>
   <trkpt lat="45.8713150024414" lon="7.17868947982788">
    <ele>2355.8798828125</ele>
    <time>2012-06-25T16:39:20Z</time>
   </trkpt>
   <trkpt lat="45.8712425231934" lon="7.17852354049683">
    <ele>2357.28002929688</ele>
    <time>2012-06-25T16:39:25Z</time>
   </trkpt>
   <trkpt lat="45.8712272644043" lon="7.1784930229187">
    <ele>2357.55981445312</ele>
    <time>2012-06-25T16:39:26Z</time>
   </trkpt>
   <trkpt lat="45.8712120056152" lon="7.17847728729248">
    <ele>2357.83984375</ele>
    <time>2012-06-25T16:39:27Z</time>
   </trkpt>
   <trkpt lat="45.8712005615234" lon="7.17845439910889">
    <ele>2358.11987304688</ele>
    <time>2012-06-25T16:39:28Z</time>
   </trkpt>
   <trkpt lat="45.8711814880371" lon="7.17843961715698">
    <ele>2358.39990234375</ele>
    <time>2012-06-25T16:39:29Z</time>
   </trkpt>
   <trkpt lat="45.871166229248" lon="7.17841577529907">
    <ele>2358.39990234375</ele>
    <time>2012-06-25T16:39:30Z</time>
   </trkpt>
   <trkpt lat="45.8711166381836" lon="7.17835521697998">
    <ele>2359.46142578125</ele>
    <time>2012-06-25T16:39:33Z</time>
   </trkpt>
   <trkpt lat="45.8710975646973" lon="7.17833566665649">
    <ele>2359.8154296875</ele>
    <time>2012-06-25T16:39:34Z</time>
   </trkpt>
   <trkpt lat="45.8710784912109" lon="7.17831611633301">
    <ele>2360.16918945312</ele>
    <time>2012-06-25T16:39:35Z</time>
   </trkpt>
   <trkpt lat="45.8710632324219" lon="7.17830085754394">
    <ele>2360.52294921875</ele>
    <time>2012-06-25T16:39:36Z</time>
   </trkpt>
   <trkpt lat="45.871021270752" lon="7.17824172973633">
    <ele>2361.58447265625</ele>
    <time>2012-06-25T16:39:39Z</time>
   </trkpt>
   <trkpt lat="45.8710098266602" lon="7.17821788787842">
    <ele>2361.9384765625</ele>
    <time>2012-06-25T16:39:40Z</time>
   </trkpt>
   <trkpt lat="45.8709945678711" lon="7.17819929122925">
    <ele>2362.29223632812</ele>
    <time>2012-06-25T16:39:41Z</time>
   </trkpt>
   <trkpt lat="45.8709831237793" lon="7.17818069458008">
    <ele>2362.64624023438</ele>
    <time>2012-06-25T16:39:42Z</time>
   </trkpt>
   <trkpt lat="45.8709678649902" lon="7.1781530380249">
    <ele>2363</ele>
    <time>2012-06-25T16:39:43Z</time>
   </trkpt>
   <trkpt lat="45.8708648681641" lon="7.17800235748291">
    <ele>2363</ele>
    <time>2012-06-25T16:39:49Z</time>
   </trkpt>
   <trkpt lat="45.8708381652832" lon="7.17795610427856">
    <ele>2363.7333984375</ele>
    <time>2012-06-25T16:39:51Z</time>
   </trkpt>
   <trkpt lat="45.8708229064941" lon="7.17793321609497">
    <ele>2364.10009765625</ele>
    <time>2012-06-25T16:39:52Z</time>
   </trkpt>
   <trkpt lat="45.8708076477051" lon="7.17791318893433">
    <ele>2364.46655273438</ele>
    <time>2012-06-25T16:39:53Z</time>
   </trkpt>
   <trkpt lat="45.870792388916" lon="7.17789316177368">
    <ele>2364.83325195312</ele>
    <time>2012-06-25T16:39:54Z</time>
   </trkpt>
   <trkpt lat="45.870777130127" lon="7.17786693572998">
    <ele>2365.19995117188</ele>
    <time>2012-06-25T16:39:55Z</time>
   </trkpt>
   <trkpt lat="45.8707427978516" lon="7.17782020568848">
    <ele>2365.19995117188</ele>
    <time>2012-06-25T16:39:57Z</time>
   </trkpt>
   <trkpt lat="45.8706932067871" lon="7.1777458190918">
    <ele>2366.09985351562</ele>
    <time>2012-06-25T16:40:00Z</time>
   </trkpt>
   <trkpt lat="45.870677947998" lon="7.17772245407104">
    <ele>2366.39990234375</ele>
    <time>2012-06-25T16:40:01Z</time>
   </trkpt>
   <trkpt lat="45.870662689209" lon="7.17770004272461">
    <ele>2366.69995117188</ele>
    <time>2012-06-25T16:40:02Z</time>
   </trkpt>
   <trkpt lat="45.8706512451172" lon="7.17767906188965">
    <ele>2367</ele>
    <time>2012-06-25T16:40:03Z</time>
   </trkpt>
   <trkpt lat="45.8706359863281" lon="7.17765426635742">
    <ele>2367.2998046875</ele>
    <time>2012-06-25T16:40:04Z</time>
   </trkpt>
   <trkpt lat="45.8705863952637" lon="7.17759466171265">
    <ele>2368.19995117188</ele>
    <time>2012-06-25T16:40:07Z</time>
   </trkpt>
   <trkpt lat="45.8705711364746" lon="7.17757368087768">
    <ele>2368.5</ele>
    <time>2012-06-25T16:40:08Z</time>
   </trkpt>
   <trkpt lat="45.8705558776856" lon="7.17755222320557">
    <ele>2368.7998046875</ele>
    <time>2012-06-25T16:40:09Z</time>
   </trkpt>
   <trkpt lat="45.8705406188965" lon="7.17752981185913">
    <ele>2369.09985351562</ele>
    <time>2012-06-25T16:40:10Z</time>
   </trkpt>
   <trkpt lat="45.8705291748047" lon="7.1775107383728">
    <ele>2369.39990234375</ele>
    <time>2012-06-25T16:40:11Z</time>
   </trkpt>
   <trkpt lat="45.8704605102539" lon="7.17735147476196">
    <ele>2369.39990234375</ele>
    <time>2012-06-25T16:40:17Z</time>
   </trkpt>
   <trkpt lat="45.8704490661621" lon="7.17732334136963">
    <ele>2369.83984375</ele>
    <time>2012-06-25T16:40:18Z</time>
   </trkpt>
   <trkpt lat="45.870433807373" lon="7.17728900909424">
    <ele>2370.28002929688</ele>
    <time>2012-06-25T16:40:19Z</time>
   </trkpt>
   <trkpt lat="45.870418548584" lon="7.17726278305054">
    <ele>2370.71997070312</ele>
    <time>2012-06-25T16:40:20Z</time>
   </trkpt>
   <trkpt lat="45.8704032897949" lon="7.17723417282104">
    <ele>2371.16015625</ele>
    <time>2012-06-25T16:40:21Z</time>
   </trkpt>
   <trkpt lat="45.8703880310059" lon="7.17720556259155">
    <ele>2371.60009765625</ele>
    <time>2012-06-25T16:40:22Z</time>
   </trkpt>
   <trkpt lat="45.8703536987305" lon="7.17711591720581">
    <ele>2371.60009765625</ele>
    <time>2012-06-25T16:40:25Z</time>
   </trkpt>
   <trkpt lat="45.8703536987305" lon="7.17703008651733">
    <ele>2372.54296875</ele>
    <time>2012-06-25T16:40:28Z</time>
   </trkpt>
   <trkpt lat="45.8703765869141" lon="7.17702341079712">
    <ele>2372.85717773438</ele>
    <time>2012-06-25T16:40:29Z</time>
   </trkpt>
   <trkpt lat="45.8704032897949" lon="7.17702865600586">
    <ele>2373.17138671875</ele>
    <time>2012-06-25T16:40:30Z</time>
   </trkpt>
   <trkpt lat="45.8704223632812" lon="7.17705631256104">
    <ele>2373.48583984375</ele>
    <time>2012-06-25T16:40:31Z</time>
   </trkpt>
   <trkpt lat="45.8704414367676" lon="7.17708587646484">
    <ele>2373.80004882812</ele>
    <time>2012-06-25T16:40:32Z</time>
   </trkpt>
   <trkpt lat="45.870532989502" lon="7.17727947235107">
    <ele>2373.80004882812</ele>
    <time>2012-06-25T16:40:38Z</time>
   </trkpt>
   <trkpt lat="45.8706703186035" lon="7.17745494842529">
    <ele>2375.2119140625</ele>
    <time>2012-06-25T16:40:44Z</time>
   </trkpt>
   <trkpt lat="45.8706932067871" lon="7.17748594284058">
    <ele>2375.44702148438</ele>
    <time>2012-06-25T16:40:45Z</time>
   </trkpt>
   <trkpt lat="45.8707160949707" lon="7.17751407623291">
    <ele>2375.68237304688</ele>
    <time>2012-06-25T16:40:46Z</time>
   </trkpt>
   <trkpt lat="45.8707427978516" lon="7.17754507064819">
    <ele>2375.91772460938</ele>
    <time>2012-06-25T16:40:47Z</time>
   </trkpt>
   <trkpt lat="45.8707618713379" lon="7.17757511138916">
    <ele>2376.15307617188</ele>
    <time>2012-06-25T16:40:48Z</time>
   </trkpt>
   <trkpt lat="45.8708229064941" lon="7.17765474319458">
    <ele>2376.85888671875</ele>
    <time>2012-06-25T16:40:51Z</time>
   </trkpt>
   <trkpt lat="45.8708457946777" lon="7.17767572402954">
    <ele>2377.09423828125</ele>
    <time>2012-06-25T16:40:52Z</time>
   </trkpt>
   <trkpt lat="45.8708724975586" lon="7.1776967048645">
    <ele>2377.32934570312</ele>
    <time>2012-06-25T16:40:53Z</time>
   </trkpt>
   <trkpt lat="45.8708953857422" lon="7.17771863937378">
    <ele>2377.56469726562</ele>
    <time>2012-06-25T16:40:54Z</time>
   </trkpt>
   <trkpt lat="45.870922088623" lon="7.17773628234863">
    <ele>2377.80004882812</ele>
    <time>2012-06-25T16:40:55Z</time>
   </trkpt>
   <trkpt lat="45.8710479736328" lon="7.17783164978027">
    <ele>2377.80004882812</ele>
    <time>2012-06-25T16:41:00Z</time>
   </trkpt>
   <trkpt lat="45.8711433410644" lon="7.1778974533081">
    <ele>2378.89990234375</ele>
    <time>2012-06-25T16:41:04Z</time>
   </trkpt>
   <trkpt lat="45.871166229248" lon="7.17792177200317">
    <ele>2379.17504882812</ele>
    <time>2012-06-25T16:41:05Z</time>
   </trkpt>
   <trkpt lat="45.8711891174316" lon="7.17794418334961">
    <ele>2379.44995117188</ele>
    <time>2012-06-25T16:41:06Z</time>
   </trkpt>
   <trkpt lat="45.8712120056152" lon="7.17796468734741">
    <ele>2379.72509765625</ele>
    <time>2012-06-25T16:41:07Z</time>
   </trkpt>
   <trkpt lat="45.8712310791016" lon="7.17798662185669">
    <ele>2380</ele>
    <time>2012-06-25T16:41:08Z</time>
   </trkpt>
   <trkpt lat="45.8713417053223" lon="7.17810964584351">
    <ele>2380</ele>
    <time>2012-06-25T16:41:13Z</time>
   </trkpt>
   <trkpt lat="45.8713874816894" lon="7.17817115783691">
    <ele>2380.7333984375</ele>
    <time>2012-06-25T16:41:15Z</time>
   </trkpt>
   <trkpt lat="45.8714065551758" lon="7.17820262908936">
    <ele>2381.10009765625</ele>
    <time>2012-06-25T16:41:16Z</time>
   </trkpt>
   <trkpt lat="45.8714294433594" lon="7.17822885513306">
    <ele>2381.46655273438</ele>
    <time>2012-06-25T16:41:17Z</time>
   </trkpt>
   <trkpt lat="45.871452331543" lon="7.17825651168823">
    <ele>2381.83325195312</ele>
    <time>2012-06-25T16:41:18Z</time>
   </trkpt>
   <trkpt lat="45.8714714050293" lon="7.17828369140625">
    <ele>2382.19995117188</ele>
    <time>2012-06-25T16:41:19Z</time>
   </trkpt>
   <trkpt lat="45.8715438842773" lon="7.17835569381714">
    <ele>2382.19995117188</ele>
    <time>2012-06-25T16:41:22Z</time>
   </trkpt>
   <trkpt lat="45.8715972900391" lon="7.17839336395264">
    <ele>2382.93334960938</ele>
    <time>2012-06-25T16:41:24Z</time>
   </trkpt>
   <trkpt lat="45.8716239929199" lon="7.1784086227417">
    <ele>2383.2998046875</ele>
    <time>2012-06-25T16:41:25Z</time>
   </trkpt>
   <trkpt lat="45.871654510498" lon="7.1784200668335">
    <ele>2383.66650390625</ele>
    <time>2012-06-25T16:41:26Z</time>
   </trkpt>
   <trkpt lat="45.8716850280762" lon="7.1784200668335">
    <ele>2384.033203125</ele>
    <time>2012-06-25T16:41:27Z</time>
   </trkpt>
   <trkpt lat="45.8717193603516" lon="7.17841529846191">
    <ele>2384.39990234375</ele>
    <time>2012-06-25T16:41:28Z</time>
   </trkpt>
   <trkpt lat="45.8718032836914" lon="7.17831325531006">
    <ele>2384.39990234375</ele>
    <time>2012-06-25T16:41:32Z</time>
   </trkpt>
   <trkpt lat="45.8718109130859" lon="7.17827320098877">
    <ele>2384.83984375</ele>
    <time>2012-06-25T16:41:33Z</time>
   </trkpt>
   <trkpt lat="45.8718109130859" lon="7.17823314666748">
    <ele>2385.28002929688</ele>
    <time>2012-06-25T16:41:34Z</time>
   </trkpt>
   <trkpt lat="45.8718070983887" lon="7.17819213867188">
    <ele>2385.71997070312</ele>
    <time>2012-06-25T16:41:35Z</time>
   </trkpt>
   <trkpt lat="45.8717994689941" lon="7.1781497001648">
    <ele>2386.16015625</ele>
    <time>2012-06-25T16:41:36Z</time>
   </trkpt>
   <trkpt lat="45.8717880249023" lon="7.17811250686646">
    <ele>2386.60009765625</ele>
    <time>2012-06-25T16:41:37Z</time>
   </trkpt>
   <trkpt lat="45.8717079162598" lon="7.17799711227417">
    <ele>2386.60009765625</ele>
    <time>2012-06-25T16:41:41Z</time>
   </trkpt>
   <trkpt lat="45.8716659545898" lon="7.17794609069824">
    <ele>2387.33349609375</ele>
    <time>2012-06-25T16:41:43Z</time>
   </trkpt>
   <trkpt lat="45.871639251709" lon="7.17792844772339">
    <ele>2387.7001953125</ele>
    <time>2012-06-25T16:41:44Z</time>
   </trkpt>
   <trkpt lat="45.8716163635254" lon="7.17791032791138">
    <ele>2388.06665039062</ele>
    <time>2012-06-25T16:41:45Z</time>
   </trkpt>
   <trkpt lat="45.8715934753418" lon="7.177894115448">
    <ele>2388.43334960938</ele>
    <time>2012-06-25T16:41:46Z</time>
   </trkpt>
   <trkpt lat="45.8715744018555" lon="7.17788124084473">
    <ele>2388.80004882812</ele>
    <time>2012-06-25T16:41:47Z</time>
   </trkpt>
   <trkpt lat="45.8715553283691" lon="7.17785787582398">
    <ele>2388.80004882812</ele>
    <time>2012-06-25T16:41:48Z</time>
   </trkpt>
   <trkpt lat="45.871467590332" lon="7.17778301239014">
    <ele>2389.86669921875</ele>
    <time>2012-06-25T16:41:52Z</time>
   </trkpt>
   <trkpt lat="45.8714485168457" lon="7.17776584625244">
    <ele>2390.13330078125</ele>
    <time>2012-06-25T16:41:53Z</time>
   </trkpt>
   <trkpt lat="45.8714294433594" lon="7.17775011062622">
    <ele>2390.39990234375</ele>
    <time>2012-06-25T16:41:54Z</time>
   </trkpt>
   <trkpt lat="45.8714065551758" lon="7.177734375">
    <ele>2390.66674804688</ele>
    <time>2012-06-25T16:41:55Z</time>
   </trkpt>
   <trkpt lat="45.8713836669922" lon="7.17772102355957">
    <ele>2390.93334960938</ele>
    <time>2012-06-25T16:41:56Z</time>
   </trkpt>
   <trkpt lat="45.8713073730469" lon="7.17765808105469">
    <ele>2392</ele>
    <time>2012-06-25T16:42:00Z</time>
   </trkpt>
   <trkpt lat="45.8712882995606" lon="7.17764711380005">
    <ele>2392.2666015625</ele>
    <time>2012-06-25T16:42:01Z</time>
   </trkpt>
   <trkpt lat="45.8712692260742" lon="7.1776328086853">
    <ele>2392.533203125</ele>
    <time>2012-06-25T16:42:02Z</time>
   </trkpt>
   <trkpt lat="45.8712501525879" lon="7.17761611938476">
    <ele>2392.80004882812</ele>
    <time>2012-06-25T16:42:03Z</time>
   </trkpt>
   <trkpt lat="45.8711547851562" lon="7.1775369644165">
    <ele>2394.13330078125</ele>
    <time>2012-06-25T16:42:08Z</time>
   </trkpt>
   <trkpt lat="45.8711357116699" lon="7.17751598358154">
    <ele>2394.39990234375</ele>
    <time>2012-06-25T16:42:09Z</time>
   </trkpt>
   <trkpt lat="45.8711204528809" lon="7.17749214172363">
    <ele>2394.66650390625</ele>
    <time>2012-06-25T16:42:10Z</time>
   </trkpt>
   <trkpt lat="45.8711051940918" lon="7.17747020721436">
    <ele>2394.93334960938</ele>
    <time>2012-06-25T16:42:11Z</time>
   </trkpt>
   <trkpt lat="45.8710899353027" lon="7.17744493484497">
    <ele>2395.19995117188</ele>
    <time>2012-06-25T16:42:12Z</time>
   </trkpt>
   <trkpt lat="45.871021270752" lon="7.17734432220459">
    <ele>2395.19995117188</ele>
    <time>2012-06-25T16:42:16Z</time>
   </trkpt>
   <trkpt lat="45.8710098266602" lon="7.17731618881226">
    <ele>2395.59985351562</ele>
    <time>2012-06-25T16:42:17Z</time>
   </trkpt>
   <trkpt lat="45.8709945678711" lon="7.1772928237915">
    <ele>2396</ele>
    <time>2012-06-25T16:42:18Z</time>
   </trkpt>
   <trkpt lat="45.8709754943848" lon="7.17726945877075">
    <ele>2396.39990234375</ele>
    <time>2012-06-25T16:42:19Z</time>
   </trkpt>
   <trkpt lat="45.8709602355957" lon="7.17724752426148">
    <ele>2396.80004882812</ele>
    <time>2012-06-25T16:42:20Z</time>
   </trkpt>
   <trkpt lat="45.8709449768066" lon="7.17722511291504">
    <ele>2397.19995117188</ele>
    <time>2012-06-25T16:42:21Z</time>
   </trkpt>
   <trkpt lat="45.8708992004394" lon="7.1771502494812">
    <ele>2397.19995117188</ele>
    <time>2012-06-25T16:42:24Z</time>
   </trkpt>
   <trkpt lat="45.8708610534668" lon="7.17707204818726">
    <ele>2398.2998046875</ele>
    <time>2012-06-25T16:42:27Z</time>
   </trkpt>
   <trkpt lat="45.8708457946777" lon="7.1770429611206">
    <ele>2398.66650390625</ele>
    <time>2012-06-25T16:42:28Z</time>
   </trkpt>
   <trkpt lat="45.8708343505859" lon="7.17701578140259">
    <ele>2399.033203125</ele>
    <time>2012-06-25T16:42:29Z</time>
   </trkpt>
   <trkpt lat="45.8708267211914" lon="7.1769871711731">
    <ele>2399.39990234375</ele>
    <time>2012-06-25T16:42:30Z</time>
   </trkpt>
   <trkpt lat="45.8708152770996" lon="7.17693138122559">
    <ele>2399.39990234375</ele>
    <time>2012-06-25T16:42:32Z</time>
   </trkpt>
   <trkpt lat="45.870792388916" lon="7.17684412002564">
    <ele>2400.23999023438</ele>
    <time>2012-06-25T16:42:35Z</time>
   </trkpt>
   <trkpt lat="45.8707885742188" lon="7.17681169509888">
    <ele>2400.52001953125</ele>
    <time>2012-06-25T16:42:36Z</time>
   </trkpt>
   <trkpt lat="45.8707809448242" lon="7.17678165435791">
    <ele>2400.80004882812</ele>
    <time>2012-06-25T16:42:37Z</time>
   </trkpt>
   <trkpt lat="45.8707809448242" lon="7.17674970626831">
    <ele>2401.080078125</ele>
    <time>2012-06-25T16:42:38Z</time>
   </trkpt>
   <trkpt lat="45.8707733154297" lon="7.1767201423645">
    <ele>2401.36010742188</ele>
    <time>2012-06-25T16:42:39Z</time>
   </trkpt>
   <trkpt lat="45.8707504272461" lon="7.1765947341919">
    <ele>2402.47998046875</ele>
    <time>2012-06-25T16:42:43Z</time>
   </trkpt>
   <trkpt lat="45.8707427978516" lon="7.17656183242798">
    <ele>2402.76000976562</ele>
    <time>2012-06-25T16:42:44Z</time>
   </trkpt>
   <trkpt lat="45.8707389831543" lon="7.17653512954712">
    <ele>2403.0400390625</ele>
    <time>2012-06-25T16:42:45Z</time>
   </trkpt>
   <trkpt lat="45.8707313537598" lon="7.17650413513184">
    <ele>2403.32006835938</ele>
    <time>2012-06-25T16:42:46Z</time>
   </trkpt>
   <trkpt lat="45.8707275390625" lon="7.17648124694824">
    <ele>2403.60009765625</ele>
    <time>2012-06-25T16:42:47Z</time>
   </trkpt>
   <trkpt lat="45.8706970214844" lon="7.17641115188599">
    <ele>2403.60009765625</ele>
    <time>2012-06-25T16:42:49Z</time>
   </trkpt>
   <trkpt lat="45.8706588745117" lon="7.17632389068604">
    <ele>2404.80004882812</ele>
    <time>2012-06-25T16:42:53Z</time>
   </trkpt>
   <trkpt lat="45.8706398010254" lon="7.17629718780518">
    <ele>2405.10009765625</ele>
    <time>2012-06-25T16:42:54Z</time>
   </trkpt>
   <trkpt lat="45.8706283569336" lon="7.17627763748169">
    <ele>2405.40014648438</ele>
    <time>2012-06-25T16:42:55Z</time>
   </trkpt>
   <trkpt lat="45.8706092834473" lon="7.17624759674072">
    <ele>2405.7001953125</ele>
    <time>2012-06-25T16:42:56Z</time>
   </trkpt>
   <trkpt lat="45.8705749511719" lon="7.17617416381836">
    <ele>2406.60009765625</ele>
    <time>2012-06-25T16:42:59Z</time>
   </trkpt>
   <trkpt lat="45.8705596923828" lon="7.17614555358887">
    <ele>2406.90014648438</ele>
    <time>2012-06-25T16:43:00Z</time>
   </trkpt>
   <trkpt lat="45.8705406188965" lon="7.17611455917358">
    <ele>2407.19995117188</ele>
    <time>2012-06-25T16:43:01Z</time>
   </trkpt>
   <trkpt lat="45.8705253601074" lon="7.17609071731567">
    <ele>2407.5</ele>
    <time>2012-06-25T16:43:02Z</time>
   </trkpt>
   <trkpt lat="45.8705062866211" lon="7.17606449127197">
    <ele>2407.80004882812</ele>
    <time>2012-06-25T16:43:03Z</time>
   </trkpt>
   <trkpt lat="45.8704643249512" lon="7.17602729797363">
    <ele>2407.80004882812</ele>
    <time>2012-06-25T16:43:05Z</time>
   </trkpt>
   <trkpt lat="45.8704490661621" lon="7.17600631713867">
    <ele>2408.19995117188</ele>
    <time>2012-06-25T16:43:06Z</time>
   </trkpt>
   <trkpt lat="45.8704299926758" lon="7.1759819984436">
    <ele>2408.60009765625</ele>
    <time>2012-06-25T16:43:07Z</time>
   </trkpt>
   <trkpt lat="45.8704109191894" lon="7.17595958709717">
    <ele>2409</ele>
    <time>2012-06-25T16:43:08Z</time>
   </trkpt>
   <trkpt lat="45.8703918457031" lon="7.17593669891357">
    <ele>2409.40014648438</ele>
    <time>2012-06-25T16:43:09Z</time>
   </trkpt>
   <trkpt lat="45.8703727722168" lon="7.17591667175293">
    <ele>2409.80004882812</ele>
    <time>2012-06-25T16:43:10Z</time>
   </trkpt>
   <trkpt lat="45.8703460693359" lon="7.17587375640869">
    <ele>2409.80004882812</ele>
    <time>2012-06-25T16:43:12Z</time>
   </trkpt>
   <trkpt lat="45.8703002929688" lon="7.17580556869507">
    <ele>2410.80004882812</ele>
    <time>2012-06-25T16:43:15Z</time>
   </trkpt>
   <trkpt lat="45.8702812194824" lon="7.17578125">
    <ele>2411.13330078125</ele>
    <time>2012-06-25T16:43:16Z</time>
   </trkpt>
   <trkpt lat="45.8702697753906" lon="7.17575740814209">
    <ele>2411.466796875</ele>
    <time>2012-06-25T16:43:17Z</time>
   </trkpt>
   <trkpt lat="45.8702583312988" lon="7.17572975158691">
    <ele>2411.80004882812</ele>
    <time>2012-06-25T16:43:18Z</time>
   </trkpt>
   <trkpt lat="45.8702201843262" lon="7.1756477355957">
    <ele>2411.80004882812</ele>
    <time>2012-06-25T16:43:21Z</time>
   </trkpt>
   <trkpt lat="45.8701972961426" lon="7.17559003829956">
    <ele>2412.53344726562</ele>
    <time>2012-06-25T16:43:23Z</time>
   </trkpt>
   <trkpt lat="45.8701858520508" lon="7.17555856704712">
    <ele>2412.89990234375</ele>
    <time>2012-06-25T16:43:24Z</time>
   </trkpt>
   <trkpt lat="45.8701820373535" lon="7.1755256652832">
    <ele>2413.2666015625</ele>
    <time>2012-06-25T16:43:25Z</time>
   </trkpt>
   <trkpt lat="45.8701782226562" lon="7.17549848556518">
    <ele>2413.63330078125</ele>
    <time>2012-06-25T16:43:26Z</time>
   </trkpt>
   <trkpt lat="45.870174407959" lon="7.17546892166138">
    <ele>2414</ele>
    <time>2012-06-25T16:43:27Z</time>
   </trkpt>
   <trkpt lat="45.8701667785644" lon="7.17544364929199">
    <ele>2414</ele>
    <time>2012-06-25T16:43:28Z</time>
   </trkpt>
   <trkpt lat="45.8701667785644" lon="7.17539596557617">
    <ele>2414.61547851562</ele>
    <time>2012-06-25T16:43:30Z</time>
   </trkpt>
   <trkpt lat="45.8701667785644" lon="7.17536544799805">
    <ele>2414.92309570312</ele>
    <time>2012-06-25T16:43:31Z</time>
   </trkpt>
   <trkpt lat="45.8701667785644" lon="7.17533016204834">
    <ele>2415.23071289062</ele>
    <time>2012-06-25T16:43:32Z</time>
   </trkpt>
   <trkpt lat="45.8701667785644" lon="7.1752986907959">
    <ele>2415.53857421875</ele>
    <time>2012-06-25T16:43:33Z</time>
   </trkpt>
   <trkpt lat="45.8701591491699" lon="7.17527103424072">
    <ele>2415.84619140625</ele>
    <time>2012-06-25T16:43:34Z</time>
   </trkpt>
   <trkpt lat="45.8701629638672" lon="7.17518329620361">
    <ele>2416.76928710938</ele>
    <time>2012-06-25T16:43:37Z</time>
   </trkpt>
   <trkpt lat="45.8701591491699" lon="7.1751594543457">
    <ele>2417.07690429688</ele>
    <time>2012-06-25T16:43:38Z</time>
   </trkpt>
   <trkpt lat="45.8701553344727" lon="7.17513179779053">
    <ele>2417.38452148438</ele>
    <time>2012-06-25T16:43:39Z</time>
   </trkpt>
   <trkpt lat="45.8701515197754" lon="7.17509841918945">
    <ele>2417.6923828125</ele>
    <time>2012-06-25T16:43:40Z</time>
   </trkpt>
   <trkpt lat="45.8701515197754" lon="7.17506980895996">
    <ele>2418</ele>
    <time>2012-06-25T16:43:41Z</time>
   </trkpt>
   <trkpt lat="45.8701324462891" lon="7.17501068115234">
    <ele>2418</ele>
    <time>2012-06-25T16:43:43Z</time>
   </trkpt>
   <trkpt lat="45.8700981140137" lon="7.17488193511963">
    <ele>2419.22216796875</ele>
    <time>2012-06-25T16:43:48Z</time>
   </trkpt>
   <trkpt lat="45.8700866699219" lon="7.17485427856445">
    <ele>2419.46655273438</ele>
    <time>2012-06-25T16:43:49Z</time>
   </trkpt>
   <trkpt lat="45.8700752258301" lon="7.17482805252075">
    <ele>2419.71118164062</ele>
    <time>2012-06-25T16:43:50Z</time>
   </trkpt>
   <trkpt lat="45.8700637817383" lon="7.17479705810547">
    <ele>2419.95556640625</ele>
    <time>2012-06-25T16:43:51Z</time>
   </trkpt>
   <trkpt lat="45.8700523376465" lon="7.17477035522461">
    <ele>2420.19995117188</ele>
    <time>2012-06-25T16:43:52Z</time>
   </trkpt>
   <trkpt lat="45.8700256347656" lon="7.17466974258423">
    <ele>2420.19995117188</ele>
    <time>2012-06-25T16:43:56Z</time>
   </trkpt>
   <trkpt lat="45.8700141906738" lon="7.17464351654053">
    <ele>2420.59985351562</ele>
    <time>2012-06-25T16:43:57Z</time>
   </trkpt>
   <trkpt lat="45.8700065612793" lon="7.17461538314819">
    <ele>2421</ele>
    <time>2012-06-25T16:43:58Z</time>
   </trkpt>
   <trkpt lat="45.8699951171875" lon="7.17459201812744">
    <ele>2421.39990234375</ele>
    <time>2012-06-25T16:43:59Z</time>
   </trkpt>
   <trkpt lat="45.8699836730957" lon="7.174560546875">
    <ele>2421.80004882812</ele>
    <time>2012-06-25T16:44:00Z</time>
   </trkpt>
   <trkpt lat="45.8699798583984" lon="7.17452812194824">
    <ele>2422.19995117188</ele>
    <time>2012-06-25T16:44:01Z</time>
   </trkpt>
   <trkpt lat="45.8699798583984" lon="7.17449855804443">
    <ele>2422.19995117188</ele>
    <time>2012-06-25T16:44:02Z</time>
   </trkpt>
   <trkpt lat="45.8699645996094" lon="7.17434597015381">
    <ele>2423.42211914062</ele>
    <time>2012-06-25T16:44:07Z</time>
   </trkpt>
   <trkpt lat="45.8699607849121" lon="7.17431116104126">
    <ele>2423.66650390625</ele>
    <time>2012-06-25T16:44:08Z</time>
   </trkpt>
   <trkpt lat="45.8699531555176" lon="7.17428731918335">
    <ele>2423.9111328125</ele>
    <time>2012-06-25T16:44:09Z</time>
   </trkpt>
   <trkpt lat="45.869945526123" lon="7.17425680160522">
    <ele>2424.15551757812</ele>
    <time>2012-06-25T16:44:10Z</time>
   </trkpt>
   <trkpt lat="45.8699378967285" lon="7.17422866821289">
    <ele>2424.39990234375</ele>
    <time>2012-06-25T16:44:11Z</time>
   </trkpt>
   <trkpt lat="45.869930267334" lon="7.17416572570801">
    <ele>2424.39990234375</ele>
    <time>2012-06-25T16:44:13Z</time>
   </trkpt>
   <trkpt lat="45.8699188232422" lon="7.17413330078125">
    <ele>2424.8798828125</ele>
    <time>2012-06-25T16:44:14Z</time>
   </trkpt>
   <trkpt lat="45.8699150085449" lon="7.17409944534302">
    <ele>2425.35986328125</ele>
    <time>2012-06-25T16:44:15Z</time>
   </trkpt>
   <trkpt lat="45.8699111938477" lon="7.17406702041626">
    <ele>2425.84008789062</ele>
    <time>2012-06-25T16:44:16Z</time>
   </trkpt>
   <trkpt lat="45.8699035644531" lon="7.17403507232666">
    <ele>2426.32006835938</ele>
    <time>2012-06-25T16:44:17Z</time>
   </trkpt>
   <trkpt lat="45.8698959350586" lon="7.17400407791138">
    <ele>2426.80004882812</ele>
    <time>2012-06-25T16:44:18Z</time>
   </trkpt>
   <trkpt lat="45.8698844909668" lon="7.17397356033325">
    <ele>2426.80004882812</ele>
    <time>2012-06-25T16:44:19Z</time>
   </trkpt>
   <trkpt lat="45.8698501586914" lon="7.1738920211792">
    <ele>2427.6572265625</ele>
    <time>2012-06-25T16:44:22Z</time>
   </trkpt>
   <trkpt lat="45.8698387145996" lon="7.17386388778686">
    <ele>2427.94287109375</ele>
    <time>2012-06-25T16:44:23Z</time>
   </trkpt>
   <trkpt lat="45.8698234558106" lon="7.17383670806885">
    <ele>2428.228515625</ele>
    <time>2012-06-25T16:44:24Z</time>
   </trkpt>
   <trkpt lat="45.8698081970215" lon="7.17381238937378">
    <ele>2428.51440429688</ele>
    <time>2012-06-25T16:44:25Z</time>
   </trkpt>
   <trkpt lat="45.8697967529297" lon="7.17378568649292">
    <ele>2428.80004882812</ele>
    <time>2012-06-25T16:44:26Z</time>
   </trkpt>
   <trkpt lat="45.8697814941406" lon="7.17376565933228">
    <ele>2428.80004882812</ele>
    <time>2012-06-25T16:44:27Z</time>
   </trkpt>
   <trkpt lat="45.8697204589844" lon="7.17365264892578">
    <ele>2430.02221679688</ele>
    <time>2012-06-25T16:44:32Z</time>
   </trkpt>
   <trkpt lat="45.8697052001953" lon="7.17363023757935">
    <ele>2430.2666015625</ele>
    <time>2012-06-25T16:44:33Z</time>
   </trkpt>
   <trkpt lat="45.8696899414062" lon="7.17360734939575">
    <ele>2430.51123046875</ele>
    <time>2012-06-25T16:44:34Z</time>
   </trkpt>
   <trkpt lat="45.8696746826172" lon="7.17358589172363">
    <ele>2430.75561523438</ele>
    <time>2012-06-25T16:44:35Z</time>
   </trkpt>
   <trkpt lat="45.8696632385254" lon="7.17355632781982">
    <ele>2431</ele>
    <time>2012-06-25T16:44:36Z</time>
   </trkpt>
   <trkpt lat="45.8696022033691" lon="7.17342472076416">
    <ele>2432.22216796875</ele>
    <time>2012-06-25T16:44:41Z</time>
   </trkpt>
   <trkpt lat="45.8695869445801" lon="7.17340183258057">
    <ele>2432.46655273438</ele>
    <time>2012-06-25T16:44:42Z</time>
   </trkpt>
   <trkpt lat="45.8695793151856" lon="7.17336845397949">
    <ele>2432.71118164062</ele>
    <time>2012-06-25T16:44:43Z</time>
   </trkpt>
   <trkpt lat="45.8695678710938" lon="7.17334175109863">
    <ele>2432.95556640625</ele>
    <time>2012-06-25T16:44:44Z</time>
   </trkpt>
   <trkpt lat="45.8695526123047" lon="7.17331647872925">
    <ele>2433.19995117188</ele>
    <time>2012-06-25T16:44:45Z</time>
   </trkpt>
   <trkpt lat="45.8695259094238" lon="7.1732668876648">
    <ele>2433.19995117188</ele>
    <time>2012-06-25T16:44:47Z</time>
   </trkpt>
   <trkpt lat="45.8694953918457" lon="7.17321348190308">
    <ele>2433.93334960938</ele>
    <time>2012-06-25T16:44:49Z</time>
   </trkpt>
   <trkpt lat="45.8694801330566" lon="7.17318677902222">
    <ele>2434.2998046875</ele>
    <time>2012-06-25T16:44:50Z</time>
   </trkpt>
   <trkpt lat="45.8694648742676" lon="7.1731595993042">
    <ele>2434.66650390625</ele>
    <time>2012-06-25T16:44:51Z</time>
   </trkpt>
   <trkpt lat="45.8694534301758" lon="7.17313003540039">
    <ele>2435.033203125</ele>
    <time>2012-06-25T16:44:52Z</time>
   </trkpt>
   <trkpt lat="45.8694381713867" lon="7.17310523986816">
    <ele>2435.39990234375</ele>
    <time>2012-06-25T16:44:53Z</time>
   </trkpt>
   <trkpt lat="45.8694229125977" lon="7.17304611206055">
    <ele>2435.39990234375</ele>
    <time>2012-06-25T16:44:55Z</time>
   </trkpt>
   <trkpt lat="45.8694229125977" lon="7.17300844192505">
    <ele>2435.7998046875</ele>
    <time>2012-06-25T16:44:56Z</time>
   </trkpt>
   <trkpt lat="45.8694229125977" lon="7.17297267913818">
    <ele>2436.19995117188</ele>
    <time>2012-06-25T16:44:57Z</time>
   </trkpt>
   <trkpt lat="45.8694229125977" lon="7.17294359207153">
    <ele>2436.59985351562</ele>
    <time>2012-06-25T16:44:58Z</time>
   </trkpt>
   <trkpt lat="45.8694267272949" lon="7.17291116714478">
    <ele>2437</ele>
    <time>2012-06-25T16:44:59Z</time>
   </trkpt>
   <trkpt lat="45.8694267272949" lon="7.17288112640381">
    <ele>2437.39990234375</ele>
    <time>2012-06-25T16:45:00Z</time>
   </trkpt>
   <trkpt lat="45.8694229125977" lon="7.17285203933716">
    <ele>2437.39990234375</ele>
    <time>2012-06-25T16:45:01Z</time>
   </trkpt>
   <trkpt lat="45.8694343566894" lon="7.17278909683228">
    <ele>2438.13330078125</ele>
    <time>2012-06-25T16:45:03Z</time>
   </trkpt>
   <trkpt lat="45.8694381713867" lon="7.17275857925415">
    <ele>2438.5</ele>
    <time>2012-06-25T16:45:04Z</time>
   </trkpt>
   <trkpt lat="45.869441986084" lon="7.17272567749024">
    <ele>2438.86669921875</ele>
    <time>2012-06-25T16:45:05Z</time>
   </trkpt>
   <trkpt lat="45.8694458007812" lon="7.17269086837768">
    <ele>2439.2333984375</ele>
    <time>2012-06-25T16:45:06Z</time>
   </trkpt>
   <trkpt lat="45.8694496154785" lon="7.17265892028809">
    <ele>2439.60009765625</ele>
    <time>2012-06-25T16:45:07Z</time>
   </trkpt>
   <trkpt lat="45.8694534301758" lon="7.17262983322144">
    <ele>2439.60009765625</ele>
    <time>2012-06-25T16:45:08Z</time>
   </trkpt>
   <trkpt lat="45.869457244873" lon="7.17248106002808">
    <ele>2440.9599609375</ele>
    <time>2012-06-25T16:45:13Z</time>
   </trkpt>
   <trkpt lat="45.869457244873" lon="7.17244720458984">
    <ele>2441.23193359375</ele>
    <time>2012-06-25T16:45:14Z</time>
   </trkpt>
   <trkpt lat="45.869457244873" lon="7.17241525650024">
    <ele>2441.50415039062</ele>
    <time>2012-06-25T16:45:15Z</time>
   </trkpt>
   <trkpt lat="45.869457244873" lon="7.1723804473877">
    <ele>2441.77612304688</ele>
    <time>2012-06-25T16:45:16Z</time>
   </trkpt>
   <trkpt lat="45.8694610595703" lon="7.17234516143799">
    <ele>2442.04809570312</ele>
    <time>2012-06-25T16:45:17Z</time>
   </trkpt>
   <trkpt lat="45.8694343566894" lon="7.17218685150146">
    <ele>2443.40795898438</ele>
    <time>2012-06-25T16:45:22Z</time>
   </trkpt>
   <trkpt lat="45.8694305419922" lon="7.17215394973755">
    <ele>2443.67993164062</ele>
    <time>2012-06-25T16:45:23Z</time>
   </trkpt>
   <trkpt lat="45.8694229125977" lon="7.17212295532226">
    <ele>2443.95190429688</ele>
    <time>2012-06-25T16:45:24Z</time>
   </trkpt>
   <trkpt lat="45.8694114685059" lon="7.1720929145813">
    <ele>2444.22387695312</ele>
    <time>2012-06-25T16:45:25Z</time>
   </trkpt>
   <trkpt lat="45.8694038391113" lon="7.17206192016602">
    <ele>2444.49584960938</ele>
    <time>2012-06-25T16:45:26Z</time>
   </trkpt>
   <trkpt lat="45.8693695068359" lon="7.17197608947754">
    <ele>2445.31201171875</ele>
    <time>2012-06-25T16:45:29Z</time>
   </trkpt>
   <trkpt lat="45.8693504333496" lon="7.1719536781311">
    <ele>2445.583984375</ele>
    <time>2012-06-25T16:45:30Z</time>
   </trkpt>
   <trkpt lat="45.8693351745606" lon="7.1719274520874">
    <ele>2445.85595703125</ele>
    <time>2012-06-25T16:45:31Z</time>
   </trkpt>
   <trkpt lat="45.8693161010742" lon="7.17190265655518">
    <ele>2446.1279296875</ele>
    <time>2012-06-25T16:45:32Z</time>
   </trkpt>
   <trkpt lat="45.8692970275879" lon="7.17187738418579">
    <ele>2446.39990234375</ele>
    <time>2012-06-25T16:45:33Z</time>
   </trkpt>
   <trkpt lat="45.8692626953125" lon="7.17181539535522">
    <ele>2446.39990234375</ele>
    <time>2012-06-25T16:45:35Z</time>
   </trkpt>
   <trkpt lat="45.8691749572754" lon="7.17165756225586">
    <ele>2447.49072265625</ele>
    <time>2012-06-25T16:45:41Z</time>
   </trkpt>
   <trkpt lat="45.8691520690918" lon="7.17160606384277">
    <ele>2447.8544921875</ele>
    <time>2012-06-25T16:45:43Z</time>
   </trkpt>
   <trkpt lat="45.8691444396973" lon="7.17157411575317">
    <ele>2448.03637695312</ele>
    <time>2012-06-25T16:45:44Z</time>
   </trkpt>
   <trkpt lat="45.8691329956055" lon="7.171546459198">
    <ele>2448.21801757812</ele>
    <time>2012-06-25T16:45:45Z</time>
   </trkpt>
   <trkpt lat="45.8691177368164" lon="7.17151117324829">
    <ele>2448.39990234375</ele>
    <time>2012-06-25T16:45:46Z</time>
   </trkpt>
   <trkpt lat="45.8690948486328" lon="7.17145490646362">
    <ele>2448.39990234375</ele>
    <time>2012-06-25T16:45:48Z</time>
   </trkpt>
   <trkpt lat="45.8690567016602" lon="7.1713399887085">
    <ele>2449.39990234375</ele>
    <time>2012-06-25T16:45:52Z</time>
   </trkpt>
   <trkpt lat="45.8690490722656" lon="7.1713080406189">
    <ele>2449.64990234375</ele>
    <time>2012-06-25T16:45:53Z</time>
   </trkpt>
   <trkpt lat="45.8690414428711" lon="7.17127418518066">
    <ele>2449.89990234375</ele>
    <time>2012-06-25T16:45:54Z</time>
   </trkpt>
   <trkpt lat="45.869026184082" lon="7.17124509811401">
    <ele>2450.14990234375</ele>
    <time>2012-06-25T16:45:55Z</time>
   </trkpt>
   <trkpt lat="45.869010925293" lon="7.17121458053589">
    <ele>2450.39990234375</ele>
    <time>2012-06-25T16:45:56Z</time>
   </trkpt>
   <trkpt lat="45.8690032958984" lon="7.17118263244629">
    <ele>2450.39990234375</ele>
    <time>2012-06-25T16:45:57Z</time>
   </trkpt>
   <trkpt lat="45.8689804077148" lon="7.17105293273926">
    <ele>2451.5</ele>
    <time>2012-06-25T16:46:01Z</time>
   </trkpt>
   <trkpt lat="45.8689765930176" lon="7.17101764678955">
    <ele>2451.77490234375</ele>
    <time>2012-06-25T16:46:02Z</time>
   </trkpt>
   <trkpt lat="45.868968963623" lon="7.17098808288574">
    <ele>2452.05004882812</ele>
    <time>2012-06-25T16:46:03Z</time>
   </trkpt>
   <trkpt lat="45.868968963623" lon="7.17096757888794">
    <ele>2452.3251953125</ele>
    <time>2012-06-25T16:46:04Z</time>
   </trkpt>
   <trkpt lat="45.868968963623" lon="7.17093896865845">
    <ele>2452.60009765625</ele>
    <time>2012-06-25T16:46:05Z</time>
   </trkpt>
   <trkpt lat="45.8689422607422" lon="7.17085790634155">
    <ele>2452.60009765625</ele>
    <time>2012-06-25T16:46:08Z</time>
   </trkpt>
   <trkpt lat="45.8689346313477" lon="7.17080736160278">
    <ele>2453.85717773438</ele>
    <time>2012-06-25T16:46:10Z</time>
   </trkpt>
   <trkpt lat="45.8689422607422" lon="7.17077445983887">
    <ele>2454.48583984375</ele>
    <time>2012-06-25T16:46:11Z</time>
   </trkpt>
   <trkpt lat="45.8689460754394" lon="7.17074108123779">
    <ele>2455.1142578125</ele>
    <time>2012-06-25T16:46:12Z</time>
   </trkpt>
   <trkpt lat="45.8689575195312" lon="7.1707010269165">
    <ele>2455.74291992188</ele>
    <time>2012-06-25T16:46:13Z</time>
   </trkpt>
   <trkpt lat="45.8689727783203" lon="7.17066669464111">
    <ele>2456.37133789062</ele>
    <time>2012-06-25T16:46:14Z</time>
   </trkpt>
   <trkpt lat="45.8689804077148" lon="7.17064142227173">
    <ele>2457</ele>
    <time>2012-06-25T16:46:15Z</time>
   </trkpt>
   <trkpt lat="45.8689956665039" lon="7.17060422897339">
    <ele>2457</ele>
    <time>2012-06-25T16:46:16Z</time>
   </trkpt>
   <trkpt lat="45.8690071105957" lon="7.17057228088379">
    <ele>2456.58544921875</ele>
    <time>2012-06-25T16:46:17Z</time>
   </trkpt>
   <trkpt lat="45.8690567016602" lon="7.17044687271118">
    <ele>2454.9267578125</ele>
    <time>2012-06-25T16:46:21Z</time>
   </trkpt>
   <trkpt lat="45.8690910339356" lon="7.17038059234619">
    <ele>2454.09765625</ele>
    <time>2012-06-25T16:46:23Z</time>
   </trkpt>
   <trkpt lat="45.8691635131836" lon="7.17027425765991">
    <ele>2452.85375976562</ele>
    <time>2012-06-25T16:46:26Z</time>
   </trkpt>
   <trkpt lat="45.8692588806152" lon="7.17009353637695">
    <ele>2451.60986328125</ele>
    <time>2012-06-25T16:46:29Z</time>
   </trkpt>
   <trkpt lat="45.8692970275879" lon="7.17002487182617">
    <ele>2451.19506835938</ele>
    <time>2012-06-25T16:46:30Z</time>
   </trkpt>
   <trkpt lat="45.869327545166" lon="7.16995763778686">
    <ele>2450.78051757812</ele>
    <time>2012-06-25T16:46:31Z</time>
   </trkpt>
   <trkpt lat="45.8693618774414" lon="7.16987466812134">
    <ele>2450.36596679688</ele>
    <time>2012-06-25T16:46:32Z</time>
   </trkpt>
   <trkpt lat="45.8693962097168" lon="7.16978788375854">
    <ele>2449.951171875</ele>
    <time>2012-06-25T16:46:33Z</time>
   </trkpt>
   <trkpt lat="45.8694305419922" lon="7.16969156265259">
    <ele>2449.53662109375</ele>
    <time>2012-06-25T16:46:34Z</time>
   </trkpt>
   <trkpt lat="45.8694534301758" lon="7.16959524154663">
    <ele>2449.1220703125</ele>
    <time>2012-06-25T16:46:35Z</time>
   </trkpt>
   <trkpt lat="45.8694763183594" lon="7.16948890686035">
    <ele>2448.70727539062</ele>
    <time>2012-06-25T16:46:36Z</time>
   </trkpt>
   <trkpt lat="45.869499206543" lon="7.16937923431396">
    <ele>2448.29272460938</ele>
    <time>2012-06-25T16:46:37Z</time>
   </trkpt>
   <trkpt lat="45.8695182800293" lon="7.16926431655884">
    <ele>2447.8779296875</ele>
    <time>2012-06-25T16:46:38Z</time>
   </trkpt>
   <trkpt lat="45.8695373535156" lon="7.16914749145508">
    <ele>2447.46337890625</ele>
    <time>2012-06-25T16:46:39Z</time>
   </trkpt>
   <trkpt lat="45.869556427002" lon="7.16902780532837">
    <ele>2447.048828125</ele>
    <time>2012-06-25T16:46:40Z</time>
   </trkpt>
   <trkpt lat="45.8695755004883" lon="7.1689076423645">
    <ele>2446.63403320312</ele>
    <time>2012-06-25T16:46:41Z</time>
   </trkpt>
   <trkpt lat="45.8695907592773" lon="7.16878128051758">
    <ele>2446.21948242188</ele>
    <time>2012-06-25T16:46:42Z</time>
   </trkpt>
   <trkpt lat="45.8696136474609" lon="7.16865539550781">
    <ele>2445.80493164062</ele>
    <time>2012-06-25T16:46:43Z</time>
   </trkpt>
   <trkpt lat="45.8696174621582" lon="7.1683988571167">
    <ele>2444.9755859375</ele>
    <time>2012-06-25T16:46:45Z</time>
   </trkpt>
   <trkpt lat="45.8695907592773" lon="7.16826868057251">
    <ele>2444.56103515625</ele>
    <time>2012-06-25T16:46:46Z</time>
   </trkpt>
   <trkpt lat="45.8695640563965" lon="7.16814708709717">
    <ele>2444.14624023438</ele>
    <time>2012-06-25T16:46:47Z</time>
   </trkpt>
   <trkpt lat="45.8695411682129" lon="7.16802215576172">
    <ele>2443.73168945312</ele>
    <time>2012-06-25T16:46:48Z</time>
   </trkpt>
   <trkpt lat="45.869514465332" lon="7.16788339614868">
    <ele>2443.31713867188</ele>
    <time>2012-06-25T16:46:49Z</time>
   </trkpt>
   <trkpt lat="45.8694801330566" lon="7.16774940490723">
    <ele>2442.90234375</ele>
    <time>2012-06-25T16:46:50Z</time>
   </trkpt>
   <trkpt lat="45.869441986084" lon="7.16762161254883">
    <ele>2442.48779296875</ele>
    <time>2012-06-25T16:46:51Z</time>
   </trkpt>
   <trkpt lat="45.8694038391113" lon="7.16748809814453">
    <ele>2442.0732421875</ele>
    <time>2012-06-25T16:46:52Z</time>
   </trkpt>
   <trkpt lat="45.8693695068359" lon="7.16735601425171">
    <ele>2441.65844726562</ele>
    <time>2012-06-25T16:46:53Z</time>
   </trkpt>
   <trkpt lat="45.8693428039551" lon="7.16720628738403">
    <ele>2441.24389648438</ele>
    <time>2012-06-25T16:46:54Z</time>
   </trkpt>
   <trkpt lat="45.8693199157715" lon="7.16705799102783">
    <ele>2440.82934570312</ele>
    <time>2012-06-25T16:46:55Z</time>
   </trkpt>
   <trkpt lat="45.8693046569824" lon="7.16690826416016">
    <ele>2440.41455078125</ele>
    <time>2012-06-25T16:46:56Z</time>
   </trkpt>
   <trkpt lat="45.8693008422852" lon="7.16675758361816">
    <ele>2440</ele>
    <time>2012-06-25T16:46:57Z</time>
   </trkpt>
   <trkpt lat="45.8693008422852" lon="7.16639375686646">
    <ele>2440</ele>
    <time>2012-06-25T16:47:00Z</time>
   </trkpt>
   <trkpt lat="45.8692588806152" lon="7.1660680770874">
    <ele>2439.16015625</ele>
    <time>2012-06-25T16:47:03Z</time>
   </trkpt>
   <trkpt lat="45.8692245483398" lon="7.16596508026123">
    <ele>2438.88012695312</ele>
    <time>2012-06-25T16:47:04Z</time>
   </trkpt>
   <trkpt lat="45.8691864013672" lon="7.16586399078369">
    <ele>2438.60009765625</ele>
    <time>2012-06-25T16:47:05Z</time>
   </trkpt>
  </trkseg>
 </trk>
</gpx>